# Wetter Temperatur Luftdruck Luftfeuchtigkeit Sichtweite Windgeschwindigkeit Windrichtung Zeit
1 Clear 28 1017 43 10000 5.14 60 14:35 07.10.2022
2 Clear 25 1018 55 10000 6.17 80 11:48 07.10.2022
3 Clear 19 1018 73 10000 3.09 60 09:26 07.10.2022
4 Clear 19 1018 73 10000 3.09 40 08:47 07.10.2022
5 Clear 20 1018 70 10000 2.57 40 05:51 07.10.2022
6 Clear 23 1019 64 10000 0.89 265 00:41 07.10.2022
7 Clear 25 1019 59 10000 3.6 230 22:50 06.10.2022
8 Clear 26 1018 52 10000 2.57 130 21:42 06.10.2022
9 Clear 27 1018 49 10000 2.57 130 21:22 06.10.2022
10 Clear 30 1017 39 10000 2.06 130 19:50 06.10.2022
11 Clear 30 1017 39 10000 2.06 130 19:50 06.10.2022
12 Clear 31 1017 36 10000 5.14 90 18:37 06.10.2022
13 Clear 31 1017 37 10000 5.14 90 18:37 06.10.2022
14 Clear 31 1017 36 10000 4.63 100 17:50 06.10.2022
15 Clear 30 1019 43 10000 4.63 120 14:24 06.10.2022
16 Clear 23 1021 65 10000 3.6 50 11:24 06.10.2022
17 Clear 20 1020 72 10000 1.34 82 06:53 06.10.2022
18 Clear 22 1020 65 10000 2.57 190 03:34 06.10.2022
19 Clear 25 1019 55 10000 3.09 220 23:20 05.10.2022
20 Clear 27 1018 46 10000 2.24 241 21:21 05.10.2022
21 Clear 32 1017 32 10000 3.6 220 18:57 05.10.2022
22 Clear 32 1017 32 10000 1.79 209 17:35 05.10.2022
23 Clear 32 1017 35 10000 1.79 213 15:55 05.10.2022
24 Clear 30 1018 37 10000 2.06 0 14:47 05.10.2022
25 Clear 29 1019 44 10000 1.54 300 13:56 05.10.2022
26 Clear 24 1020 54 10000 2.06 20 12:20 05.10.2022
27 Clear 19 1019 72 10000 2.06 350 09:21 05.10.2022
28 Clear 19 1018 76 10000 1.03 180 07:43 05.10.2022
29 Clear 20 1017 72 10000 1.03 140 05:39 05.10.2022
30 Clear 20 1017 68 10000 0.89 205 04:18 05.10.2022
31 Clear 24 1018 52 10000 1.03 0 00:46 05.10.2022
32 Clear 24 1018 51 10000 1.03 0 00:24 05.10.2022
33 Clear 26 1018 47 10000 2.24 287 22:37 04.10.2022
34 Clear 30 1017 38 10000 2.06 230 20:39 04.10.2022
35 Clear 33 1016 31 10000 3.09 220 18:58 04.10.2022
36 Clear 33 1016 30 10000 2.57 220 18:38 04.10.2022
37 Clear 33 1016 31 10000 2.57 230 17:48 04.10.2022
38 Clear 32 1017 32 10000 1.54 300 16:35 04.10.2022
39 Clear 28 1019 46 10000 1.03 60 13:19 04.10.2022
40 Mist 18 1020 96 1200 2.57 40 09:46 04.10.2022
41 Fog 18 1018 93 250 1.54 70 07:24 04.10.2022
42 Clear 20 1019 85 10000 2.24 191 02:27 04.10.2022
43 Clear 22 1019 72 10000 3.09 200 23:41 03.10.2022
44 Clear 25 1018 58 10000 3.6 210 21:53 03.10.2022
45 Clear 25 1018 54 10000 3.6 210 21:23 03.10.2022
46 Clear 28 1018 46 10000 4.63 210 20:19 03.10.2022
47 Clear 31 1017 35 10000 4.63 230 18:28 03.10.2022
48 Clear 31 1018 34 10000 3.6 240 17:26 03.10.2022
49 Clear 30 1019 36 10000 3.09 210 15:47 03.10.2022
50 Clear 29 1020 36 10000 2.24 254 14:20 03.10.2022
51 Clear 26 1020 41 10000 2.06 70 12:30 03.10.2022
52 Clear 21 1020 52 10000 1.54 10 10:40 03.10.2022
53 Clear 20 1019 55 10000 1.34 24 09:40 03.10.2022
54 Clear 20 1018 57 10000 1.54 40 07:27 03.10.2022
55 Clear 22 1018 47 10000 1.03 310 03:34 03.10.2022
56 Clear 25 1018 42 10000 1.54 290 22:50 02.10.2022
57 Clear 27 1017 37 10000 1.54 90 21:26 02.10.2022
58 Clear 31 1016 28 10000 5.14 80 19:28 02.10.2022
59 Clear 32 1016 27 10000 5.66 80 17:54 02.10.2022
60 Clear 32 1016 26 10000 6.69 80 16:48 02.10.2022
61 Clear 32 1016 26 10000 7.2 80 16:26 02.10.2022
62 Clear 30 1018 25 10000 6.17 60 14:53 02.10.2022
63 Clear 29 1020 25 10000 6.17 60 13:46 02.10.2022
64 Clear 25 1021 33 10000 5.14 60 12:38 02.10.2022
65 Clear 23 1020 40 10000 5.66 60 11:41 02.10.2022
66 Clear 22 1020 41 10000 5.66 60 11:23 02.10.2022
67 Clear 19 1021 50 10000 6.69 50 09:45 02.10.2022
68 Clear 17 1020 58 10000 4.63 60 08:27 02.10.2022
69 Clear 18 1021 59 10000 6.17 80 05:18 02.10.2022
70 Clear 20 1022 50 10000 3.09 20 00:56 02.10.2022
71 Clear 21 1022 48 10000 2.57 20 00:36 02.10.2022
72 Clear 22 1021 44 10000 3.09 130 23:24 01.10.2022
73 Clear 25 1021 35 10000 3.6 110 20:55 01.10.2022
74 Clear 28 1020 28 10000 4.12 70 18:54 01.10.2022
75 Clear 28 1020 29 10000 5.14 100 17:25 01.10.2022
76 Clear 27 1022 31 10000 5.66 120 14:44 01.10.2022
77 Clear 26 1023 34 10000 4.63 100 13:43 01.10.2022
78 Clear 23 1023 41 10000 5.14 70 12:34 01.10.2022
79 Clear 20 1023 49 10000 5.14 50 11:22 01.10.2022
80 Clear 19 1022 50 10000 5.14 50 10:44 01.10.2022
81 Clear 17 1022 56 10000 4.63 50 10:25 01.10.2022
82 Clear 15 1021 62 10000 3.09 40 09:21 01.10.2022
83 Clear 15 1021 63 10000 4.12 30 08:26 01.10.2022
84 Clear 17 1019 68 10000 2.06 50 03:39 01.10.2022
85 Clear 19 1018 61 10000 0.89 12 01:31 01.10.2022
86 Clear 20 1017 58 10000 1.34 328 23:21 30.09.2022
87 Clear 22 1017 54 10000 2.06 190 21:57 30.09.2022
88 Clear 24 1015 45 10000 1.03 170 20:45 30.09.2022
89 Clear 24 1015 44 10000 0.51 0 20:20 30.09.2022
90 Clear 26 1014 39 10000 1.54 90 18:27 30.09.2022
91 Clouds 25 1014 42 10000 2.06 190 16:32 30.09.2022
92 Clear 23 1015 48 10000 4.63 60 14:23 30.09.2022
93 Clear 21 1015 59 10000 5.14 80 12:29 30.09.2022
94 Clear 19 1014 64 10000 5.66 40 11:55 30.09.2022
95 Clear 15 1013 80 10000 3.6 30 09:24 30.09.2022
96 Clear 15 1011 83 10000 2.06 40 07:50 30.09.2022
97 Clear 16 1010 87 10000 2.57 310 03:19 30.09.2022
98 Clouds 17 1010 89 10000 2.06 270 01:23 30.09.2022
99 Clouds 19 1010 89 10000 3.09 270 21:40 29.09.2022
100 Clouds 19 1010 89 10000 3.09 270 21:19 29.09.2022
101 Rain 18 1010 88 8000 7.72 300 19:56 29.09.2022
102 Clear 26 1008 47 10000 8.75 280 17:49 29.09.2022
103 Clear 26 1009 47 10000 4.63 210 16:29 29.09.2022
104 Clear 25 1010 46 10000 5.66 240 15:37 29.09.2022
105 Clear 24 1011 48 10000 5.14 260 14:59 29.09.2022
106 Clouds 20 1013 59 10000 3.6 280 12:39 29.09.2022
107 Clear 14 1012 80 10000 2.06 310 08:45 29.09.2022
108 Clear 17 1012 69 10000 4.12 290 04:46 29.09.2022
109 Clear 19 1013 63 10000 2.57 250 02:36 29.09.2022
110 Clear 20 1013 76 10000 4.63 210 23:26 28.09.2022
111 Clear 21 1013 71 10000 6.69 220 21:40 28.09.2022
112 Clear 22 1013 69 10000 6.69 220 21:22 28.09.2022
113 Clear 23 1012 65 10000 8.75 220 19:56 28.09.2022
114 Clear 27 1013 47 10000 5.66 210 16:52 28.09.2022
115 Clear 26 1015 41 10000 5.66 230 14:35 28.09.2022
116 Clear 21 1016 59 10000 2.06 190 11:49 28.09.2022
117 Clear 17 1016 74 10000 0.89 359 09:49 28.09.2022
118 Clear 15 1016 82 10000 2.57 210 07:52 28.09.2022
119 Clear 16 1016 80 10000 1.03 0 06:27 28.09.2022
120 Clear 18 1016 71 10000 3.09 180 01:47 28.09.2022
121 Clear 18 1016 71 10000 3.6 190 01:25 28.09.2022
122 Clear 21 1016 55 10000 3.13 236 22:49 27.09.2022
123 Clear 23 1016 45 10000 5.14 230 21:20 27.09.2022
124 Clear 25 1015 36 10000 7.72 240 20:35 27.09.2022
125 Clear 26 1015 36 10000 8.23 250 19:45 27.09.2022
126 Clear 29 1015 26 10000 5.66 220 17:54 27.09.2022
127 Clear 29 1015 26 10000 6.69 240 17:32 27.09.2022
128 Clear 28 1016 30 10000 3.6 280 15:23 27.09.2022
129 Clear 27 1017 36 10000 3.09 240 14:24 27.09.2022
130 Clear 23 1018 59 10000 2.06 210 12:39 27.09.2022
131 Clear 23 1018 59 10000 2.06 210 12:39 27.09.2022
132 Clear 20 1018 75 10000 1.54 170 10:49 27.09.2022
133 Clear 16 1016 86 10000 0.51 330 08:46 27.09.2022
134 Clear 16 1016 84 10000 1.54 160 05:49 27.09.2022
135 Clear 18 1016 81 10000 3.09 210 01:43 27.09.2022
136 Clear 19 1016 80 10000 2.06 210 00:50 27.09.2022
137 Clear 20 1015 73 10000 3.6 220 23:25 26.09.2022
138 Clear 21 1015 62 10000 4.63 220 22:19 26.09.2022
139 Clear 24 1013 48 10000 4.63 220 20:27 26.09.2022
140 Clear 25 1013 38 10000 4.63 210 19:30 26.09.2022
141 Clear 26 1012 37 10000 5.66 230 18:31 26.09.2022
142 Clear 26 1013 37 10000 4.63 240 15:52 26.09.2022
143 Clear 23 1013 55 10000 4.12 220 13:30 26.09.2022
144 Clouds 20 1013 69 10000 2.57 190 11:29 26.09.2022
145 Clear 18 1013 80 10000 2.06 180 10:37 26.09.2022
146 Clear 18 1013 80 10000 2.06 180 10:19 26.09.2022
147 Clear 17 1012 83 10000 1.54 120 09:53 26.09.2022
148 Clear 16 1011 85 10000 2.06 100 09:22 26.09.2022
149 Clear 16 1010 86 10000 1.03 200 07:30 26.09.2022
150 Clear 18 1010 81 10000 2.06 190 02:48 26.09.2022
151 Clear 20 1009 77 10000 6.17 220 23:29 25.09.2022
152 Clear 21 1009 70 10000 7.2 220 21:54 25.09.2022
153 Clear 22 1008 66 10000 7.2 220 21:34 25.09.2022
154 Clear 22 1008 58 10000 7.72 220 20:45 25.09.2022
155 Clear 24 1007 46 10000 8.23 220 19:32 25.09.2022
156 Clouds 25 1007 40 10000 7.2 220 18:35 25.09.2022
157 Clouds 26 1007 40 10000 6.17 200 17:52 25.09.2022
158 Clouds 27 1007 38 10000 6.69 220 16:22 25.09.2022
159 Clouds 27 1007 37 10000 5.14 240 15:43 25.09.2022
160 Clouds 26 1009 41 10000 5.14 240 14:21 25.09.2022
161 Clouds 24 1010 55 10000 3.6 220 12:49 25.09.2022
162 Clear 20 1010 62 10000 1.03 0 10:29 25.09.2022
163 Clear 16 1009 71 10000 2.06 160 08:24 25.09.2022
164 Clear 18 1010 67 10000 1.03 0 05:38 25.09.2022
165 Clear 22 1011 49 10000 3.09 260 01:32 25.09.2022
166 Clear 25 1010 39 10000 4.12 290 22:35 24.09.2022
167 Clear 27 1009 31 10000 6.17 270 20:55 24.09.2022
168 Clear 30 1009 28 10000 7.2 270 19:22 24.09.2022
169 Clear 31 1009 32 10000 4.63 290 17:19 24.09.2022
170 Clear 31 1010 33 10000 5.14 230 16:24 24.09.2022
171 Clear 30 1010 35 10000 3.09 250 15:19 24.09.2022
172 Clear 28 1012 39 10000 2.06 290 13:25 24.09.2022
173 Clear 27 1013 42 10000 2.57 10 12:49 24.09.2022
174 Clear 22 1013 65 10000 2.06 350 10:38 24.09.2022
175 Clear 20 1012 73 10000 1.34 334 09:35 24.09.2022
176 Clear 19 1012 75 10000 0.89 5 08:43 24.09.2022
177 Clear 20 1012 83 10000 1.54 210 06:53 24.09.2022
178 Clear 21 1012 78 10000 3.09 210 04:35 24.09.2022
179 Clear 22 1013 68 10000 3.6 200 02:19 24.09.2022
180 Clear 27 1013 54 10000 2.57 240 22:28 23.09.2022
181 Clear 28 1013 48 10000 4.12 240 21:28 23.09.2022
182 Clouds 29 1012 48 10000 3.13 241 20:55 23.09.2022
183 Clear 30 1012 43 10000 3.6 230 20:19 23.09.2022
184 Clear 33 1012 37 10000 3.09 250 18:27 23.09.2022
185 Clear 29 1016 53 10000 1.54 0 13:45 23.09.2022
186 Clear 23 1016 72 10000 1.54 70 10:45 23.09.2022
187 Clear 21 1016 85 10000 1.54 50 09:29 23.09.2022
188 Clear 21 1015 86 10000 3.6 180 04:59 23.09.2022
189 Clear 24 1016 66 10000 2.57 220 23:31 22.09.2022
190 Clear 25 1015 63 10000 5.14 220 22:41 22.09.2022
191 Clear 26 1015 62 10000 5.14 220 22:19 22.09.2022
192 Clear 28 1014 55 10000 5.66 210 20:46 22.09.2022
193 Clouds 31 1013 41 10000 3.6 220 19:27 22.09.2022
194 Clouds 31 1014 42 10000 2.57 280 16:57 22.09.2022
195 Clear 25 1017 72 10000 2.06 220 12:19 22.09.2022
196 Clouds 21 1016 90 7000 1.03 0 10:20 22.09.2022
197 Mist 19 1016 94 3000 1.03 280 08:46 22.09.2022
198 Mist 20 1015 92 1200 1.54 230 06:42 22.09.2022
199 Clear 21 1015 84 10000 1.79 188 02:52 22.09.2022
200 Clear 24 1015 75 10000 3.6 210 23:25 21.09.2022
201 Clear 26 1014 65 10000 4.63 250 21:41 21.09.2022
202 Clouds 28 1013 58 10000 4.12 220 20:18 21.09.2022
203 Clouds 30 1013 51 10000 3.6 250 17:48 21.09.2022
204 Clouds 30 1013 50 10000 3.09 200 16:51 21.09.2022
205 Clouds 28 1016 54 10000 2.06 0 14:31 21.09.2022
206 Clouds 27 1017 55 10000 1.79 210 12:54 21.09.2022
207 Clouds 25 1016 63 10000 2.06 220 11:29 21.09.2022
208 Clouds 23 1015 74 10000 2.06 220 09:55 21.09.2022
209 Clear 22 1016 76 10000 2.57 250 09:21 21.09.2022
210 Clear 22 1015 75 10000 2.06 220 07:41 21.09.2022
211 Clear 24 1015 69 10000 4.12 230 02:48 21.09.2022
212 Clear 24 1015 67 10000 5.14 220 02:28 21.09.2022
213 Clear 25 1015 65 10000 4.12 220 00:44 21.09.2022
214 Clear 26 1014 62 10000 6.17 240 23:18 20.09.2022
215 Clouds 30 1012 49 10000 6.17 220 20:52 20.09.2022
216 Clear 32 1012 45 10000 3.6 210 19:37 20.09.2022
217 Clear 32 1012 46 10000 1.54 310 16:28 20.09.2022
218 Clear 31 1014 49 10000 1.54 360 14:51 20.09.2022
219 Clear 30 1015 53 10000 1.34 319 13:48 20.09.2022
220 Clear 25 1015 72 10000 1.03 0 10:33 20.09.2022
221 Clear 22 1014 81 10000 1.03 220 08:28 20.09.2022
222 Clear 23 1014 80 10000 3.09 200 05:48 20.09.2022
223 Clear 24 1014 78 10000 2.57 220 04:28 20.09.2022
224 Clear 25 1014 72 10000 4.63 260 23:32 19.09.2022
225 Clear 26 1014 69 10000 5.14 250 22:23 19.09.2022
226 Clear 27 1012 65 10000 6.17 250 20:57 19.09.2022
227 Clear 28 1012 62 10000 6.17 250 20:38 19.09.2022
228 Clear 33 1011 41 10000 4.12 230 17:55 19.09.2022
229 Clear 32 1012 42 10000 2.57 80 15:53 19.09.2022
230 Clear 30 1014 49 10000 2.06 110 13:35 19.09.2022
231 Clear 27 1014 60 10000 1.03 0 11:30 19.09.2022
232 Clear 23 1012 78 10000 2.06 80 09:20 19.09.2022
233 Clear 23 1012 79 10000 3.6 40 08:19 19.09.2022
234 Clear 25 1011 71 10000 2.06 260 02:18 19.09.2022
235 Clouds 27 1010 60 10000 3.09 250 23:24 18.09.2022
236 Rain 29 1008 54 10000 2.57 200 21:47 18.09.2022
237 Rain 31 1007 48 10000 5.66 220 20:34 18.09.2022
238 Clouds 34 1006 37 10000 5.66 110 18:42 18.09.2022
239 Clouds 35 1006 36 10000 6.17 120 17:45 18.09.2022
240 Clouds 34 1007 37 10000 3.6 160 16:32 18.09.2022
241 Clouds 32 1008 41 10000 3.6 90 14:35 18.09.2022
242 Clouds 30 1009 44 10000 4.63 110 12:56 18.09.2022
243 Clouds 28 1010 52 10000 1.34 98 11:51 18.09.2022
244 Clear 22 1008 71 10000 1.79 43 06:45 18.09.2022
245 Clear 24 1009 68 10000 1.03 170 01:32 18.09.2022
246 Clear 25 1008 63 10000 2.57 190 00:49 18.09.2022
247 Clear 27 1007 58 10000 4.63 210 22:24 17.09.2022
248 Clear 30 1006 50 10000 3.09 250 20:50 17.09.2022
249 Clear 33 1006 40 10000 2.57 220 19:28 17.09.2022
250 Clear 32 1007 40 10000 2.06 280 17:21 17.09.2022
251 Clear 29 1009 53 10000 2.57 220 14:18 17.09.2022
252 Clear 26 1010 64 10000 1.54 160 12:44 17.09.2022
253 Clear 23 1010 74 10000 0.51 150 10:48 17.09.2022
254 Clear 20 1009 81 10000 0.45 237 06:31 17.09.2022
255 Clear 20 1010 78 10000 2.57 180 04:35 17.09.2022
256 Clear 25 1010 61 10000 5.14 280 23:36 16.09.2022
257 Clear 26 1010 60 10000 2.68 259 21:47 16.09.2022
258 Clear 30 1009 46 10000 2.24 211 20:42 16.09.2022
259 Clear 32 1009 41 10000 2.06 320 18:43 16.09.2022
260 Clear 30 1010 44 10000 2.57 310 16:22 16.09.2022
261 Clear 29 1012 50 10000 2.06 330 14:51 16.09.2022
262 Clear 26 1013 62 10000 1.54 170 12:52 16.09.2022
263 Clear 20 1013 87 10000 0.89 329 09:55 16.09.2022
264 Clear 19 1013 90 10000 0.89 181 07:23 16.09.2022
265 Clear 19 1013 90 10000 1.03 0 06:48 16.09.2022
266 Clear 19 1013 89 10000 2.06 200 05:55 16.09.2022
267 Clear 21 1014 83 10000 2.57 190 01:45 16.09.2022
268 Clear 24 1013 68 10000 3.09 240 21:34 15.09.2022
269 Clouds 26 1012 60 10000 4.12 220 20:37 15.09.2022
270 Clouds 28 1012 55 10000 5.14 220 19:24 15.09.2022
271 Clouds 28 1012 53 10000 3.09 270 17:40 15.09.2022
272 Clouds 27 1012 54 10000 3.09 270 17:22 15.09.2022
273 Clouds 27 1013 52 10000 2.57 250 15:38 15.09.2022
274 Clouds 25 1015 65 10000 2.57 260 12:50 15.09.2022
275 Clouds 24 1015 71 10000 1.34 178 11:47 15.09.2022
276 Clouds 21 1014 90 10000 2.57 210 09:44 15.09.2022
277 Clouds 20 1013 92 10000 2.57 200 06:45 15.09.2022
278 Clouds 21 1013 89 10000 3.6 220 03:29 15.09.2022
279 Clouds 22 1013 81 10000 4.12 220 22:51 14.09.2022
280 Clouds 24 1012 63 10000 6.17 240 20:31 14.09.2022
281 Clouds 26 1011 59 10000 7.72 230 19:32 14.09.2022
282 Clouds 27 1011 54 10000 7.2 220 17:37 14.09.2022
283 Clouds 27 1011 54 10000 8.23 230 16:36 14.09.2022
284 Clouds 27 1012 53 10000 6.69 240 14:51 14.09.2022
285 Clouds 25 1012 67 10000 4.63 210 12:38 14.09.2022
286 Clouds 21 1011 93 6000 2.57 210 09:52 14.09.2022
287 Clouds 20 1010 94 9000 3.09 210 08:28 14.09.2022
288 Clouds 20 1010 92 10000 1.54 220 06:50 14.09.2022
289 Clouds 21 1009 93 10000 2.06 210 06:28 14.09.2022
290 Clouds 21 1010 91 10000 3.6 220 02:43 14.09.2022
291 Clouds 22 1010 89 10000 3.6 210 01:34 14.09.2022
292 Clouds 22 1010 88 10000 4.63 220 00:52 14.09.2022
293 Clouds 22 1010 87 10000 4.63 220 23:54 13.09.2022
294 Clouds 22 1010 87 10000 5.14 220 23:36 13.09.2022
295 Clouds 22 1010 87 10000 5.14 220 23:18 13.09.2022
296 Clouds 22 1010 85 10000 5.14 220 22:28 13.09.2022
297 Clouds 23 1009 82 10000 6.17 220 21:38 13.09.2022
298 Clouds 25 1009 69 10000 8.23 220 18:56 13.09.2022
299 Clouds 25 1008 72 10000 8.23 230 16:39 13.09.2022
300 Clouds 25 1009 69 10000 9.26 220 15:19 13.09.2022
301 Clouds 26 1009 68 10000 8.23 220 13:40 13.09.2022
302 Clouds 22 1008 89 10000 5.14 210 10:30 13.09.2022
303 Clouds 22 1008 92 10000 3.6 200 07:56 13.09.2022
304 Clouds 22 1008 89 10000 5.66 190 02:27 13.09.2022
305 Rain 22 1008 86 10000 3.09 210 23:22 12.09.2022
306 Clouds 22 1008 86 10000 3.6 180 22:44 12.09.2022
307 Rain 23 1007 85 10000 4.12 230 21:35 12.09.2022
308 Rain 23 1009 77 10000 5.14 210 20:22 12.09.2022
309 Clear 27 1006 66 10000 4.12 300 18:24 12.09.2022
310 Clear 26 1008 67 10000 3.6 270 15:53 12.09.2022
311 Rain 24 1009 80 10000 1.54 330 12:35 12.09.2022
312 Clear 23 1008 82 10000 2.06 320 10:31 12.09.2022
313 Rain 22 1009 85 10000 1.34 158 08:58 12.09.2022
314 Clear 24 1009 69 10000 3.09 220 04:39 12.09.2022
315 Clouds 25 1010 58 10000 3.58 260 02:25 12.09.2022
316 Clear 29 1009 42 10000 3.09 250 22:46 11.09.2022
317 Clear 30 1009 37 10000 3.6 230 21:40 11.09.2022
318 Clear 32 1008 33 10000 3.09 210 20:44 11.09.2022
319 Clear 35 1008 31 10000 7.72 230 19:45 11.09.2022
320 Clear 35 1008 29 10000 7.72 230 19:21 11.09.2022
321 Clear 38 1008 27 10000 4.12 230 17:47 11.09.2022
322 Clear 36 1010 29 10000 5.14 230 16:23 11.09.2022
323 Clear 34 1011 35 10000 2.06 170 14:18 11.09.2022
324 Clear 29 1012 46 10000 3.09 40 12:31 11.09.2022
325 Clouds 21 1013 76 10000 1.54 20 08:27 11.09.2022
326 Clear 22 1013 75 10000 1.03 110 06:33 11.09.2022
327 Clear 25 1014 62 10000 3.09 210 00:49 11.09.2022
328 Clear 30 1014 37 10000 3.09 210 22:26 10.09.2022
329 Clear 34 1012 33 10000 4.12 220 20:51 10.09.2022
330 Clear 34 1012 35 10000 5.14 220 19:46 10.09.2022
331 Clear 35 1012 33 10000 5.14 240 19:27 10.09.2022
332 Clear 35 1012 32 10000 5.66 230 17:59 10.09.2022
333 Clear 35 1014 38 10000 4.12 240 15:45 10.09.2022
334 Clear 33 1015 43 10000 2.57 220 14:37 10.09.2022
335 Clear 30 1016 48 10000 1.03 360 12:52 10.09.2022
336 Clear 26 1015 64 10000 0.51 0 10:35 10.09.2022
337 Clear 23 1015 70 10000 1.54 60 09:24 10.09.2022
338 Clear 22 1015 74 10000 2.57 100 08:27 10.09.2022
339 Clear 22 1014 72 10000 1.54 120 05:50 10.09.2022
340 Clear 27 1015 57 10000 3.6 210 23:56 09.09.2022
341 Clear 28 1015 55 10000 3.6 210 23:29 09.09.2022
342 Clear 31 1014 48 10000 4.12 240 21:38 09.09.2022
343 Clear 34 1012 41 10000 3.13 243 20:31 09.09.2022
344 Clear 36 1012 33 10000 2.06 220 19:24 09.09.2022
345 Clear 36 1013 33 10000 1.79 140 18:38 09.09.2022
346 Clear 34 1014 37 10000 1.54 260 16:21 09.09.2022
347 Clear 32 1016 42 10000 2.57 80 13:48 09.09.2022
348 Clear 29 1017 56 10000 4.12 30 11:58 09.09.2022
349 Clear 24 1016 67 10000 2.57 40 09:22 09.09.2022
350 Clear 23 1015 69 10000 0.51 0 04:57 09.09.2022
351 Clear 25 1016 63 10000 3.09 170 02:54 09.09.2022
352 Clear 27 1014 58 10000 5.66 220 21:52 08.09.2022
353 Clear 30 1013 50 10000 6.69 220 20:51 08.09.2022
354 Clear 31 1013 46 10000 5.66 220 20:31 08.09.2022
355 Clear 33 1013 42 10000 6.17 220 19:49 08.09.2022
356 Clear 34 1013 33 10000 2.57 230 17:48 08.09.2022
357 Clear 33 1014 33 10000 2.57 270 16:19 08.09.2022
358 Clear 31 1015 33 10000 2.57 340 14:40 08.09.2022
359 Clear 29 1016 38 10000 2.06 70 13:26 08.09.2022
360 Clear 26 1016 47 10000 4.12 20 11:39 08.09.2022
361 Clear 25 1016 51 10000 4.12 30 10:52 08.09.2022
362 Clear 21 1015 63 10000 1.54 10 08:21 08.09.2022
363 Clear 21 1015 63 10000 1.79 18 06:41 08.09.2022
364 Clear 22 1015 55 10000 2.57 170 02:36 08.09.2022
365 Clear 22 1015 56 10000 2.57 170 02:18 08.09.2022
366 Clear 24 1016 46 10000 2.06 260 00:27 08.09.2022
367 Clear 25 1015 45 10000 3.6 210 22:44 07.09.2022
368 Clear 28 1014 33 10000 6.17 220 21:42 07.09.2022
369 Clear 30 1013 30 10000 4.63 220 20:49 07.09.2022
370 Clear 32 1013 26 10000 3.09 180 19:40 07.09.2022
371 Clear 33 1013 23 10000 1.79 298 17:49 07.09.2022
372 Clear 28 1016 37 10000 2.06 30 12:52 07.09.2022
373 Clear 24 1016 45 10000 4.12 20 10:48 07.09.2022
374 Clear 22 1016 50 10000 2.57 10 09:19 07.09.2022
375 Clear 21 1015 53 10000 2.57 20 07:23 07.09.2022
376 Clear 22 1016 60 10000 2.06 160 03:19 07.09.2022
377 Clear 25 1016 58 10000 3.09 240 23:38 06.09.2022
378 Clear 27 1015 54 10000 5.66 240 21:42 06.09.2022
379 Clear 29 1014 47 10000 4.63 230 20:45 06.09.2022
380 Clear 33 1014 31 10000 4.12 280 18:45 06.09.2022
381 Clear 33 1014 32 10000 4.12 260 18:22 06.09.2022
382 Clear 33 1015 33 10000 2.24 222 17:22 06.09.2022
383 Clear 32 1016 36 10000 2.57 0 16:37 06.09.2022
384 Clear 31 1017 39 10000 2.06 30 15:22 06.09.2022
385 Clear 29 1018 43 10000 1.34 194 13:45 06.09.2022
386 Clear 29 1018 43 10000 1.34 194 13:45 06.09.2022
387 Clear 28 1019 48 10000 2.57 80 13:24 06.09.2022
388 Clear 25 1019 59 10000 3.09 40 11:59 06.09.2022
389 Clear 23 1019 66 10000 2.57 30 10:41 06.09.2022
390 Clear 19 1019 82 10000 0.51 310 08:50 06.09.2022
391 Clear 19 1018 83 10000 1.03 130 07:49 06.09.2022
392 Clear 20 1018 79 10000 2.57 200 03:31 06.09.2022
393 Clear 23 1019 66 10000 3.6 210 23:28 05.09.2022
394 Clear 25 1019 61 10000 3.6 230 22:29 05.09.2022
395 Clear 27 1019 52 10000 7.2 220 20:43 05.09.2022
396 Clear 31 1016 41 10000 4.12 210 19:26 05.09.2022
397 Clear 32 1017 38 10000 2.57 230 18:46 05.09.2022
398 Clear 32 1017 34 10000 3.13 272 18:21 05.09.2022
399 Clear 31 1017 33 10000 3.6 260 16:53 05.09.2022
400 Clear 30 1018 33 10000 3.09 270 15:50 05.09.2022
401 Clear 27 1020 47 10000 2.24 200 13:26 05.09.2022
402 Clear 26 1020 51 10000 2.06 220 12:28 05.09.2022
403 Clear 22 1020 68 10000 1.03 0 10:24 05.09.2022
404 Clear 18 1018 81 10000 0.51 0 06:46 05.09.2022
405 Clear 20 1018 76 10000 3.6 190 02:42 05.09.2022
406 Clear 22 1018 63 10000 4.12 210 23:28 04.09.2022
407 Clear 23 1018 57 10000 4.63 220 22:28 04.09.2022
408 Clear 25 1016 51 10000 5.14 220 21:34 04.09.2022
409 Clear 29 1015 37 10000 7.2 220 19:38 04.09.2022
410 Clear 31 1015 31 10000 3.09 210 18:20 04.09.2022
411 Clear 31 1015 33 10000 3.6 270 17:19 04.09.2022
412 Clear 28 1016 39 10000 2.57 270 14:36 04.09.2022
413 Clear 28 1016 40 10000 2.57 270 14:18 04.09.2022
414 Clear 25 1017 49 10000 1.03 160 12:21 04.09.2022
415 Clear 22 1017 62 10000 1.54 350 10:47 04.09.2022
416 Clear 17 1016 83 10000 1.34 325 08:21 04.09.2022
417 Clear 18 1014 81 10000 1.54 100 06:21 04.09.2022
418 Clear 20 1014 76 10000 3.09 200 01:31 04.09.2022
419 Clear 23 1013 61 10000 5.14 220 22:26 03.09.2022
420 Clear 24 1012 57 10000 5.66 220 21:24 03.09.2022
421 Clear 26 1012 52 10000 8.23 220 20:26 03.09.2022
422 Clear 31 1011 32 10000 6.17 250 17:35 03.09.2022
423 Clear 31 1012 32 10000 4.12 230 16:34 03.09.2022
424 Clear 29 1013 38 10000 3.6 250 14:47 03.09.2022
425 Clear 28 1013 40 10000 3.6 250 14:26 03.09.2022
426 Clear 27 1014 45 10000 3.09 230 13:39 03.09.2022
427 Clear 23 1014 59 10000 2.06 320 11:24 03.09.2022
428 Clear 20 1013 72 10000 0.89 12 08:55 03.09.2022
429 Clear 20 1013 73 10000 0.45 326 06:59 03.09.2022
430 Clear 21 1013 71 10000 0.51 150 04:43 03.09.2022
431 Clear 22 1012 67 10000 3.6 210 00:48 03.09.2022
432 Clear 23 1013 63 10000 6.17 220 23:28 02.09.2022
433 Clear 26 1011 56 10000 6.69 220 21:36 02.09.2022
434 Clouds 28 1011 51 10000 4.02 232 20:40 02.09.2022
435 Clear 31 1011 38 10000 4.63 240 19:47 02.09.2022
436 Clear 33 1011 28 10000 5.14 240 18:43 02.09.2022
437 Clear 33 1011 27 10000 5.14 240 18:24 02.09.2022
438 Clear 33 1012 24 10000 5.14 240 16:56 02.09.2022
439 Clear 32 1012 23 10000 3.6 250 16:22 02.09.2022
440 Clear 28 1014 44 10000 2.57 210 12:58 02.09.2022
441 Clear 23 1014 62 10000 1.79 336 10:37 02.09.2022
442 Clear 23 1014 63 10000 0.89 325 09:41 02.09.2022
443 Clear 21 1014 69 10000 1.54 180 08:42 02.09.2022
444 Clear 22 1013 67 10000 1.03 0 06:43 02.09.2022
445 Clear 23 1013 64 10000 1.03 120 05:32 02.09.2022
446 Clear 25 1013 50 10000 3.09 210 22:58 01.09.2022
447 Clear 26 1012 49 10000 4.12 220 21:46 01.09.2022
448 Clear 26 1012 49 10000 4.12 220 21:26 01.09.2022
449 Clear 27 1012 49 10000 6.69 220 20:52 01.09.2022
450 Clear 31 1013 35 10000 7.2 220 19:25 01.09.2022
451 Clear 33 1013 29 10000 3.09 230 18:18 01.09.2022
452 Clear 33 1013 31 10000 3.09 260 16:51 01.09.2022
453 Clear 30 1015 36 10000 2.57 230 14:51 01.09.2022
454 Clear 28 1015 46 10000 2.24 259 13:21 01.09.2022
455 Clear 27 1014 49 10000 3.09 40 12:50 01.09.2022
456 Clear 25 1014 54 10000 4.63 30 11:51 01.09.2022
457 Clear 24 1014 61 10000 1.54 40 11:19 01.09.2022
458 Clear 20 1014 74 10000 1.03 140 09:31 01.09.2022
459 Clear 19 1013 77 10000 0.45 336 06:34 01.09.2022
460 Clear 21 1014 74 10000 3.6 200 02:34 01.09.2022
461 Clear 22 1015 68 10000 4.12 200 01:30 01.09.2022
462 Clear 22 1015 68 10000 4.12 200 01:30 01.09.2022
463 Clear 22 1015 68 10000 4.12 200 01:30 01.09.2022
464 Clear 22 1015 68 10000 4.12 200 01:30 01.09.2022
465 Clear 26 1014 47 10000 5.14 210 22:22 31.08.2022
466 Clear 32 1013 28 10000 5.66 210 20:43 31.08.2022
467 Clear 35 1013 21 10000 3.09 220 18:45 31.08.2022
468 Clear 34 1015 26 10000 3.6 250 16:36 31.08.2022
469 Clear 32 1016 32 10000 2.57 250 15:21 31.08.2022
470 Clear 28 1017 48 10000 1.54 230 12:58 31.08.2022
471 Clear 26 1018 57 10000 1.03 0 11:54 31.08.2022
472 Clear 21 1017 79 10000 1.03 280 09:35 31.08.2022
473 Clear 20 1017 81 10000 1.34 190 07:31 31.08.2022
474 Clear 22 1018 74 10000 1.03 0 02:25 31.08.2022
475 Clear 26 1017 60 10000 3.6 210 22:21 30.08.2022
476 Clear 27 1016 56 10000 1.79 189 21:27 30.08.2022
477 Rain 27 1017 61 10000 5.14 280 19:51 30.08.2022
478 Clouds 31 1017 45 10000 4.12 230 16:47 30.08.2022
479 Clear 30 1018 54 10000 2.57 250 13:38 30.08.2022
480 Clear 28 1016 64 10000 1.34 129 11:44 30.08.2022
481 Clear 28 1016 65 10000 1.03 0 11:19 30.08.2022
482 Clouds 24 1016 69 10000 2.06 130 09:32 30.08.2022
483 Clouds 23 1015 68 10000 2.06 140 06:26 30.08.2022
484 Clear 27 1015 65 10000 3.09 280 00:33 30.08.2022
485 Clear 28 1015 64 10000 3.6 230 22:37 29.08.2022
486 Clear 29 1014 60 10000 4.12 220 21:53 29.08.2022
487 Clouds 31 1012 60 10000 2.24 203 20:35 29.08.2022
488 Clear 32 1012 54 10000 4.12 230 18:59 29.08.2022
489 Clouds 32 1012 55 10000 4.12 230 17:33 29.08.2022
490 Clouds 32 1012 53 10000 2.57 280 16:58 29.08.2022
491 Clouds 31 1014 56 10000 4.63 230 15:19 29.08.2022
492 Clouds 30 1015 56 10000 3.6 240 13:54 29.08.2022
493 Clouds 28 1014 64 10000 2.57 230 12:24 29.08.2022
494 Clouds 26 1013 70 10000 2.06 230 10:48 29.08.2022
495 Clouds 24 1012 77 10000 1.34 190 09:19 29.08.2022
496 Clouds 23 1012 77 10000 1.54 210 07:20 29.08.2022
497 Clear 24 1011 77 10000 3.6 300 02:33 29.08.2022
498 Clear 26 1010 70 10000 6.17 220 23:36 28.08.2022
499 Clear 30 1009 60 10000 5.14 230 21:48 28.08.2022
500 Clear 31 1008 58 10000 5.14 220 21:27 28.08.2022
501 Clear 33 1007 51 10000 3.6 220 20:19 28.08.2022
502 Clouds 34 1007 47 10000 2.24 239 18:36 28.08.2022
503 Clouds 34 1007 47 10000 2.68 213 18:18 28.08.2022
504 Clouds 33 1008 47 10000 2.06 260 16:49 28.08.2022
505 Clouds 33 1009 47 10000 2.24 221 15:34 28.08.2022
506 Clouds 30 1009 55 10000 2.24 46 13:32 28.08.2022
507 Clouds 29 1010 61 10000 1.54 20 12:19 28.08.2022
508 Clear 26 1009 73 10000 2.06 40 10:22 28.08.2022
509 Clouds 25 1009 78 10000 1.54 30 09:24 28.08.2022
510 Clouds 24 1009 81 10000 1.54 50 08:28 28.08.2022
511 Clouds 24 1009 80 10000 1.03 0 07:27 28.08.2022
512 Clear 25 1009 74 10000 3.6 250 00:45 28.08.2022
513 Clear 25 1009 74 10000 1.34 227 23:48 27.08.2022
514 Clear 27 1008 68 10000 3.6 230 22:27 27.08.2022
515 Clear 27 1008 68 10000 3.6 230 22:27 27.08.2022
516 Clear 30 1006 57 10000 7.2 240 20:36 27.08.2022
517 Clear 32 1006 51 10000 7.2 230 19:29 27.08.2022
518 Clear 34 1007 36 10000 1.79 233 16:30 27.08.2022
519 Clear 33 1007 37 10000 2.68 199 15:31 27.08.2022
520 Clear 31 1008 45 10000 1.54 0 13:57 27.08.2022
521 Clear 29 1009 55 10000 1.54 300 12:22 27.08.2022
522 Clear 24 1009 64 10000 2.06 20 10:30 27.08.2022
523 Clear 22 1009 68 10000 1.54 350 09:39 27.08.2022
524 Clear 21 1009 74 10000 0.45 304 06:54 27.08.2022
525 Clear 22 1010 71 10000 5.66 180 02:24 27.08.2022
526 Clear 25 1010 51 10000 3.09 230 23:49 26.08.2022
527 Clear 29 1010 36 10000 3.6 230 21:53 26.08.2022
528 Clear 33 1007 31 10000 7.72 220 20:22 26.08.2022
529 Clear 35 1008 31 10000 6.17 220 18:32 26.08.2022
530 Clear 35 1008 37 10000 3.6 220 16:40 26.08.2022
531 Clear 34 1010 41 10000 4.63 250 15:26 26.08.2022
532 Clear 31 1012 50 10000 3.6 240 13:26 26.08.2022
533 Clear 28 1012 59 10000 3.6 220 12:34 26.08.2022
534 Clear 26 1012 64 10000 2.06 200 11:22 26.08.2022
535 Clear 24 1012 72 10000 1.54 200 09:59 26.08.2022
536 Clear 22 1011 78 10000 2.06 170 04:56 26.08.2022
537 Clear 24 1012 66 10000 4.12 210 01:18 26.08.2022
538 Clear 27 1013 57 10000 3.6 220 22:57 25.08.2022
539 Clear 31 1010 46 10000 6.17 220 20:59 25.08.2022
540 Clear 34 1010 42 10000 3.6 220 19:54 25.08.2022
541 Clear 35 1010 34 10000 1.79 167 18:47 25.08.2022
542 Clear 34 1011 37 10000 2.57 250 17:32 25.08.2022
543 Clear 33 1012 40 10000 2.06 220 16:46 25.08.2022
544 Clear 31 1013 47 10000 2.06 240 15:37 25.08.2022
545 Clear 30 1014 48 10000 1.54 0 14:30 25.08.2022
546 Clouds 25 1015 68 10000 1.54 330 11:34 25.08.2022
547 Clouds 23 1014 73 10000 1.54 260 10:46 25.08.2022
548 Clouds 22 1015 78 10000 0.51 0 08:41 25.08.2022
549 Clouds 21 1014 82 10000 2.06 210 04:59 25.08.2022
550 Clear 22 1014 79 10000 3.6 220 00:26 25.08.2022
551 Clear 23 1014 77 10000 5.14 220 23:25 24.08.2022
552 Clear 24 1012 72 10000 5.66 210 22:18 24.08.2022
553 Clear 26 1012 67 10000 5.14 220 21:32 24.08.2022
554 Clear 28 1011 62 10000 5.66 220 20:24 24.08.2022
555 Clear 31 1011 53 10000 6.17 220 18:39 24.08.2022
556 Clouds 33 1011 47 10000 4.63 220 16:28 24.08.2022
557 Clear 32 1012 47 10000 3.09 200 15:51 24.08.2022
558 Clouds 28 1013 63 10000 2.57 210 12:55 24.08.2022
559 Clouds 25 1013 75 10000 3.6 240 11:22 24.08.2022
560 Clear 23 1012 79 10000 1.03 0 09:20 24.08.2022
561 Clear 22 1012 80 10000 0.45 266 07:43 24.08.2022
562 Clear 24 1012 67 10000 2.06 210 02:25 24.08.2022
563 Clear 28 1013 59 10000 4.12 220 22:59 23.08.2022
564 Clear 28 1011 57 10000 4.12 220 22:29 23.08.2022
565 Clear 30 1010 49 10000 5.14 220 21:28 23.08.2022
566 Clear 33 1009 44 10000 5.14 220 19:57 23.08.2022
567 Clear 35 1009 41 10000 3.6 240 18:33 23.08.2022
568 Clear 35 1009 39 10000 3.6 240 17:48 23.08.2022
569 Clear 35 1010 36 10000 3.09 210 16:50 23.08.2022
570 Clear 33 1011 37 10000 2.57 230 15:23 23.08.2022
571 Clear 30 1012 49 10000 1.03 0 13:26 23.08.2022
572 Clear 30 1012 49 10000 1.03 0 13:26 23.08.2022
573 Clear 26 1012 67 10000 1.54 280 11:24 23.08.2022
574 Clear 25 1012 69 10000 1.03 0 10:36 23.08.2022
575 Clear 23 1012 72 10000 1.54 30 09:54 23.08.2022
576 Clear 21 1011 78 10000 1.54 70 08:51 23.08.2022
577 Clear 20 1011 80 10000 1.03 350 08:20 23.08.2022
578 Clear 20 1011 80 10000 1.34 343 08:20 23.08.2022
579 Clouds 20 1011 81 10000 1.34 2 07:34 23.08.2022
580 Clear 21 1010 80 10000 1.34 19 06:27 23.08.2022
581 Clear 21 1009 82 10000 0.51 160 04:38 23.08.2022
582 Clear 24 1010 70 10000 3.6 210 00:28 23.08.2022
583 Clear 25 1009 65 10000 3.6 220 23:33 22.08.2022
584 Clear 26 1009 59 10000 4.63 220 22:44 22.08.2022
585 Clear 29 1008 46 10000 5.14 210 21:29 22.08.2022
586 Clear 33 1008 35 10000 6.69 220 19:48 22.08.2022
587 Clear 36 1008 28 10000 5.66 220 18:50 22.08.2022
588 Clear 37 1008 23 10000 3.58 175 17:22 22.08.2022
589 Clear 37 1010 23 10000 3.6 240 15:39 22.08.2022
590 Clear 35 1011 25 10000 4.12 230 14:31 22.08.2022
591 Clear 27 1012 38 10000 0.51 0 10:43 22.08.2022
592 Clear 21 1011 59 10000 0.51 0 07:59 22.08.2022
593 Clear 23 1011 53 10000 2.57 160 04:30 22.08.2022
594 Clear 27 1012 42 10000 2.24 171 00:49 22.08.2022
595 Clear 27 1012 39 10000 2.24 173 00:26 22.08.2022
596 Clear 30 1013 29 10000 4.12 210 22:53 21.08.2022
597 Clear 33 1011 25 10000 6.69 220 21:36 21.08.2022
598 Clear 34 1012 23 10000 6.17 220 20:57 21.08.2022
599 Clear 39 1010 17 10000 5.66 220 19:27 21.08.2022
600 Clear 39 1011 19 10000 3.6 220 17:39 21.08.2022
601 Clear 38 1012 22 10000 3.09 260 15:58 21.08.2022
602 Clear 37 1013 22 10000 2.57 230 15:28 21.08.2022
603 Clear 36 1015 24 10000 1.54 240 13:58 21.08.2022
604 Clear 34 1015 30 10000 0.51 260 13:34 21.08.2022
605 Clear 31 1016 40 10000 0.51 30 11:56 21.08.2022
606 Clear 23 1016 65 10000 1.03 0 09:32 21.08.2022
607 Clear 22 1016 66 10000 0.45 36 08:56 21.08.2022
608 Clear 22 1015 67 10000 0.51 0 08:38 21.08.2022
609 Clear 22 1015 66 10000 2.57 190 07:28 21.08.2022
610 Clear 23 1015 61 10000 3.6 190 04:18 21.08.2022
611 Clear 28 1016 40 10000 3.09 200 00:31 21.08.2022
612 Clear 32 1016 23 10000 3.6 220 22:59 20.08.2022
613 Clear 34 1014 24 10000 5.14 230 21:43 20.08.2022
614 Clear 36 1014 24 10000 5.14 230 20:44 20.08.2022
615 Clear 38 1012 19 10000 2.06 220 19:41 20.08.2022
616 Clear 38 1013 19 10000 1.79 253 18:35 20.08.2022
617 Clear 39 1013 18 10000 2.57 350 17:58 20.08.2022
618 Clear 38 1013 19 10000 3.6 300 17:19 20.08.2022
619 Clear 37 1014 21 10000 2.06 330 15:51 20.08.2022
620 Clear 34 1015 27 10000 2.06 0 13:39 20.08.2022
621 Clear 30 1016 35 10000 1.03 0 11:53 20.08.2022
622 Clear 26 1016 44 10000 1.34 330 10:36 20.08.2022
623 Clear 23 1015 52 10000 1.54 50 09:18 20.08.2022
624 Clear 22 1014 50 10000 0 0 06:40 20.08.2022
625 Clear 24 1015 44 10000 2.06 160 03:57 20.08.2022
626 Clear 28 1015 39 10000 3.09 270 00:51 20.08.2022
627 Clear 30 1015 34 10000 3.6 250 23:21 19.08.2022
628 Clear 31 1013 32 10000 4.12 190 22:35 19.08.2022
629 Clear 37 1011 20 10000 4.63 90 20:30 19.08.2022
630 Clear 38 1011 19 10000 6.17 80 18:53 19.08.2022
631 Clear 37 1012 22 10000 2.68 42 15:54 19.08.2022
632 Clear 35 1014 26 10000 3.09 60 13:41 19.08.2022
633 Clear 30 1015 34 10000 6.69 80 11:40 19.08.2022
634 Clear 26 1015 43 10000 3.09 40 10:30 19.08.2022
635 Clear 21 1014 52 10000 1.54 50 07:25 19.08.2022
636 Clear 25 1013 43 10000 1.03 170 03:19 19.08.2022
637 Clear 27 1014 34 10000 1.03 330 00:36 19.08.2022
638 Clear 28 1014 32 10000 4.12 290 23:48 18.08.2022
639 Clear 29 1014 30 10000 3.09 310 22:53 18.08.2022
640 Clear 30 1012 30 10000 4.12 270 22:22 18.08.2022
641 Clear 32 1012 26 10000 2.24 262 21:45 18.08.2022
642 Clear 34 1012 18 10000 1.03 0 20:42 18.08.2022
643 Clear 36 1010 16 10000 1.03 80 19:32 18.08.2022
644 Clear 36 1011 17 10000 2.57 30 18:29 18.08.2022
645 Clear 35 1011 19 10000 2.06 60 17:32 18.08.2022
646 Clear 34 1012 23 10000 3.09 30 15:50 18.08.2022
647 Clear 32 1013 32 10000 2.57 360 14:21 18.08.2022
648 Clear 30 1013 38 10000 2.06 10 13:42 18.08.2022
649 Clear 28 1014 44 10000 1.54 70 12:27 18.08.2022
650 Clear 25 1013 54 10000 1.79 79 11:18 18.08.2022
651 Clear 22 1013 73 10000 0.51 0 09:43 18.08.2022
652 Clear 19 1011 78 10000 0.89 220 07:27 18.08.2022
653 Clear 20 1011 77 10000 3.6 180 06:18 18.08.2022
654 Clear 22 1011 69 10000 2.68 192 01:43 18.08.2022
655 Clear 25 1010 55 10000 4.63 200 22:32 17.08.2022
656 Clear 28 1009 47 10000 6.17 210 20:21 17.08.2022
657 Clear 29 1009 45 10000 7.2 220 19:55 17.08.2022
658 Clear 32 1009 34 10000 3.58 187 18:32 17.08.2022
659 Clear 32 1009 31 10000 4.63 220 16:52 17.08.2022
660 Clear 30 1010 33 10000 3.09 170 15:45 17.08.2022
661 Clear 29 1011 36 10000 2.57 240 14:36 17.08.2022
662 Clear 26 1011 46 10000 1.34 296 12:29 17.08.2022
663 Clear 23 1011 54 10000 1.54 30 10:59 17.08.2022
664 Clear 20 1010 63 10000 2.24 1 09:19 17.08.2022
665 Clear 20 1010 61 10000 2.57 320 06:29 17.08.2022
666 Clear 24 1011 46 10000 3.09 310 00:50 17.08.2022
667 Clear 26 1010 50 10000 3.09 300 23:18 16.08.2022
668 Clear 30 1008 41 10000 6.17 300 21:32 16.08.2022
669 Clouds 31 1007 38 10000 8.23 260 20:20 16.08.2022
670 Clouds 32 1007 34 10000 4.63 0 19:26 16.08.2022
671 Clouds 33 1007 29 10000 4.12 230 17:55 16.08.2022
672 Clear 32 1008 26 10000 5.66 260 16:48 16.08.2022
673 Clear 31 1010 32 10000 2.06 180 15:45 16.08.2022
674 Clear 31 1010 33 10000 3.09 230 14:54 16.08.2022
675 Clear 29 1010 38 10000 2.57 0 14:36 16.08.2022
676 Clear 26 1011 58 10000 1.03 0 12:33 16.08.2022
677 Clear 22 1011 78 10000 1.03 0 10:23 16.08.2022
678 Clear 20 1010 87 10000 0.51 0 08:54 16.08.2022
679 Clear 20 1010 89 10000 1.03 0 08:21 16.08.2022
680 Clouds 20 1010 87 10000 0.89 151 06:48 16.08.2022
681 Clear 22 1010 76 10000 3.6 200 00:32 16.08.2022
682 Clear 23 1010 65 10000 6.17 220 22:24 15.08.2022
683 Clear 24 1009 64 10000 7.2 220 21:51 15.08.2022
684 Clear 26 1008 58 10000 8.23 220 20:32 15.08.2022
685 Clear 27 1008 55 10000 8.23 220 19:59 15.08.2022
686 Clear 30 1008 46 10000 6.17 210 17:59 15.08.2022
687 Clear 32 1009 30 10000 4.63 230 16:25 15.08.2022
688 Clear 31 1009 31 10000 4.12 220 15:54 15.08.2022
689 Clear 29 1012 39 10000 3.6 240 13:54 15.08.2022
690 Clear 23 1011 62 10000 3.09 210 11:25 15.08.2022
691 Clear 20 1011 73 10000 3.09 170 09:42 15.08.2022
692 Clear 19 1010 77 10000 2.24 177 07:49 15.08.2022
693 Clear 21 1010 72 10000 2.57 200 04:35 15.08.2022
694 Clear 23 1010 67 10000 3.13 173 01:26 15.08.2022
695 Clear 26 1009 52 10000 5.66 220 22:39 14.08.2022
696 Clear 27 1008 47 10000 8.23 220 21:38 14.08.2022
697 Clear 31 1008 40 10000 8.75 210 19:54 14.08.2022
698 Clear 33 1007 34 10000 7.72 220 18:59 14.08.2022
699 Clear 35 1007 22 10000 6.17 210 18:19 14.08.2022
700 Clear 35 1008 20 10000 6.69 240 16:53 14.08.2022
701 Clear 36 1009 17 10000 6.17 220 15:49 14.08.2022
702 Clear 33 1009 30 10000 4.63 250 14:33 14.08.2022
703 Clear 33 1011 33 10000 3.6 240 13:50 14.08.2022
704 Clear 31 1010 39 10000 2.57 260 13:20 14.08.2022
705 Clear 30 1010 41 10000 1.34 147 12:34 14.08.2022
706 Clear 27 1011 48 10000 2.06 20 10:50 14.08.2022
707 Clear 23 1010 55 10000 1.79 17 08:52 14.08.2022
708 Clear 24 1010 57 10000 0.45 31 06:22 14.08.2022
709 Clear 26 1010 53 10000 0.89 2 02:57 14.08.2022
710 Clear 28 1010 54 10000 1.79 350 00:33 14.08.2022
711 Clear 29 1010 55 10000 2.57 10 22:56 13.08.2022
712 Clear 30 1009 54 10000 3.6 340 21:43 13.08.2022
713 Clear 30 1010 51 10000 5.66 300 20:46 13.08.2022
714 Clouds 30 1010 48 10000 8.75 120 19:45 13.08.2022
715 Clouds 33 1011 38 10000 6.17 70 17:59 13.08.2022
716 Clouds 30 1013 62 10000 5.14 360 15:40 13.08.2022
717 Clouds 28 1015 69 10000 6.17 330 14:32 13.08.2022
718 Thunderstorm 28 1013 64 10000 4.12 10 13:46 13.08.2022
719 Rain 30 1012 56 10000 4.63 100 11:53 13.08.2022
720 Clouds 27 1011 69 10000 4.63 310 10:31 13.08.2022
721 Clouds 27 1010 67 10000 4.12 140 09:19 13.08.2022
722 Clouds 27 1010 66 10000 2.57 240 05:57 13.08.2022
723 Clear 30 1012 56 10000 3.6 210 00:30 13.08.2022
724 Clear 33 1009 51 10000 2.57 180 22:26 12.08.2022
725 Clouds 36 1008 41 10000 2.57 200 21:20 12.08.2022
726 Clouds 37 1009 34 10000 3.09 180 19:44 12.08.2022
727 Clear 37 1010 33 10000 3.09 230 18:58 12.08.2022
728 Clear 38 1010 32 10000 2.24 208 17:58 12.08.2022
729 Clear 37 1010 38 10000 2.06 280 16:25 12.08.2022
730 Clear 35 1012 38 10000 2.06 310 14:50 12.08.2022
731 Clear 33 1012 45 10000 1.54 0 13:26 12.08.2022
732 Clear 29 1013 61 10000 2.57 310 11:40 12.08.2022
733 Clear 23 1013 70 10000 1.54 10 08:50 12.08.2022
734 Clear 23 1013 74 10000 0.89 354 07:45 12.08.2022
735 Clear 23 1012 74 10000 1.03 0 04:55 12.08.2022
736 Clear 25 1014 64 10000 3.09 210 00:31 12.08.2022
737 Clear 26 1014 63 10000 4.63 210 23:52 11.08.2022
738 Clear 27 1013 59 10000 5.14 210 22:45 11.08.2022
739 Clear 29 1012 54 10000 4.12 210 21:53 11.08.2022
740 Clear 31 1011 50 10000 5.14 220 21:26 11.08.2022
741 Clear 33 1010 47 10000 4.12 250 20:30 11.08.2022
742 Clear 34 1010 45 10000 4.12 240 19:33 11.08.2022
743 Clear 34 1010 43 10000 3.6 250 18:53 11.08.2022
744 Clear 33 1012 46 10000 4.12 250 16:46 11.08.2022
745 Clear 33 1012 50 10000 4.69 227 15:42 11.08.2022
746 Clear 29 1014 58 10000 1.54 220 14:36 11.08.2022
747 Clouds 25 1014 69 10000 2.06 310 11:56 11.08.2022
748 Clouds 23 1013 77 10000 0.51 0 08:57 11.08.2022
749 Clouds 22 1013 76 10000 0.89 169 05:58 11.08.2022
750 Clouds 22 1013 74 10000 2.57 210 02:38 11.08.2022
751 Clear 24 1013 70 10000 1.34 211 23:41 10.08.2022
752 Clear 26 1012 67 10000 5.66 220 21:47 10.08.2022
753 Clear 28 1011 62 10000 5.66 220 20:56 10.08.2022
754 Clear 29 1011 60 10000 5.66 220 20:35 10.08.2022
755 Clear 31 1011 56 10000 5.14 220 18:53 10.08.2022
756 Clear 32 1011 52 10000 5.66 220 17:27 10.08.2022
757 Clouds 32 1013 51 10000 4.12 240 14:53 10.08.2022
758 Clouds 30 1013 58 10000 2.57 180 13:33 10.08.2022
759 Clouds 26 1013 74 10000 2.57 260 10:51 10.08.2022
760 Clouds 23 1013 81 10000 1.34 181 08:42 10.08.2022
761 Clouds 23 1013 81 10000 1.54 210 07:35 10.08.2022
762 Clear 23 1013 80 10000 2.06 200 04:50 10.08.2022
763 Clear 26 1013 73 10000 2.06 210 01:52 10.08.2022
764 Clear 26 1013 70 10000 2.57 230 23:32 09.08.2022
765 Clear 27 1012 67 10000 3.6 240 22:47 09.08.2022
766 Clear 29 1011 60 10000 5.66 220 21:33 09.08.2022
767 Clear 33 1011 49 10000 3.13 247 19:33 09.08.2022
768 Clear 35 1011 43 10000 3.09 210 17:53 09.08.2022
769 Clear 35 1011 42 10000 3.09 260 17:26 09.08.2022
770 Clear 34 1012 37 10000 2.57 230 16:33 09.08.2022
771 Clear 33 1012 42 10000 2.57 0 15:26 09.08.2022
772 Clear 28 1014 49 10000 1.03 0 12:20 09.08.2022
773 Clear 20 1014 79 10000 0.51 50 08:55 09.08.2022
774 Clouds 20 1013 79 10000 1.54 150 08:26 09.08.2022
775 Clear 20 1013 78 10000 1.03 0 07:18 09.08.2022
776 Clear 21 1014 72 9000 2.06 210 02:54 09.08.2022
777 Clear 24 1014 59 10000 4.12 220 23:26 08.08.2022
778 Clear 24 1015 57 10000 4.63 220 22:52 08.08.2022
779 Clear 28 1014 39 10000 5.66 220 21:48 08.08.2022
780 Clear 28 1013 46 10000 4.63 220 20:52 08.08.2022
781 Clear 30 1012 42 10000 4.63 220 19:50 08.08.2022
782 Clear 30 1013 41 10000 4.63 230 18:19 08.08.2022
783 Clear 29 1014 44 10000 3.6 220 15:57 08.08.2022
784 Clear 29 1015 45 10000 4.63 230 15:38 08.08.2022
785 Clouds 25 1015 63 10000 3.6 220 12:39 08.08.2022
786 Clouds 24 1017 64 10000 3.09 240 11:48 08.08.2022
787 Clouds 21 1015 81 10000 1.54 160 09:29 08.08.2022
788 Clear 20 1014 83 10000 2.06 200 05:35 08.08.2022
789 Clear 21 1014 77 10000 3.6 220 01:56 08.08.2022
790 Clear 26 1012 56 10000 5.14 210 22:20 07.08.2022
791 Clear 28 1013 44 10000 5.66 210 21:38 07.08.2022
792 Clear 30 1012 44 10000 6.17 220 20:25 07.08.2022
793 Clear 30 1011 44 10000 6.69 220 19:54 07.08.2022
794 Clear 31 1011 44 10000 6.69 220 19:33 07.08.2022
795 Clear 32 1012 41 10000 6.69 220 18:22 07.08.2022
796 Clear 33 1012 38 10000 4.63 230 16:54 07.08.2022
797 Clear 33 1013 40 10000 5.66 250 16:28 07.08.2022
798 Clear 32 1013 44 10000 4.12 230 15:19 07.08.2022
799 Clear 29 1014 61 10000 2.68 180 13:22 07.08.2022
800 Clouds 24 1016 80 10000 3.09 230 10:59 07.08.2022
801 Clouds 22 1015 87 10000 1.79 182 10:33 07.08.2022
802 Clear 21 1014 87 10000 1.03 0 05:48 07.08.2022
803 Clear 22 1014 83 10000 2.57 210 03:19 07.08.2022
804 Clear 25 1015 67 10000 4.63 220 23:44 06.08.2022
805 Clear 28 1013 56 10000 3.6 210 22:20 06.08.2022
806 Clear 32 1012 42 10000 6.17 220 20:26 06.08.2022
807 Clear 33 1012 38 10000 5.14 220 19:41 06.08.2022
808 Clear 33 1012 38 10000 5.14 220 19:41 06.08.2022
809 Clear 34 1012 39 10000 5.66 230 18:28 06.08.2022
810 Clear 34 1012 42 10000 4.12 240 17:31 06.08.2022
811 Clouds 32 1015 50 10000 2.57 220 14:35 06.08.2022
812 Clouds 30 1016 53 10000 2.57 220 13:44 06.08.2022
813 Clouds 28 1015 70 10000 2.57 230 11:33 06.08.2022
814 Clouds 25 1015 78 10000 1.03 0 09:51 06.08.2022
815 Clear 23 1014 85 10000 1.34 7 08:32 06.08.2022
816 Clear 23 1013 82 10000 2.57 200 03:52 06.08.2022
817 Clear 28 1014 63 10000 3.6 220 23:36 05.08.2022
818 Clear 30 1011 60 10000 5.14 230 22:23 05.08.2022
819 Clear 35 1010 43 10000 5.14 230 19:46 05.08.2022
820 Clear 36 1010 39 10000 4.63 240 18:46 05.08.2022
821 Clear 36 1011 39 10000 4.63 240 18:22 05.08.2022
822 Clear 36 1012 37 10000 4.12 240 16:49 05.08.2022
823 Clear 34 1013 41 10000 4.12 0 15:22 05.08.2022
824 Clear 33 1014 40 10000 2.06 0 14:31 05.08.2022
825 Clear 32 1013 45 10000 2.24 203 13:24 05.08.2022
826 Clear 30 1013 58 10000 2.06 260 12:30 05.08.2022
827 Clear 27 1013 70 10000 1.54 290 10:53 05.08.2022
828 Clear 23 1012 81 10000 0.45 207 08:36 05.08.2022
829 Clear 23 1012 82 10000 1.03 0 07:23 05.08.2022
830 Clear 25 1013 69 10000 4.12 210 01:46 05.08.2022
831 Clear 30 1010 57 10000 4.63 230 22:33 04.08.2022
832 Clear 32 1009 47 10000 5.14 230 21:27 04.08.2022
833 Clear 34 1009 42 10000 5.14 220 20:45 04.08.2022
834 Clear 35 1008 40 10000 5.66 220 19:58 04.08.2022
835 Clear 35 1009 40 10000 4.12 230 18:52 04.08.2022
836 Clear 35 1009 41 10000 4.12 230 18:32 04.08.2022
837 Clouds 32 1011 47 10000 3.09 230 14:45 04.08.2022
838 Clouds 30 1012 56 10000 2.57 200 13:23 04.08.2022
839 Clouds 26 1013 69 10000 2.57 300 11:38 04.08.2022
840 Clouds 25 1012 79 10000 3.09 300 09:58 04.08.2022
841 Clear 23 1011 84 10000 2.06 230 07:44 04.08.2022
842 Clear 25 1010 66 10000 3.09 190 02:46 04.08.2022
843 Clear 28 1010 56 10000 3.6 210 23:58 03.08.2022
844 Clear 30 1011 45 10000 4.12 220 23:36 03.08.2022
845 Clear 33 1008 41 10000 5.14 220 21:27 03.08.2022
846 Clear 35 1008 39 10000 5.66 230 20:20 03.08.2022
847 Clear 37 1007 32 10000 5.66 220 18:53 03.08.2022
848 Clear 38 1009 25 10000 3.09 210 16:48 03.08.2022
849 Clear 38 1009 25 10000 4.63 210 16:22 03.08.2022
850 Clear 35 1011 29 10000 1.54 0 13:40 03.08.2022
851 Clear 29 1012 51 10000 1.03 0 10:50 03.08.2022
852 Clear 23 1010 69 10000 1.03 280 07:26 03.08.2022
853 Clear 25 1010 61 10000 1.34 168 04:22 03.08.2022
854 Clear 26 1010 57 10000 2.06 220 03:23 03.08.2022
855 Clear 28 1011 49 10000 3.09 210 00:49 03.08.2022
856 Clear 31 1011 43 10000 4.12 220 22:37 02.08.2022
857 Clear 33 1011 39 10000 5.14 220 21:51 02.08.2022
858 Clear 36 1009 34 10000 7.2 220 20:32 02.08.2022
859 Clear 39 1009 28 10000 3.6 220 18:34 02.08.2022
860 Clear 38 1012 27 10000 3.6 240 15:20 02.08.2022
861 Clear 30 1013 54 10000 2.57 340 10:51 02.08.2022
862 Clear 26 1013 71 10000 2.06 360 08:59 02.08.2022
863 Clear 24 1013 74 10000 2.06 20 07:52 02.08.2022
864 Clear 25 1012 78 10000 2.06 100 06:41 02.08.2022
865 Clear 25 1013 77 10000 1.54 220 04:31 02.08.2022
866 Clear 30 1013 56 10000 4.12 220 23:35 01.08.2022
867 Clear 33 1011 49 10000 5.14 220 22:23 01.08.2022
868 Clear 35 1011 43 10000 7.72 220 20:51 01.08.2022
869 Clear 38 1010 37 10000 4.02 246 19:23 01.08.2022
870 Clear 39 1010 31 10000 1.79 284 18:30 01.08.2022
871 Clear 39 1011 30 10000 2.57 220 16:53 01.08.2022
872 Clear 37 1013 34 10000 2.06 300 15:52 01.08.2022
873 Clear 37 1013 36 10000 2.57 230 15:30 01.08.2022
874 Clear 35 1013 43 10000 2.57 300 13:48 01.08.2022
875 Clear 31 1014 58 10000 1.54 50 11:50 01.08.2022
876 Clear 27 1014 75 10000 2.57 340 09:39 01.08.2022
877 Clear 25 1014 81 10000 1.03 310 08:25 01.08.2022
878 Clear 26 1013 77 10000 2.57 220 04:48 01.08.2022
879 Clear 27 1013 73 10000 4.12 200 02:32 01.08.2022
880 Clear 30 1013 59 10000 3.6 200 23:54 31.07.2022
881 Clear 33 1012 43 10000 5.66 220 22:38 31.07.2022
882 Clear 36 1010 41 10000 6.17 220 21:27 31.07.2022
883 Clear 40 1010 26 10000 2.24 193 19:41 31.07.2022
884 Clear 40 1011 25 10000 2.57 300 17:48 31.07.2022
885 Clear 38 1013 27 10000 2.06 20 15:39 31.07.2022
886 Clear 34 1015 33 10000 1.03 20 13:43 31.07.2022
887 Clear 32 1014 40 10000 0.51 160 11:58 31.07.2022
888 Clear 27 1014 55 10000 0.89 205 09:43 31.07.2022
889 Clear 24 1013 64 10000 2.57 170 07:38 31.07.2022
890 Clear 28 1014 55 10000 1.54 200 02:58 31.07.2022
891 Clear 33 1014 38 10000 5.66 240 23:40 30.07.2022
892 Clear 32 1013 47 10000 1.79 276 22:19 30.07.2022
893 Clear 35 1012 28 10000 3.09 230 21:49 30.07.2022
894 Clear 37 1012 29 10000 3.6 270 20:57 30.07.2022
895 Clear 37 1012 29 10000 3.6 270 20:57 30.07.2022
896 Clear 38 1010 28 10000 1.54 260 19:59 30.07.2022
897 Clear 38 1011 27 10000 2.57 230 18:53 30.07.2022
898 Clear 38 1011 27 10000 2.06 230 17:44 30.07.2022
899 Clear 37 1013 26 10000 2.06 250 15:54 30.07.2022
900 Clear 36 1013 30 10000 2.06 170 15:24 30.07.2022
901 Clear 33 1013 38 10000 3.6 240 13:19 30.07.2022
902 Clear 31 1014 43 10000 4.12 230 12:19 30.07.2022
903 Clear 28 1013 52 10000 1.54 330 10:31 30.07.2022
904 Clear 27 1013 56 10000 1.03 0 09:57 30.07.2022
905 Clear 24 1013 62 10000 1.03 0 07:55 30.07.2022
906 Clear 25 1012 63 10000 4.12 180 04:20 30.07.2022
907 Clear 26 1012 54 10000 3.09 190 02:28 30.07.2022
908 Clear 33 1012 31 10000 5.14 210 22:46 29.07.2022
909 Clear 35 1009 32 10000 4.12 240 21:24 29.07.2022
910 Clear 36 1009 31 10000 4.63 230 20:41 29.07.2022
911 Clear 37 1010 34 10000 3.13 184 18:27 29.07.2022
912 Clear 37 1010 28 10000 2.06 260 16:32 29.07.2022
913 Clear 33 1013 43 10000 2.06 250 13:45 29.07.2022
914 Clear 28 1012 57 10000 1.54 250 11:30 29.07.2022
915 Clear 24 1012 68 10000 0.51 0 08:50 29.07.2022
916 Clear 23 1011 73 10000 1.54 150 08:20 29.07.2022
917 Clear 24 1010 67 10000 2.57 200 02:52 29.07.2022
918 Clear 27 1011 49 10000 4.12 220 23:20 28.07.2022
919 Clear 32 1009 40 10000 4.63 220 21:30 28.07.2022
920 Clear 33 1008 36 10000 6.69 220 20:45 28.07.2022
921 Clear 34 1008 34 10000 6.17 230 19:58 28.07.2022
922 Clear 36 1008 29 10000 2.68 305 19:26 28.07.2022
923 Clear 37 1009 26 10000 1.54 240 17:45 28.07.2022
924 Clear 36 1009 28 10000 2.06 230 17:19 28.07.2022
925 Clear 36 1010 29 10000 1.54 230 16:40 28.07.2022
926 Clear 30 1013 50 10000 2.06 220 13:56 28.07.2022
927 Clear 27 1012 64 10000 1.54 240 12:33 28.07.2022
928 Clear 21 1012 86 10000 1.54 180 07:46 28.07.2022
929 Clear 21 1012 81 10000 1.54 190 05:39 28.07.2022
930 Clear 21 1012 80 10000 1.54 190 05:20 28.07.2022
931 Clear 24 1011 66 10000 5.14 210 23:19 27.07.2022
932 Clear 26 1011 59 10000 7.2 230 21:30 27.07.2022
933 Clear 30 1010 47 10000 7.2 220 19:48 27.07.2022
934 Clear 30 1010 45 10000 8.23 220 19:19 27.07.2022
935 Clear 33 1013 28 10000 7.72 210 16:31 27.07.2022
936 Clear 32 1013 26 10000 7.2 210 15:51 27.07.2022
937 Clear 32 1013 28 10000 6.69 230 14:41 27.07.2022
938 Clear 30 1014 36 10000 5.66 210 13:34 27.07.2022
939 Clear 27 1013 47 10000 2.06 290 10:39 27.07.2022
940 Clear 24 1012 56 10000 0.51 0 07:53 27.07.2022
941 Clear 26 1013 49 10000 2.57 320 04:54 27.07.2022
942 Clear 31 1011 40 10000 3.6 210 23:25 26.07.2022
943 Clear 33 1010 32 10000 6.17 210 21:52 26.07.2022
944 Clear 35 1010 31 10000 8.75 220 20:58 26.07.2022
945 Clear 37 1009 28 10000 9.77 210 19:32 26.07.2022
946 Clear 39 1009 22 10000 7.2 210 18:40 26.07.2022
947 Clear 40 1010 21 10000 6.69 160 17:54 26.07.2022
948 Clear 39 1012 20 10000 4.12 220 15:46 26.07.2022
949 Clear 38 1013 21 10000 4.63 200 14:43 26.07.2022
950 Clear 34 1014 29 10000 2.06 260 12:33 26.07.2022
951 Clear 31 1014 34 10000 1.54 30 10:32 26.07.2022
952 Clear 24 1014 44 10000 1.54 220 08:27 26.07.2022
953 Clear 30 1015 14 10000 1.03 310 01:55 26.07.2022
954 Clear 33 1015 16 10000 1.54 330 00:21 26.07.2022
955 Clear 37 1013 13 10000 3.09 310 22:40 25.07.2022
956 Clear 39 1012 12 10000 5.14 320 21:44 25.07.2022
957 Clear 41 1011 10 10000 5.14 320 20:46 25.07.2022
958 Clear 42 1011 10 10000 6.69 340 20:24 25.07.2022
959 Clear 43 1010 9 10000 3.6 280 19:25 25.07.2022
960 Clear 43 1011 11 10000 5.14 250 17:56 25.07.2022
961 Clear 43 1012 11 10000 3.6 240 17:23 25.07.2022
962 Clear 40 1015 19 10000 2.06 360 13:36 25.07.2022
963 Clear 35 1015 26 10000 3.6 30 10:55 25.07.2022
964 Clear 30 1014 30 10000 2.57 20 07:59 25.07.2022
965 Clear 34 1015 21 10000 0 0 01:44 25.07.2022
966 Clear 36 1015 19 10000 1.54 320 23:46 24.07.2022
967 Clear 36 1015 17 10000 3.09 290 22:49 24.07.2022
968 Clear 39 1013 12 10000 3.09 270 21:48 24.07.2022
969 Clear 41 1012 14 10000 4.12 220 21:18 24.07.2022
970 Clear 42 1012 12 10000 2.68 252 20:44 24.07.2022
971 Clear 43 1012 11 10000 2.24 230 19:37 24.07.2022
972 Clear 44 1012 10 10000 1.34 273 18:27 24.07.2022
973 Clear 42 1013 13 10000 1.54 230 15:57 24.07.2022
974 Clear 41 1014 13 10000 2.06 330 15:31 24.07.2022
975 Clear 39 1015 16 10000 2.06 280 13:51 24.07.2022
976 Clear 35 1016 20 10000 1.54 0 12:50 24.07.2022
977 Clear 32 1017 25 10000 1.54 10 11:35 24.07.2022
978 Clear 30 1016 34 10000 0.51 0 10:26 24.07.2022
979 Clear 25 1015 47 10000 1.34 324 08:30 24.07.2022
980 Clear 25 1014 49 10000 1.54 20 07:46 24.07.2022
981 Clear 27 1014 48 10000 1.03 0 03:57 24.07.2022
982 Clear 32 1015 26 10000 2.57 200 23:48 23.07.2022
983 Clear 40 1012 18 10000 6.69 220 20:51 23.07.2022
984 Clear 41 1011 17 10000 6.17 220 19:44 23.07.2022
985 Clear 42 1011 18 10000 5.14 220 18:50 23.07.2022
986 Clear 42 1012 18 10000 3.13 223 17:28 23.07.2022
987 Clear 42 1012 20 10000 3.09 240 16:31 23.07.2022
988 Clear 40 1013 23 10000 2.57 230 15:22 23.07.2022
989 Clear 41 1014 19 10000 2.57 230 14:58 23.07.2022
990 Clear 39 1014 24 10000 1.03 280 14:26 23.07.2022
991 Clear 36 1016 26 10000 0.51 130 12:44 23.07.2022
992 Clear 31 1016 40 10000 1.03 0 10:45 23.07.2022
993 Clear 29 1014 51 10000 2.06 30 10:21 23.07.2022
994 Clear 25 1014 62 10000 0.89 342 08:31 23.07.2022
995 Clear 27 1013 59 10000 2.57 190 03:39 23.07.2022
996 Clear 29 1014 48 10000 3.09 200 01:27 23.07.2022
997 Clear 35 1014 24 10000 4.63 250 22:42 22.07.2022
998 Clear 38 1011 30 10000 6.69 220 20:52 22.07.2022
999 Clear 40 1011 23 10000 2.68 185 19:41 22.07.2022
1000 Clear 41 1011 24 10000 1.79 201 18:28 22.07.2022
1001 Clear 40 1012 22 10000 2.24 149 16:55 22.07.2022
1002 Clear 38 1014 24 10000 1.54 270 14:54 22.07.2022
1003 Clear 31 1014 51 10000 1.03 0 11:36 22.07.2022
1004 Clear 26 1014 67 10000 1.03 0 09:26 22.07.2022
1005 Clear 25 1014 71 10000 1.54 30 08:37 22.07.2022
1006 Clear 24 1014 72 10000 1.03 140 06:59 22.07.2022
1007 Clear 26 1014 64 10000 2.06 190 03:43 22.07.2022
1008 Clear 34 1013 38 10000 4.12 220 22:45 21.07.2022
1009 Clear 35 1012 43 10000 6.17 220 21:34 21.07.2022
1010 Clear 39 1012 24 10000 1.79 190 19:28 21.07.2022
1011 Clear 39 1012 27 10000 4.63 0 17:45 21.07.2022
1012 Clear 39 1013 26 10000 2.57 250 17:19 21.07.2022
1013 Clear 37 1015 29 10000 2.06 0 15:22 21.07.2022
1014 Clear 36 1015 30 10000 1.54 0 14:39 21.07.2022
1015 Clear 36 1015 30 10000 1.54 0 14:39 21.07.2022
1016 Clear 33 1016 38 10000 2.06 300 12:46 21.07.2022
1017 Clear 29 1016 51 10000 1.54 350 11:19 21.07.2022
1018 Clear 26 1015 58 10000 2.57 50 09:42 21.07.2022
1019 Clear 25 1015 61 10000 1.03 10 08:52 21.07.2022
1020 Clear 24 1015 66 10000 1.54 60 07:50 21.07.2022
1021 Clear 24 1014 66 10000 1.54 40 06:25 21.07.2022
1022 Clear 26 1014 53 10000 4.12 220 01:54 21.07.2022
1023 Clear 34 1013 27 10000 4.12 240 22:22 20.07.2022
1024 Clear 36 1011 26 10000 4.12 230 21:42 20.07.2022
1025 Clear 38 1011 25 10000 3.13 233 20:39 20.07.2022
1026 Clear 39 1011 20 10000 2.57 280 19:43 20.07.2022
1027 Clear 40 1011 17 10000 3.09 250 18:53 20.07.2022
1028 Clear 40 1012 17 10000 2.68 210 18:30 20.07.2022
1029 Clear 39 1012 18 10000 3.09 240 16:49 20.07.2022
1030 Clear 39 1013 19 10000 2.57 310 15:32 20.07.2022
1031 Clear 37 1014 21 10000 0.51 40 14:32 20.07.2022
1032 Clear 33 1015 30 10000 2.06 40 12:41 20.07.2022
1033 Clear 28 1015 48 10000 2.57 60 10:28 20.07.2022
1034 Clear 23 1014 68 10000 2.06 120 05:52 20.07.2022
1035 Clear 26 1014 59 10000 2.24 178 00:58 20.07.2022
1036 Clear 26 1014 56 10000 2.68 170 00:40 20.07.2022
1037 Clear 29 1014 44 10000 6.69 220 22:35 19.07.2022
1038 Clear 31 1014 40 10000 6.17 220 21:54 19.07.2022
1039 Clear 34 1012 35 10000 5.66 220 20:49 19.07.2022
1040 Clear 36 1012 28 10000 4.02 178 19:22 19.07.2022
1041 Clear 36 1012 29 10000 4.02 177 18:41 19.07.2022
1042 Clear 37 1013 26 10000 2.68 191 17:53 19.07.2022
1043 Clear 35 1015 25 10000 3.09 230 15:49 19.07.2022
1044 Clear 32 1016 34 10000 2.06 190 13:37 19.07.2022
1045 Clear 28 1016 51 10000 1.34 170 11:33 19.07.2022
1046 Clear 25 1016 60 10000 3.09 30 09:52 19.07.2022
1047 Clear 23 1016 62 10000 2.06 110 08:47 19.07.2022
1048 Clear 22 1016 67 10000 1.03 280 07:57 19.07.2022
1049 Clear 22 1015 70 10000 0.45 107 07:18 19.07.2022
1050 Clear 23 1015 77 10000 0.89 179 05:19 19.07.2022
1051 Clear 24 1015 71 10000 3.09 180 03:40 19.07.2022
1052 Clear 27 1016 57 10000 3.09 190 00:18 19.07.2022
1053 Clear 28 1015 54 10000 2.68 168 23:20 18.07.2022
1054 Clear 29 1015 51 10000 4.63 220 22:42 18.07.2022
1055 Clear 31 1013 45 10000 5.14 230 21:26 18.07.2022
1056 Clear 32 1013 43 10000 4.12 230 20:49 18.07.2022
1057 Clear 34 1013 41 10000 5.66 230 19:21 18.07.2022
1058 Clear 35 1013 41 10000 3.6 230 16:45 18.07.2022
1059 Clear 35 1015 38 10000 4.12 240 15:41 18.07.2022
1060 Clear 32 1017 38 10000 3.09 260 13:41 18.07.2022
1061 Clear 30 1016 52 10000 2.57 200 12:29 18.07.2022
1062 Clear 27 1015 64 10000 3.09 320 10:34 18.07.2022
1063 Clear 25 1015 64 10000 1.54 320 08:21 18.07.2022
1064 Clear 25 1016 56 10000 3.09 270 06:48 18.07.2022
1065 Clear 30 1015 43 10000 3.09 230 23:31 17.07.2022
1066 Clear 32 1014 38 10000 5.14 260 22:32 17.07.2022
1067 Clear 34 1013 26 10000 5.14 240 21:44 17.07.2022
1068 Clear 35 1012 31 10000 5.14 250 20:55 17.07.2022
1069 Clear 36 1011 31 10000 5.14 250 20:36 17.07.2022
1070 Clear 37 1011 29 10000 5.14 250 19:28 17.07.2022
1071 Clear 39 1011 27 10000 4.12 230 18:26 17.07.2022
1072 Clear 39 1011 25 10000 4.12 240 17:38 17.07.2022
1073 Clear 39 1012 20 10000 3.09 230 16:50 17.07.2022
1074 Clear 39 1013 19 10000 3.09 210 16:26 17.07.2022
1075 Clear 37 1014 22 10000 1.54 230 14:37 17.07.2022
1076 Clear 35 1014 26 10000 1.03 320 13:30 17.07.2022
1077 Clear 31 1014 34 10000 2.24 59 11:35 17.07.2022
1078 Clear 26 1014 47 10000 1.34 349 08:57 17.07.2022
1079 Clear 26 1014 51 10000 0.51 70 03:44 17.07.2022
1080 Clear 27 1014 49 10000 0.51 0 02:32 17.07.2022
1081 Clear 31 1013 40 10000 2.57 220 23:20 16.07.2022
1082 Clear 36 1010 29 10000 6.17 220 21:30 16.07.2022
1083 Clear 40 1009 20 10000 4.12 230 19:30 16.07.2022
1084 Clear 41 1010 17 10000 4.63 240 18:32 16.07.2022
1085 Clear 41 1011 16 10000 1.03 120 16:34 16.07.2022
1086 Clear 37 1012 20 10000 1.03 110 13:49 16.07.2022
1087 Clear 31 1013 33 10000 1.34 53 10:55 16.07.2022
1088 Clear 28 1012 37 10000 2.24 12 09:33 16.07.2022
1089 Clear 26 1012 41 10000 1.54 350 08:44 16.07.2022
1090 Clear 26 1012 43 10000 1.54 340 08:23 16.07.2022
1091 Clear 28 1012 46 10000 2.24 358 04:24 16.07.2022
1092 Clear 28 1012 44 10000 0.51 0 03:22 16.07.2022
1093 Clear 33 1012 26 10000 4.63 230 23:34 15.07.2022
1094 Clear 35 1010 27 10000 5.66 220 22:41 15.07.2022
1095 Clear 37 1010 25 10000 6.17 220 21:29 15.07.2022
1096 Clear 38 1009 23 10000 5.66 220 20:31 15.07.2022
1097 Clear 41 1009 18 10000 4.63 240 18:44 15.07.2022
1098 Clear 42 1010 16 10000 4.63 240 17:44 15.07.2022
1099 Clear 40 1011 15 10000 3.6 220 14:57 15.07.2022
1100 Clear 38 1011 19 10000 2.06 20 13:20 15.07.2022
1101 Clear 36 1012 20 10000 2.57 100 11:45 15.07.2022
1102 Clear 31 1011 29 10000 3.09 20 10:27 15.07.2022
1103 Clear 27 1010 34 10000 3.09 40 06:30 15.07.2022
1104 Clear 31 1011 30 10000 1.54 330 02:24 15.07.2022
1105 Clear 31 1013 29 10000 1.54 70 00:37 15.07.2022
1106 Clear 36 1012 19 10000 3.09 220 22:54 14.07.2022
1107 Clear 39 1011 15 10000 3.09 210 21:56 14.07.2022
1108 Clear 39 1010 21 10000 4.63 220 21:32 14.07.2022
1109 Clear 41 1010 19 10000 4.12 230 20:46 14.07.2022
1110 Clear 41 1010 18 10000 2.57 200 20:28 14.07.2022
1111 Clear 42 1010 17 10000 3.6 210 19:58 14.07.2022
1112 Clear 43 1012 11 10000 5.14 210 16:42 14.07.2022
1113 Clear 43 1012 11 10000 2.57 50 16:18 14.07.2022
1114 Clear 41 1014 11 10000 1.54 110 14:44 14.07.2022
1115 Clear 39 1015 13 10000 2.57 90 13:33 14.07.2022
1116 Clear 37 1015 17 10000 3.09 100 12:19 14.07.2022
1117 Clear 34 1015 22 10000 2.57 90 11:25 14.07.2022
1118 Clear 33 1016 22 10000 1.54 60 10:49 14.07.2022
1119 Clear 27 1015 32 10000 2.24 3 08:28 14.07.2022
1120 Clear 29 1015 30 10000 2.24 351 03:42 14.07.2022
1121 Clear 31 1015 28 10000 1.03 0 00:55 14.07.2022
1122 Clear 33 1015 26 10000 4.63 220 23:41 13.07.2022
1123 Clear 35 1013 23 10000 4.12 220 22:27 13.07.2022
1124 Clear 37 1013 22 10000 2.68 204 21:37 13.07.2022
1125 Clear 40 1013 18 10000 5.14 230 20:38 13.07.2022
1126 Clear 44 1012 14 10000 3.09 220 18:23 13.07.2022
1127 Clear 44 1013 14 10000 4.63 250 17:22 13.07.2022
1128 Clear 44 1013 14 10000 4.63 250 17:22 13.07.2022
1129 Clear 44 1013 13 10000 3.09 120 16:18 13.07.2022
1130 Clear 41 1015 14 10000 5.66 70 13:50 13.07.2022
1131 Clear 34 1015 27 10000 5.14 80 11:33 13.07.2022
1132 Clear 34 1016 24 10000 4.63 80 10:44 13.07.2022
1133 Clear 28 1015 39 10000 4.12 40 09:30 13.07.2022
1134 Clear 26 1015 42 10000 4.12 30 08:24 13.07.2022
1135 Clear 26 1015 39 10000 4.12 60 04:50 13.07.2022
1136 Clear 29 1016 37 10000 2.57 30 00:47 13.07.2022
1137 Clear 33 1015 32 10000 2.57 200 22:48 12.07.2022
1138 Clear 34 1013 32 10000 4.63 220 21:49 12.07.2022
1139 Clear 37 1012 26 10000 5.66 220 20:54 12.07.2022
1140 Clear 39 1012 19 10000 4.12 220 20:21 12.07.2022
1141 Clear 41 1012 16 10000 4.12 240 18:53 12.07.2022
1142 Clear 41 1011 13 10000 5.14 90 17:29 12.07.2022
1143 Clear 40 1012 14 10000 6.17 80 15:35 12.07.2022
1144 Clear 39 1013 12 10000 7.2 90 13:44 12.07.2022
1145 Clear 35 1013 17 10000 6.69 70 11:59 12.07.2022
1146 Clear 31 1012 23 10000 6.69 70 10:46 12.07.2022
1147 Clear 29 1012 30 10000 6.69 70 09:19 12.07.2022
1148 Clear 27 1010 36 10000 6.17 60 07:57 12.07.2022
1149 Clear 27 1010 34 10000 4.63 50 05:54 12.07.2022
1150 Clear 27 1010 35 10000 5.66 50 05:35 12.07.2022
1151 Clear 29 1011 23 10000 4.12 50 01:36 12.07.2022
1152 Clear 32 1010 26 10000 3.09 140 22:50 11.07.2022
1153 Clear 34 1008 28 10000 1.79 193 21:44 11.07.2022
1154 Clear 38 1006 19 10000 2.68 191 20:33 11.07.2022
1155 Clear 40 1006 16 10000 6.69 140 19:32 11.07.2022
1156 Clear 41 1007 14 10000 7.2 120 18:32 11.07.2022
1157 Clear 42 1007 10 10000 7.72 120 17:31 11.07.2022
1158 Clear 41 1008 14 10000 7.2 120 15:46 11.07.2022
1159 Clear 38 1010 17 10000 4.12 80 13:39 11.07.2022
1160 Clear 32 1011 26 10000 3.6 60 11:38 11.07.2022
1161 Clear 29 1011 42 10000 2.57 20 10:18 11.07.2022
1162 Clear 27 1011 45 10000 2.06 20 09:41 11.07.2022
1163 Clear 25 1011 53 10000 1.54 330 08:33 11.07.2022
1164 Clear 26 1011 48 10000 2.06 150 04:34 11.07.2022
1165 Clear 30 1013 35 10000 5.14 270 00:20 11.07.2022
1166 Clear 32 1013 31 10000 5.14 260 22:56 10.07.2022
1167 Clear 34 1012 29 10000 6.69 240 21:51 10.07.2022
1168 Clear 37 1010 27 10000 7.2 230 20:54 10.07.2022
1169 Clear 39 1009 23 10000 6.69 230 19:50 10.07.2022
1170 Clear 40 1010 20 10000 5.14 260 18:48 10.07.2022
1171 Clear 40 1010 20 10000 5.66 230 17:37 10.07.2022
1172 Clear 40 1012 18 10000 3.09 220 16:57 10.07.2022
1173 Clear 39 1013 20 10000 1.54 0 15:33 10.07.2022
1174 Clear 38 1013 21 10000 1.54 310 14:30 10.07.2022
1175 Clear 34 1014 31 10000 1.03 350 12:29 10.07.2022
1176 Clear 31 1014 38 10000 1.54 60 11:20 10.07.2022
1177 Clear 26 1015 51 10000 2.06 30 08:45 10.07.2022
1178 Clear 25 1014 52 10000 1.03 30 07:39 10.07.2022
1179 Clear 28 1016 42 10000 3.6 260 02:50 10.07.2022
1180 Clear 33 1016 29 10000 5.14 250 22:59 09.07.2022
1181 Clear 34 1015 29 10000 5.66 260 22:25 09.07.2022
1182 Clear 37 1013 27 10000 5.66 230 21:28 09.07.2022
1183 Clear 41 1013 18 10000 3.09 80 18:45 09.07.2022
1184 Clear 40 1013 20 10000 4.63 110 17:48 09.07.2022
1185 Clear 40 1014 22 10000 2.57 80 16:59 09.07.2022
1186 Clear 39 1015 22 10000 2.57 70 15:44 09.07.2022
1187 Clear 39 1015 23 10000 2.57 70 15:25 09.07.2022
1188 Clear 37 1016 23 10000 1.03 150 13:51 09.07.2022
1189 Clear 35 1017 26 10000 3.09 110 12:53 09.07.2022
1190 Clear 32 1017 37 10000 3.6 60 11:33 09.07.2022
1191 Clear 29 1018 48 10000 4.12 50 10:23 09.07.2022
1192 Clear 25 1018 58 10000 2.06 60 07:54 09.07.2022
1193 Clear 24 1018 59 10000 2.06 10 06:58 09.07.2022
1194 Clear 26 1017 57 10000 1.54 160 04:34 09.07.2022
1195 Clear 31 1018 42 10000 3.6 260 23:22 08.07.2022
1196 Clear 33 1017 38 10000 6.69 220 21:59 08.07.2022
1197 Clear 35 1014 37 10000 4.02 260 21:18 08.07.2022
1198 Clear 39 1014 27 10000 3.13 262 20:30 08.07.2022
1199 Clear 40 1014 20 10000 3.09 60 18:33 08.07.2022
1200 Clear 40 1015 21 10000 3.13 53 17:33 08.07.2022
1201 Clear 38 1016 26 10000 5.14 70 15:30 08.07.2022
1202 Clear 38 1017 27 10000 2.57 100 14:49 08.07.2022
1203 Clear 33 1018 45 10000 3.6 30 12:30 08.07.2022
1204 Clear 30 1020 49 10000 3.6 30 10:46 08.07.2022
1205 Clear 26 1019 61 10000 3.09 30 09:24 08.07.2022
1206 Clear 23 1019 70 10000 1.54 40 06:55 08.07.2022
1207 Clear 24 1018 69 10000 1.03 290 04:32 08.07.2022
1208 Clear 28 1018 49 10000 3.09 210 00:23 08.07.2022
1209 Clear 31 1018 37 10000 6.17 220 22:47 07.07.2022
1210 Clear 35 1015 35 10000 5.66 240 21:41 07.07.2022
1211 Clear 40 1014 19 10000 2.24 121 19:28 07.07.2022
1212 Clear 39 1016 21 10000 2.06 120 17:42 07.07.2022
1213 Clear 38 1017 22 10000 2.57 10 15:57 07.07.2022
1214 Clear 32 1020 31 10000 1.54 0 13:32 07.07.2022
1215 Clear 30 1020 39 10000 1.54 80 12:40 07.07.2022
1216 Clear 31 1020 40 10000 1.54 80 12:21 07.07.2022
1217 Clear 28 1020 46 10000 1.03 0 11:32 07.07.2022
1218 Clear 27 1020 46 10000 1.03 0 10:45 07.07.2022
1219 Clear 27 1019 58 10000 1.54 360 10:26 07.07.2022
1220 Clear 22 1018 74 10000 1.54 20 08:21 07.07.2022
1221 Clear 22 1016 72 10000 0.89 172 05:44 07.07.2022
1222 Clear 27 1018 49 10000 1.34 286 23:54 06.07.2022
1223 Clear 27 1018 47 10000 1.34 275 23:36 06.07.2022
1224 Clear 28 1017 47 10000 1.34 269 23:18 06.07.2022
1225 Clear 31 1017 29 10000 4.12 250 22:46 06.07.2022
1226 Clear 30 1016 39 10000 1.79 233 22:28 06.07.2022
1227 Clear 35 1015 32 10000 2.24 191 19:46 06.07.2022
1228 Clear 35 1015 30 10000 3.13 188 18:45 06.07.2022
1229 Clear 35 1017 31 10000 2.06 270 16:58 06.07.2022
1230 Clear 31 1019 40 10000 2.06 190 15:44 06.07.2022
1231 Clear 25 1020 57 10000 2.06 290 12:44 06.07.2022
1232 Clear 23 1020 64 10000 1.03 0 11:52 06.07.2022
1233 Clouds 22 1020 72 10000 1.54 300 10:48 06.07.2022
1234 Clouds 20 1019 81 10000 1.54 160 08:46 06.07.2022
1235 Clouds 20 1018 82 10000 2.06 180 07:43 06.07.2022
1236 Clouds 20 1019 81 10000 2.06 190 06:43 06.07.2022
1237 Clear 21 1016 77 10000 7.2 220 22:52 05.07.2022
1238 Clear 22 1016 75 10000 7.72 220 22:34 05.07.2022
1239 Clear 27 1014 50 10000 7.2 220 20:48 05.07.2022
1240 Clear 30 1013 39 10000 7.2 210 19:55 05.07.2022
1241 Clear 30 1013 37 10000 6.69 220 19:36 05.07.2022
1242 Clear 31 1014 36 10000 6.69 220 17:50 05.07.2022
1243 Clear 32 1015 34 10000 5.66 240 17:18 05.07.2022
1244 Clear 30 1016 40 10000 4.63 220 15:48 05.07.2022
1245 Clear 30 1016 39 10000 4.63 210 14:54 05.07.2022
1246 Clear 25 1017 59 10000 2.06 230 12:59 05.07.2022
1247 Clear 25 1017 61 10000 2.57 230 12:22 05.07.2022
1248 Clouds 21 1018 76 10000 2.06 240 10:45 05.07.2022
1249 Clouds 20 1017 85 10000 2.06 190 09:52 05.07.2022
1250 Clouds 19 1016 88 10000 1.54 270 08:21 05.07.2022
1251 Clouds 18 1016 89 10000 0.51 130 06:51 05.07.2022
1252 Clear 19 1015 87 10000 1.79 233 04:35 05.07.2022
1253 Clear 20 1016 80 10000 4.12 220 01:25 05.07.2022
1254 Clear 23 1015 67 10000 7.2 220 23:37 04.07.2022
1255 Clear 26 1015 47 10000 6.17 220 22:55 04.07.2022
1256 Clear 27 1015 47 10000 6.17 210 22:18 04.07.2022
1257 Clear 31 1013 40 10000 4.63 220 20:56 04.07.2022
1258 Clear 32 1012 37 10000 2.68 206 20:36 04.07.2022
1259 Clear 33 1012 35 10000 2.68 165 19:56 04.07.2022
1260 Clear 33 1012 35 10000 2.68 189 19:37 04.07.2022
1261 Clear 33 1013 28 10000 3.09 260 18:35 04.07.2022
1262 Clear 33 1014 29 10000 2.57 0 16:51 04.07.2022
1263 Clear 30 1016 38 10000 2.06 260 15:35 04.07.2022
1264 Clear 25 1018 52 10000 1.03 50 13:47 04.07.2022
1265 Clear 24 1018 54 10000 1.54 0 12:42 04.07.2022
1266 Clouds 20 1019 73 10000 1.03 0 10:40 04.07.2022
1267 Clouds 20 1018 76 10000 1.03 0 10:22 04.07.2022
1268 Clouds 20 1018 80 10000 1.34 326 09:21 04.07.2022
1269 Clouds 18 1017 87 10000 0.89 191 06:27 04.07.2022
1270 Clear 19 1018 78 10000 3.6 240 01:49 04.07.2022
1271 Clear 21 1017 69 10000 4.63 230 23:39 03.07.2022
1272 Clear 23 1016 65 10000 5.14 220 22:29 03.07.2022
1273 Clear 26 1015 52 10000 5.14 220 20:45 03.07.2022
1274 Clear 28 1015 50 10000 5.66 210 19:52 03.07.2022
1275 Clear 28 1015 48 10000 5.66 220 19:24 03.07.2022
1276 Clear 29 1015 46 10000 5.66 220 18:27 03.07.2022
1277 Clear 29 1015 46 10000 5.66 220 17:38 03.07.2022
1278 Clear 29 1018 47 10000 5.66 260 15:27 03.07.2022
1279 Clouds 27 1018 54 10000 3.09 0 14:53 03.07.2022
1280 Clouds 25 1019 61 10000 2.57 210 13:50 03.07.2022
1281 Clouds 23 1019 68 10000 2.57 240 12:47 03.07.2022
1282 Clouds 23 1019 72 10000 2.06 230 12:18 03.07.2022
1283 Clouds 21 1019 83 9000 2.57 240 10:54 03.07.2022
1284 Clouds 21 1018 82 9000 3.09 260 10:35 03.07.2022
1285 Clouds 22 1017 83 10000 2.06 230 07:38 03.07.2022
1286 Clouds 22 1017 84 10000 2.57 220 06:52 03.07.2022
1287 Clear 24 1016 76 10000 3.13 237 00:39 03.07.2022
1288 Clear 25 1016 73 10000 3.6 260 23:38 02.07.2022
1289 Clear 25 1015 70 10000 5.66 250 22:31 02.07.2022
1290 Clear 30 1013 56 10000 5.66 240 20:31 02.07.2022
1291 Clear 32 1013 52 10000 4.63 220 19:49 02.07.2022
1292 Clear 33 1013 49 10000 3.09 240 18:36 02.07.2022
1293 Clear 33 1013 48 10000 2.68 255 17:39 02.07.2022
1294 Clear 34 1013 44 10000 3.6 300 16:32 02.07.2022
1295 Clear 32 1014 39 10000 2.57 230 13:51 02.07.2022
1296 Clear 29 1015 46 10000 1.54 200 11:51 02.07.2022
1297 Clear 28 1015 47 10000 0.89 188 10:52 02.07.2022
1298 Clear 27 1014 49 10000 0.45 195 10:25 02.07.2022
1299 Clear 24 1013 56 10000 1.54 180 08:38 02.07.2022
1300 Clear 23 1014 59 10000 1.54 130 08:19 02.07.2022
1301 Clear 23 1014 55 10000 1.54 330 05:51 02.07.2022
1302 Clear 27 1013 45 10000 4.12 250 00:34 02.07.2022
1303 Clear 28 1012 44 10000 3.6 230 23:30 01.07.2022
1304 Clear 29 1010 43 10000 6.69 220 22:35 01.07.2022
1305 Clear 32 1009 38 10000 5.66 220 21:39 01.07.2022
1306 Clear 33 1009 38 10000 4.02 259 20:59 01.07.2022
1307 Clear 34 1009 33 10000 3.58 219 20:37 01.07.2022
1308 Clear 35 1009 27 10000 2.68 194 19:40 01.07.2022
1309 Clear 36 1009 23 10000 1.79 179 17:39 01.07.2022
1310 Clear 35 1011 26 10000 2.57 270 15:21 01.07.2022
1311 Clear 31 1013 28 10000 2.06 120 13:54 01.07.2022
1312 Clear 24 1014 52 10000 1.03 150 11:48 01.07.2022
1313 Clear 22 1013 65 10000 1.03 240 10:19 01.07.2022
1314 Clear 19 1012 74 10000 1.79 197 08:46 01.07.2022
1315 Clear 20 1012 67 10000 1.54 210 02:49 01.07.2022
1316 Clear 21 1012 59 10000 3.09 190 00:25 01.07.2022
1317 Clear 23 1011 51 10000 4.63 210 22:54 30.06.2022
1318 Clear 24 1011 50 10000 4.12 210 22:32 30.06.2022
1319 Clear 25 1010 47 10000 4.63 210 21:59 30.06.2022
1320 Clear 25 1010 46 10000 5.14 220 21:34 30.06.2022
1321 Clear 28 1010 39 10000 5.66 210 20:22 30.06.2022
1322 Clear 29 1010 36 10000 5.14 210 19:53 30.06.2022
1323 Clear 30 1010 31 10000 4.12 220 19:18 30.06.2022
1324 Clear 30 1010 27 10000 4.12 220 18:35 30.06.2022
1325 Clear 31 1010 22 10000 3.13 224 17:38 30.06.2022
1326 Clear 32 1010 21 10000 3.13 268 16:48 30.06.2022
1327 Clear 31 1011 22 10000 3.6 240 15:27 30.06.2022
1328 Clear 27 1012 34 10000 3.09 190 13:30 30.06.2022
1329 Clear 26 1012 37 10000 1.54 0 12:35 30.06.2022
1330 Clear 24 1012 42 10000 1.54 280 11:37 30.06.2022
1331 Clear 22 1012 48 10000 2.06 230 09:54 30.06.2022
1332 Clear 21 1012 50 10000 1.54 120 09:34 30.06.2022
1333 Clear 19 1012 54 10000 1.03 0 08:18 30.06.2022
1334 Clear 19 1011 55 10000 3.13 356 06:21 30.06.2022
1335 Clear 23 1011 54 10000 2.57 210 01:29 30.06.2022
1336 Clear 26 1011 45 10000 5.14 220 23:34 29.06.2022
1337 Clear 27 1010 40 10000 5.14 220 22:40 29.06.2022
1338 Clear 29 1011 35 10000 5.66 220 21:39 29.06.2022
1339 Clear 32 1009 31 10000 4.47 238 20:34 29.06.2022
1340 Clear 34 1009 18 10000 3.6 260 19:37 29.06.2022
1341 Clear 34 1010 20 10000 3.6 220 17:45 29.06.2022
1342 Clear 34 1010 22 10000 7.2 290 16:43 29.06.2022
1343 Clear 33 1012 24 10000 4.12 200 15:26 29.06.2022
1344 Clear 29 1013 33 10000 2.06 220 12:47 29.06.2022
1345 Clear 27 1014 37 10000 1.34 252 11:47 29.06.2022
1346 Clear 23 1014 51 10000 1.54 320 09:34 29.06.2022
1347 Clear 20 1014 59 10000 0.51 0 08:42 29.06.2022
1348 Clear 20 1014 58 10000 1.03 0 05:19 29.06.2022
1349 Clear 22 1015 46 10000 3.13 177 01:48 29.06.2022
1350 Clear 27 1016 24 10000 3.6 290 00:37 29.06.2022
1351 Clear 29 1015 23 10000 3.6 250 22:56 28.06.2022
1352 Clear 30 1014 23 10000 4.12 250 22:34 28.06.2022
1353 Clear 31 1014 22 10000 4.63 240 21:55 28.06.2022
1354 Clear 31 1013 28 10000 5.14 230 21:33 28.06.2022
1355 Clear 32 1013 28 10000 4.12 220 20:50 28.06.2022
1356 Clear 34 1012 22 10000 2.24 200 19:43 28.06.2022
1357 Clear 34 1012 21 10000 2.68 213 19:23 28.06.2022
1358 Clear 34 1013 19 10000 2.24 191 17:44 28.06.2022
1359 Clear 33 1014 20 10000 1.54 60 16:24 28.06.2022
1360 Clear 32 1015 23 10000 2.57 260 15:53 28.06.2022
1361 Clear 31 1016 29 10000 2.06 270 14:21 28.06.2022
1362 Clear 31 1016 28 10000 2.57 260 13:55 28.06.2022
1363 Clear 29 1016 34 10000 2.06 120 13:26 28.06.2022
1364 Clear 26 1016 42 10000 2.57 100 11:37 28.06.2022
1365 Clear 21 1017 59 10000 2.06 40 09:41 28.06.2022
1366 Clear 19 1016 68 10000 1.34 81 08:45 28.06.2022
1367 Clear 17 1016 75 10000 1.03 130 07:58 28.06.2022
1368 Clear 16 1016 75 10000 0.89 236 07:19 28.06.2022
1369 Clear 20 1016 60 10000 2.57 200 01:36 28.06.2022
1370 Clear 22 1016 51 10000 2.57 210 23:45 27.06.2022
1371 Clear 22 1016 46 10000 3.6 220 22:55 27.06.2022
1372 Clear 25 1015 40 10000 5.14 220 21:38 27.06.2022
1373 Clear 25 1016 40 10000 5.14 220 21:38 27.06.2022
1374 Clear 26 1014 39 10000 6.69 210 20:55 27.06.2022
1375 Clear 27 1014 38 10000 7.2 220 19:44 27.06.2022
1376 Clear 29 1014 33 10000 3.58 238 18:40 27.06.2022
1377 Clear 30 1014 26 10000 2.24 197 17:24 27.06.2022
1378 Clear 28 1015 28 10000 2.57 260 15:43 27.06.2022
1379 Clear 25 1016 31 10000 2.06 150 13:44 27.06.2022
1380 Clear 24 1016 33 10000 2.06 150 12:57 27.06.2022
1381 Clear 21 1016 44 10000 2.06 0 10:43 27.06.2022
1382 Clear 19 1015 49 10000 2.06 260 09:43 27.06.2022
1383 Clear 17 1014 54 10000 1.34 3 08:38 27.06.2022
1384 Clear 16 1014 56 10000 2.57 270 07:39 27.06.2022
1385 Clear 17 1014 51 10000 2.57 310 05:19 27.06.2022
1386 Clear 21 1013 47 10000 2.06 240 01:21 27.06.2022
1387 Clear 23 1010 45 10000 6.17 220 22:48 26.06.2022
1388 Clear 26 1009 38 10000 6.17 210 21:23 26.06.2022
1389 Clear 29 1009 31 10000 7.2 200 19:59 26.06.2022
1390 Clear 30 1009 21 10000 4.12 230 18:33 26.06.2022
1391 Clear 29 1009 21 10000 5.14 230 17:38 26.06.2022
1392 Clear 28 1010 21 10000 4.63 220 15:35 26.06.2022
1393 Clear 27 1011 29 10000 3.6 230 13:59 26.06.2022
1394 Clear 26 1011 36 10000 2.68 196 13:23 26.06.2022
1395 Clear 23 1011 39 10000 2.06 310 11:39 26.06.2022
1396 Clear 22 1012 41 10000 1.54 260 10:42 26.06.2022
1397 Clear 20 1012 46 10000 2.57 310 09:55 26.06.2022
1398 Clear 18 1011 54 10000 1.34 335 07:47 26.06.2022
1399 Clear 19 1011 54 10000 1.79 348 05:26 26.06.2022
1400 Clear 22 1010 66 10000 3.6 210 00:36 26.06.2022
1401 Clear 22 1010 64 10000 3.6 210 00:18 26.06.2022
1402 Clear 23 1010 62 10000 4.63 220 23:29 25.06.2022
1403 Clear 23 1010 60 10000 4.63 210 22:42 25.06.2022
1404 Clear 24 1010 59 10000 5.14 210 22:24 25.06.2022
1405 Clear 26 1009 54 10000 5.66 210 21:21 25.06.2022
1406 Clear 26 1009 52 10000 6.69 210 20:36 25.06.2022
1407 Clear 27 1009 49 10000 7.72 220 19:59 25.06.2022
1408 Clear 29 1010 43 10000 6.69 220 18:22 25.06.2022
1409 Clear 30 1010 33 10000 4.02 255 17:26 25.06.2022
1410 Clear 30 1010 31 10000 3.6 230 16:26 25.06.2022
1411 Clear 28 1012 38 10000 4.12 240 14:31 25.06.2022
1412 Clear 26 1013 44 10000 2.57 280 12:46 25.06.2022
1413 Clear 26 1013 46 10000 2.06 300 12:27 25.06.2022
1414 Clear 21 1013 65 10000 1.79 21 09:24 25.06.2022
1415 Clear 21 1013 65 10000 1.79 21 09:24 25.06.2022
1416 Clear 20 1013 69 10000 2.68 14 08:49 25.06.2022
1417 Clear 19 1013 72 10000 1.79 12 08:20 25.06.2022
1418 Clear 18 1013 76 10000 2.06 140 06:35 25.06.2022
1419 Clear 21 1014 64 10000 2.57 200 00:45 25.06.2022
1420 Clear 21 1014 61 10000 3.6 210 23:54 24.06.2022
1421 Clear 23 1013 56 10000 4.63 220 22:28 24.06.2022
1422 Clear 25 1013 52 10000 6.17 220 21:26 24.06.2022
1423 Clear 27 1013 46 10000 6.69 220 20:23 24.06.2022
1424 Clear 28 1013 43 10000 5.66 230 19:24 24.06.2022
1425 Clear 28 1013 42 10000 5.66 220 18:51 24.06.2022
1426 Clear 29 1013 41 10000 3.58 211 18:31 24.06.2022
1427 Clear 29 1013 41 10000 4.47 192 17:49 24.06.2022
1428 Clear 29 1014 38 10000 3.6 270 16:46 24.06.2022
1429 Clear 27 1016 45 10000 3.09 210 14:32 24.06.2022
1430 Clouds 26 1016 47 10000 3.09 270 13:59 24.06.2022
1431 Clouds 26 1017 50 10000 2.57 300 13:35 24.06.2022
1432 Clouds 24 1017 59 10000 1.54 0 11:41 24.06.2022
1433 Clear 22 1017 67 10000 0.89 43 10:36 24.06.2022
1434 Clear 21 1017 74 10000 1.03 0 09:41 24.06.2022
1435 Clear 19 1017 82 10000 1.54 230 08:53 24.06.2022
1436 Clear 17 1016 85 10000 1.54 150 07:57 24.06.2022
1437 Clear 17 1016 84 10000 1.54 150 06:43 24.06.2022
1438 Clear 17 1016 84 10000 1.54 150 06:22 24.06.2022
1439 Clear 18 1016 83 10000 1.79 186 04:46 24.06.2022
1440 Clear 21 1017 66 10000 3.6 230 23:24 23.06.2022
1441 Clear 21 1017 60 10000 4.12 250 22:42 23.06.2022
1442 Clear 24 1015 52 10000 5.66 220 20:59 23.06.2022
1443 Clear 25 1015 50 10000 6.69 220 20:36 23.06.2022
1444 Clear 25 1014 48 10000 6.69 220 19:48 23.06.2022
1445 Clear 26 1014 44 10000 5.14 230 18:26 23.06.2022
1446 Clear 26 1015 43 10000 5.14 220 17:34 23.06.2022
1447 Clear 26 1015 44 10000 4.12 220 16:26 23.06.2022
1448 Clear 26 1016 43 10000 4.63 220 15:26 23.06.2022
1449 Clouds 25 1016 44 10000 4.12 220 14:18 23.06.2022
1450 Clouds 23 1015 56 10000 2.57 270 11:33 23.06.2022
1451 Clear 21 1015 63 10000 1.54 280 10:40 23.06.2022
1452 Clouds 19 1015 78 10000 1.03 0 09:19 23.06.2022
1453 Clear 17 1014 84 10000 2.24 184 04:43 23.06.2022
1454 Clear 20 1014 74 10000 3.6 240 00:27 23.06.2022
1455 Clear 20 1014 73 10000 4.63 230 23:49 22.06.2022
1456 Clear 21 1013 69 10000 4.63 240 22:53 22.06.2022
1457 Clear 22 1013 61 10000 5.66 240 21:36 22.06.2022
1458 Clear 23 1012 57 10000 6.69 220 20:51 22.06.2022
1459 Clouds 24 1012 55 10000 7.2 210 20:18 22.06.2022
1460 Clouds 24 1012 53 10000 7.2 210 19:27 22.06.2022
1461 Clear 26 1012 49 10000 4.63 230 17:33 22.06.2022
1462 Clear 25 1012 48 10000 4.12 230 16:41 22.06.2022
1463 Clouds 25 1013 48 10000 3.13 289 15:29 22.06.2022
1464 Clouds 25 1014 49 10000 3.13 215 14:47 22.06.2022
1465 Clouds 23 1014 53 10000 4.12 270 13:47 22.06.2022
1466 Clouds 23 1014 56 10000 4.63 270 13:24 22.06.2022
1467 Clouds 21 1014 61 10000 3.6 280 11:54 22.06.2022
1468 Clouds 21 1014 63 10000 3.09 290 11:29 22.06.2022
1469 Clouds 20 1014 65 10000 3.09 260 10:43 22.06.2022
1470 Clear 18 1014 71 10000 3.09 270 09:18 22.06.2022
1471 Clear 16 1013 73 10000 2.68 258 06:55 22.06.2022
1472 Clear 19 1013 59 10000 3.6 260 02:26 22.06.2022
1473 Clear 20 1012 68 10000 3.6 210 00:57 22.06.2022
1474 Clear 21 1012 60 10000 5.66 210 22:53 21.06.2022
1475 Clear 24 1010 48 10000 7.2 220 20:58 21.06.2022
1476 Clear 26 1009 38 10000 6.69 220 19:24 21.06.2022
1477 Clear 27 1010 28 10000 8.75 220 17:54 21.06.2022
1478 Clouds 28 1010 30 10000 7.2 220 16:47 21.06.2022
1479 Clear 25 1012 44 10000 2.06 30 11:59 21.06.2022
1480 Clear 22 1012 51 10000 3.09 10 10:46 21.06.2022
1481 Clear 20 1012 57 10000 3.09 30 09:35 21.06.2022
1482 Clear 17 1012 74 10000 2.06 330 07:50 21.06.2022
1483 Clear 17 1012 77 10000 1.54 170 04:59 21.06.2022
1484 Clear 20 1013 68 10000 4.63 210 00:31 21.06.2022
1485 Clear 23 1012 51 10000 6.69 210 22:21 20.06.2022
1486 Clear 25 1011 44 10000 7.72 220 21:40 20.06.2022
1487 Clear 28 1010 28 10000 4.12 240 20:30 20.06.2022
1488 Clear 29 1010 27 10000 5.14 270 19:37 20.06.2022
1489 Clear 29 1010 28 10000 4.12 250 18:34 20.06.2022
1490 Clear 29 1010 29 10000 4.12 260 17:49 20.06.2022
1491 Clear 28 1011 33 10000 4.12 240 16:53 20.06.2022
1492 Clear 28 1012 34 10000 5.14 270 15:52 20.06.2022
1493 Clouds 24 1013 56 10000 3.09 200 12:37 20.06.2022
1494 Clouds 21 1012 73 10000 3.09 300 10:22 20.06.2022
1495 Clear 19 1011 82 10000 2.57 270 08:56 20.06.2022
1496 Clear 18 1011 85 10000 2.57 220 07:53 20.06.2022
1497 Clouds 19 1010 85 10000 2.57 200 05:26 20.06.2022
1498 Clear 21 1011 80 10000 3.13 185 01:33 20.06.2022
1499 Clear 21 1011 78 10000 4.63 220 00:25 20.06.2022
1500 Clear 22 1011 68 10000 5.66 220 22:46 19.06.2022
1501 Clear 24 1009 62 10000 4.02 208 21:51 19.06.2022
1502 Clear 24 1009 60 10000 7.2 220 21:31 19.06.2022
1503 Clear 26 1009 56 10000 6.69 210 20:38 19.06.2022
1504 Clear 27 1009 52 10000 6.69 220 19:47 19.06.2022
1505 Clear 28 1009 48 10000 5.66 220 18:43 19.06.2022
1506 Clear 28 1009 46 10000 6.17 220 17:54 19.06.2022
1507 Clear 28 1010 46 10000 5.14 220 17:22 19.06.2022
1508 Clouds 28 1010 47 10000 6.69 220 16:35 19.06.2022
1509 Clouds 27 1010 50 10000 5.14 220 15:41 19.06.2022
1510 Clouds 27 1011 50 10000 5.14 230 14:57 19.06.2022
1511 Clouds 26 1011 54 10000 5.14 230 14:19 19.06.2022
1512 Clouds 25 1012 59 10000 3.13 179 13:21 19.06.2022
1513 Clouds 22 1012 70 10000 3.6 280 11:21 19.06.2022
1514 Clouds 21 1013 76 10000 2.57 220 09:58 19.06.2022
1515 Clear 19 1012 80 10000 2.57 200 08:47 19.06.2022
1516 Clear 19 1012 80 10000 2.06 200 08:19 19.06.2022
1517 Clear 19 1012 83 10000 3.6 210 05:42 19.06.2022
1518 Clear 21 1013 80 10000 3.6 190 02:26 19.06.2022
1519 Clear 21 1013 73 10000 4.47 191 00:25 19.06.2022
1520 Clear 22 1014 65 10000 4.63 220 23:36 18.06.2022
1521 Clear 24 1013 46 10000 5.66 220 22:44 18.06.2022
1522 Clear 26 1010 42 10000 6.17 210 21:38 18.06.2022
1523 Clear 27 1010 40 10000 7.72 220 20:42 18.06.2022
1524 Clear 29 1010 36 10000 7.72 220 19:40 18.06.2022
1525 Clear 31 1010 32 10000 7.72 210 18:53 18.06.2022
1526 Clear 32 1010 35 10000 7.72 220 17:35 18.06.2022
1527 Clear 32 1011 35 10000 7.2 240 16:59 18.06.2022
1528 Clear 32 1011 38 10000 6.17 230 15:37 18.06.2022
1529 Clear 32 1013 38 10000 4.12 220 14:48 18.06.2022
1530 Clear 31 1013 41 10000 4.63 240 13:42 18.06.2022
1531 Clear 29 1013 50 10000 2.24 214 11:58 18.06.2022
1532 Clear 27 1013 54 10000 1.03 0 10:56 18.06.2022
1533 Clear 27 1013 54 10000 1.03 0 10:56 18.06.2022
1534 Clear 24 1014 71 10000 2.06 230 09:28 18.06.2022
1535 Clear 22 1014 77 10000 1.79 182 08:32 18.06.2022
1536 Clear 22 1014 78 10000 3.09 180 07:23 18.06.2022
1537 Clear 24 1014 61 10000 1.54 210 03:58 18.06.2022
1538 Clouds 26 1015 53 10000 1.79 259 01:27 18.06.2022
1539 Clear 27 1015 46 10000 4.12 260 00:49 18.06.2022
1540 Clear 27 1016 47 10000 3.09 270 00:21 18.06.2022
1541 Clear 28 1015 48 10000 3.6 220 23:29 17.06.2022
1542 Clear 32 1014 33 10000 4.63 220 21:44 17.06.2022
1543 Clear 34 1012 36 10000 4.63 220 20:29 17.06.2022
1544 Clear 35 1012 35 10000 3.09 240 19:19 17.06.2022
1545 Clear 35 1013 35 10000 2.68 206 17:47 17.06.2022
1546 Clear 35 1015 32 10000 3.09 280 16:44 17.06.2022
1547 Clear 34 1015 33 10000 3.09 280 16:19 17.06.2022
1548 Clear 32 1016 32 10000 2.57 250 15:37 17.06.2022
1549 Clear 31 1015 40 10000 2.57 280 14:23 17.06.2022
1550 Clear 31 1015 41 10000 2.57 280 13:57 17.06.2022
1551 Clear 30 1015 42 10000 2.06 290 13:37 17.06.2022
1552 Clear 29 1016 48 10000 1.54 50 12:24 17.06.2022
1553 Clear 28 1016 53 10000 2.06 70 11:50 17.06.2022
1554 Clear 27 1016 56 10000 2.06 90 11:32 17.06.2022
1555 Clear 21 1016 80 10000 1.54 200 08:56 17.06.2022
1556 Clear 20 1016 82 10000 2.06 150 08:25 17.06.2022
1557 Clear 21 1015 81 10000 1.79 176 06:42 17.06.2022
1558 Clear 22 1016 75 10000 3.09 180 03:42 17.06.2022
1559 Clear 23 1016 60 10000 3.6 210 01:55 17.06.2022
1560 Clear 28 1015 44 10000 4.12 220 23:35 16.06.2022
1561 Clear 30 1015 39 10000 4.63 220 22:41 16.06.2022
1562 Clear 30 1014 43 10000 4.12 230 21:21 16.06.2022
1563 Clear 31 1014 41 10000 4.63 220 20:51 16.06.2022
1564 Clear 32 1012 42 10000 5.14 220 20:27 16.06.2022
1565 Clear 33 1012 41 10000 4.63 220 19:32 16.06.2022
1566 Clear 34 1013 40 10000 3.58 271 17:57 16.06.2022
1567 Clear 34 1013 39 10000 3.6 190 17:33 16.06.2022
1568 Clear 33 1014 36 10000 2.57 230 16:24 16.06.2022
1569 Clear 32 1015 37 10000 2.57 0 15:21 16.06.2022
1570 Clear 32 1015 42 10000 1.79 263 14:28 16.06.2022
1571 Clear 28 1015 53 10000 1.54 230 12:59 16.06.2022
1572 Clear 26 1015 59 10000 1.54 220 12:35 16.06.2022
1573 Clear 27 1015 58 10000 1.03 130 11:49 16.06.2022
1574 Clear 25 1015 69 10000 0.89 249 10:51 16.06.2022
1575 Clear 23 1015 75 10000 1.34 179 09:43 16.06.2022
1576 Clear 22 1015 80 10000 3.6 220 09:20 16.06.2022
1577 Clouds 21 1015 84 10000 3.13 186 07:57 16.06.2022
1578 Clear 21 1015 84 10000 1.54 330 06:51 16.06.2022
1579 Clear 22 1015 81 10000 3.13 207 04:33 16.06.2022
1580 Clear 24 1016 72 10000 4.12 220 01:54 16.06.2022
1581 Clear 24 1016 69 10000 3.09 220 01:34 16.06.2022
1582 Clear 26 1016 58 10000 6.17 210 00:38 16.06.2022
1583 Clear 30 1015 37 10000 2.57 210 23:25 15.06.2022
1584 Rain 30 1013 45 10000 3.6 260 22:28 15.06.2022
1585 Rain 31 1012 44 10000 4.47 242 21:21 15.06.2022
1586 Clear 33 1013 37 10000 5.66 230 20:38 15.06.2022
1587 Clear 34 1010 37 10000 5.66 230 20:19 15.06.2022
1588 Clear 38 1010 29 10000 3.6 230 19:19 15.06.2022
1589 Clear 39 1010 24 10000 2.57 220 17:55 15.06.2022
1590 Clear 40 1011 20 10000 2.57 150 16:40 15.06.2022
1591 Clear 39 1011 22 10000 2.57 40 15:35 15.06.2022
1592 Clear 36 1012 25 10000 2.06 100 13:44 15.06.2022
1593 Clear 34 1013 28 10000 2.57 0 12:54 15.06.2022
1594 Clear 32 1012 35 10000 3.09 60 11:52 15.06.2022
1595 Clear 29 1013 53 10000 1.79 85 10:24 15.06.2022
1596 Clear 27 1013 61 10000 1.79 76 09:42 15.06.2022
1597 Clear 25 1013 70 10000 1.03 60 08:37 15.06.2022
1598 Clear 24 1014 71 10000 1.54 160 06:34 15.06.2022
1599 Clear 26 1013 67 10000 1.54 210 03:59 15.06.2022
1600 Clear 27 1013 59 10000 3.13 187 01:54 15.06.2022
1601 Clear 29 1014 48 10000 3.09 220 00:50 15.06.2022
1602 Clear 31 1013 38 10000 4.12 280 23:39 14.06.2022
1603 Clear 31 1012 43 10000 5.14 300 23:19 14.06.2022
1604 Clear 32 1011 41 10000 4.12 270 22:21 14.06.2022
1605 Clear 35 1010 36 10000 3.6 240 21:36 14.06.2022
1606 Clear 35 1010 37 10000 3.13 235 20:54 14.06.2022
1607 Clear 36 1010 34 10000 2.57 230 20:28 14.06.2022
1608 Clear 37 1010 34 10000 2.24 187 19:18 14.06.2022
1609 Clear 38 1012 27 10000 1.54 220 17:54 14.06.2022
1610 Clear 37 1013 23 10000 3.09 250 16:44 14.06.2022
1611 Clear 36 1013 26 10000 2.57 210 15:50 14.06.2022
1612 Clear 35 1013 25 10000 2.57 210 15:28 14.06.2022
1613 Clear 33 1014 29 10000 2.57 290 14:33 14.06.2022
1614 Clear 33 1014 31 10000 2.06 270 13:46 14.06.2022
1615 Clear 32 1014 32 10000 2.06 300 12:45 14.06.2022
1616 Clear 29 1013 42 10000 1.34 162 11:38 14.06.2022
1617 Clear 28 1013 46 10000 1.34 188 10:48 14.06.2022
1618 Clear 27 1013 49 10000 1.54 270 10:22 14.06.2022
1619 Clear 24 1013 57 10000 2.06 340 08:48 14.06.2022
1620 Clear 23 1013 58 10000 2.06 290 07:49 14.06.2022
1621 Clear 25 1014 45 10000 2.57 240 05:29 14.06.2022
1622 Clear 26 1013 44 10000 1.34 251 03:20 14.06.2022
1623 Clear 29 1012 37 10000 2.57 230 00:54 14.06.2022
1624 Clear 31 1012 34 10000 3.6 220 23:41 13.06.2022
1625 Clear 34 1011 29 10000 4.12 220 22:26 13.06.2022
1626 Clear 36 1011 21 10000 4.12 220 21:54 13.06.2022
1627 Clear 39 1011 20 10000 1.54 260 20:42 13.06.2022
1628 Clear 41 1009 19 10000 3.6 300 19:35 13.06.2022
1629 Clear 41 1010 17 10000 1.79 212 18:31 13.06.2022
1630 Clear 41 1010 17 10000 2.06 10 17:48 13.06.2022
1631 Clear 41 1010 16 10000 1.03 260 16:54 13.06.2022
1632 Clear 39 1012 14 10000 1.54 330 15:41 13.06.2022
1633 Clear 39 1013 15 10000 2.06 10 14:47 13.06.2022
1634 Clear 35 1014 15 10000 2.57 20 13:55 13.06.2022
1635 Clear 32 1015 18 10000 3.09 40 12:59 13.06.2022
1636 Clear 30 1015 21 10000 2.57 10 11:38 13.06.2022
1637 Clear 28 1014 30 10000 2.57 30 10:28 13.06.2022
1638 Clear 26 1014 33 10000 2.57 40 09:42 13.06.2022
1639 Clear 24 1014 37 10000 2.68 46 08:25 13.06.2022
1640 Clear 23 1015 42 10000 1.54 300 06:34 13.06.2022
1641 Clear 26 1015 35 10000 3.6 280 03:45 13.06.2022
1642 Clear 28 1015 32 10000 2.06 360 01:39 13.06.2022
1643 Clear 29 1015 31 10000 2.57 360 00:59 13.06.2022
1644 Clear 31 1013 23 10000 1.79 300 23:33 12.06.2022
1645 Clear 34 1012 26 10000 2.57 140 22:23 12.06.2022
1646 Clear 39 1012 17 10000 4.12 170 21:40 12.06.2022
1647 Clear 40 1011 18 10000 2.57 20 20:43 12.06.2022
1648 Clear 41 1010 20 10000 2.57 360 19:42 12.06.2022
1649 Clear 41 1010 18 10000 1.79 230 18:46 12.06.2022
1650 Clear 41 1013 13 10000 3.6 230 16:57 12.06.2022
1651 Clear 39 1014 13 10000 2.06 310 15:33 12.06.2022
1652 Clear 38 1014 13 10000 2.06 290 14:48 12.06.2022
1653 Clear 38 1014 16 10000 3.6 350 14:18 12.06.2022
1654 Clear 38 1014 16 10000 2.06 50 13:43 12.06.2022
1655 Clear 34 1014 21 10000 4.63 70 11:58 12.06.2022
1656 Clear 31 1014 24 10000 6.17 70 10:46 12.06.2022
1657 Clear 27 1014 31 10000 6.17 60 09:36 12.06.2022
1658 Clear 25 1014 32 10000 4.12 60 08:49 12.06.2022
1659 Clear 25 1014 32 10000 2.24 62 07:51 12.06.2022
1660 Clear 24 1014 34 10000 1.34 26 06:21 12.06.2022
1661 Clear 25 1014 36 10000 3.09 70 03:44 12.06.2022
1662 Clear 28 1014 32 10000 3.09 330 01:49 12.06.2022
1663 Clear 28 1014 32 10000 3.09 330 01:29 12.06.2022
1664 Clear 28 1014 32 10000 2.24 294 00:44 12.06.2022
1665 Clear 28 1014 32 10000 1.34 287 00:18 12.06.2022
1666 Clear 31 1013 29 10000 1.54 210 23:18 11.06.2022
1667 Clear 31 1012 30 10000 3.13 194 22:35 11.06.2022
1668 Clear 35 1011 27 10000 3.58 198 21:18 11.06.2022
1669 Clear 35 1011 27 10000 3.58 198 21:18 11.06.2022
1670 Clear 38 1011 23 10000 2.24 220 20:26 11.06.2022
1671 Clear 39 1010 21 10000 2.24 192 19:33 11.06.2022
1672 Clear 39 1011 21 10000 3.6 240 18:44 11.06.2022
1673 Clear 40 1010 20 10000 3.6 240 18:25 11.06.2022
1674 Clear 39 1011 20 10000 3.09 210 17:47 11.06.2022
1675 Clear 40 1011 20 10000 2.06 110 17:25 11.06.2022
1676 Clear 39 1011 20 10000 1.34 250 16:42 11.06.2022
1677 Clear 39 1012 21 10000 2.57 80 16:18 11.06.2022
1678 Clear 37 1013 20 10000 2.57 110 14:44 11.06.2022
1679 Clear 36 1013 21 10000 2.68 155 13:52 11.06.2022
1680 Clear 32 1014 28 10000 2.57 100 11:55 11.06.2022
1681 Clear 28 1014 39 10000 2.24 87 10:31 11.06.2022
1682 Clear 26 1014 44 10000 1.54 360 09:41 11.06.2022
1683 Clear 24 1014 48 10000 2.24 46 08:38 11.06.2022
1684 Clear 23 1015 49 10000 2.57 40 06:33 11.06.2022
1685 Clear 24 1015 54 10000 1.54 40 05:44 11.06.2022
1686 Clear 25 1015 52 10000 1.03 90 03:18 11.06.2022
1687 Clear 27 1016 47 10000 1.34 335 01:51 11.06.2022
1688 Clear 27 1015 46 10000 2.06 210 01:25 11.06.2022
1689 Clear 31 1014 38 10000 2.06 200 23:26 10.06.2022
1690 Clear 32 1013 39 10000 1.79 271 22:21 10.06.2022
1691 Clear 34 1013 32 10000 3.09 210 21:44 10.06.2022
1692 Clear 37 1011 32 10000 6.17 180 20:39 10.06.2022
1693 Clear 37 1011 31 10000 6.17 180 20:19 10.06.2022
1694 Clear 39 1011 26 10000 2.57 220 19:19 10.06.2022
1695 Clear 39 1011 26 10000 1.79 229 18:32 10.06.2022
1696 Clear 39 1011 26 10000 2.06 80 17:50 10.06.2022
1697 Clear 39 1011 27 10000 2.06 60 17:22 10.06.2022
1698 Clear 38 1012 27 10000 2.06 360 16:26 10.06.2022
1699 Clear 37 1013 28 10000 3.09 80 15:39 10.06.2022
1700 Clear 36 1014 30 10000 2.06 20 14:24 10.06.2022
1701 Clear 34 1014 33 10000 3.6 110 12:57 10.06.2022
1702 Clear 32 1015 41 10000 4.12 30 11:59 10.06.2022
1703 Clear 30 1015 48 10000 4.63 30 10:46 10.06.2022
1704 Clear 27 1015 54 10000 4.63 40 09:56 10.06.2022
1705 Clear 25 1015 60 10000 2.57 40 08:48 10.06.2022
1706 Clear 24 1014 64 10000 2.06 70 07:41 10.06.2022
1707 Clear 24 1014 64 10000 2.68 356 06:46 10.06.2022
1708 Clear 24 1014 64 10000 2.68 1 06:27 10.06.2022
1709 Clear 24 1014 64 10000 0.89 356 04:47 10.06.2022
1710 Clear 26 1014 56 10000 4.12 220 01:59 10.06.2022
1711 Clear 26 1014 54 10000 3.6 220 01:36 10.06.2022
1712 Clear 26 1014 54 10000 3.6 220 01:36 10.06.2022
1713 Clear 29 1015 42 10000 4.63 210 23:57 09.06.2022
1714 Clear 31 1012 42 10000 5.14 220 22:24 09.06.2022
1715 Clear 34 1011 37 10000 5.66 200 21:38 09.06.2022
1716 Clear 34 1011 36 10000 5.66 200 21:18 09.06.2022
1717 Clear 38 1010 26 10000 2.06 50 20:27 09.06.2022
1718 Clear 38 1010 25 10000 3.09 360 19:41 09.06.2022
1719 Clear 38 1011 25 10000 2.24 340 18:36 09.06.2022
1720 Clear 38 1011 26 10000 2.24 20 17:28 09.06.2022
1721 Clear 37 1011 27 10000 2.06 70 16:28 09.06.2022
1722 Clear 35 1014 29 10000 4.12 40 14:45 09.06.2022
1723 Clear 34 1013 33 10000 4.12 40 14:24 09.06.2022
1724 Clear 33 1014 36 10000 3.09 40 13:30 09.06.2022
1725 Clear 32 1014 39 10000 3.09 60 12:51 09.06.2022
1726 Clear 29 1015 47 10000 3.6 40 11:20 09.06.2022
1727 Clear 26 1015 54 10000 4.63 30 09:55 09.06.2022
1728 Clear 26 1015 55 10000 3.6 20 09:37 09.06.2022
1729 Clear 24 1015 60 10000 3.09 20 08:33 09.06.2022
1730 Clear 22 1016 63 10000 3.6 20 07:24 09.06.2022
1731 Clear 26 1015 57 10000 1.79 353 03:29 09.06.2022
1732 Clear 29 1015 46 10000 3.09 350 00:34 09.06.2022
1733 Clear 30 1015 43 10000 2.68 3 23:18 08.06.2022
1734 Clear 30 1015 42 10000 2.57 20 22:42 08.06.2022
1735 Clear 31 1014 41 10000 2.57 20 22:23 08.06.2022
1736 Clear 32 1014 38 10000 5.66 10 21:33 08.06.2022
1737 Clear 33 1014 36 10000 5.66 350 20:25 08.06.2022
1738 Clear 35 1013 33 10000 5.14 330 19:41 08.06.2022
1739 Clear 35 1013 32 10000 4.63 340 18:48 08.06.2022
1740 Clear 35 1014 32 10000 5.14 310 17:41 08.06.2022
1741 Clear 34 1015 29 10000 4.63 330 15:54 08.06.2022
1742 Clear 32 1017 33 10000 4.12 10 14:38 08.06.2022
1743 Clear 30 1016 40 10000 2.57 310 12:55 08.06.2022
1744 Clear 30 1016 40 10000 2.57 310 12:55 08.06.2022
1745 Clear 30 1016 40 10000 2.57 310 12:55 08.06.2022
1746 Clear 30 1016 40 10000 2.57 310 12:55 08.06.2022
1747 Clear 28 1016 43 10000 2.57 360 11:36 08.06.2022
1748 Clear 26 1016 47 10000 2.24 1 10:51 08.06.2022
1749 Clear 24 1016 53 10000 2.68 353 09:28 08.06.2022
1750 Clear 23 1016 59 10000 2.24 349 08:54 08.06.2022
1751 Clear 19 1016 69 10000 1.54 160 07:21 08.06.2022
1752 Clear 19 1016 69 10000 1.54 160 07:21 08.06.2022
1753 Clear 22 1015 61 10000 1.03 0 04:47 08.06.2022
1754 Clear 24 1015 61 10000 2.57 210 01:25 08.06.2022
1755 Clear 27 1014 50 10000 3.6 220 23:32 07.06.2022
1756 Clear 28 1015 45 10000 4.63 220 22:58 07.06.2022
1757 Clear 29 1013 46 10000 3.6 220 22:37 07.06.2022
1758 Clear 31 1013 41 10000 6.17 240 21:41 07.06.2022
1759 Clear 31 1013 40 10000 6.17 240 21:20 07.06.2022
1760 Clear 33 1013 37 10000 6.17 260 20:42 07.06.2022
1761 Clear 34 1013 33 10000 6.17 210 19:57 07.06.2022
1762 Clear 35 1013 29 10000 4.63 220 18:26 07.06.2022
1763 Clear 36 1013 25 10000 3.6 280 17:33 07.06.2022
1764 Clear 36 1014 23 10000 3.6 240 16:47 07.06.2022
1765 Clear 35 1014 24 10000 3.6 260 16:28 07.06.2022
1766 Clear 35 1015 25 10000 3.6 270 15:37 07.06.2022
1767 Clear 35 1015 25 10000 3.6 270 15:18 07.06.2022
1768 Clear 34 1016 26 10000 3.6 290 14:43 07.06.2022
1769 Clear 32 1017 33 10000 1.03 0 13:42 07.06.2022
1770 Clear 32 1017 34 10000 1.79 261 13:23 07.06.2022
1771 Clear 29 1018 40 10000 2.06 40 11:56 07.06.2022
1772 Clear 27 1017 47 10000 3.09 30 10:53 07.06.2022
1773 Clear 24 1017 53 10000 1.03 0 09:26 07.06.2022
1774 Clear 21 1017 59 10000 1.54 50 08:28 07.06.2022
1775 Clear 20 1017 63 10000 0.89 358 07:19 07.06.2022
1776 Clear 20 1017 60 10000 1.03 50 04:52 07.06.2022
1777 Clear 22 1017 52 10000 3.09 160 01:43 07.06.2022
1778 Clear 25 1017 40 10000 2.57 200 23:59 06.06.2022
1779 Clear 26 1017 33 10000 3.6 210 22:59 06.06.2022
1780 Clear 28 1017 31 10000 4.63 230 22:30 06.06.2022
1781 Clear 31 1015 24 10000 4.12 220 21:28 06.06.2022
1782 Clear 35 1014 20 10000 2.57 230 19:29 06.06.2022
1783 Clear 35 1014 21 10000 2.24 179 18:59 06.06.2022
1784 Clear 35 1015 22 10000 2.24 225 18:33 06.06.2022
1785 Clear 34 1015 21 10000 2.24 262 17:31 06.06.2022
1786 Clear 34 1016 24 10000 2.57 260 16:21 06.06.2022
1787 Clear 33 1017 24 10000 3.09 360 15:33 06.06.2022
1788 Clear 32 1017 27 10000 3.09 290 14:36 06.06.2022
1789 Clear 31 1018 32 10000 2.06 60 13:27 06.06.2022
1790 Clear 29 1018 35 10000 1.54 300 12:37 06.06.2022
1791 Clear 27 1018 41 10000 2.06 50 11:54 06.06.2022
1792 Clear 26 1018 47 10000 2.57 360 10:46 06.06.2022
1793 Clear 23 1018 57 10000 1.54 20 09:40 06.06.2022
1794 Clear 19 1018 75 10000 1.03 230 08:35 06.06.2022
1795 Clear 18 1017 74 10000 1.03 90 07:28 06.06.2022
1796 Clear 19 1017 71 10000 0.51 0 05:29 06.06.2022
1797 Clear 19 1017 71 10000 0.51 0 05:29 06.06.2022
1798 Clear 19 1017 71 10000 0.51 0 05:29 06.06.2022
1799 Clear 20 1016 70 10000 3.09 180 03:46 06.06.2022
1800 Clear 22 1018 60 10000 1.54 160 01:29 06.06.2022
1801 Clear 23 1018 56 10000 1.34 322 00:42 06.06.2022
1802 Clear 26 1018 41 10000 3.6 270 23:49 05.06.2022
1803 Clear 28 1018 39 10000 4.12 250 22:53 05.06.2022
1804 Clear 30 1017 40 10000 2.24 232 21:26 05.06.2022
1805 Clear 32 1016 29 10000 1.34 187 19:52 05.06.2022
1806 Clear 32 1016 29 10000 1.03 90 18:42 05.06.2022
1807 Clear 32 1016 30 10000 1.34 243 17:56 05.06.2022
1808 Clear 32 1016 30 10000 2.57 290 17:36 05.06.2022
1809 Clear 31 1017 31 10000 2.57 290 17:18 05.06.2022
1810 Clear 31 1017 32 10000 1.79 274 16:45 05.06.2022
1811 Clear 29 1019 38 10000 1.34 110 14:46 05.06.2022
1812 Clear 27 1019 47 10000 2.57 60 13:21 05.06.2022
1813 Clear 24 1020 60 10000 1.34 48 11:56 05.06.2022
1814 Clear 22 1020 70 10000 1.34 345 10:44 05.06.2022
1815 Clear 21 1020 73 10000 0.89 337 10:23 05.06.2022
1816 Clear 18 1020 83 10000 0.51 0 08:45 05.06.2022
1817 Clear 17 1019 85 10000 0.89 328 08:21 05.06.2022
1818 Clear 17 1019 87 10000 1.54 180 05:23 05.06.2022
1819 Clear 17 1018 85 10000 1.54 170 04:33 05.06.2022
1820 Clear 18 1019 81 10000 2.57 210 01:45 05.06.2022
1821 Clear 18 1019 80 10000 2.57 210 01:23 05.06.2022
1822 Clear 19 1019 79 10000 2.57 220 01:23 05.06.2022
1823 Clear 20 1019 63 10000 4.63 220 22:45 04.06.2022
1824 Clear 23 1017 56 10000 5.14 220 21:24 04.06.2022
1825 Clear 26 1016 47 10000 5.66 240 18:58 04.06.2022
1826 Clear 26 1016 46 10000 6.17 0 16:48 04.06.2022
1827 Clear 26 1016 45 10000 5.14 220 16:20 04.06.2022
1828 Clouds 25 1016 46 10000 4.12 220 15:35 04.06.2022
1829 Clouds 24 1017 48 10000 3.6 270 13:57 04.06.2022
1830 Clouds 21 1017 65 10000 2.06 250 11:38 04.06.2022
1831 Clouds 20 1016 69 10000 2.06 220 10:52 04.06.2022
1832 Clouds 19 1016 79 10000 1.54 200 09:47 04.06.2022
1833 Clouds 18 1016 83 10000 1.34 183 08:59 04.06.2022
1834 Clouds 17 1016 86 10000 1.54 160 08:37 04.06.2022
1835 Clouds 16 1015 88 10000 1.34 191 06:25 04.06.2022
1836 Clear 17 1015 85 10000 2.06 210 03:52 04.06.2022
1837 Clear 19 1016 76 10000 4.12 260 00:22 04.06.2022
1838 Clear 20 1015 65 10000 4.63 240 22:56 03.06.2022
1839 Clear 22 1014 58 10000 5.66 250 21:52 03.06.2022
1840 Clear 24 1013 52 10000 5.66 230 20:40 03.06.2022
1841 Clear 25 1013 51 10000 6.69 220 19:37 03.06.2022
1842 Clear 26 1013 47 10000 5.66 220 16:58 03.06.2022
1843 Clouds 26 1014 49 10000 5.66 210 15:55 03.06.2022
1844 Clouds 25 1014 49 10000 3.6 260 14:42 03.06.2022
1845 Clouds 23 1015 59 10000 2.57 160 12:21 03.06.2022
1846 Clouds 20 1014 78 10000 1.03 0 09:57 03.06.2022
1847 Clouds 20 1014 82 10000 1.03 0 09:29 03.06.2022
1848 Clouds 19 1014 82 10000 1.03 0 09:29 03.06.2022
1849 Clouds 17 1014 89 10000 1.03 260 07:47 03.06.2022
1850 Clouds 17 1014 89 10000 1.34 203 07:19 03.06.2022
1851 Clouds 17 1014 89 10000 1.34 178 06:29 03.06.2022
1852 Clouds 18 1014 87 10000 2.57 210 03:52 03.06.2022
1853 Clear 20 1015 74 10000 3.09 220 23:53 02.06.2022
1854 Clear 22 1013 66 10000 5.14 240 22:33 02.06.2022
1855 Clear 24 1012 52 10000 5.14 240 20:57 02.06.2022
1856 Clear 26 1012 48 10000 6.17 220 19:58 02.06.2022
1857 Clear 26 1012 47 10000 5.66 230 19:39 02.06.2022
1858 Clear 26 1012 50 10000 5.66 220 18:59 02.06.2022
1859 Clear 26 1013 46 10000 4.12 230 16:30 02.06.2022
1860 Clear 26 1013 44 10000 3.6 190 15:47 02.06.2022
1861 Clouds 25 1015 51 10000 3.09 250 13:32 02.06.2022
1862 Clouds 24 1015 55 10000 3.09 270 12:51 02.06.2022
1863 Clouds 21 1015 71 10000 2.57 240 10:53 02.06.2022
1864 Clouds 21 1015 73 10000 2.57 270 10:19 02.06.2022
1865 Clear 19 1015 82 10000 3.09 220 09:27 02.06.2022
1866 Clear 18 1014 90 10000 2.57 210 08:24 02.06.2022
1867 Clouds 17 1014 89 10000 2.57 220 06:26 02.06.2022
1868 Clear 18 1014 88 10000 3.09 230 03:53 02.06.2022
1869 Clear 19 1014 83 10000 3.6 220 02:22 02.06.2022
1870 Clear 22 1016 67 10000 3.6 220 23:36 01.06.2022
1871 Clear 24 1014 62 10000 4.12 250 22:21 01.06.2022
1872 Clouds 25 1013 61 10000 4.12 250 21:26 01.06.2022
1873 Clouds 26 1013 57 10000 5.14 240 20:39 01.06.2022
1874 Clear 27 1013 53 10000 5.14 230 19:52 01.06.2022
1875 Clear 27 1013 51 10000 6.17 220 18:52 01.06.2022
1876 Clear 28 1013 48 10000 4.63 230 17:40 01.06.2022
1877 Clear 28 1013 49 10000 4.63 220 16:33 01.06.2022
1878 Clouds 27 1014 51 10000 3.6 220 14:52 01.06.2022
1879 Clouds 26 1015 57 10000 2.68 207 13:44 01.06.2022
1880 Clouds 24 1016 65 10000 3.09 200 12:25 01.06.2022
1881 Clouds 20 1016 82 10000 2.06 130 09:36 01.06.2022
1882 Clouds 19 1015 84 10000 1.54 120 08:38 01.06.2022
1883 Clouds 18 1015 86 10000 1.03 240 07:22 01.06.2022
1884 Clouds 18 1014 88 10000 2.57 210 05:22 01.06.2022
1885 Clear 20 1014 76 10000 3.6 230 00:20 01.06.2022
1886 Clear 21 1014 69 10000 5.14 220 23:26 31.05.2022
1887 Clear 23 1014 57 10000 4.63 210 22:36 31.05.2022
1888 Clear 26 1012 34 10000 5.14 220 21:45 31.05.2022
1889 Clear 28 1012 26 10000 5.66 220 20:45 31.05.2022
1890 Clear 29 1010 33 10000 4.63 220 19:57 31.05.2022
1891 Clear 30 1010 31 10000 5.14 230 18:52 31.05.2022
1892 Clear 30 1010 30 10000 4.12 240 17:50 31.05.2022
1893 Clear 30 1010 36 10000 4.12 220 16:56 31.05.2022
1894 Clear 28 1012 40 10000 4.63 210 15:40 31.05.2022
1895 Clear 26 1013 46 10000 2.57 220 13:52 31.05.2022
1896 Clouds 23 1013 61 10000 2.06 320 12:20 31.05.2022
1897 Clear 21 1013 70 10000 1.54 280 10:55 31.05.2022
1898 Clouds 18 1013 85 10000 1.34 155 09:29 31.05.2022
1899 Clear 15 1012 89 10000 2.06 150 07:24 31.05.2022
1900 Clear 16 1011 87 10000 1.54 190 05:19 31.05.2022
1901 Clear 19 1012 73 10000 2.06 230 00:52 31.05.2022
1902 Clear 20 1012 66 10000 3.6 220 23:27 30.05.2022
1903 Clear 21 1013 62 10000 4.63 220 22:56 30.05.2022
1904 Clear 22 1011 56 10000 4.63 220 21:59 30.05.2022
1905 Clear 23 1011 56 10000 4.63 230 21:32 30.05.2022
1906 Clear 25 1009 49 10000 5.14 230 20:20 30.05.2022
1907 Clear 26 1009 44 10000 4.12 240 18:41 30.05.2022
1908 Clear 26 1010 43 10000 4.12 260 17:36 30.05.2022
1909 Clear 26 1010 44 10000 3.13 251 16:41 30.05.2022
1910 Clouds 24 1011 48 10000 3.09 210 14:49 30.05.2022
1911 Clouds 22 1011 55 10000 3.09 240 12:24 30.05.2022
1912 Clouds 21 1011 64 10000 3.09 250 10:46 30.05.2022
1913 Clear 19 1011 74 10000 1.79 234 09:38 30.05.2022
1914 Clouds 17 1011 83 10000 1.03 0 07:22 30.05.2022
1915 Clouds 17 1010 81 10000 2.06 200 05:49 30.05.2022
1916 Clear 18 1011 78 10000 4.63 230 02:24 30.05.2022
1917 Clouds 19 1010 70 10000 5.14 240 23:21 29.05.2022
1918 Clear 20 1010 67 10000 5.14 220 22:38 29.05.2022
1919 Clouds 22 1009 59 10000 7.2 220 20:57 29.05.2022
1920 Clear 23 1008 56 10000 7.2 230 19:38 29.05.2022
1921 Clear 23 1008 55 10000 7.2 230 19:18 29.05.2022
1922 Clear 24 1009 49 10000 6.69 230 17:32 29.05.2022
1923 Clear 25 1009 48 10000 4.63 220 15:49 29.05.2022
1924 Clouds 25 1009 47 10000 3.6 230 15:23 29.05.2022
1925 Clouds 23 1011 49 10000 3.6 240 14:19 29.05.2022
1926 Clouds 21 1010 62 10000 3.09 210 11:55 29.05.2022
1927 Clouds 20 1011 67 10000 2.57 250 10:42 29.05.2022
1928 Clouds 20 1011 69 10000 3.6 220 09:51 29.05.2022
1929 Clouds 19 1010 79 10000 3.09 220 06:51 29.05.2022
1930 Clouds 18 1011 81 10000 4.12 240 04:49 29.05.2022
1931 Clouds 19 1011 80 10000 4.63 220 04:24 29.05.2022
1932 Clear 20 1012 70 10000 4.12 220 23:59 28.05.2022
1933 Clear 21 1012 65 10000 4.12 220 23:39 28.05.2022
1934 Clear 25 1011 36 10000 4.12 210 22:46 28.05.2022
1935 Clear 26 1011 36 10000 3.6 210 21:42 28.05.2022
1936 Clear 29 1009 35 10000 5.66 230 19:52 28.05.2022
1937 Clear 30 1010 35 10000 6.69 230 19:18 28.05.2022
1938 Clear 32 1010 30 10000 6.17 240 17:48 28.05.2022
1939 Clear 33 1010 28 10000 6.69 250 16:53 28.05.2022
1940 Clear 33 1011 27 10000 4.12 200 15:44 28.05.2022
1941 Clear 32 1011 27 10000 3.13 176 14:37 28.05.2022
1942 Clear 30 1012 28 10000 2.68 201 13:26 28.05.2022
1943 Clear 29 1012 29 10000 1.54 30 12:41 28.05.2022
1944 Clear 26 1012 36 10000 1.34 340 11:27 28.05.2022
1945 Clear 23 1013 42 10000 2.57 40 10:25 28.05.2022
1946 Clear 22 1013 45 10000 2.24 16 09:39 28.05.2022
1947 Clear 19 1012 53 10000 3.09 50 07:53 28.05.2022
1948 Clear 18 1013 58 10000 1.54 50 06:32 28.05.2022
1949 Clear 19 1014 60 10000 1.54 60 04:39 28.05.2022
1950 Clear 23 1015 46 10000 3.09 280 01:30 28.05.2022
1951 Clear 26 1015 31 10000 2.57 270 23:53 27.05.2022
1952 Clear 30 1014 25 10000 4.12 230 22:32 27.05.2022
1953 Clear 32 1014 24 10000 2.06 0 20:59 27.05.2022
1954 Clear 33 1014 22 10000 3.6 90 20:40 27.05.2022
1955 Clear 35 1012 20 10000 2.24 210 19:56 27.05.2022
1956 Clear 35 1012 19 10000 3.09 80 19:34 27.05.2022
1957 Clear 36 1012 19 10000 2.24 277 18:41 27.05.2022
1958 Clear 35 1013 18 10000 2.57 90 16:42 27.05.2022
1959 Clear 34 1014 19 10000 2.57 100 15:46 27.05.2022
1960 Clear 32 1014 22 10000 4.12 40 14:46 27.05.2022
1961 Clear 31 1015 26 10000 5.14 70 13:36 27.05.2022
1962 Clear 27 1016 32 10000 4.63 80 11:48 27.05.2022
1963 Clear 26 1016 36 10000 5.14 80 11:26 27.05.2022
1964 Clear 24 1017 41 10000 4.63 80 10:35 27.05.2022
1965 Clear 23 1017 46 10000 4.12 70 09:52 27.05.2022
1966 Clear 21 1017 49 10000 3.6 70 09:28 27.05.2022
1967 Clear 17 1017 61 10000 3.09 50 06:58 27.05.2022
1968 Clear 19 1019 57 10000 1.03 0 02:59 27.05.2022
1969 Clear 21 1020 51 10000 1.03 0 00:57 27.05.2022
1970 Clear 24 1019 31 10000 1.54 200 23:23 26.05.2022
1971 Clear 26 1018 27 10000 2.06 150 21:48 26.05.2022
1972 Clear 30 1018 25 10000 3.09 130 20:59 26.05.2022
1973 Clear 31 1016 25 10000 2.06 140 19:34 26.05.2022
1974 Clear 31 1016 26 10000 3.09 90 18:31 26.05.2022
1975 Clear 30 1016 26 10000 4.12 120 17:34 26.05.2022
1976 Clear 30 1017 26 10000 4.12 60 16:18 26.05.2022
1977 Clear 29 1018 27 10000 6.17 80 15:19 26.05.2022
1978 Clear 28 1019 30 10000 6.17 70 13:56 26.05.2022
1979 Clear 25 1019 42 10000 4.12 90 11:49 26.05.2022
1980 Clear 22 1019 50 10000 4.12 60 10:39 26.05.2022
1981 Clear 19 1019 59 10000 4.63 30 09:38 26.05.2022
1982 Clear 17 1019 62 10000 2.68 15 08:39 26.05.2022
1983 Clear 17 1019 64 10000 3.09 200 05:30 26.05.2022
1984 Clear 19 1019 44 10000 1.54 150 02:20 26.05.2022
1985 Clear 21 1019 38 10000 2.57 40 23:50 25.05.2022
1986 Clear 22 1019 38 10000 2.06 100 22:52 25.05.2022
1987 Clear 26 1018 24 10000 2.06 70 21:42 25.05.2022
1988 Clear 27 1017 24 10000 2.57 40 20:49 25.05.2022
1989 Clear 29 1015 22 10000 2.06 80 19:42 25.05.2022
1990 Clear 28 1016 23 10000 2.57 40 18:47 25.05.2022
1991 Clear 28 1016 25 10000 3.13 54 16:58 25.05.2022
1992 Clear 27 1016 26 10000 4.63 100 16:27 25.05.2022
1993 Clear 26 1017 27 10000 5.66 40 15:36 25.05.2022
1994 Clear 26 1017 26 10000 5.66 40 15:36 25.05.2022
1995 Clear 26 1017 25 10000 6.69 30 14:50 25.05.2022
1996 Clear 25 1017 27 10000 6.69 50 14:32 25.05.2022
1997 Clear 24 1017 30 10000 6.17 50 13:23 25.05.2022
1998 Clouds 23 1017 34 10000 4.02 76 11:50 25.05.2022
1999 Clear 21 1017 37 10000 6.69 50 10:41 25.05.2022
2000 Clear 19 1017 44 10000 4.63 30 09:38 25.05.2022
2001 Clouds 16 1016 54 10000 0.89 43 07:42 25.05.2022
2002 Clear 16 1015 54 10000 2.57 330 05:41 25.05.2022
2003 Clear 18 1015 52 10000 0.45 333 02:44 25.05.2022
2004 Clear 21 1014 34 10000 5.14 310 23:50 24.05.2022
2005 Clear 23 1012 32 10000 3.6 320 22:59 24.05.2022
2006 Clear 24 1011 30 10000 4.63 340 21:58 24.05.2022
2007 Clear 24 1011 29 10000 5.14 340 21:37 24.05.2022
2008 Clear 25 1010 28 10000 5.14 340 21:19 24.05.2022
2009 Clear 27 1009 28 10000 5.14 320 19:28 24.05.2022
2010 Clear 28 1009 29 10000 6.69 310 18:38 24.05.2022
2011 Clear 28 1009 29 10000 4.12 240 16:40 24.05.2022
2012 Clear 28 1010 30 10000 3.6 270 15:54 24.05.2022
2013 Clear 27 1011 31 10000 2.06 210 14:45 24.05.2022
2014 Clear 25 1011 35 10000 3.09 280 13:48 24.05.2022
2015 Clear 23 1012 42 10000 2.57 270 12:35 24.05.2022
2016 Clear 19 1011 57 10000 2.57 360 09:52 24.05.2022
2017 Clear 18 1011 60 10000 3.09 350 09:27 24.05.2022
2018 Clear 17 1011 63 10000 3.09 340 08:42 24.05.2022
2019 Clear 18 1011 68 10000 1.03 0 06:45 24.05.2022
2020 Clear 19 1010 79 10000 1.03 0 03:48 24.05.2022
2021 Clear 21 1010 70 10000 4.12 220 01:49 24.05.2022
2022 Clear 22 1010 69 10000 3.13 172 00:57 24.05.2022
2023 Clear 25 1009 63 10000 4.12 200 22:29 23.05.2022
2024 Clear 25 1009 61 10000 4.63 210 21:53 23.05.2022
2025 Clear 28 1008 51 10000 4.63 260 20:59 23.05.2022
2026 Clear 29 1008 45 10000 4.02 248 20:26 23.05.2022
2027 Clear 31 1008 35 10000 3.09 260 19:31 23.05.2022
2028 Clear 32 1008 32 10000 4.12 230 18:54 23.05.2022
2029 Clear 31 1008 35 10000 3.09 230 18:27 23.05.2022
2030 Clear 31 1009 35 10000 4.12 0 17:18 23.05.2022
2031 Clear 29 1011 44 10000 3.09 280 14:52 23.05.2022
2032 Clear 25 1013 57 10000 2.06 270 12:50 23.05.2022
2033 Clear 22 1013 70 10000 1.03 0 11:26 23.05.2022
2034 Clear 20 1013 81 10000 1.03 0 09:50 23.05.2022
2035 Clear 19 1013 84 10000 1.54 150 09:28 23.05.2022
2036 Clear 17 1013 90 10000 1.54 190 08:20 23.05.2022
2037 Clear 17 1013 89 10000 3.09 180 06:45 23.05.2022
2038 Clear 17 1013 87 10000 2.24 177 05:25 23.05.2022
2039 Clear 19 1014 84 10000 2.57 200 02:23 23.05.2022
2040 Clear 19 1014 83 10000 3.6 210 01:37 23.05.2022
2041 Clear 20 1014 78 10000 3.6 210 00:20 23.05.2022
2042 Clear 22 1013 72 10000 4.63 230 22:36 22.05.2022
2043 Clear 22 1013 69 10000 4.63 230 21:55 22.05.2022
2044 Clear 23 1012 66 10000 5.66 230 21:32 22.05.2022
2045 Clear 25 1012 57 10000 6.17 260 20:32 22.05.2022
2046 Clear 27 1012 51 10000 5.14 250 19:56 22.05.2022
2047 Clear 27 1012 48 10000 4.63 240 18:55 22.05.2022
2048 Clear 27 1012 48 10000 4.63 250 18:25 22.05.2022
2049 Clouds 27 1013 47 10000 5.14 240 17:34 22.05.2022
2050 Clouds 27 1014 47 10000 2.57 230 16:36 22.05.2022
2051 Clouds 26 1014 51 10000 3.6 250 14:53 22.05.2022
2052 Clouds 25 1015 57 10000 3.09 210 13:54 22.05.2022
2053 Clouds 22 1015 64 10000 2.06 220 12:52 22.05.2022
2054 Clouds 21 1015 70 10000 1.54 210 11:47 22.05.2022
2055 Clouds 19 1015 77 10000 2.06 230 09:46 22.05.2022
2056 Clouds 19 1015 79 10000 2.57 210 09:18 22.05.2022
2057 Clouds 18 1015 81 10000 3.09 220 07:22 22.05.2022
2058 Clouds 19 1015 81 10000 3.09 220 06:24 22.05.2022
2059 Clouds 19 1015 86 10000 3.6 220 02:50 22.05.2022
2060 Clear 20 1016 78 10000 3.09 220 00:44 22.05.2022
2061 Clear 22 1016 74 10000 3.6 230 23:55 21.05.2022
2062 Clear 22 1015 74 10000 3.6 260 23:21 21.05.2022
2063 Clear 24 1014 67 10000 6.17 250 21:47 21.05.2022
2064 Clear 24 1013 66 10000 6.17 250 21:26 21.05.2022
2065 Clear 25 1013 62 10000 6.69 240 20:27 21.05.2022
2066 Clear 26 1013 59 10000 5.14 240 19:43 21.05.2022
2067 Clear 28 1013 54 10000 6.17 270 18:21 21.05.2022
2068 Clear 30 1013 51 10000 4.63 240 16:57 21.05.2022
2069 Clear 30 1014 46 10000 4.12 260 14:38 21.05.2022
2070 Clear 30 1015 35 10000 1.54 340 13:54 21.05.2022
2071 Clear 29 1015 41 10000 3.09 300 13:18 21.05.2022
2072 Clear 27 1015 48 10000 3.6 300 12:38 21.05.2022
2073 Clear 25 1015 56 10000 4.12 250 11:20 21.05.2022
2074 Clear 25 1013 56 10000 1.34 8 09:53 21.05.2022
2075 Clear 24 1014 57 10000 1.34 301 08:58 21.05.2022
2076 Clear 24 1014 59 10000 0.89 61 08:37 21.05.2022
2077 Clouds 24 1013 56 10000 1.79 322 05:52 21.05.2022
2078 Clear 26 1013 45 10000 2.24 2 01:33 21.05.2022
2079 Clear 29 1013 40 10000 2.57 60 23:30 20.05.2022
2080 Clear 31 1012 36 10000 2.24 164 22:29 20.05.2022
2081 Clear 33 1012 25 10000 3.09 80 21:55 20.05.2022
2082 Clear 33 1012 25 10000 3.09 80 21:55 20.05.2022
2083 Clear 35 1011 31 10000 2.24 227 21:19 20.05.2022
2084 Clear 35 1013 28 10000 2.06 80 20:45 20.05.2022
2085 Clear 38 1010 25 10000 2.57 90 19:45 20.05.2022
2086 Clear 39 1011 24 10000 5.14 100 18:49 20.05.2022
2087 Clear 39 1011 23 10000 5.14 90 17:53 20.05.2022
2088 Clear 38 1012 24 10000 2.06 110 16:23 20.05.2022
2089 Clear 37 1012 24 10000 1.79 196 15:53 20.05.2022
2090 Clear 36 1013 27 10000 2.68 112 14:32 20.05.2022
2091 Clear 35 1013 28 10000 2.57 270 13:59 20.05.2022
2092 Clear 30 1014 36 10000 1.03 0 11:52 20.05.2022
2093 Clear 26 1015 43 10000 2.06 60 10:45 20.05.2022
2094 Clear 24 1013 51 10000 4.63 60 09:23 20.05.2022
2095 Clear 24 1013 52 10000 5.14 60 08:24 20.05.2022
2096 Clear 23 1012 51 10000 4.02 79 06:42 20.05.2022
2097 Clouds 23 1012 53 10000 2.68 348 05:39 20.05.2022
2098 Clear 26 1014 53 10000 2.57 190 01:30 20.05.2022
2099 Clear 27 1014 46 10000 2.57 200 23:46 19.05.2022
2100 Clear 29 1012 44 10000 2.06 180 22:36 19.05.2022
2101 Clear 31 1013 29 10000 2.06 190 21:50 19.05.2022
2102 Clear 32 1011 35 10000 2.24 170 21:24 19.05.2022
2103 Clear 33 1012 30 10000 4.12 220 20:47 19.05.2022
2104 Clear 36 1011 26 10000 2.68 247 19:54 19.05.2022
2105 Clear 36 1011 27 10000 2.24 171 19:18 19.05.2022
2106 Clear 36 1012 27 10000 1.54 210 17:44 19.05.2022
2107 Clear 34 1013 27 10000 3.09 250 15:51 19.05.2022
2108 Clear 32 1014 29 10000 2.57 30 14:49 19.05.2022
2109 Clear 32 1014 30 10000 2.06 0 14:20 19.05.2022
2110 Clear 28 1014 43 10000 1.54 0 11:55 19.05.2022
2111 Clear 25 1015 53 10000 1.34 351 10:31 19.05.2022
2112 Clear 21 1014 68 10000 1.34 66 08:44 19.05.2022
2113 Clear 19 1014 72 10000 2.24 354 07:24 19.05.2022
2114 Clear 22 1014 61 10000 2.06 180 03:52 19.05.2022
2115 Clear 25 1014 50 10000 2.57 190 00:58 19.05.2022
2116 Clear 26 1015 43 10000 2.57 250 23:43 18.05.2022
2117 Clear 28 1014 36 10000 4.12 270 22:44 18.05.2022
2118 Clear 30 1014 30 10000 5.14 270 21:45 18.05.2022
2119 Clear 30 1012 37 10000 5.66 270 21:23 18.05.2022
2120 Clear 32 1012 32 10000 5.66 280 20:22 18.05.2022
2121 Clear 35 1011 30 10000 3.6 240 19:18 18.05.2022
2122 Clear 35 1012 29 10000 2.24 175 18:18 18.05.2022
2123 Clear 35 1012 29 10000 3.09 260 17:40 18.05.2022
2124 Clear 35 1012 29 10000 3.09 260 17:22 18.05.2022
2125 Clear 34 1013 31 10000 3.09 290 15:58 18.05.2022
2126 Clear 33 1013 31 10000 3.09 290 15:35 18.05.2022
2127 Clear 32 1014 35 10000 2.06 230 14:21 18.05.2022
2128 Clear 30 1015 40 10000 2.06 300 12:58 18.05.2022
2129 Clear 29 1015 42 10000 1.34 7 12:25 18.05.2022
2130 Clear 27 1015 47 10000 2.57 40 11:33 18.05.2022
2131 Clear 26 1015 51 10000 2.57 50 10:48 18.05.2022
2132 Clear 20 1014 70 10000 2.06 360 08:27 18.05.2022
2133 Clear 20 1014 74 10000 1.03 0 07:28 18.05.2022
2134 Clear 21 1014 65 10000 1.54 140 04:26 18.05.2022
2135 Clear 24 1016 57 10000 1.03 0 00:52 18.05.2022
2136 Clear 26 1016 47 10000 2.06 310 23:41 17.05.2022
2137 Clear 32 1015 25 10000 1.54 240 21:23 17.05.2022
2138 Clear 33 1015 24 10000 1.54 150 20:44 17.05.2022
2139 Clear 34 1014 28 10000 1.79 273 19:45 17.05.2022
2140 Clear 34 1014 27 10000 1.34 319 19:24 17.05.2022
2141 Clear 34 1015 28 10000 1.34 291 17:49 17.05.2022
2142 Clear 33 1016 28 10000 1.79 276 16:58 17.05.2022
2143 Clear 33 1016 31 10000 1.34 96 16:24 17.05.2022
2144 Clear 32 1018 34 10000 2.06 100 15:18 17.05.2022
2145 Clear 31 1018 36 10000 2.57 60 14:29 17.05.2022
2146 Clear 30 1019 40 10000 3.09 30 13:30 17.05.2022
2147 Clear 24 1019 58 10000 3.6 40 10:50 17.05.2022
2148 Clear 20 1019 72 10000 2.57 60 08:55 17.05.2022
2149 Clear 18 1019 78 10000 1.54 20 07:57 17.05.2022
2150 Clear 18 1018 81 10000 0 0 06:36 17.05.2022
2151 Clear 20 1018 75 10000 2.06 160 02:27 17.05.2022
2152 Clear 21 1018 69 10000 2.57 200 00:28 17.05.2022
2153 Clear 24 1019 57 10000 3.6 240 22:41 16.05.2022
2154 Clear 26 1017 51 10000 4.12 220 21:36 16.05.2022
2155 Clear 28 1018 42 10000 3.09 240 20:46 16.05.2022
2156 Clear 30 1017 34 10000 1.79 271 19:22 16.05.2022
2157 Clear 30 1017 34 10000 1.79 241 18:18 16.05.2022
2158 Clear 27 1019 39 10000 2.57 280 15:49 16.05.2022
2159 Clear 25 1020 52 10000 1.54 270 13:49 16.05.2022
2160 Clear 24 1020 55 10000 2.06 60 13:20 16.05.2022
2161 Clouds 20 1020 74 10000 3.09 70 10:53 16.05.2022
2162 Clouds 18 1020 85 10000 2.06 60 09:30 16.05.2022
2163 Clouds 15 1019 91 10000 0.51 190 06:47 16.05.2022
2164 Clear 17 1019 87 10000 2.57 210 03:31 16.05.2022
2165 Clear 19 1019 73 10000 3.6 230 23:26 15.05.2022
2166 Clear 21 1018 66 10000 4.12 220 22:29 15.05.2022
2167 Clear 21 1019 62 10000 5.14 220 21:44 15.05.2022
2168 Clear 23 1017 59 10000 5.14 220 20:54 15.05.2022
2169 Clouds 25 1016 55 10000 5.66 230 19:32 15.05.2022
2170 Clouds 25 1016 51 10000 5.14 210 17:51 15.05.2022
2171 Clouds 25 1017 52 10000 4.63 230 15:59 15.05.2022
2172 Clouds 24 1017 60 10000 2.24 199 13:54 15.05.2022
2173 Clouds 23 1017 63 10000 2.68 279 12:50 15.05.2022
2174 Clouds 21 1017 70 10000 1.79 190 11:39 15.05.2022
2175 Clouds 20 1017 78 10000 1.54 230 10:27 15.05.2022
2176 Clouds 18 1016 88 10000 2.06 170 08:45 15.05.2022
2177 Clouds 17 1016 88 10000 2.06 180 06:58 15.05.2022
2178 Clouds 17 1015 87 10000 2.06 220 05:47 15.05.2022
2179 Clear 18 1015 81 10000 3.09 230 00:49 15.05.2022
2180 Clear 19 1015 77 10000 3.6 220 23:39 14.05.2022
2181 Clear 19 1015 75 10000 3.13 253 22:59 14.05.2022
2182 Clear 21 1014 70 10000 6.17 230 21:29 14.05.2022
2183 Clear 23 1014 63 10000 6.17 230 20:53 14.05.2022
2184 Clear 25 1013 58 10000 7.72 240 19:38 14.05.2022
2185 Clear 25 1013 56 10000 7.2 230 19:19 14.05.2022
2186 Clear 26 1013 55 10000 7.72 220 18:44 14.05.2022
2187 Clear 27 1014 53 10000 7.72 220 16:46 14.05.2022
2188 Clear 29 1015 42 10000 6.17 230 15:30 14.05.2022
2189 Clouds 31 1014 34 10000 4.47 196 14:34 14.05.2022
2190 Clear 26 1015 45 10000 3.13 208 12:34 14.05.2022
2191 Clear 25 1015 49 10000 1.34 235 11:35 14.05.2022
2192 Clear 23 1015 56 10000 1.03 320 10:21 14.05.2022
2193 Clear 23 1015 56 10000 1.03 240 09:53 14.05.2022
2194 Clear 21 1015 68 10000 2.06 210 08:49 14.05.2022
2195 Clear 21 1013 68 10000 2.57 50 06:41 14.05.2022
2196 Clear 23 1015 64 10000 1.54 120 02:45 14.05.2022
2197 Clear 26 1016 52 10000 1.54 320 23:44 13.05.2022
2198 Clear 26 1016 51 10000 1.54 320 23:18 13.05.2022
2199 Clear 27 1016 49 10000 3.09 250 22:43 13.05.2022
2200 Clear 27 1016 48 10000 3.09 250 22:18 13.05.2022
2201 Clear 30 1015 39 10000 2.68 246 20:46 13.05.2022
2202 Clear 31 1014 39 10000 3.58 257 20:27 13.05.2022
2203 Clear 33 1014 26 10000 1.54 360 19:28 13.05.2022
2204 Clear 34 1015 26 10000 1.79 260 17:51 13.05.2022
2205 Clear 34 1015 26 10000 1.54 280 17:29 13.05.2022
2206 Clear 34 1015 27 10000 1.34 341 16:20 13.05.2022
2207 Clear 32 1016 28 10000 1.79 9 15:29 13.05.2022
2208 Clear 30 1017 34 10000 3.09 40 13:48 13.05.2022
2209 Clear 27 1018 40 10000 3.09 10 12:32 13.05.2022
2210 Clear 27 1018 40 10000 3.09 10 12:32 13.05.2022
2211 Clear 25 1018 49 10000 3.09 20 11:23 13.05.2022
2212 Clear 20 1018 64 10000 3.09 60 09:35 13.05.2022
2213 Clear 19 1018 69 10000 2.24 55 08:49 13.05.2022
2214 Clear 18 1018 73 10000 2.57 360 07:48 13.05.2022
2215 Clear 18 1017 72 10000 1.34 321 06:33 13.05.2022
2216 Clear 18 1017 71 10000 1.34 360 06:33 13.05.2022
2217 Clear 19 1017 67 10000 1.54 150 03:34 13.05.2022
2218 Clear 22 1018 56 10000 2.57 240 00:39 13.05.2022
2219 Clear 25 1018 45 10000 4.63 220 22:45 12.05.2022
2220 Clear 28 1017 30 10000 4.63 240 21:58 12.05.2022
2221 Clear 30 1015 35 10000 3.09 250 20:37 12.05.2022
2222 Clear 31 1015 29 10000 2.68 266 19:18 12.05.2022
2223 Clear 31 1015 27 10000 2.57 260 17:27 12.05.2022
2224 Clear 30 1015 27 10000 1.79 203 16:23 12.05.2022
2225 Clear 29 1015 28 10000 1.54 70 14:42 12.05.2022
2226 Clear 28 1016 29 10000 2.57 0 13:47 12.05.2022
2227 Clear 23 1016 43 10000 2.06 20 11:23 12.05.2022
2228 Clear 19 1016 53 10000 2.06 30 09:31 12.05.2022
2229 Clear 19 1016 54 10000 2.24 75 08:51 12.05.2022
2230 Clear 18 1015 58 10000 3.09 50 07:41 12.05.2022
2231 Clear 18 1015 56 10000 3.09 30 06:39 12.05.2022
2232 Clear 19 1016 54 10000 1.54 340 02:59 12.05.2022
2233 Clear 22 1016 43 10000 2.57 220 00:39 12.05.2022
2234 Clear 26 1015 31 10000 2.57 230 22:41 11.05.2022
2235 Clear 25 1014 39 10000 3.09 230 21:55 11.05.2022
2236 Clear 26 1014 37 10000 2.06 180 21:24 11.05.2022
2237 Clear 31 1013 24 10000 3.6 110 19:36 11.05.2022
2238 Clear 31 1013 23 10000 5.14 100 17:24 11.05.2022
2239 Clear 31 1014 23 10000 6.69 100 15:59 11.05.2022
2240 Clear 30 1015 23 10000 6.17 90 14:39 11.05.2022
2241 Clear 30 1015 23 10000 6.17 90 14:39 11.05.2022
2242 Clear 30 1016 24 10000 6.17 90 14:19 11.05.2022
2243 Clear 27 1016 32 10000 6.17 90 12:23 11.05.2022
2244 Clear 26 1016 36 10000 4.63 80 11:47 11.05.2022
2245 Clear 20 1017 54 10000 3.09 20 09:29 11.05.2022
2246 Clear 18 1016 62 10000 2.68 70 06:24 11.05.2022
2247 Clear 21 1018 57 10000 0.89 313 01:29 11.05.2022
2248 Clear 25 1018 38 10000 3.6 230 22:56 10.05.2022
2249 Clear 26 1018 39 10000 3.09 130 22:21 10.05.2022
2250 Clear 28 1017 32 10000 3.09 110 21:21 10.05.2022
2251 Clear 32 1016 28 10000 3.09 90 20:21 10.05.2022
2252 Clear 32 1016 28 10000 2.24 73 18:38 10.05.2022
2253 Clear 32 1016 29 10000 1.54 100 17:37 10.05.2022
2254 Clear 31 1018 30 10000 2.57 350 15:56 10.05.2022
2255 Clear 27 1020 38 10000 3.09 30 12:51 10.05.2022
2256 Clear 25 1020 44 10000 3.09 50 11:53 10.05.2022
2257 Clear 24 1020 47 10000 4.12 50 11:28 10.05.2022
2258 Clear 23 1020 51 10000 3.09 30 10:56 10.05.2022
2259 Clear 19 1020 67 10000 2.06 360 09:28 10.05.2022
2260 Clear 17 1019 76 10000 1.34 343 07:51 10.05.2022
2261 Clear 18 1018 70 10000 2.06 160 05:54 10.05.2022
2262 Clear 21 1019 51 10000 2.06 270 01:53 10.05.2022
2263 Clear 24 1019 42 10000 2.57 260 23:43 09.05.2022
2264 Clear 25 1017 43 10000 5.14 220 22:33 09.05.2022
2265 Clear 28 1016 32 10000 2.57 150 21:36 09.05.2022
2266 Clear 32 1015 25 10000 1.34 66 19:56 09.05.2022
2267 Clear 33 1015 24 10000 1.79 68 18:25 09.05.2022
2268 Clear 33 1015 23 10000 3.09 30 17:25 09.05.2022
2269 Clear 32 1016 29 10000 3.09 10 16:18 09.05.2022
2270 Clear 31 1017 33 10000 3.09 360 15:47 09.05.2022
2271 Clear 29 1017 39 10000 2.06 360 14:33 09.05.2022
2272 Clear 29 1017 41 10000 2.06 20 13:57 09.05.2022
2273 Clear 27 1018 45 10000 2.57 10 12:55 09.05.2022
2274 Clear 24 1018 54 10000 3.09 20 11:52 09.05.2022
2275 Clear 22 1018 65 10000 3.09 30 10:47 09.05.2022
2276 Clear 20 1018 73 10000 1.79 19 10:23 09.05.2022
2277 Clear 16 1017 83 10000 1.03 0 07:57 09.05.2022
2278 Clear 18 1016 81 10000 1.54 140 04:52 09.05.2022
2279 Clear 22 1016 55 10000 3.09 210 00:30 09.05.2022
2280 Clear 23 1016 51 10000 4.63 220 23:28 08.05.2022
2281 Clear 25 1016 47 10000 1.79 170 22:29 08.05.2022
2282 Clear 29 1015 32 10000 2.06 270 20:54 08.05.2022
2283 Clear 31 1014 30 10000 1.34 156 20:23 08.05.2022
2284 Clear 31 1014 29 10000 1.03 0 19:33 08.05.2022
2285 Clear 32 1014 28 10000 1.34 56 18:35 08.05.2022
2286 Clear 31 1015 29 10000 1.34 75 17:39 08.05.2022
2287 Clear 29 1015 37 10000 1.34 268 15:46 08.05.2022
2288 Clear 29 1016 40 10000 1.34 24 15:22 08.05.2022
2289 Clear 25 1018 47 10000 2.57 40 12:46 08.05.2022
2290 Clear 23 1018 55 10000 2.24 70 11:45 08.05.2022
2291 Clear 20 1018 72 10000 2.57 60 10:25 08.05.2022
2292 Clear 19 1018 75 10000 2.24 51 09:53 08.05.2022
2293 Clear 17 1017 85 10000 1.34 325 07:44 08.05.2022
2294 Clear 17 1017 85 10000 1.03 0 06:18 08.05.2022
2295 Clear 18 1016 80 10000 2.06 240 03:22 08.05.2022
2296 Clear 18 1016 80 10000 2.06 240 03:22 08.05.2022
2297 Clear 19 1017 76 10000 2.57 220 01:19 08.05.2022
2298 Clear 21 1017 69 10000 4.12 200 23:57 07.05.2022
2299 Clear 21 1017 65 10000 3.13 189 23:32 07.05.2022
2300 Clear 23 1016 57 10000 3.09 200 22:42 07.05.2022
2301 Clear 24 1016 49 10000 3.09 240 21:56 07.05.2022
2302 Clear 26 1015 44 10000 3.6 260 21:28 07.05.2022
2303 Clouds 28 1015 38 10000 3.58 257 20:25 07.05.2022
2304 Clouds 28 1015 38 10000 3.58 257 20:25 07.05.2022
2305 Clouds 31 1015 30 10000 1.79 267 18:49 07.05.2022
2306 Clouds 31 1015 26 10000 1.54 40 16:49 07.05.2022
2307 Clouds 29 1017 27 10000 1.79 94 14:54 07.05.2022
2308 Clear 24 1018 50 10000 2.68 96 11:28 07.05.2022
2309 Clear 19 1018 67 10000 2.24 69 09:44 07.05.2022
2310 Clear 17 1017 77 10000 2.06 50 08:30 07.05.2022
2311 Clear 16 1017 78 10000 1.03 60 07:25 07.05.2022
2312 Clear 17 1017 78 10000 1.03 0 06:42 07.05.2022
2313 Clear 18 1017 72 10000 1.03 0 04:18 07.05.2022
2314 Clear 21 1018 56 10000 0.89 298 23:51 06.05.2022
2315 Clear 24 1018 50 10000 2.57 290 22:40 06.05.2022
2316 Clear 25 1018 38 10000 1.54 220 21:54 06.05.2022
2317 Clear 25 1018 49 10000 1.34 265 21:30 06.05.2022
2318 Clear 30 1017 32 10000 1.03 20 19:48 06.05.2022
2319 Clear 30 1017 31 10000 1.79 291 19:24 06.05.2022
2320 Clear 30 1017 31 10000 1.34 102 18:34 06.05.2022
2321 Clear 29 1017 32 10000 1.79 105 17:36 06.05.2022
2322 Clear 28 1019 35 10000 2.57 330 15:53 06.05.2022
2323 Clear 28 1019 38 10000 3.09 340 15:28 06.05.2022
2324 Clear 25 1020 51 10000 1.79 279 13:49 06.05.2022
2325 Clear 24 1020 59 10000 1.54 320 12:50 06.05.2022
2326 Clear 22 1020 65 10000 1.03 0 11:58 06.05.2022
2327 Clear 21 1020 68 10000 1.54 260 11:24 06.05.2022
2328 Clear 19 1020 78 7000 0.51 0 09:47 06.05.2022
2329 Clear 18 1020 84 10000 0.51 0 09:18 06.05.2022
2330 Clear 15 1020 90 10000 1.03 130 07:49 06.05.2022
2331 Clear 16 1020 87 10000 0.51 90 06:26 06.05.2022
2332 Clear 17 1020 84 10000 1.34 261 03:42 06.05.2022
2333 Clear 17 1021 82 10000 3.6 210 02:38 06.05.2022
2334 Clear 21 1021 66 10000 3.09 200 23:24 05.05.2022
2335 Clear 22 1020 53 10000 2.06 180 21:50 05.05.2022
2336 Clear 27 1020 32 10000 0.51 140 20:37 05.05.2022
2337 Clear 27 1018 39 10000 1.54 120 19:19 05.05.2022
2338 Clear 26 1019 40 10000 2.24 64 16:42 05.05.2022
2339 Clear 25 1019 41 10000 2.24 123 15:31 05.05.2022
2340 Clear 23 1020 50 10000 2.57 70 13:30 05.05.2022
2341 Clear 22 1021 51 10000 2.24 112 12:56 05.05.2022
2342 Clear 20 1020 65 10000 2.24 39 11:42 05.05.2022
2343 Clear 16 1020 83 10000 1.54 60 09:46 05.05.2022
2344 Clear 14 1019 89 10000 2.06 40 08:54 05.05.2022
2345 Clear 14 1018 91 10000 1.54 40 06:28 05.05.2022
2346 Clear 16 1018 87 10000 1.54 150 02:27 05.05.2022
2347 Clear 16 1018 86 10000 1.54 140 01:44 05.05.2022
2348 Clear 17 1018 83 10000 3.09 50 00:49 05.05.2022
2349 Clear 19 1017 78 10000 3.09 70 23:22 04.05.2022
2350 Clouds 19 1016 74 10000 2.57 360 22:18 04.05.2022
2351 Clouds 20 1015 72 10000 1.79 62 21:45 04.05.2022
2352 Clouds 21 1015 65 10000 2.24 51 20:55 04.05.2022
2353 Clouds 21 1014 62 10000 2.57 20 20:20 04.05.2022
2354 Clouds 21 1014 65 10000 0.89 70 19:35 04.05.2022
2355 Clouds 20 1013 69 10000 2.68 48 18:43 04.05.2022
2356 Clouds 21 1014 61 10000 4.63 50 18:20 04.05.2022
2357 Clouds 21 1013 62 10000 1.79 73 17:22 04.05.2022
2358 Clouds 21 1013 59 10000 3.09 60 15:34 04.05.2022
2359 Clouds 21 1013 59 10000 3.09 40 14:46 04.05.2022
2360 Clouds 21 1013 61 10000 2.24 3 14:20 04.05.2022
2361 Clouds 19 1014 69 10000 1.79 118 12:58 04.05.2022
2362 Clouds 19 1014 69 10000 2.06 50 12:24 04.05.2022
2363 Clouds 16 1013 86 9000 1.03 310 10:30 04.05.2022
2364 Clouds 14 1013 91 8000 1.54 340 09:23 04.05.2022
2365 Mist 14 1012 93 5000 0.45 241 08:33 04.05.2022
2366 Mist 13 1012 93 4800 1.03 0 05:44 04.05.2022
2367 Clouds 14 1012 92 7000 1.03 130 02:43 04.05.2022
2368 Clouds 16 1012 86 10000 1.54 120 23:31 03.05.2022
2369 Clear 16 1011 78 10000 2.24 292 22:20 03.05.2022
2370 Clear 16 1010 75 10000 2.24 191 21:33 03.05.2022
2371 Clear 17 1010 75 10000 4.12 190 20:52 03.05.2022
2372 Rain 17 1009 73 10000 2.57 260 19:44 03.05.2022
2373 Rain 20 1008 59 10000 4.47 76 18:50 03.05.2022
2374 Clouds 22 1008 51 10000 2.57 200 17:38 03.05.2022
2375 Clouds 21 1008 53 10000 2.57 240 16:35 03.05.2022
2376 Clear 20 1010 56 10000 1.54 180 14:51 03.05.2022
2377 Clear 18 1010 64 10000 1.54 0 12:47 03.05.2022
2378 Clear 17 1010 67 10000 2.06 250 12:25 03.05.2022
2379 Clear 17 1010 67 10000 2.06 250 12:25 03.05.2022
2380 Clouds 16 1010 80 10000 1.54 120 10:52 03.05.2022
2381 Clouds 12 1009 87 9000 1.79 7 08:58 03.05.2022
2382 Clouds 13 1008 87 10000 1.54 310 06:46 03.05.2022
2383 Clouds 14 1009 89 10000 1.03 0 04:58 03.05.2022
2384 Clouds 16 1011 88 10000 5.14 220 23:44 02.05.2022
2385 Clear 16 1011 88 10000 3.09 220 22:34 02.05.2022
2386 Clear 16 1010 88 10000 3.6 210 21:49 02.05.2022
2387 Clouds 16 1011 86 10000 5.14 230 20:51 02.05.2022
2388 Clear 20 1010 66 10000 5.81 239 18:37 02.05.2022
2389 Clear 22 1010 49 10000 5.14 330 17:53 02.05.2022
2390 Clear 22 1010 47 10000 6.69 270 17:33 02.05.2022
2391 Clear 22 1011 48 10000 5.66 250 16:20 02.05.2022
2392 Clouds 22 1012 47 10000 4.47 262 15:29 02.05.2022
2393 Clear 21 1013 48 10000 4.12 250 13:50 02.05.2022
2394 Clear 18 1014 56 10000 2.24 203 12:18 02.05.2022
2395 Clear 16 1014 64 10000 2.06 300 10:38 02.05.2022
2396 Clear 13 1014 75 10000 2.57 340 08:49 02.05.2022
2397 Clear 13 1014 80 10000 2.06 300 07:39 02.05.2022
2398 Clear 13 1013 80 10000 2.06 300 07:39 02.05.2022
2399 Clear 16 1016 64 10000 1.54 330 02:51 02.05.2022
2400 Clear 20 1017 55 10000 4.12 290 00:24 02.05.2022
2401 Clear 20 1017 53 10000 3.6 300 23:47 01.05.2022
2402 Clear 22 1016 45 10000 4.63 280 22:20 01.05.2022
2403 Clear 25 1016 37 10000 5.14 270 21:19 01.05.2022
2404 Clear 28 1015 30 10000 6.69 270 19:51 01.05.2022
2405 Clear 29 1015 31 10000 6.69 270 18:57 01.05.2022
2406 Clear 29 1015 32 10000 6.69 270 18:28 01.05.2022
2407 Clear 29 1016 34 10000 3.6 230 17:26 01.05.2022
2408 Clear 29 1016 35 10000 4.12 250 16:23 01.05.2022
2409 Clear 28 1017 38 10000 2.24 238 15:25 01.05.2022
2410 Clear 26 1019 47 10000 1.03 280 13:42 01.05.2022
2411 Clear 21 1020 65 10000 0.51 290 11:18 01.05.2022
2412 Clear 16 1020 80 10000 0.89 178 08:53 01.05.2022
2413 Clear 15 1019 82 10000 1.03 0 07:55 01.05.2022
2414 Clear 17 1020 67 10000 1.03 0 03:31 01.05.2022
2415 Clear 19 1021 63 10000 2.24 259 00:18 01.05.2022
2416 Clear 22 1020 46 10000 2.06 180 21:47 30.04.2022
2417 Clear 25 1019 38 10000 2.06 180 20:58 30.04.2022
2418 Clear 27 1018 33 10000 2.57 80 19:41 30.04.2022
2419 Clear 27 1019 30 10000 2.57 30 17:45 30.04.2022
2420 Clear 27 1020 33 10000 2.57 30 16:44 30.04.2022
2421 Clear 26 1020 35 10000 2.06 70 15:46 30.04.2022
2422 Clear 25 1021 42 10000 2.57 30 14:48 30.04.2022
2423 Clear 22 1023 58 10000 2.06 10 12:55 30.04.2022
2424 Clear 19 1023 67 10000 2.06 30 11:34 30.04.2022
2425 Clear 18 1023 73 10000 1.79 87 10:44 30.04.2022
2426 Clear 16 1022 80 10000 1.54 70 09:41 30.04.2022
2427 Clear 14 1021 84 10000 1.03 30 06:43 30.04.2022
2428 Clear 17 1022 71 10000 3.09 210 02:36 30.04.2022
2429 Clear 19 1022 65 10000 4.47 255 23:37 29.04.2022
2430 Clear 21 1020 59 10000 3.58 262 22:31 29.04.2022
2431 Clear 23 1021 47 10000 0.51 0 21:39 29.04.2022
2432 Clear 24 1020 31 10000 1.03 100 20:49 29.04.2022
2433 Clear 26 1018 35 10000 4.63 90 19:47 29.04.2022
2434 Clear 25 1019 42 10000 3.09 40 17:59 29.04.2022
2435 Clear 25 1019 42 10000 3.09 80 17:23 29.04.2022
2436 Clear 24 1020 43 10000 4.12 100 15:49 29.04.2022
2437 Clear 22 1021 50 10000 5.14 50 14:22 29.04.2022
2438 Clear 20 1022 54 10000 5.14 40 13:21 29.04.2022
2439 Clear 19 1022 58 10000 5.14 70 11:50 29.04.2022
2440 Clear 15 1021 72 10000 4.12 70 08:53 29.04.2022
2441 Clear 14 1021 77 10000 4.12 50 07:28 29.04.2022
2442 Clear 14 1020 76 10000 4.63 50 06:45 29.04.2022
2443 Clear 15 1021 75 10000 4.12 50 04:53 29.04.2022
2444 Clear 16 1020 73 10000 1.03 0 00:46 29.04.2022
2445 Clear 16 1020 71 10000 2.06 180 23:34 28.04.2022
2446 Clear 17 1019 69 10000 1.79 171 22:44 28.04.2022
2447 Clear 17 1018 65 10000 3.6 210 21:47 28.04.2022
2448 Clear 18 1018 63 10000 3.6 210 21:21 28.04.2022
2449 Clear 19 1017 58 10000 3.58 186 20:35 28.04.2022
2450 Clear 22 1017 48 10000 2.57 40 19:45 28.04.2022
2451 Clouds 22 1017 48 10000 1.79 81 19:23 28.04.2022
2452 Clouds 21 1016 48 10000 2.68 27 18:36 28.04.2022
2453 Clouds 24 1016 43 10000 8.23 40 17:26 28.04.2022
2454 Rain 24 1016 39 10000 2.68 24 16:41 28.04.2022
2455 Clouds 24 1016 40 10000 2.24 37 16:19 28.04.2022
2456 Clear 23 1016 43 10000 2.68 322 15:40 28.04.2022
2457 Clouds 22 1017 48 10000 2.24 4 14:36 28.04.2022
2458 Clear 21 1017 56 10000 1.54 60 13:19 28.04.2022
2459 Clear 19 1018 61 10000 1.34 297 11:59 28.04.2022
2460 Clear 18 1018 67 10000 1.03 0 10:47 28.04.2022
2461 Clear 17 1018 71 10000 1.34 2 10:26 28.04.2022
2462 Clear 14 1018 84 10000 1.34 18 08:59 28.04.2022
2463 Clear 14 1017 87 10000 1.03 0 07:37 28.04.2022
2464 Clear 14 1017 87 10000 1.34 325 06:37 28.04.2022
2465 Clear 14 1016 87 10000 0.45 278 05:39 28.04.2022
2466 Clear 14 1016 86 10000 1.54 140 04:41 28.04.2022
2467 Clear 16 1017 80 10000 3.6 170 00:36 28.04.2022
2468 Clear 17 1016 72 10000 2.57 170 22:49 27.04.2022
2469 Clear 18 1016 67 10000 4.12 240 21:57 27.04.2022
2470 Clear 19 1015 64 10000 4.63 240 21:29 27.04.2022
2471 Clear 21 1014 60 10000 4.63 260 20:44 27.04.2022
2472 Clear 22 1016 47 10000 4.12 260 19:39 27.04.2022
2473 Clear 23 1014 49 10000 4.12 260 19:39 27.04.2022
2474 Clear 22 1016 47 10000 4.12 260 19:39 27.04.2022
2475 Clear 23 1014 45 10000 3.13 257 19:19 27.04.2022
2476 Clear 24 1014 41 10000 3.13 261 18:35 27.04.2022
2477 Clear 24 1014 40 10000 4.12 260 17:26 27.04.2022
2478 Clouds 23 1015 46 10000 2.57 220 15:43 27.04.2022
2479 Clouds 20 1016 68 10000 2.06 80 12:34 27.04.2022
2480 Clouds 18 1016 78 10000 1.03 0 11:23 27.04.2022
2481 Mist 16 1016 88 4500 0.89 334 10:22 27.04.2022
2482 Fog 13 1015 92 500 2.57 180 07:29 27.04.2022
2483 Clouds 13 1014 91 10000 3.09 170 06:30 27.04.2022
2484 Clear 14 1014 86 10000 2.06 200 02:21 27.04.2022
2485 Clouds 15 1014 81 10000 2.57 190 01:18 27.04.2022
2486 Clear 16 1014 78 10000 1.34 186 00:27 27.04.2022
2487 Rain 16 1014 73 10000 1.34 294 23:23 26.04.2022
2488 Rain 16 1014 76 10000 3.09 270 22:43 26.04.2022
2489 Clouds 16 1013 78 10000 3.13 267 21:57 26.04.2022
2490 Clear 18 1012 67 10000 5.36 264 20:58 26.04.2022
2491 Clear 18 1012 66 10000 5.66 300 20:36 26.04.2022
2492 Clear 23 1011 51 10000 2.57 210 19:35 26.04.2022
2493 Clear 24 1011 46 10000 2.06 280 18:53 26.04.2022
2494 Clear 23 1011 46 10000 2.24 269 18:19 26.04.2022
2495 Clear 23 1011 47 10000 1.79 233 17:34 26.04.2022
2496 Clouds 22 1012 49 10000 2.06 310 14:58 26.04.2022
2497 Clear 21 1013 52 10000 2.06 320 13:34 26.04.2022
2498 Clear 20 1013 58 10000 2.06 290 12:34 26.04.2022
2499 Clear 17 1012 72 10000 0.89 80 10:57 26.04.2022
2500 Clear 17 1012 75 10000 1.34 353 10:29 26.04.2022
2501 Clear 13 1011 89 10000 1.03 10 08:29 26.04.2022
2502 Clear 13 1010 86 10000 0.89 173 04:38 26.04.2022
2503 Clear 14 1011 82 10000 2.24 176 03:25 26.04.2022
2504 Clear 16 1011 72 10000 1.54 280 00:39 26.04.2022
2505 Clear 16 1012 74 10000 2.06 270 23:44 25.04.2022
2506 Clear 21 1010 49 10000 3.09 300 21:49 25.04.2022
2507 Clear 21 1010 52 10000 2.06 270 20:49 25.04.2022
2508 Clouds 23 1009 49 10000 2.06 170 19:39 25.04.2022
2509 Clouds 23 1009 44 10000 2.57 240 18:25 25.04.2022
2510 Clouds 23 1009 47 10000 2.57 140 17:39 25.04.2022
2511 Clouds 23 1010 48 10000 1.79 270 16:30 25.04.2022
2512 Clouds 22 1011 51 10000 2.57 230 15:19 25.04.2022
2513 Clear 21 1011 57 10000 2.06 180 14:22 25.04.2022
2514 Clear 19 1012 68 10000 1.03 0 12:40 25.04.2022
2515 Clear 14 1011 85 10000 1.79 16 10:29 25.04.2022
2516 Clear 13 1011 90 10000 1.03 0 09:36 25.04.2022
2517 Clear 11 1010 92 9000 1.03 80 07:34 25.04.2022
2518 Clear 11 1010 91 10000 1.54 110 05:53 25.04.2022
2519 Clear 14 1012 84 10000 1.54 130 01:27 25.04.2022
2520 Clear 15 1013 80 10000 2.06 280 23:54 24.04.2022
2521 Clear 15 1013 79 10000 2.06 310 23:22 24.04.2022
2522 Clear 16 1012 76 10000 0.51 0 22:38 24.04.2022
2523 Clear 17 1013 67 10000 1.03 0 21:54 24.04.2022
2524 Clear 18 1012 67 10000 1.34 238 21:21 24.04.2022
2525 Clear 19 1013 54 10000 1.54 180 20:41 24.04.2022
2526 Clear 21 1011 49 10000 1.79 212 19:57 24.04.2022
2527 Clouds 20 1011 51 10000 2.57 310 18:37 24.04.2022
2528 Clouds 20 1012 53 10000 1.34 317 17:42 24.04.2022
2529 Clouds 20 1012 53 10000 1.34 255 17:20 24.04.2022
2530 Clouds 20 1012 54 10000 2.24 271 16:51 24.04.2022
2531 Clouds 19 1012 55 10000 1.79 148 16:23 24.04.2022
2532 Clouds 19 1013 57 10000 1.54 200 15:39 24.04.2022
2533 Clouds 18 1013 61 10000 1.79 278 14:33 24.04.2022
2534 Clouds 17 1014 69 10000 1.34 20 13:26 24.04.2022
2535 Clouds 16 1014 74 10000 0.89 294 12:55 24.04.2022
2536 Clouds 14 1014 83 10000 1.03 90 11:49 24.04.2022
2537 Clouds 12 1014 91 10000 2.06 20 10:37 24.04.2022
2538 Clouds 12 1013 95 9000 2.57 70 09:43 24.04.2022
2539 Mist 11 1013 94 2000 1.03 0 07:42 24.04.2022
2540 Fog 11 1012 94 450 1.34 335 05:38 24.04.2022
2541 Clear 12 1013 92 10000 1.03 0 01:58 24.04.2022
2542 Clear 13 1013 91 10000 1.54 180 00:45 24.04.2022
2543 Clear 13 1012 88 10000 3.6 230 23:46 23.04.2022
2544 Clear 14 1012 88 10000 3.6 230 23:25 23.04.2022
2545 Clouds 15 1011 84 10000 4.63 220 21:58 23.04.2022
2546 Clouds 15 1011 83 10000 4.12 220 21:36 23.04.2022
2547 Clouds 16 1010 80 10000 3.09 240 20:59 23.04.2022
2548 Clouds 16 1009 82 10000 2.57 260 19:56 23.04.2022
2549 Clouds 16 1009 85 10000 2.06 270 19:20 23.04.2022
2550 Clouds 15 1009 88 10000 1.79 253 18:53 23.04.2022
2551 Clouds 15 1010 86 10000 0.89 330 18:31 23.04.2022
2552 Rain 14 1009 88 10000 3.13 251 17:44 23.04.2022
2553 Clouds 14 1009 90 8000 2.06 270 16:45 23.04.2022
2554 Clouds 14 1009 83 9000 4.63 270 15:36 23.04.2022
2555 Clouds 16 1009 62 10000 6.17 270 12:59 23.04.2022
2556 Clouds 14 1009 67 10000 5.66 260 11:24 23.04.2022
2557 Clear 12 1007 78 10000 3.13 273 09:39 23.04.2022
2558 Clouds 10 1005 84 10000 2.24 246 07:52 23.04.2022
2559 Clear 11 1002 85 10000 3.6 240 03:56 23.04.2022
2560 Clouds 11 1002 89 10000 4.63 230 01:59 23.04.2022
2561 Rain 12 1001 90 10000 7.2 230 23:34 22.04.2022
2562 Rain 12 1000 91 10000 4.63 230 22:40 22.04.2022
2563 Rain 12 1000 90 10000 5.66 240 21:55 22.04.2022
2564 Rain 12 1000 90 10000 5.14 230 21:37 22.04.2022
2565 Rain 13 999 90 10000 6.69 240 20:29 22.04.2022
2566 Rain 13 999 89 10000 4.92 243 19:23 22.04.2022
2567 Rain 14 999 85 4000 7.72 240 18:53 22.04.2022
2568 Clouds 15 999 87 10000 7.72 220 18:24 22.04.2022
2569 Rain 13 1000 88 3000 9.26 250 16:53 22.04.2022
2570 Clouds 14 1001 89 10000 8.23 210 15:57 22.04.2022
2571 Rain 14 1001 90 10000 7.2 220 15:23 22.04.2022
2572 Rain 14 1001 89 10000 7.72 220 14:37 22.04.2022
2573 Rain 14 1002 88 10000 7.72 230 13:41 22.04.2022
2574 Rain 14 1002 84 10000 8.75 230 12:35 22.04.2022
2575 Clouds 16 1002 81 10000 5.66 220 11:23 22.04.2022
2576 Clouds 15 1003 85 10000 7.2 220 10:56 22.04.2022
2577 Clouds 15 1003 86 10000 6.17 210 10:32 22.04.2022
2578 Rain 14 1003 88 10000 5.66 200 09:54 22.04.2022
2579 Clouds 13 1003 90 10000 3.09 180 08:56 22.04.2022
2580 Rain 13 1004 89 10000 3.09 170 08:36 22.04.2022
2581 Clouds 13 1005 87 10000 2.68 209 06:21 22.04.2022
2582 Clouds 15 1008 75 10000 5.14 220 00:53 22.04.2022
2583 Clouds 15 1009 75 10000 6.69 220 23:31 21.04.2022
2584 Clear 16 1009 73 10000 6.69 220 22:36 21.04.2022
2585 Clouds 16 1009 71 10000 7.72 220 21:36 21.04.2022
2586 Clouds 17 1009 66 10000 5.66 250 20:30 21.04.2022
2587 Clouds 19 1009 55 10000 8.23 270 18:49 21.04.2022
2588 Clouds 19 1009 55 10000 8.23 270 18:49 21.04.2022
2589 Clouds 19 1009 51 10000 9.26 290 18:26 21.04.2022
2590 Clouds 20 1008 41 10000 6.17 250 17:19 21.04.2022
2591 Clear 20 1009 35 10000 4.63 270 15:24 21.04.2022
2592 Clear 19 1010 39 10000 3.13 264 14:52 21.04.2022
2593 Clear 18 1010 42 10000 3.6 230 14:18 21.04.2022
2594 Clear 17 1011 48 10000 2.57 230 13:21 21.04.2022
2595 Clear 16 1012 56 10000 2.24 271 12:22 21.04.2022
2596 Clear 12 1011 70 10000 2.57 270 09:36 21.04.2022
2597 Clear 10 1011 77 10000 2.57 260 08:47 21.04.2022
2598 Clear 9 1012 78 10000 1.34 327 06:44 21.04.2022
2599 Clear 12 1013 68 10000 3.09 290 03:41 21.04.2022
2600 Clear 12 1013 67 10000 3.09 290 03:22 21.04.2022
2601 Clear 12 1013 67 10000 3.6 290 02:44 21.04.2022
2602 Clear 12 1013 66 10000 3.6 280 02:44 21.04.2022
2603 Clear 13 1013 58 10000 2.06 270 00:35 21.04.2022
2604 Clear 14 1012 51 10000 2.06 290 23:37 20.04.2022
2605 Clear 15 1012 51 10000 2.24 273 23:18 20.04.2022
2606 Clear 16 1011 48 10000 2.57 340 22:36 20.04.2022
2607 Clear 17 1011 41 10000 4.12 340 21:43 20.04.2022
2608 Clear 18 1011 38 10000 5.14 340 20:45 20.04.2022
2609 Clear 19 1010 38 10000 6.69 340 20:21 20.04.2022
2610 Clear 19 1010 37 10000 4.47 333 19:46 20.04.2022
2611 Clear 19 1009 38 10000 4.12 330 18:48 20.04.2022
2612 Clear 18 1009 39 10000 4.12 320 17:50 20.04.2022
2613 Clear 17 1009 39 10000 6.69 340 16:39 20.04.2022
2614 Clear 18 1009 38 10000 6.69 320 15:33 20.04.2022
2615 Clear 15 1010 45 10000 7.72 320 12:46 20.04.2022
2616 Clear 14 1010 51 10000 8.23 300 11:42 20.04.2022
2617 Clear 12 1010 58 10000 7.2 290 10:44 20.04.2022
2618 Clear 10 1010 65 10000 6.17 290 09:34 20.04.2022
2619 Clear 10 1010 66 10000 6.17 290 08:51 20.04.2022
2620 Clear 10 1009 67 10000 6.69 280 08:19 20.04.2022
2621 Clear 10 1009 69 10000 4.63 270 06:23 20.04.2022
2622 Clear 14 1010 58 10000 4.12 300 02:34 20.04.2022
2623 Clear 16 1011 57 10000 5.66 300 00:22 20.04.2022
2624 Clear 17 1011 59 10000 3.09 310 23:19 19.04.2022
2625 Clear 18 1010 59 10000 6.69 340 22:24 19.04.2022
2626 Clear 18 1009 63 10000 4.12 300 21:55 19.04.2022
2627 Clear 19 1010 51 10000 6.17 300 20:59 19.04.2022
2628 Clouds 19 1010 50 10000 5.66 280 20:37 19.04.2022
2629 Clouds 21 1009 45 10000 6.17 280 19:41 19.04.2022
2630 Clouds 21 1009 43 10000 7.2 280 18:37 19.04.2022
2631 Clouds 21 1010 45 10000 7.2 300 17:24 19.04.2022
2632 Clouds 21 1010 48 10000 4.63 240 16:42 19.04.2022
2633 Clouds 21 1010 48 10000 4.63 240 16:42 19.04.2022
2634 Clouds 21 1010 50 10000 4.63 240 16:20 19.04.2022
2635 Clouds 19 1011 53 10000 3.13 248 14:46 19.04.2022
2636 Clouds 18 1012 56 10000 3.6 220 13:22 19.04.2022
2637 Clouds 17 1013 57 10000 3.6 200 12:49 19.04.2022
2638 Clear 15 1013 62 10000 2.24 181 11:38 19.04.2022
2639 Clear 13 1013 69 10000 1.79 336 09:57 19.04.2022
2640 Clear 12 1012 74 10000 3.6 310 08:43 19.04.2022
2641 Clear 15 1012 76 10000 3.09 290 04:41 19.04.2022
2642 Clear 17 1012 72 10000 3.09 300 03:19 19.04.2022
2643 Clear 17 1012 86 10000 5.66 220 00:24 19.04.2022
2644 Clear 18 1012 80 10000 4.12 210 23:25 18.04.2022
2645 Clear 22 1010 62 10000 4.63 220 21:29 18.04.2022
2646 Clear 25 1012 36 10000 4.12 220 20:53 18.04.2022
2647 Clear 25 1010 47 10000 5.14 220 20:27 18.04.2022
2648 Clear 27 1010 38 10000 5.14 210 19:42 18.04.2022
2649 Clear 27 1010 36 10000 5.14 220 18:53 18.04.2022
2650 Clear 27 1011 37 10000 4.12 240 17:54 18.04.2022
2651 Clear 27 1011 38 10000 5.14 240 17:33 18.04.2022
2652 Clear 27 1012 41 10000 5.66 240 16:44 18.04.2022
2653 Clear 27 1012 43 10000 5.14 210 15:54 18.04.2022
2654 Clear 26 1013 46 10000 4.63 230 14:43 18.04.2022
2655 Clear 25 1013 54 10000 4.63 220 13:35 18.04.2022
2656 Clear 25 1013 54 10000 4.63 220 13:35 18.04.2022
2657 Clear 23 1014 60 10000 4.63 220 12:29 18.04.2022
2658 Clear 21 1014 64 10000 4.12 230 11:27 18.04.2022
2659 Clear 20 1014 70 10000 1.79 248 10:29 18.04.2022
2660 Clear 17 1013 78 10000 0.89 200 09:30 18.04.2022
2661 Clear 15 1013 80 10000 1.54 80 07:42 18.04.2022
2662 Clear 17 1012 73 10000 0.45 237 05:35 18.04.2022
2663 Clear 21 1015 55 10000 2.06 300 23:51 17.04.2022
2664 Clear 23 1014 48 10000 4.12 260 22:40 17.04.2022
2665 Clear 25 1014 42 10000 5.14 270 21:42 17.04.2022
2666 Clear 25 1013 45 10000 3.09 260 21:21 17.04.2022
2667 Clear 28 1012 38 10000 3.6 220 20:33 17.04.2022
2668 Clear 30 1013 36 10000 3.09 210 19:23 17.04.2022
2669 Clear 30 1013 34 10000 2.57 280 17:43 17.04.2022
2670 Clear 30 1014 33 10000 1.54 260 15:39 17.04.2022
2671 Clear 29 1015 36 10000 1.79 254 14:54 17.04.2022
2672 Clear 29 1015 36 10000 1.79 254 14:54 17.04.2022
2673 Clear 28 1016 43 10000 1.03 230 13:47 17.04.2022
2674 Clear 26 1016 47 10000 1.34 94 12:58 17.04.2022
2675 Clear 25 1017 50 10000 0.89 77 12:18 17.04.2022
2676 Clear 22 1017 63 10000 1.03 0 10:46 17.04.2022
2677 Clouds 21 1017 65 10000 0.89 33 10:27 17.04.2022
2678 Clouds 21 1017 65 10000 0.89 33 10:27 17.04.2022
2679 Clear 18 1017 76 10000 0.45 86 09:29 17.04.2022
2680 Clear 17 1016 79 10000 1.03 100 08:42 17.04.2022
2681 Clear 16 1016 79 10000 0 0 07:26 17.04.2022
2682 Clear 17 1016 75 10000 2.06 160 04:29 17.04.2022
2683 Clear 20 1019 63 10000 1.54 280 00:55 17.04.2022
2684 Clear 22 1019 57 10000 1.54 310 23:50 16.04.2022
2685 Clear 22 1019 56 10000 1.54 200 22:29 16.04.2022
2686 Clear 25 1018 38 10000 2.06 230 21:38 16.04.2022
2687 Clear 28 1016 35 10000 2.06 210 20:32 16.04.2022
2688 Clear 30 1017 32 10000 1.79 203 18:59 16.04.2022
2689 Clear 30 1017 30 10000 1.34 287 17:46 16.04.2022
2690 Clear 29 1018 35 10000 1.34 1 16:39 16.04.2022
2691 Clear 28 1018 39 10000 1.34 60 15:45 16.04.2022
2692 Clear 27 1019 45 10000 1.34 83 14:56 16.04.2022
2693 Clear 25 1020 49 10000 1.54 70 13:58 16.04.2022
2694 Clear 24 1020 53 10000 1.79 72 13:32 16.04.2022
2695 Clear 21 1021 64 10000 1.34 98 12:22 16.04.2022
2696 Clear 18 1021 72 10000 1.34 25 10:50 16.04.2022
2697 Clear 17 1020 79 10000 1.34 326 09:56 16.04.2022
2698 Clear 15 1020 83 10000 1.03 60 08:57 16.04.2022
2699 Clear 14 1020 85 10000 1.03 0 07:52 16.04.2022
2700 Clear 15 1020 84 10000 1.03 120 06:58 16.04.2022
2701 Clear 17 1021 73 10000 0.89 284 02:52 16.04.2022
2702 Clear 19 1020 69 10000 3.6 220 00:30 16.04.2022
2703 Clear 20 1020 66 10000 3.09 220 23:21 15.04.2022
2704 Clear 21 1019 67 10000 4.63 220 22:32 15.04.2022
2705 Clear 22 1019 61 10000 2.68 182 21:55 15.04.2022
2706 Clear 24 1019 47 10000 1.54 190 21:18 15.04.2022
2707 Clear 26 1018 35 10000 2.06 120 20:24 15.04.2022
2708 Clear 27 1018 33 10000 2.57 60 19:40 15.04.2022
2709 Clear 27 1017 32 10000 2.57 70 18:54 15.04.2022
2710 Clear 27 1017 32 10000 2.57 70 18:25 15.04.2022
2711 Clear 27 1017 33 10000 3.6 60 17:35 15.04.2022
2712 Clear 27 1018 38 10000 3.6 70 16:53 15.04.2022
2713 Clear 26 1018 41 10000 4.12 60 16:19 15.04.2022
2714 Clear 25 1018 45 10000 3.6 70 15:24 15.04.2022
2715 Clear 24 1019 53 10000 4.63 70 13:41 15.04.2022
2716 Clear 22 1019 56 10000 4.12 70 12:42 15.04.2022
2717 Clear 21 1019 61 10000 3.6 70 11:57 15.04.2022
2718 Clear 21 1019 61 10000 3.6 70 11:57 15.04.2022
2719 Clear 20 1019 66 10000 2.57 30 11:35 15.04.2022
2720 Clear 18 1019 69 10000 2.57 30 10:45 15.04.2022
2721 Clear 16 1018 73 10000 1.79 35 09:47 15.04.2022
2722 Clear 16 1018 76 10000 1.54 40 09:21 15.04.2022
2723 Clear 14 1018 78 10000 1.03 50 07:44 15.04.2022
2724 Clear 15 1017 77 10000 1.79 1 06:37 15.04.2022
2725 Clear 16 1017 76 10000 0.89 2 03:47 15.04.2022
2726 Clear 19 1018 70 10000 0.51 180 23:32 14.04.2022
2727 Clear 19 1018 68 10000 1.03 80 22:50 14.04.2022
2728 Clear 20 1018 64 10000 0 0 22:32 14.04.2022
2729 Clear 20 1018 63 10000 1.03 0 21:59 14.04.2022
2730 Clear 21 1017 57 10000 2.06 80 21:30 14.04.2022
2731 Clear 25 1015 40 10000 4.12 30 19:24 14.04.2022
2732 Clear 26 1014 39 10000 3.6 360 18:31 14.04.2022
2733 Clear 26 1014 38 10000 4.02 57 17:44 14.04.2022
2734 Clear 25 1014 42 10000 1.79 45 16:46 14.04.2022
2735 Clear 25 1015 44 10000 2.06 20 15:48 14.04.2022
2736 Clear 22 1016 51 10000 1.34 52 13:49 14.04.2022
2737 Clear 21 1016 54 10000 2.57 120 13:18 14.04.2022
2738 Clear 21 1016 55 10000 3.6 70 12:32 14.04.2022
2739 Clear 19 1016 59 10000 2.24 88 11:36 14.04.2022
2740 Clear 18 1016 60 10000 2.68 84 10:57 14.04.2022
2741 Clear 17 1015 64 10000 2.24 95 10:29 14.04.2022
2742 Clear 14 1016 80 10000 1.03 0 09:26 14.04.2022
2743 Clear 12 1014 81 10000 1.34 21 07:52 14.04.2022
2744 Clear 13 1013 81 10000 0.89 5 05:35 14.04.2022
2745 Clear 16 1015 66 10000 2.57 330 00:22 14.04.2022
2746 Clear 18 1015 59 10000 2.06 340 22:37 13.04.2022
2747 Clear 18 1014 57 10000 2.06 340 21:42 13.04.2022
2748 Clear 21 1014 48 10000 3.6 10 20:39 13.04.2022
2749 Clear 22 1012 43 10000 4.12 350 19:48 13.04.2022
2750 Clouds 22 1012 45 10000 2.57 280 18:37 13.04.2022
2751 Clouds 22 1012 48 10000 2.57 350 17:25 13.04.2022
2752 Clouds 22 1012 50 10000 2.57 320 16:52 13.04.2022
2753 Clouds 21 1013 54 10000 2.06 0 15:45 13.04.2022
2754 Clouds 21 1013 54 10000 2.06 0 15:23 13.04.2022
2755 Clear 20 1013 58 10000 2.57 280 14:40 13.04.2022
2756 Clear 19 1014 63 10000 3.09 330 13:38 13.04.2022
2757 Clear 18 1014 68 10000 4.12 360 12:51 13.04.2022
2758 Clear 16 1014 72 10000 2.57 10 11:47 13.04.2022
2759 Clear 14 1014 81 10000 2.06 330 10:31 13.04.2022
2760 Mist 11 1013 92 1200 0.89 44 08:45 13.04.2022
2761 Fog 10 1013 94 800 1.03 140 07:57 13.04.2022
2762 Clear 11 1012 93 10000 0.89 8 06:48 13.04.2022
2763 Clear 11 1011 93 10000 1.03 0 06:24 13.04.2022
2764 Clouds 12 1012 93 7000 0.89 137 02:24 13.04.2022
2765 Clouds 13 1012 92 10000 1.03 0 00:19 13.04.2022
2766 Rain 13 1011 89 10000 1.54 220 22:33 12.04.2022
2767 Rain 13 1010 87 10000 2.68 189 21:54 12.04.2022
2768 Rain 14 1010 85 8000 3.09 300 20:48 12.04.2022
2769 Rain 14 1010 85 6000 1.79 294 20:22 12.04.2022
2770 Clouds 15 1009 82 10000 2.68 239 19:40 12.04.2022
2771 Clouds 15 1009 80 10000 3.58 233 18:56 12.04.2022
2772 Rain 17 1009 71 10000 3.58 321 17:39 12.04.2022
2773 Clouds 18 1009 72 10000 3.58 261 16:47 12.04.2022
2774 Clouds 16 1009 79 10000 3.09 220 15:38 12.04.2022
2775 Rain 16 1010 81 10000 3.13 271 15:20 12.04.2022
2776 Thunderstorm 15 1010 85 4000 4.12 250 13:53 12.04.2022
2777 Rain 16 1010 80 10000 3.6 200 13:27 12.04.2022
2778 Rain 16 1010 88 10000 3.6 240 12:21 12.04.2022
2779 Clouds 15 1010 90 10000 3.6 230 11:39 12.04.2022
2780 Clouds 13 1010 94 10000 1.54 180 09:52 12.04.2022
2781 Clouds 12 1010 94 10000 2.06 170 08:52 12.04.2022
2782 Clouds 12 1009 94 10000 1.54 170 07:20 12.04.2022
2783 Clear 12 1009 93 10000 2.06 150 05:42 12.04.2022
2784 Clear 13 1009 93 10000 2.06 160 02:49 12.04.2022
2785 Clouds 13 1009 92 10000 1.79 188 23:25 11.04.2022
2786 Clouds 13 1009 92 10000 2.57 210 22:33 11.04.2022
2787 Rain 14 1008 89 10000 2.24 228 21:35 11.04.2022
2788 Clouds 15 1007 87 10000 2.57 210 20:37 11.04.2022
2789 Clouds 15 1007 87 10000 2.57 210 20:19 11.04.2022
2790 Clouds 15 1008 90 8000 4.12 230 19:27 11.04.2022
2791 Clouds 15 1008 85 4000 6.17 240 18:56 11.04.2022
2792 Clouds 16 1007 79 10000 8.75 250 17:58 11.04.2022
2793 Clouds 17 1007 78 10000 8.75 220 17:39 11.04.2022
2794 Clouds 20 1006 68 10000 8.75 220 16:36 11.04.2022
2795 Clouds 20 1007 66 10000 7.72 220 15:21 11.04.2022
2796 Clouds 19 1008 66 10000 6.17 230 13:37 11.04.2022
2797 Clouds 19 1008 66 10000 6.69 220 12:41 11.04.2022
2798 Clouds 19 1008 66 10000 6.17 210 12:22 11.04.2022
2799 Clear 18 1008 73 10000 5.14 200 10:47 11.04.2022
2800 Clear 16 1008 79 10000 3.13 179 09:58 11.04.2022
2801 Clear 14 1008 81 10000 4.12 210 08:22 11.04.2022
2802 Clear 13 1008 78 10000 1.79 303 04:57 11.04.2022
2803 Clear 17 1009 55 10000 1.34 282 00:30 11.04.2022
2804 Clear 19 1008 45 10000 2.57 210 22:27 10.04.2022
2805 Clear 19 1008 45 10000 2.57 210 22:27 10.04.2022
2806 Clear 21 1008 37 10000 3.09 200 21:53 10.04.2022
2807 Clear 23 1007 38 10000 3.6 170 20:55 10.04.2022
2808 Clear 25 1007 29 10000 4.12 180 20:18 10.04.2022
2809 Clear 27 1007 24 10000 4.12 210 19:36 10.04.2022
2810 Clear 27 1008 26 10000 3.6 200 18:50 10.04.2022
2811 Clear 28 1007 26 10000 4.12 220 18:26 10.04.2022
2812 Clear 28 1007 25 10000 4.63 190 17:46 10.04.2022
2813 Clear 28 1007 26 10000 5.66 220 16:59 10.04.2022
2814 Clear 27 1009 33 10000 3.58 187 15:40 10.04.2022
2815 Clear 25 1009 44 10000 2.24 193 14:42 10.04.2022
2816 Clear 25 1009 44 10000 2.24 193 14:42 10.04.2022
2817 Clear 24 1010 48 10000 2.57 260 13:44 10.04.2022
2818 Clear 22 1011 59 10000 2.06 100 12:32 10.04.2022
2819 Clear 20 1011 68 10000 2.06 60 11:44 10.04.2022
2820 Clear 18 1011 72 10000 2.06 60 11:18 10.04.2022
2821 Clear 16 1011 82 10000 2.24 43 10:34 10.04.2022
2822 Clear 14 1012 87 10000 1.79 11 09:41 10.04.2022
2823 Clear 13 1012 89 10000 0.45 353 08:28 10.04.2022
2824 Clear 13 1012 89 10000 1.03 0 07:57 10.04.2022
2825 Clear 14 1012 88 10000 1.34 71 06:59 10.04.2022
2826 Clear 14 1013 87 10000 0.51 0 03:38 10.04.2022
2827 Clear 15 1015 85 10000 2.57 140 02:19 10.04.2022
2828 Clear 17 1015 79 10000 0.51 0 23:53 09.04.2022
2829 Clear 18 1016 75 10000 2.57 210 22:56 09.04.2022
2830 Clear 19 1015 72 10000 1.79 256 22:33 09.04.2022
2831 Clear 21 1016 56 10000 1.54 210 21:23 09.04.2022
2832 Clear 23 1015 49 10000 0.51 310 20:30 09.04.2022
2833 Clear 23 1015 48 10000 1.03 260 19:57 09.04.2022
2834 Clear 23 1015 49 10000 1.34 298 19:39 09.04.2022
2835 Clear 24 1015 48 10000 1.54 340 18:23 09.04.2022
2836 Clear 23 1016 49 10000 1.54 0 17:49 09.04.2022
2837 Clear 23 1016 51 10000 1.79 317 16:57 09.04.2022
2838 Clear 23 1016 50 10000 1.79 288 16:38 09.04.2022
2839 Clear 23 1016 50 10000 1.79 319 16:38 09.04.2022
2840 Clear 23 1016 50 10000 1.79 319 16:38 09.04.2022
2841 Clear 23 1016 50 10000 1.79 288 16:38 09.04.2022
2842 Clear 23 1016 50 10000 1.79 319 16:38 09.04.2022
2843 Clear 22 1017 53 10000 1.34 359 15:50 09.04.2022
2844 Clear 22 1017 54 10000 1.34 295 15:25 09.04.2022
2845 Clear 20 1018 58 10000 1.54 120 14:26 09.04.2022
2846 Clear 19 1019 62 10000 0.89 161 13:33 09.04.2022
2847 Clear 18 1019 66 10000 1.54 30 12:56 09.04.2022
2848 Clear 17 1020 70 10000 1.03 0 11:50 09.04.2022
2849 Clear 15 1019 75 10000 1.54 20 10:52 09.04.2022
2850 Clouds 14 1019 80 10000 0.45 71 10:18 09.04.2022
2851 Clear 13 1020 86 10000 0.51 0 09:22 09.04.2022
2852 Clear 11 1019 90 10000 0 0 08:26 09.04.2022
2853 Clear 12 1020 86 10000 0.51 0 04:38 09.04.2022
2854 Clear 15 1021 81 10000 1.34 319 00:35 09.04.2022
2855 Clear 15 1021 79 10000 3.13 263 23:24 08.04.2022
2856 Clear 16 1020 74 10000 3.6 240 21:53 08.04.2022
2857 Clear 18 1020 64 10000 4.63 270 20:44 08.04.2022
2858 Clear 20 1020 52 10000 5.14 260 19:50 08.04.2022
2859 Clear 21 1019 50 10000 5.66 270 18:56 08.04.2022
2860 Clear 22 1019 48 10000 3.6 250 18:24 08.04.2022
2861 Clear 22 1019 48 10000 4.12 280 17:29 08.04.2022
2862 Clear 21 1020 47 10000 3.13 264 16:58 08.04.2022
2863 Clear 21 1020 47 10000 3.6 270 16:31 08.04.2022
2864 Clear 20 1021 49 10000 2.57 230 15:37 08.04.2022
2865 Clear 20 1021 52 10000 3.09 300 14:52 08.04.2022
2866 Clouds 19 1022 54 10000 1.34 313 14:21 08.04.2022
2867 Clear 18 1022 58 10000 1.79 72 13:36 08.04.2022
2868 Clear 18 1023 59 10000 1.54 60 13:18 08.04.2022
2869 Clear 15 1023 68 10000 3.6 10 11:43 08.04.2022
2870 Clear 13 1023 78 10000 3.13 11 10:26 08.04.2022
2871 Clear 12 1022 85 10000 1.34 35 09:20 08.04.2022
2872 Clear 10 1022 90 7000 1.03 100 07:58 08.04.2022
2873 Clear 10 1022 90 10000 0.51 0 06:47 08.04.2022
2874 Clear 12 1022 87 7000 0.51 0 03:48 08.04.2022
2875 Clear 14 1022 82 10000 2.57 210 00:32 08.04.2022
2876 Clear 15 1022 80 10000 4.12 210 23:53 07.04.2022
2877 Clear 15 1022 79 10000 3.09 210 22:57 07.04.2022
2878 Clear 16 1022 77 10000 4.12 210 22:37 07.04.2022
2879 Clear 16 1021 75 10000 4.12 210 22:19 07.04.2022
2880 Clear 17 1022 72 10000 4.63 220 21:47 07.04.2022
2881 Clear 18 1021 66 10000 5.66 220 20:57 07.04.2022
2882 Clear 20 1020 59 10000 4.63 220 20:28 07.04.2022
2883 Clear 22 1021 48 10000 2.57 290 17:51 07.04.2022
2884 Clear 21 1021 51 10000 1.79 223 17:24 07.04.2022
2885 Clear 20 1021 53 10000 2.06 260 16:42 07.04.2022
2886 Clear 20 1022 56 10000 2.06 310 16:18 07.04.2022
2887 Clear 17 1023 67 10000 1.54 40 14:31 07.04.2022
2888 Clouds 16 1024 75 10000 2.57 20 13:42 07.04.2022
2889 Clouds 14 1025 83 10000 3.09 30 12:40 07.04.2022
2890 Fog 11 1023 93 10000 3.09 40 10:58 07.04.2022
2891 Fog 9 1023 94 150 1.54 360 09:36 07.04.2022
2892 Fog 9 1023 93 500 2.06 20 08:37 07.04.2022
2893 Fog 9 1023 93 500 2.06 20 08:37 07.04.2022
2894 Clouds 9 1021 93 10000 1.03 60 06:42 07.04.2022
2895 Clear 11 1022 90 10000 2.57 190 02:47 07.04.2022
2896 Clear 11 1021 89 10000 2.57 190 02:18 07.04.2022
2897 Clear 13 1021 85 10000 2.57 200 00:26 07.04.2022
2898 Clear 14 1020 81 10000 5.14 220 22:49 06.04.2022
2899 Clear 14 1020 79 10000 4.63 220 22:26 06.04.2022
2900 Clear 15 1019 73 10000 6.69 220 21:34 06.04.2022
2901 Clouds 17 1018 65 10000 3.13 208 20:35 06.04.2022
2902 Clouds 18 1017 57 10000 4.47 181 19:53 06.04.2022
2903 Clouds 19 1017 51 10000 1.79 156 18:51 06.04.2022
2904 Clouds 19 1017 51 10000 1.79 187 18:25 06.04.2022
2905 Clouds 19 1017 52 10000 1.03 200 17:35 06.04.2022
2906 Clouds 18 1017 57 10000 1.03 160 16:38 06.04.2022
2907 Clouds 17 1018 63 10000 1.03 210 15:48 06.04.2022
2908 Clouds 16 1019 66 10000 1.54 260 15:21 06.04.2022
2909 Clouds 13 1019 76 10000 1.54 60 13:24 06.04.2022
2910 Clouds 12 1018 81 10000 1.03 0 12:26 06.04.2022
2911 Drizzle 10 1017 87 10000 1.54 90 10:48 06.04.2022
2912 Drizzle 10 1017 88 10000 1.03 170 10:29 06.04.2022
2913 Clouds 10 1016 88 10000 0.89 83 09:40 06.04.2022
2914 Clouds 10 1016 88 10000 0.89 50 09:40 06.04.2022
2915 Clear 9 1015 89 10000 0.51 20 08:32 06.04.2022
2916 Clouds 9 1014 89 10000 0.51 0 07:53 06.04.2022
2917 Clear 9 1012 87 10000 3.6 40 04:30 06.04.2022
2918 Clear 10 1012 87 10000 5.14 60 23:54 05.04.2022
2919 Clear 10 1012 87 10000 5.14 60 22:58 05.04.2022
2920 Clouds 11 1011 84 10000 4.12 70 21:23 05.04.2022
2921 Clouds 12 1010 81 10000 6.17 80 20:26 05.04.2022
2922 Clouds 12 1010 82 10000 5.14 80 19:52 05.04.2022
2923 Clouds 12 1010 83 10000 4.63 90 18:18 05.04.2022
2924 Clouds 11 1011 86 10000 5.14 70 16:55 05.04.2022
2925 Clouds 11 1011 86 10000 5.14 70 16:35 05.04.2022
2926 Clouds 11 1011 86 10000 6.17 80 15:43 05.04.2022
2927 Clouds 11 1011 86 10000 6.17 80 15:43 05.04.2022
2928 Clouds 11 1011 87 10000 6.69 70 15:24 05.04.2022
2929 Clouds 10 1012 88 10000 6.69 70 13:38 05.04.2022
2930 Rain 9 1011 91 10000 5.14 50 11:51 05.04.2022
2931 Rain 9 1011 91 9000 5.14 60 11:33 05.04.2022
2932 Rain 9 1010 91 10000 5.66 50 10:52 05.04.2022
2933 Rain 9 1009 86 10000 6.69 60 08:55 05.04.2022
2934 Rain 9 1008 84 10000 7.2 60 07:32 05.04.2022
2935 Rain 10 1008 83 10000 7.72 60 02:43 05.04.2022
2936 Rain 13 1007 58 10000 10.29 70 23:18 04.04.2022
2937 Rain 15 1006 55 10000 8.23 80 22:29 04.04.2022
2938 Rain 15 1007 50 10000 8.23 80 21:43 04.04.2022
2939 Clear 16 1005 46 10000 7.72 70 21:18 04.04.2022
2940 Clear 16 1005 46 10000 7.72 70 20:46 04.04.2022
2941 Clear 18 1004 43 10000 7.72 60 19:27 04.04.2022
2942 Clear 17 1004 45 10000 6.69 50 18:39 04.04.2022
2943 Clear 17 1005 47 10000 5.14 50 17:19 04.04.2022
2944 Clear 16 1005 47 10000 6.69 60 16:27 04.04.2022
2945 Clear 16 1005 45 10000 6.69 50 15:33 04.04.2022
2946 Clear 15 1006 44 10000 6.69 70 14:46 04.04.2022
2947 Clear 15 1006 43 10000 8.23 70 13:59 04.04.2022
2948 Clear 14 1006 42 10000 8.75 80 12:58 04.04.2022
2949 Clear 13 1007 44 10000 7.2 60 11:29 04.04.2022
2950 Clear 12 1006 52 10000 8.23 60 09:53 04.04.2022
2951 Clear 12 1007 62 10000 5.66 80 05:34 04.04.2022
2952 Clear 12 1009 68 10000 2.57 50 02:51 04.04.2022
2953 Clear 12 1009 59 10000 2.06 120 23:19 03.04.2022
2954 Clear 13 1008 50 10000 2.57 140 22:00 03.04.2022
2955 Clear 14 1007 50 10000 2.57 150 21:27 03.04.2022
2956 Clear 17 1008 32 10000 4.12 70 20:30 03.04.2022
2957 Clear 17 1007 29 10000 5.66 50 18:47 03.04.2022
2958 Clear 18 1007 30 10000 5.66 60 17:56 03.04.2022
2959 Clear 18 1007 31 10000 6.69 60 17:36 03.04.2022
2960 Clear 18 1007 31 10000 7.2 70 16:50 03.04.2022
2961 Clear 17 1008 33 10000 6.17 80 15:56 03.04.2022
2962 Clear 16 1009 33 10000 8.75 60 14:27 03.04.2022
2963 Clear 16 1010 34 10000 9.26 60 13:34 03.04.2022
2964 Clear 13 1011 37 10000 9.77 70 11:51 03.04.2022
2965 Clear 9 1011 49 10000 7.2 60 09:59 03.04.2022
2966 Clear 9 1011 53 10000 6.69 60 09:18 03.04.2022
2967 Clear 9 1011 53 10000 5.14 60 06:41 03.04.2022
2968 Clear 11 1013 54 10000 5.14 50 02:56 03.04.2022
2969 Clear 12 1014 52 10000 3.6 50 23:50 02.04.2022
2970 Clear 12 1015 50 10000 3.6 60 22:52 02.04.2022
2971 Clear 13 1014 46 10000 3.09 80 21:56 02.04.2022
2972 Clear 14 1014 42 10000 3.09 70 21:26 02.04.2022
2973 Clear 16 1014 35 10000 4.63 80 20:39 02.04.2022
2974 Clear 18 1013 31 10000 4.63 60 18:51 02.04.2022
2975 Clear 18 1013 31 10000 4.12 70 18:20 02.04.2022
2976 Clear 18 1013 32 10000 4.63 70 17:46 02.04.2022
2977 Clear 18 1015 33 10000 7.72 70 15:59 02.04.2022
2978 Clear 17 1015 34 10000 8.23 70 15:21 02.04.2022
2979 Clear 17 1016 35 10000 8.75 70 14:42 02.04.2022
2980 Clear 16 1016 35 10000 8.75 60 13:34 02.04.2022
2981 Clear 15 1017 38 10000 7.72 70 12:34 02.04.2022
2982 Clear 13 1017 44 10000 7.72 60 10:56 02.04.2022
2983 Clear 9 1016 58 10000 5.66 60 08:44 02.04.2022
2984 Clear 9 1015 65 10000 3.6 50 06:49 02.04.2022
2985 Clear 10 1017 64 10000 1.54 50 03:39 02.04.2022
2986 Clear 12 1016 61 10000 0 0 23:55 01.04.2022
2987 Clear 13 1016 53 10000 0 0 23:18 01.04.2022
2988 Clear 16 1015 47 10000 3.6 20 21:32 01.04.2022
2989 Clear 18 1014 36 10000 4.63 30 20:50 01.04.2022
2990 Clear 19 1014 37 10000 3.09 340 19:57 01.04.2022
2991 Clear 20 1012 36 10000 3.6 320 19:31 01.04.2022
2992 Clear 20 1012 36 10000 3.6 310 18:45 01.04.2022
2993 Clear 20 1012 39 10000 5.14 280 17:46 01.04.2022
2994 Clouds 20 1013 43 10000 4.63 290 16:48 01.04.2022
2995 Clouds 19 1014 46 10000 3.6 270 15:36 01.04.2022
2996 Clouds 18 1015 52 10000 3.09 320 14:20 01.04.2022
2997 Clouds 17 1015 54 10000 3.09 300 13:33 01.04.2022
2998 Clouds 16 1015 59 10000 3.6 300 12:32 01.04.2022
2999 Clear 15 1015 66 10000 2.57 290 11:37 01.04.2022
3000 Clear 12 1015 79 10000 2.57 200 10:18 01.04.2022
3001 Clear 9 1014 87 10000 1.54 190 08:47 01.04.2022
3002 Clear 10 1012 85 10000 2.57 220 06:54 01.04.2022
3003 Clear 11 1013 81 10000 2.57 280 04:49 01.04.2022
3004 Clear 11 1013 80 10000 2.68 285 04:30 01.04.2022
3005 Clear 12 1013 76 10000 4.63 280 01:56 01.04.2022
3006 Clear 15 1011 66 10000 4.12 290 22:58 31.03.2022
3007 Clear 16 1010 61 10000 6.17 290 21:51 31.03.2022
3008 Clouds 16 1010 58 10000 5.66 290 21:32 31.03.2022
3009 Clouds 18 1008 53 10000 5.14 270 20:29 31.03.2022
3010 Clouds 18 1008 59 10000 3.58 285 19:49 31.03.2022
3011 Clouds 18 1008 59 10000 10.29 310 18:44 31.03.2022
3012 Clear 20 1008 47 10000 8.23 310 17:49 31.03.2022
3013 Clear 20 1008 45 10000 6.17 310 16:38 31.03.2022
3014 Clouds 19 1009 49 10000 8.23 300 15:45 31.03.2022
3015 Clouds 19 1009 49 10000 8.23 300 15:19 31.03.2022
3016 Clouds 19 1009 53 10000 6.69 320 14:36 31.03.2022
3017 Clouds 14 1011 88 10000 4.12 300 11:57 31.03.2022
3018 Clouds 13 1010 90 10000 2.68 292 11:22 31.03.2022
3019 Rain 13 1009 90 5000 3.13 259 09:45 31.03.2022
3020 Rain 13 1009 90 5000 3.13 259 09:45 31.03.2022
3021 Clouds 13 1009 86 10000 3.6 230 08:20 31.03.2022
3022 Clear 13 1009 78 10000 3.09 260 05:42 31.03.2022
3023 Clear 15 1008 64 10000 4.63 270 23:58 30.03.2022
3024 Clear 17 1007 59 10000 5.66 290 22:43 30.03.2022
3025 Clear 17 1008 55 10000 5.14 280 21:39 30.03.2022
3026 Clear 18 1006 51 10000 6.17 290 20:54 30.03.2022
3027 Clear 19 1005 49 10000 6.69 300 20:20 30.03.2022
3028 Clear 21 1004 41 10000 9.26 300 19:28 30.03.2022
3029 Clear 21 1004 40 10000 7.2 330 18:28 30.03.2022
3030 Clear 22 1004 39 10000 6.69 300 17:47 30.03.2022
3031 Clear 21 1004 43 10000 7.72 310 16:57 30.03.2022
3032 Clouds 21 1004 47 10000 7.2 320 16:33 30.03.2022
3033 Clouds 20 1005 57 10000 6.17 270 15:24 30.03.2022
3034 Clouds 18 1006 64 10000 5.66 290 13:44 30.03.2022
3035 Clouds 17 1006 69 10000 4.12 290 12:57 30.03.2022
3036 Clear 15 1006 75 10000 4.12 310 11:34 30.03.2022
3037 Clear 14 1006 79 10000 2.68 331 10:28 30.03.2022
3038 Clear 13 1006 87 10000 3.6 290 09:24 30.03.2022
3039 Clear 13 1005 91 10000 2.57 270 07:33 30.03.2022
3040 Mist 14 1004 93 4900 2.06 260 05:41 30.03.2022
3041 Clouds 14 1005 93 6000 2.57 210 03:52 30.03.2022
3042 Clear 15 1006 89 10000 2.06 250 00:42 30.03.2022
3043 Clouds 16 1006 85 10000 1.54 160 22:28 29.03.2022
3044 Clouds 16 1006 82 10000 1.34 274 21:45 29.03.2022
3045 Clouds 16 1005 80 10000 3.09 310 20:54 29.03.2022
3046 Clouds 17 1005 79 10000 3.09 290 20:19 29.03.2022
3047 Rain 17 1005 78 10000 5.66 220 18:56 29.03.2022
3048 Clouds 18 1005 75 10000 4.12 210 18:21 29.03.2022
3049 Clouds 18 1005 73 10000 4.63 220 17:36 29.03.2022
3050 Clouds 19 1005 69 10000 3.13 191 16:57 29.03.2022
3051 Clouds 20 1006 65 10000 2.24 237 15:57 29.03.2022
3052 Clouds 20 1007 66 10000 2.06 230 14:53 29.03.2022
3053 Clouds 19 1008 69 10000 2.06 0 14:18 29.03.2022
3054 Clouds 17 1009 75 10000 1.03 0 12:53 29.03.2022
3055 Clouds 15 1009 80 10000 1.54 20 11:43 29.03.2022
3056 Clouds 15 1009 80 10000 1.54 70 10:51 29.03.2022
3057 Clouds 14 1009 84 10000 1.54 40 09:49 29.03.2022
3058 Clouds 14 1009 86 10000 2.06 50 07:35 29.03.2022
3059 Clouds 14 1010 86 8000 0.89 359 04:41 29.03.2022
3060 Rain 16 1011 82 10000 2.06 140 00:36 29.03.2022
3061 Rain 16 1012 75 10000 1.03 0 23:24 28.03.2022
3062 Clear 17 1012 75 10000 1.03 0 22:53 28.03.2022
3063 Clear 17 1012 73 10000 4.63 20 22:26 28.03.2022
3064 Rain 18 1012 69 10000 3.09 30 20:58 28.03.2022
3065 Clear 18 1011 68 10000 3.6 40 20:23 28.03.2022
3066 Rain 19 1012 67 10000 3.09 10 19:45 28.03.2022
3067 Rain 18 1011 67 10000 3.13 39 19:27 28.03.2022
3068 Clear 19 1011 63 10000 3.6 60 18:40 28.03.2022
3069 Clear 20 1011 57 10000 5.14 80 17:39 28.03.2022
3070 Clear 20 1011 56 10000 5.66 70 16:21 28.03.2022
3071 Clear 21 1012 51 10000 4.12 110 14:48 28.03.2022
3072 Clear 21 1013 52 10000 5.66 70 14:21 28.03.2022
3073 Clear 20 1014 54 10000 7.2 70 12:24 28.03.2022
3074 Clear 18 1014 61 10000 6.69 60 11:31 28.03.2022
3075 Clear 15 1014 72 10000 5.14 70 09:43 28.03.2022
3076 Clear 14 1014 74 10000 6.69 80 09:19 28.03.2022
3077 Clear 14 1014 76 10000 6.17 70 08:22 28.03.2022
3078 Clear 14 1014 76 10000 5.66 60 07:34 28.03.2022
3079 Clear 14 1017 78 10000 3.09 60 03:52 28.03.2022
3080 Clear 15 1019 74 10000 3.6 100 23:32 27.03.2022
3081 Clear 16 1018 68 10000 4.12 100 22:24 27.03.2022
3082 Clear 17 1018 66 10000 4.12 100 21:42 27.03.2022
3083 Clear 18 1017 61 10000 4.63 100 20:57 27.03.2022
3084 Clear 20 1017 51 10000 7.2 110 19:49 27.03.2022
3085 Clouds 21 1015 53 9000 6.69 100 19:26 27.03.2022
3086 Clouds 21 1015 51 9000 7.2 100 18:28 27.03.2022
3087 Clouds 21 1015 51 9000 8.23 100 17:39 27.03.2022
3088 Clouds 21 1016 52 9000 7.2 100 16:31 27.03.2022
3089 Clear 21 1016 54 10000 8.75 90 15:25 27.03.2022
3090 Clear 20 1017 58 10000 8.75 90 13:56 27.03.2022
3091 Clear 18 1018 65 10000 6.69 80 12:38 27.03.2022
3092 Clear 15 1017 76 10000 5.66 60 11:20 27.03.2022
3093 Clear 12 1017 85 10000 5.14 70 08:53 27.03.2022
3094 Clear 12 1016 87 10000 2.57 70 05:54 27.03.2022
3095 Clear 14 1016 88 10000 2.57 40 00:57 27.03.2022
3096 Clear 14 1016 86 10000 1.03 60 23:46 26.03.2022
3097 Clear 14 1016 84 10000 1.54 120 22:38 26.03.2022
3098 Clear 16 1015 78 10000 1.54 130 21:38 26.03.2022
3099 Clear 16 1015 78 10000 1.54 130 21:38 26.03.2022
3100 Clouds 16 1016 79 10000 2.06 100 20:57 26.03.2022
3101 Clouds 19 1014 55 10000 2.06 80 19:29 26.03.2022
3102 Clouds 20 1013 51 10000 2.57 80 17:54 26.03.2022
3103 Clouds 20 1013 52 10000 2.57 70 17:33 26.03.2022
3104 Clouds 20 1013 52 10000 2.57 70 17:33 26.03.2022
3105 Clouds 20 1013 52 10000 2.24 52 16:27 26.03.2022
3106 Clouds 20 1013 53 10000 2.06 60 15:20 26.03.2022
3107 Clouds 19 1014 56 10000 1.54 110 13:53 26.03.2022
3108 Clouds 18 1014 64 10000 2.06 150 12:59 26.03.2022
3109 Clear 17 1014 70 10000 3.6 50 11:41 26.03.2022
3110 Clear 17 1014 70 10000 3.6 50 11:41 26.03.2022
3111 Clear 17 1014 70 10000 3.6 50 11:41 26.03.2022
3112 Clear 15 1014 75 10000 3.09 50 10:28 26.03.2022
3113 Mist 12 1013 90 5000 1.34 27 08:35 26.03.2022
3114 Mist 11 1012 90 5000 1.79 38 05:54 26.03.2022
3115 Mist 12 1012 89 5000 3.09 60 04:23 26.03.2022
3116 Mist 13 1013 87 5000 1.54 50 00:28 26.03.2022
3117 Mist 14 1013 84 5000 2.57 70 21:49 25.03.2022
3118 Clouds 14 1012 83 9000 2.06 60 20:46 25.03.2022
3119 Mist 15 1012 83 4500 3.6 80 19:38 25.03.2022
3120 Clouds 15 1012 82 6000 3.09 50 18:47 25.03.2022
3121 Clouds 15 1011 83 4500 3.6 80 17:47 25.03.2022
3122 Haze 15 1011 83 5000 4.63 50 17:27 25.03.2022
3123 Clouds 15 1011 82 6000 3.6 70 16:18 25.03.2022
3124 Clouds 17 1011 65 10000 1.54 130 14:26 25.03.2022
3125 Clear 17 1012 67 10000 1.03 0 12:57 25.03.2022
3126 Clear 15 1012 75 10000 1.03 0 10:22 25.03.2022
3127 Clear 13 1011 86 10000 2.57 120 09:28 25.03.2022
3128 Clear 12 1011 87 10000 5.14 100 08:24 25.03.2022
3129 Rain 12 1010 89 10000 6.69 50 07:28 25.03.2022
3130 Rain 12 1009 87 9000 4.63 160 06:24 25.03.2022
3131 Clouds 14 1009 90 9000 1.54 90 01:18 25.03.2022
3132 Rain 14 1010 91 8000 1.03 0 22:51 24.03.2022
3133 Clouds 14 1010 91 7000 1.03 0 21:45 24.03.2022
3134 Clouds 14 1010 91 7000 1.34 40 20:26 24.03.2022
3135 Clouds 14 1010 90 7000 1.54 10 19:47 24.03.2022
3136 Clouds 15 1010 89 10000 1.54 350 17:48 24.03.2022
3137 Rain 15 1010 88 10000 1.54 350 17:19 24.03.2022
3138 Clouds 14 1010 86 10000 2.57 10 15:45 24.03.2022
3139 Clouds 13 1011 87 10000 2.57 360 14:50 24.03.2022
3140 Clouds 13 1011 89 10000 1.79 345 14:19 24.03.2022
3141 Clouds 13 1012 90 10000 1.54 20 13:23 24.03.2022
3142 Rain 12 1012 92 10000 0.51 0 11:47 24.03.2022
3143 Clouds 11 1011 94 10000 2.57 170 09:55 24.03.2022
3144 Clouds 11 1011 95 5000 2.06 150 08:49 24.03.2022
3145 Clouds 11 1010 94 8000 3.09 220 06:49 24.03.2022
3146 Rain 12 1010 94 9000 1.54 230 03:59 24.03.2022
3147 Rain 14 1011 91 10000 1.54 210 23:20 23.03.2022
3148 Rain 15 1010 89 10000 3.09 50 21:45 23.03.2022
3149 Rain 15 1010 89 10000 3.09 50 21:20 23.03.2022
3150 Rain 16 1009 76 10000 5.66 70 19:46 23.03.2022
3151 Clouds 16 1008 75 10000 6.17 70 18:55 23.03.2022
3152 Clouds 17 1009 75 10000 8.75 70 17:38 23.03.2022
3153 Clouds 17 1010 72 10000 7.72 70 16:50 23.03.2022
3154 Clouds 17 1010 71 10000 9.26 70 14:52 23.03.2022
3155 Clouds 16 1011 76 10000 7.72 70 14:32 23.03.2022
3156 Clouds 16 1012 79 10000 7.72 70 13:21 23.03.2022
3157 Clear 14 1013 87 10000 6.17 70 10:20 23.03.2022
3158 Clouds 13 1013 87 10000 6.17 70 07:44 23.03.2022
3159 Clouds 13 1014 88 10000 6.17 90 05:27 23.03.2022
3160 Clear 14 1016 88 10000 2.06 60 01:18 23.03.2022
3161 Clear 15 1017 87 10000 1.54 30 00:23 23.03.2022
3162 Clear 16 1017 80 10000 1.54 120 21:31 22.03.2022
3163 Clear 16 1017 79 10000 1.54 110 20:51 22.03.2022
3164 Clear 17 1016 74 10000 2.24 131 19:56 22.03.2022
3165 Clouds 17 1017 74 10000 3.6 110 19:25 22.03.2022
3166 Clear 17 1017 66 10000 2.57 110 18:45 22.03.2022
3167 Clear 18 1017 59 10000 2.06 140 17:42 22.03.2022
3168 Clear 18 1017 64 10000 2.06 150 16:32 22.03.2022
3169 Clouds 18 1017 65 10000 2.57 130 15:37 22.03.2022
3170 Clouds 18 1017 67 10000 1.54 170 15:18 22.03.2022
3171 Clouds 18 1018 67 10000 2.06 160 14:41 22.03.2022
3172 Clouds 18 1019 69 10000 1.54 110 13:37 22.03.2022
3173 Clouds 16 1019 78 10000 2.57 140 11:52 22.03.2022
3174 Clouds 15 1020 84 10000 1.54 130 10:51 22.03.2022
3175 Clouds 13 1019 94 10000 1.54 90 08:43 22.03.2022
3176 Clouds 13 1018 95 10000 1.03 150 07:21 22.03.2022
3177 Clouds 13 1018 94 10000 2.06 170 03:55 22.03.2022
3178 Clouds 14 1018 93 10000 2.57 170 00:46 22.03.2022
3179 Clouds 14 1019 92 10000 3.09 190 22:46 21.03.2022
3180 Clouds 15 1017 89 10000 2.57 180 21:25 21.03.2022
3181 Clouds 15 1017 86 10000 3.09 210 20:43 21.03.2022
3182 Clouds 15 1017 85 10000 3.13 208 20:23 21.03.2022
3183 Clouds 16 1017 82 10000 4.12 180 19:35 21.03.2022
3184 Clouds 16 1017 82 10000 4.12 180 19:35 21.03.2022
3185 Clouds 17 1016 79 10000 5.66 180 18:47 21.03.2022
3186 Clouds 17 1016 81 10000 5.66 210 17:35 21.03.2022
3187 Clouds 17 1015 83 10000 5.36 194 16:59 21.03.2022
3188 Rain 17 1016 82 10000 6.17 190 16:27 21.03.2022
3189 Clouds 17 1016 78 10000 7.72 210 15:43 21.03.2022
3190 Clouds 17 1016 78 10000 6.69 210 14:36 21.03.2022
3191 Clouds 16 1017 81 10000 8.75 180 13:20 21.03.2022
3192 Rain 17 1016 72 10000 6.17 170 11:58 21.03.2022
3193 Clouds 17 1017 76 10000 7.2 180 11:25 21.03.2022
3194 Clouds 14 1017 85 10000 4.12 170 09:51 21.03.2022
3195 Clouds 13 1016 90 10000 2.57 160 07:39 21.03.2022
3196 Clouds 13 1016 91 10000 1.79 199 06:18 21.03.2022
3197 Clouds 13 1016 89 10000 1.34 196 01:42 21.03.2022
3198 Rain 13 1016 89 9000 3.6 260 22:57 20.03.2022
3199 Rain 13 1015 87 10000 4.12 140 22:29 20.03.2022
3200 Clouds 14 1014 86 10000 4.12 140 21:40 20.03.2022
3201 Clouds 14 1014 85 10000 4.63 150 20:56 20.03.2022
3202 Clouds 14 1014 85 10000 5.14 150 20:36 20.03.2022
3203 Clouds 14 1014 86 9000 5.66 130 19:54 20.03.2022
3204 Rain 14 1014 88 9000 4.12 240 19:24 20.03.2022
3205 Clouds 16 1013 87 10000 1.54 30 17:49 20.03.2022
3206 Rain 16 1013 85 10000 2.06 50 17:27 20.03.2022
3207 Clouds 16 1012 85 10000 2.06 330 16:38 20.03.2022
3208 Rain 19 1014 52 10000 6.69 230 14:53 20.03.2022
3209 Clear 21 1012 50 10000 6.69 120 13:39 20.03.2022
3210 Clear 20 1013 54 10000 6.69 100 12:20 20.03.2022
3211 Clear 16 1014 67 10000 5.66 90 10:28 20.03.2022
3212 Clear 14 1014 72 10000 5.66 80 08:35 20.03.2022
3213 Clear 13 1014 76 10000 6.17 80 06:40 20.03.2022
3214 Clear 13 1015 77 10000 4.63 80 03:27 20.03.2022
3215 Clear 14 1017 74 10000 4.63 90 00:54 20.03.2022
3216 Clear 14 1017 73 10000 4.12 90 00:35 20.03.2022
3217 Clear 15 1018 69 10000 4.63 100 22:42 19.03.2022
3218 Clear 16 1018 65 10000 4.63 100 21:27 19.03.2022
3219 Clear 17 1017 61 10000 3.6 100 20:19 19.03.2022
3220 Clouds 19 1017 55 10000 3.6 130 18:44 19.03.2022
3221 Clouds 19 1017 54 10000 5.14 120 17:57 19.03.2022
3222 Clouds 20 1017 53 10000 5.14 120 17:33 19.03.2022
3223 Clouds 20 1017 52 10000 6.69 90 15:43 19.03.2022
3224 Clouds 19 1018 54 10000 6.17 100 14:21 19.03.2022
3225 Clouds 19 1020 58 10000 5.14 90 12:56 19.03.2022
3226 Clear 18 1020 61 10000 6.17 100 12:38 19.03.2022
3227 Clear 17 1020 66 10000 5.14 80 11:49 19.03.2022
3228 Clear 15 1020 73 10000 5.14 70 10:41 19.03.2022
3229 Clear 12 1019 87 10000 2.57 50 05:59 19.03.2022
3230 Clear 13 1021 89 10000 1.03 0 02:48 19.03.2022
3231 Clear 14 1021 87 10000 1.54 50 01:32 19.03.2022
3232 Clouds 15 1021 81 10000 2.57 10 23:26 18.03.2022
3233 Clear 15 1021 82 10000 0.51 0 22:25 18.03.2022
3234 Clear 15 1020 81 10000 2.06 180 20:56 18.03.2022
3235 Clear 16 1020 76 10000 3.09 180 19:50 18.03.2022
3236 Clouds 17 1019 69 10000 2.24 201 19:19 18.03.2022
3237 Clouds 19 1019 56 10000 3.09 70 17:39 18.03.2022
3238 Clear 19 1019 55 10000 3.09 50 16:46 18.03.2022
3239 Clear 18 1020 57 10000 4.63 60 14:45 18.03.2022
3240 Clear 18 1020 57 10000 4.63 60 14:20 18.03.2022
3241 Clear 17 1021 60 10000 6.17 80 12:26 18.03.2022
3242 Clear 15 1021 67 10000 6.17 50 10:47 18.03.2022
3243 Clear 12 1020 77 10000 5.14 40 09:28 18.03.2022
3244 Clear 11 1020 82 10000 3.09 10 07:59 18.03.2022
3245 Clear 11 1019 82 10000 2.06 20 06:34 18.03.2022
3246 Clear 13 1019 78 10000 1.34 41 02:51 18.03.2022
3247 Clear 14 1019 73 10000 2.68 82 00:22 18.03.2022
3248 Clear 14 1019 72 10000 2.57 60 00:22 18.03.2022
3249 Clear 15 1019 71 10000 4.12 60 23:22 17.03.2022
3250 Clear 15 1018 69 10000 3.09 60 22:24 17.03.2022
3251 Clear 15 1018 70 10000 2.06 40 21:48 17.03.2022
3252 Clear 16 1018 68 10000 2.68 45 21:21 17.03.2022
3253 Clear 16 1018 67 10000 2.68 45 20:42 17.03.2022
3254 Clear 17 1017 64 10000 3.6 20 19:47 17.03.2022
3255 Clear 17 1017 63 10000 3.58 39 18:57 17.03.2022
3256 Clear 18 1017 62 10000 3.6 30 18:37 17.03.2022
3257 Clear 19 1016 57 10000 5.66 30 16:49 17.03.2022
3258 Clouds 19 1016 57 10000 6.69 50 15:44 17.03.2022
3259 Clouds 19 1016 56 10000 6.69 50 15:24 17.03.2022
3260 Clouds 19 1017 59 10000 6.17 30 14:28 17.03.2022
3261 Clear 18 1017 67 10000 3.6 10 12:51 17.03.2022
3262 Clear 18 1017 72 10000 4.12 360 12:23 17.03.2022
3263 Clear 16 1017 81 10000 2.57 360 11:27 17.03.2022
3264 Clear 14 1017 93 10000 2.06 310 10:29 17.03.2022
3265 Mist 12 1016 96 2000 2.06 10 08:34 17.03.2022
3266 Fog 12 1016 96 900 1.54 60 07:34 17.03.2022
3267 Clouds 12 1014 96 8000 0.51 150 05:47 17.03.2022
3268 Clouds 12 1014 96 8000 0.51 150 05:47 17.03.2022
3269 Clouds 12 1014 95 7000 0.51 0 01:30 17.03.2022
3270 Clouds 13 1014 94 6000 2.06 150 23:50 16.03.2022
3271 Clouds 13 1014 93 8000 2.06 180 22:48 16.03.2022
3272 Clouds 13 1014 94 8000 2.06 230 22:30 16.03.2022
3273 Drizzle 13 1014 94 10000 1.03 0 21:39 16.03.2022
3274 Clouds 14 1013 92 10000 1.03 270 19:47 16.03.2022
3275 Clouds 14 1012 91 10000 0.51 310 19:21 16.03.2022
3276 Clouds 14 1012 90 10000 2.06 330 18:37 16.03.2022
3277 Drizzle 14 1012 91 10000 2.06 220 17:43 16.03.2022
3278 Drizzle 14 1012 91 10000 2.06 220 17:43 16.03.2022
3279 Drizzle 13 1012 91 10000 2.06 220 17:20 16.03.2022
3280 Rain 13 1012 93 10000 2.06 200 15:55 16.03.2022
3281 Clouds 13 1012 92 10000 1.54 180 14:27 16.03.2022
3282 Clouds 13 1012 90 10000 1.03 0 13:31 16.03.2022
3283 Clouds 13 1012 92 9000 1.54 210 11:56 16.03.2022
3284 Clouds 13 1012 93 10000 1.54 190 11:21 16.03.2022
3285 Clouds 12 1012 95 10000 3.09 180 10:23 16.03.2022
3286 Clouds 12 1010 94 10000 2.57 260 08:53 16.03.2022
3287 Rain 12 1009 92 10000 3.6 80 06:27 16.03.2022
3288 Rain 12 1010 94 9000 1.54 110 01:45 16.03.2022
3289 Clouds 13 1010 92 10000 1.54 200 22:41 15.03.2022
3290 Rain 13 1010 91 10000 2.57 190 22:18 15.03.2022
3291 Haze 14 1009 83 5000 3.09 220 20:33 15.03.2022
3292 Haze 17 1007 67 2500 4.12 70 18:58 15.03.2022
3293 Haze 16 1006 76 3500 5.14 100 16:59 15.03.2022
3294 Haze 16 1006 77 3200 11.32 80 16:32 15.03.2022
3295 Clouds 15 1007 83 10000 3.6 40 15:21 15.03.2022
3296 Clouds 14 1007 84 10000 3.6 40 14:45 15.03.2022
3297 Clouds 13 1008 87 10000 3.09 40 13:46 15.03.2022
3298 Clouds 13 1008 91 10000 3.09 360 12:24 15.03.2022
3299 Clouds 12 1009 92 10000 2.57 60 11:31 15.03.2022
3300 Rain 11 1008 93 8000 0.89 280 09:45 15.03.2022
3301 Clouds 11 1007 93 10000 2.57 50 08:42 15.03.2022
3302 Clouds 11 1007 92 10000 1.03 110 07:52 15.03.2022
3303 Clouds 11 1007 93 10000 2.06 180 07:32 15.03.2022
3304 Clear 11 1006 91 10000 1.54 200 03:41 15.03.2022
3305 Clouds 12 1007 92 10000 2.06 310 23:44 14.03.2022
3306 Rain 12 1007 91 10000 2.06 250 23:23 14.03.2022
3307 Rain 12 1007 87 10000 1.34 163 22:30 14.03.2022
3308 Clouds 12 1005 83 10000 4.63 50 21:30 14.03.2022
3309 Clouds 12 1006 83 10000 4.12 60 20:48 14.03.2022
3310 Clouds 13 1006 82 10000 3.09 70 20:20 14.03.2022
3311 Clouds 13 1004 79 10000 4.12 50 18:55 14.03.2022
3312 Clouds 14 1004 75 10000 3.6 60 17:54 14.03.2022
3313 Clouds 14 1004 72 10000 5.66 110 16:58 14.03.2022
3314 Clouds 14 1004 73 10000 3.6 70 15:56 14.03.2022
3315 Clouds 14 1004 72 10000 2.24 137 14:41 14.03.2022
3316 Clouds 12 1005 86 10000 3.6 240 12:29 14.03.2022
3317 Rain 11 1004 87 10000 8.75 100 10:54 14.03.2022
3318 Rain 11 1005 89 10000 5.14 90 09:52 14.03.2022
3319 Rain 11 1005 91 10000 4.63 110 09:22 14.03.2022
3320 Rain 11 1005 91 10000 7.72 120 08:55 14.03.2022
3321 Rain 10 1005 95 9000 4.47 84 07:34 14.03.2022
3322 Rain 11 1007 91 10000 1.54 350 05:46 14.03.2022
3323 Rain 13 1009 82 10000 4.63 190 01:55 14.03.2022
3324 Clouds 14 1009 82 10000 4.12 190 01:28 14.03.2022
3325 Clear 15 1010 73 10000 1.03 0 22:44 13.03.2022
3326 Clear 15 1010 70 10000 1.03 0 21:31 13.03.2022
3327 Clear 16 1011 65 10000 0 0 20:56 13.03.2022
3328 Clear 16 1011 61 10000 1.03 0 20:31 13.03.2022
3329 Clear 16 1011 60 10000 0.51 90 19:59 13.03.2022
3330 Clear 17 1011 53 10000 1.54 30 19:37 13.03.2022
3331 Clear 17 1011 52 10000 1.54 30 19:18 13.03.2022
3332 Clear 18 1012 47 10000 1.34 41 18:38 13.03.2022
3333 Clear 18 1012 47 10000 1.54 30 17:46 13.03.2022
3334 Clouds 19 1012 45 10000 1.34 106 17:20 13.03.2022
3335 Clouds 19 1013 46 10000 1.34 65 16:30 13.03.2022
3336 Clouds 19 1013 49 10000 1.54 350 15:47 13.03.2022
3337 Clouds 18 1014 51 10000 2.06 40 14:56 13.03.2022
3338 Clouds 17 1015 65 10000 2.06 20 13:49 13.03.2022
3339 Clouds 16 1016 71 10000 2.06 350 12:57 13.03.2022
3340 Clouds 15 1016 81 10000 2.06 360 11:53 13.03.2022
3341 Clouds 14 1016 86 10000 1.79 356 11:32 13.03.2022
3342 Clouds 12 1016 95 10000 1.34 45 10:47 13.03.2022
3343 Clouds 12 1016 94 10000 1.03 0 10:24 13.03.2022
3344 Fog 11 1016 95 2500 2.06 50 09:41 13.03.2022
3345 Fog 11 1015 95 300 1.54 350 08:47 13.03.2022
3346 Clouds 11 1015 95 10000 0.89 36 07:47 13.03.2022
3347 Clouds 12 1013 95 10000 0.51 0 05:42 13.03.2022
3348 Mist 13 1015 94 4800 2.57 240 02:43 13.03.2022
3349 Clouds 13 1016 93 10000 3.6 220 23:59 12.03.2022
3350 Drizzle 13 1016 93 10000 3.09 210 22:37 12.03.2022
3351 Rain 14 1017 84 10000 6.69 220 20:54 12.03.2022
3352 Clouds 15 1016 77 10000 4.63 230 19:50 12.03.2022
3353 Clouds 15 1016 78 10000 4.63 230 19:32 12.03.2022
3354 Clouds 16 1016 72 10000 6.17 230 18:27 12.03.2022
3355 Clouds 16 1016 69 10000 4.63 220 17:34 12.03.2022
3356 Clouds 17 1016 65 10000 4.63 230 16:24 12.03.2022
3357 Clouds 16 1017 67 10000 3.09 230 15:24 12.03.2022
3358 Clouds 16 1017 69 10000 2.68 232 14:50 12.03.2022
3359 Clouds 15 1019 76 10000 1.34 196 13:47 12.03.2022
3360 Clouds 12 1020 91 6000 1.03 0 11:57 12.03.2022
3361 Mist 11 1020 95 5000 0.89 317 11:38 12.03.2022
3362 Mist 11 1019 95 4500 1.03 0 10:58 12.03.2022
3363 Mist 9 1019 96 4500 0.89 330 09:46 12.03.2022
3364 Mist 9 1019 96 2000 2.06 130 09:46 12.03.2022
3365 Fog 9 1019 95 650 1.03 0 08:56 12.03.2022
3366 Fog 9 1018 96 700 1.03 0 07:29 12.03.2022
3367 Fog 11 1018 95 200 1.03 0 03:54 12.03.2022
3368 Clear 12 1019 93 10000 1.34 251 23:56 11.03.2022
3369 Clear 12 1019 93 10000 1.34 251 23:56 11.03.2022
3370 Clear 12 1019 93 10000 1.34 251 23:56 11.03.2022
3371 Clouds 12 1018 93 10000 1.34 234 23:19 11.03.2022
3372 Clear 12 1018 94 10000 1.54 170 23:19 11.03.2022
3373 Clear 12 1017 92 10000 2.57 240 21:41 11.03.2022
3374 Clear 12 1017 92 10000 1.54 240 20:56 11.03.2022
3375 Clouds 13 1016 91 10000 2.57 240 20:35 11.03.2022
3376 Clouds 13 1016 90 10000 2.24 236 19:52 11.03.2022
3377 Clouds 13 1016 90 10000 2.06 240 19:22 11.03.2022
3378 Rain 13 1015 90 8000 2.57 340 17:34 11.03.2022
3379 Rain 14 1014 91 8000 2.57 270 16:38 11.03.2022
3380 Rain 14 1015 94 6000 3.6 230 15:55 11.03.2022
3381 Clouds 14 1015 94 3000 4.63 260 14:21 11.03.2022
3382 Rain 14 1015 92 3000 7.72 220 12:52 11.03.2022
3383 Rain 15 1016 88 10000 5.66 200 12:21 11.03.2022
3384 Rain 15 1016 89 10000 5.66 200 11:53 11.03.2022
3385 Drizzle 14 1016 93 5000 4.63 210 10:18 11.03.2022
3386 Clouds 14 1016 87 10000 5.14 180 08:57 11.03.2022
3387 Clouds 14 1016 85 10000 4.63 190 08:24 11.03.2022
3388 Clouds 13 1016 86 10000 4.12 180 07:45 11.03.2022
3389 Clouds 13 1016 87 10000 3.09 190 05:44 11.03.2022
3390 Clear 13 1017 88 10000 2.24 179 03:49 11.03.2022
3391 Clear 13 1019 86 10000 3.6 220 23:38 10.03.2022
3392 Clear 14 1019 82 10000 2.57 200 22:30 10.03.2022
3393 Clouds 14 1019 76 10000 3.09 230 21:47 10.03.2022
3394 Clouds 15 1019 73 10000 4.12 230 21:19 10.03.2022
3395 Clear 16 1019 66 10000 5.14 220 19:45 10.03.2022
3396 Clouds 19 1019 61 10000 5.66 220 18:53 10.03.2022
3397 Clear 20 1017 52 10000 2.68 247 17:28 10.03.2022
3398 Clouds 20 1019 51 10000 4.63 230 15:55 10.03.2022
3399 Clouds 20 1019 50 10000 2.57 0 14:48 10.03.2022
3400 Clouds 19 1020 53 10000 2.06 220 13:21 10.03.2022
3401 Clouds 17 1021 62 10000 1.03 0 11:58 10.03.2022
3402 Clear 15 1021 71 10000 0.89 86 10:54 10.03.2022
3403 Clear 11 1021 82 10000 0.89 312 09:21 10.03.2022
3404 Clear 10 1020 85 10000 1.03 0 07:38 10.03.2022
3405 Clear 11 1019 84 10000 1.54 140 04:44 10.03.2022
3406 Clear 13 1020 76 10000 2.06 210 01:49 10.03.2022
3407 Clear 14 1020 71 10000 2.06 270 23:26 09.03.2022
3408 Clear 15 1019 67 10000 2.06 250 21:51 09.03.2022
3409 Clear 15 1019 66 10000 1.54 300 21:32 09.03.2022
3410 Clear 17 1019 54 10000 2.57 310 19:50 09.03.2022
3411 Clear 19 1018 53 10000 2.57 260 18:34 09.03.2022
3412 Clouds 20 1017 50 10000 2.57 0 17:27 09.03.2022
3413 Clouds 20 1018 51 10000 2.06 280 16:31 09.03.2022
3414 Clouds 19 1018 51 10000 1.54 360 15:28 09.03.2022
3415 Clear 18 1020 61 10000 3.09 30 13:54 09.03.2022
3416 Clear 16 1020 70 10000 2.57 40 12:47 09.03.2022
3417 Clouds 14 1022 80 10000 3.6 40 11:54 09.03.2022
3418 Clouds 12 1021 87 10000 4.63 30 11:35 09.03.2022
3419 Clouds 10 1021 95 7000 4.12 50 10:26 09.03.2022
3420 Mist 10 1021 95 1500 3.09 30 08:54 09.03.2022
3421 Fog 9 1020 95 300 2.57 50 07:54 09.03.2022
3422 Clouds 10 1020 90 9000 1.54 140 02:57 09.03.2022
3423 Clear 11 1021 88 10000 2.06 130 00:43 09.03.2022
3424 Clear 12 1021 84 10000 2.06 210 22:47 08.03.2022
3425 Clear 12 1021 83 10000 1.54 220 22:27 08.03.2022
3426 Clear 13 1021 81 10000 2.06 160 21:23 08.03.2022
3427 Clear 14 1019 72 10000 2.57 180 20:42 08.03.2022
3428 Clear 16 1019 60 10000 2.06 220 19:42 08.03.2022
3429 Clouds 17 1019 55 10000 2.06 180 18:44 08.03.2022
3430 Clouds 17 1018 59 10000 2.06 150 17:32 08.03.2022
3431 Clouds 17 1018 63 10000 1.03 200 16:26 08.03.2022
3432 Clouds 13 1019 85 10000 2.06 20 14:19 08.03.2022
3433 Drizzle 11 1020 93 3000 2.57 40 12:43 08.03.2022
3434 Drizzle 10 1019 92 3000 3.09 20 11:45 08.03.2022
3435 Drizzle 10 1019 89 7000 2.57 20 10:48 08.03.2022
3436 Clouds 10 1019 88 10000 0.51 0 09:51 08.03.2022
3437 Rain 10 1017 77 10000 1.03 270 07:32 08.03.2022
3438 Clouds 9 1016 77 10000 0.89 185 05:43 08.03.2022
3439 Clear 11 1015 65 10000 2.24 174 23:52 07.03.2022
3440 Clear 12 1015 56 10000 4.12 220 21:59 07.03.2022
3441 Clear 13 1015 53 10000 3.6 220 21:32 07.03.2022
3442 Clear 14 1015 49 10000 6.17 220 20:48 07.03.2022
3443 Clear 14 1014 48 10000 6.17 220 20:20 07.03.2022
3444 Clear 15 1013 50 10000 7.2 220 19:33 07.03.2022
3445 Clear 16 1013 45 10000 7.2 220 18:44 07.03.2022
3446 Clear 17 1011 42 10000 7.2 220 17:50 07.03.2022
3447 Clear 18 1011 42 10000 6.69 220 16:56 07.03.2022
3448 Clear 18 1011 41 10000 5.66 230 15:50 07.03.2022
3449 Clouds 18 1012 47 10000 4.12 240 13:52 07.03.2022
3450 Clouds 18 1012 47 10000 4.12 240 13:52 07.03.2022
3451 Clouds 17 1013 61 10000 4.12 250 12:28 07.03.2022
3452 Clear 13 1013 76 10000 1.54 280 10:38 07.03.2022
3453 Clear 9 1013 85 10000 1.34 359 08:57 07.03.2022
3454 Clear 10 1012 83 10000 1.03 250 04:51 07.03.2022
3455 Clear 12 1013 71 10000 2.57 270 00:23 07.03.2022
3456 Clear 12 1013 66 10000 3.09 260 23:35 06.03.2022
3457 Clear 13 1013 63 10000 2.57 260 22:52 06.03.2022
3458 Clear 13 1012 60 10000 2.57 290 21:58 06.03.2022
3459 Clear 15 1011 52 10000 1.79 295 20:50 06.03.2022
3460 Clear 15 1012 49 10000 1.54 310 20:23 06.03.2022
3461 Clear 19 1010 30 10000 1.03 40 19:21 06.03.2022
3462 Clear 19 1010 37 10000 1.54 360 18:25 06.03.2022
3463 Clear 19 1009 37 10000 1.79 352 17:21 06.03.2022
3464 Clear 19 1009 37 10000 1.34 328 16:42 06.03.2022
3465 Clear 18 1010 40 10000 1.79 333 15:52 06.03.2022
3466 Clear 18 1010 42 10000 1.54 10 14:49 06.03.2022
3467 Clear 18 1010 44 10000 2.06 30 14:31 06.03.2022
3468 Clear 17 1011 48 10000 1.34 82 13:29 06.03.2022
3469 Clear 15 1012 56 10000 2.06 80 12:35 06.03.2022
3470 Clear 13 1012 65 10000 2.57 60 11:18 06.03.2022
3471 Clear 10 1012 74 10000 1.79 42 10:27 06.03.2022
3472 Clear 6 1011 86 10000 0.89 60 08:30 06.03.2022
3473 Clear 6 1011 86 10000 0.89 60 08:30 06.03.2022
3474 Clear 6 1011 87 10000 0.89 71 07:45 06.03.2022
3475 Clear 6 1011 86 10000 1.34 17 06:19 06.03.2022
3476 Clear 9 1012 81 10000 0.89 350 00:53 06.03.2022
3477 Clear 9 1012 79 10000 1.03 90 00:31 06.03.2022
3478 Clear 10 1013 76 10000 1.03 170 23:23 05.03.2022
3479 Clear 10 1013 76 10000 1.54 210 22:53 05.03.2022
3480 Clear 11 1013 73 10000 3.09 230 22:23 05.03.2022
3481 Clear 12 1013 69 10000 3.6 230 21:23 05.03.2022
3482 Clouds 15 1013 44 10000 5.66 220 19:49 05.03.2022
3483 Clouds 16 1012 52 10000 3.13 212 18:56 05.03.2022
3484 Clouds 17 1012 47 10000 3.58 223 18:27 05.03.2022
3485 Clouds 17 1013 41 10000 2.68 203 16:49 05.03.2022
3486 Clouds 17 1014 44 10000 2.57 0 15:40 05.03.2022
3487 Clouds 17 1015 46 10000 2.24 244 14:52 05.03.2022
3488 Clouds 16 1015 47 10000 2.24 185 14:33 05.03.2022
3489 Clouds 15 1017 53 10000 1.54 180 13:22 05.03.2022
3490 Clear 13 1018 59 10000 1.03 0 11:48 05.03.2022
3491 Clear 12 1018 64 10000 1.54 330 11:19 05.03.2022
3492 Clear 10 1018 74 10000 1.03 0 10:20 05.03.2022
3493 Clear 9 1018 75 10000 1.03 110 09:26 05.03.2022
3494 Clear 9 1017 74 10000 0.89 344 07:51 05.03.2022
3495 Clear 9 1018 71 10000 0.45 30 05:43 05.03.2022
3496 Clouds 10 1018 68 10000 0.89 41 04:33 05.03.2022
3497 Clear 11 1020 63 10000 0.51 0 23:38 04.03.2022
3498 Clear 12 1020 60 10000 2.06 310 22:44 04.03.2022
3499 Clear 12 1020 62 10000 2.06 310 22:23 04.03.2022
3500 Clear 14 1019 56 10000 3.09 40 21:24 04.03.2022
3501 Clear 16 1018 51 10000 2.57 40 20:28 04.03.2022
3502 Clear 17 1018 46 10000 3.09 30 19:36 04.03.2022
3503 Clear 18 1018 42 10000 3.6 20 18:46 04.03.2022
3504 Clear 19 1017 41 10000 3.6 20 18:20 04.03.2022
3505 Clear 19 1017 41 10000 4.12 10 17:28 04.03.2022
3506 Clear 18 1018 40 10000 4.12 50 15:31 04.03.2022
3507 Clear 18 1018 40 10000 4.63 50 14:36 04.03.2022
3508 Clear 17 1019 41 10000 6.17 20 13:27 04.03.2022
3509 Clear 15 1019 48 10000 4.12 340 11:56 04.03.2022
3510 Clear 13 1019 55 10000 4.63 10 10:57 04.03.2022
3511 Clear 12 1019 57 10000 5.66 350 10:21 04.03.2022
3512 Clear 9 1018 65 10000 3.58 317 08:48 04.03.2022
3513 Clear 9 1017 67 10000 4.12 320 07:47 04.03.2022
3514 Clear 10 1016 68 10000 3.6 310 05:26 04.03.2022
3515 Clear 11 1016 68 10000 6.69 300 00:41 04.03.2022
3516 Clear 12 1017 62 10000 5.66 290 22:54 03.03.2022
3517 Clear 13 1017 58 10000 7.72 290 21:58 03.03.2022
3518 Clear 13 1017 57 10000 6.69 290 21:35 03.03.2022
3519 Clear 14 1016 54 10000 6.69 310 20:27 03.03.2022
3520 Clouds 16 1015 52 10000 7.2 300 18:58 03.03.2022
3521 Clouds 17 1015 56 10000 5.66 300 18:25 03.03.2022
3522 Clouds 17 1015 68 10000 4.63 300 17:31 03.03.2022
3523 Clouds 14 1015 89 10000 2.24 239 16:28 03.03.2022
3524 Rain 14 1016 83 9000 4.12 240 15:43 03.03.2022
3525 Rain 15 1017 68 10000 7.72 250 14:44 03.03.2022
3526 Clouds 17 1017 63 10000 6.17 250 14:25 03.03.2022
3527 Clear 18 1019 46 10000 3.58 257 12:32 03.03.2022
3528 Clear 13 1020 69 10000 2.57 200 10:58 03.03.2022
3529 Clear 11 1020 79 10000 2.06 180 09:58 03.03.2022
3530 Clear 10 1020 83 10000 1.54 180 08:42 03.03.2022
3531 Clear 10 1020 78 10000 0 0 06:55 03.03.2022
3532 Clear 11 1020 80 10000 1.54 160 05:22 03.03.2022
3533 Clear 15 1023 55 10000 1.03 0 23:48 02.03.2022
3534 Clear 15 1022 61 10000 1.03 0 22:54 02.03.2022
3535 Clear 15 1022 67 10000 2.06 270 22:33 02.03.2022
3536 Clear 16 1021 71 10000 4.63 230 21:22 02.03.2022
3537 Clear 17 1021 65 10000 4.63 220 20:26 02.03.2022
3538 Clear 19 1021 54 10000 3.09 210 19:41 02.03.2022
3539 Clear 20 1020 51 10000 3.09 210 19:23 02.03.2022
3540 Clear 22 1021 42 10000 2.06 240 18:35 02.03.2022
3541 Clouds 22 1020 45 10000 3.09 260 17:42 02.03.2022
3542 Clouds 22 1021 45 10000 2.68 272 16:53 02.03.2022
3543 Clear 21 1021 48 10000 3.09 280 15:59 02.03.2022
3544 Clear 20 1023 51 10000 1.54 240 14:32 02.03.2022
3545 Clear 18 1024 57 10000 2.06 80 12:58 02.03.2022
3546 Clear 18 1024 59 10000 3.6 50 12:35 02.03.2022
3547 Clear 15 1025 65 10000 3.09 40 11:28 02.03.2022
3548 Clear 14 1025 67 10000 3.09 70 10:58 02.03.2022
3549 Clear 11 1025 72 10000 2.57 70 09:40 02.03.2022
3550 Clear 9 1024 75 10000 2.06 350 08:44 02.03.2022
3551 Clear 9 1023 75 10000 1.54 10 07:24 02.03.2022
3552 Clear 10 1023 76 10000 1.03 360 05:42 02.03.2022
3553 Clear 13 1023 65 10000 2.06 100 00:51 02.03.2022
3554 Clear 15 1024 62 10000 0.45 9 23:40 01.03.2022
3555 Clear 15 1024 60 10000 1.79 321 22:42 01.03.2022
3556 Clear 16 1023 57 10000 0.51 0 21:55 01.03.2022
3557 Clear 17 1023 52 10000 1.03 0 20:56 01.03.2022
3558 Clear 18 1023 51 10000 1.03 0 20:24 01.03.2022
3559 Clear 19 1023 42 10000 2.06 10 19:21 01.03.2022
3560 Clear 21 1022 36 10000 2.24 35 18:32 01.03.2022
3561 Clear 21 1022 36 10000 4.63 40 17:55 01.03.2022
3562 Clear 22 1022 34 10000 2.57 90 16:54 01.03.2022
3563 Clear 21 1023 37 10000 3.09 100 15:59 01.03.2022
3564 Clear 21 1023 38 10000 2.57 50 15:23 01.03.2022
3565 Clear 20 1024 43 10000 2.57 40 14:34 01.03.2022
3566 Clear 19 1026 51 10000 2.57 50 13:27 01.03.2022
3567 Clear 18 1026 54 10000 3.09 60 12:58 01.03.2022
3568 Clear 17 1026 57 10000 3.6 30 12:22 01.03.2022
3569 Clear 12 1027 76 10000 4.12 50 10:27 01.03.2022
3570 Clear 8 1026 85 10000 2.24 355 08:41 01.03.2022
3571 Clear 8 1026 85 10000 2.06 360 07:40 01.03.2022
3572 Clear 9 1026 80 10000 2.24 5 04:50 01.03.2022
3573 Clear 11 1026 81 10000 0.89 340 01:43 01.03.2022
3574 Clear 13 1027 80 10000 1.54 300 00:24 01.03.2022
3575 Clear 14 1027 76 10000 2.24 305 23:19 28.02.2022
3576 Clear 14 1027 69 10000 3.09 170 21:59 28.02.2022
3577 Clear 15 1026 70 10000 3.09 100 21:24 28.02.2022
3578 Clear 17 1025 57 10000 2.06 110 19:53 28.02.2022
3579 Clear 19 1024 55 10000 1.54 0 19:27 28.02.2022
3580 Clouds 20 1025 49 10000 1.54 80 18:40 28.02.2022
3581 Clouds 21 1023 52 10000 1.54 60 17:24 28.02.2022
3582 Clouds 20 1024 55 10000 1.54 60 16:33 28.02.2022
3583 Clouds 20 1024 60 10000 2.06 360 15:23 28.02.2022
3584 Clouds 19 1025 64 10000 2.06 10 14:31 28.02.2022
3585 Clouds 18 1025 67 10000 2.24 4 13:47 28.02.2022
3586 Clouds 16 1026 75 10000 2.57 20 12:41 28.02.2022
3587 Clouds 15 1025 81 9000 2.57 10 11:57 28.02.2022
3588 Clouds 13 1026 89 7000 2.06 40 10:48 28.02.2022
3589 Mist 11 1025 93 5000 2.24 355 10:20 28.02.2022
3590 Mist 10 1025 93 1200 2.57 80 09:32 28.02.2022
3591 Fog 10 1024 90 450 2.68 72 08:32 28.02.2022
3592 Clear 10 1023 89 10000 1.54 50 07:35 28.02.2022
3593 Clouds 11 1022 91 7000 1.54 120 05:21 28.02.2022
3594 Clear 12 1022 89 10000 0.89 281 04:27 28.02.2022
3595 Clear 14 1022 75 10000 1.54 210 23:44 27.02.2022
3596 Clear 14 1022 76 10000 2.06 80 22:35 27.02.2022
3597 Clear 15 1021 72 10000 2.06 50 21:52 27.02.2022
3598 Clear 15 1021 70 10000 2.57 40 21:21 27.02.2022
3599 Clear 16 1021 64 10000 1.03 0 20:37 27.02.2022
3600 Clear 17 1020 61 10000 1.54 30 19:58 27.02.2022
3601 Clouds 19 1019 57 10000 2.57 30 19:27 27.02.2022
3602 Clouds 20 1019 45 10000 2.57 50 18:48 27.02.2022
3603 Clouds 20 1019 53 10000 2.57 90 17:57 27.02.2022
3604 Clouds 20 1018 54 10000 2.57 70 17:20 27.02.2022
3605 Clouds 20 1018 58 10000 3.09 30 16:22 27.02.2022
3606 Clouds 17 1020 71 10000 2.68 23 13:40 27.02.2022
3607 Clouds 17 1020 73 10000 3.6 30 12:33 27.02.2022
3608 Clouds 16 1020 76 10000 2.57 40 11:27 27.02.2022
3609 Clouds 14 1020 82 10000 2.57 30 10:24 27.02.2022
3610 Clouds 14 1020 84 10000 1.54 40 09:51 27.02.2022
3611 Clouds 14 1020 87 10000 1.03 350 09:21 27.02.2022
3612 Clear 13 1019 87 10000 1.03 330 08:31 27.02.2022
3613 Clouds 13 1018 87 10000 1.79 357 05:41 27.02.2022
3614 Clouds 14 1018 83 10000 1.54 270 02:57 27.02.2022
3615 Clear 15 1018 77 10000 3.6 270 23:36 26.02.2022
3616 Clouds 16 1017 73 10000 3.6 230 22:34 26.02.2022
3617 Clouds 17 1017 70 10000 3.09 300 21:19 26.02.2022
3618 Clear 17 1016 69 10000 3.6 310 20:37 26.02.2022
3619 Clear 17 1016 69 10000 3.6 310 20:37 26.02.2022
3620 Clouds 17 1016 68 10000 4.12 310 19:54 26.02.2022
3621 Clouds 17 1015 67 10000 5.14 290 19:33 26.02.2022
3622 Clouds 19 1015 63 10000 6.69 280 18:31 26.02.2022
3623 Clouds 19 1015 62 10000 3.13 285 17:31 26.02.2022
3624 Clouds 20 1015 59 10000 2.24 267 16:38 26.02.2022
3625 Clouds 20 1015 60 10000 1.34 328 15:28 26.02.2022
3626 Clear 20 1015 60 10000 1.79 345 14:59 26.02.2022
3627 Clear 20 1015 60 10000 2.06 140 14:41 26.02.2022
3628 Clear 19 1016 63 10000 1.79 85 13:46 26.02.2022
3629 Clear 17 1016 73 10000 3.6 80 12:53 26.02.2022
3630 Clear 15 1017 81 10000 4.63 40 11:50 26.02.2022
3631 Clear 13 1017 84 10000 4.63 40 11:25 26.02.2022
3632 Clouds 12 1017 89 10000 3.6 70 09:31 26.02.2022
3633 Rain 13 1016 83 10000 1.54 80 08:26 26.02.2022
3634 Clear 13 1015 78 10000 5.14 80 04:23 26.02.2022
3635 Clear 14 1018 77 10000 4.63 90 23:50 25.02.2022
3636 Clear 15 1017 73 10000 4.63 80 22:34 25.02.2022
3637 Clear 16 1017 70 10000 4.12 90 21:32 25.02.2022
3638 Clear 16 1016 69 10000 3.09 100 20:51 25.02.2022
3639 Clear 16 1016 69 10000 2.57 100 20:25 25.02.2022
3640 Clear 20 1015 60 10000 4.63 120 17:57 25.02.2022
3641 Clear 20 1015 61 10000 6.69 50 16:59 25.02.2022
3642 Clear 20 1016 62 10000 6.17 50 15:56 25.02.2022
3643 Clear 20 1016 62 10000 6.17 30 15:23 25.02.2022
3644 Clear 20 1016 63 10000 6.69 40 14:56 25.02.2022
3645 Clear 19 1017 64 10000 4.63 50 14:37 25.02.2022
3646 Clear 18 1018 69 10000 4.12 50 13:30 25.02.2022
3647 Clear 17 1018 71 10000 3.09 60 12:33 25.02.2022
3648 Clear 16 1018 72 10000 3.6 50 11:22 25.02.2022
3649 Clouds 14 1018 75 10000 2.57 20 10:24 25.02.2022
3650 Clouds 13 1018 78 10000 3.13 0 09:51 25.02.2022
3651 Clear 12 1018 77 10000 2.24 355 08:42 25.02.2022
3652 Clear 12 1017 75 10000 2.06 350 07:36 25.02.2022
3653 Clear 12 1017 76 10000 0.89 64 05:45 25.02.2022
3654 Clear 12 1018 77 10000 2.57 100 02:49 25.02.2022
3655 Clear 16 1018 65 10000 2.57 220 22:55 24.02.2022
3656 Clear 15 1019 62 10000 1.03 220 21:51 24.02.2022
3657 Clear 16 1018 60 10000 2.06 260 21:31 24.02.2022
3658 Clear 16 1018 59 10000 1.54 240 20:57 24.02.2022
3659 Clear 18 1017 54 10000 2.06 240 19:38 24.02.2022
3660 Clear 19 1017 44 10000 1.54 240 18:37 24.02.2022
3661 Clear 20 1017 43 10000 2.57 30 18:18 24.02.2022
3662 Clear 20 1018 40 10000 1.54 250 17:33 24.02.2022
3663 Clear 20 1018 40 10000 1.54 250 17:33 24.02.2022
3664 Clear 21 1017 41 10000 1.34 277 16:29 24.02.2022
3665 Clear 21 1017 41 10000 1.54 350 15:47 24.02.2022
3666 Clear 21 1017 41 10000 1.03 0 14:53 24.02.2022
3667 Clear 20 1018 42 10000 1.54 30 14:24 24.02.2022
3668 Clear 19 1019 46 10000 2.57 50 13:39 24.02.2022
3669 Clear 18 1019 50 10000 1.54 350 12:49 24.02.2022
3670 Clear 14 1020 56 10000 4.12 30 10:40 24.02.2022
3671 Clear 11 1019 67 10000 3.6 30 08:59 24.02.2022
3672 Clouds 11 1019 68 10000 3.09 40 08:40 24.02.2022
3673 Clear 12 1019 55 10000 0.89 48 05:52 24.02.2022
3674 Clear 14 1019 63 10000 1.03 0 01:56 24.02.2022
3675 Clear 14 1019 63 10000 1.03 0 01:56 24.02.2022
3676 Clear 15 1019 54 10000 2.06 200 22:56 23.02.2022
3677 Clear 15 1019 51 10000 1.54 150 21:40 23.02.2022
3678 Clear 17 1018 40 10000 1.03 0 20:31 23.02.2022
3679 Clear 20 1018 31 10000 1.54 350 19:47 23.02.2022
3680 Clear 23 1017 24 10000 1.54 340 18:32 23.02.2022
3681 Clear 24 1017 24 10000 2.06 320 17:44 23.02.2022
3682 Clear 22 1019 28 10000 1.54 30 14:44 23.02.2022
3683 Clear 19 1020 35 10000 3.6 50 12:50 23.02.2022
3684 Clear 18 1020 37 10000 3.09 10 12:24 23.02.2022
3685 Clear 14 1021 48 10000 4.63 50 10:35 23.02.2022
3686 Clear 12 1020 49 10000 3.13 58 08:59 23.02.2022
3687 Clear 12 1020 51 10000 5.14 60 08:23 23.02.2022
3688 Clear 12 1020 50 10000 4.12 50 06:53 23.02.2022
3689 Clear 13 1022 49 10000 1.34 349 00:47 23.02.2022
3690 Clear 13 1023 50 10000 2.57 30 23:39 22.02.2022
3691 Clear 15 1023 46 10000 1.54 360 22:51 22.02.2022
3692 Clear 15 1023 47 10000 3.09 90 21:51 22.02.2022
3693 Clear 16 1023 43 10000 2.06 80 21:32 22.02.2022
3694 Clear 17 1023 39 10000 1.54 20 20:59 22.02.2022
3695 Clear 17 1023 41 10000 1.03 0 20:31 22.02.2022
3696 Clear 22 1022 25 10000 2.57 30 19:51 22.02.2022
3697 Clear 22 1022 28 10000 2.57 360 19:31 22.02.2022
3698 Clear 25 1021 22 10000 3.6 10 18:23 22.02.2022
3699 Clear 26 1021 22 10000 4.12 10 17:26 22.02.2022
3700 Clear 26 1022 22 10000 4.12 30 16:42 22.02.2022
3701 Clear 25 1022 23 10000 2.57 20 15:59 22.02.2022
3702 Clear 25 1023 23 10000 3.6 10 14:52 22.02.2022
3703 Clear 21 1025 25 10000 6.69 70 12:52 22.02.2022
3704 Clear 17 1026 34 10000 7.2 60 10:54 22.02.2022
3705 Clear 12 1026 53 10000 7.72 70 08:56 22.02.2022
3706 Clear 12 1025 54 10000 5.66 50 07:27 22.02.2022
3707 Clear 12 1025 59 10000 4.12 40 06:52 22.02.2022
3708 Clear 12 1025 57 10000 2.06 40 02:48 22.02.2022
3709 Clear 15 1025 52 10000 2.57 50 23:18 21.02.2022
3710 Clear 15 1025 50 10000 3.6 30 21:56 21.02.2022
3711 Clear 16 1025 44 10000 1.54 20 20:38 21.02.2022
3712 Clear 16 1025 44 10000 1.54 20 20:38 21.02.2022
3713 Clear 22 1024 24 10000 3.09 70 18:47 21.02.2022
3714 Clear 22 1023 27 10000 4.63 80 18:18 21.02.2022
3715 Clear 22 1024 28 10000 5.66 60 15:36 21.02.2022
3716 Clear 20 1025 34 10000 4.63 50 14:22 21.02.2022
3717 Clear 19 1026 37 10000 5.14 10 13:30 21.02.2022
3718 Clear 17 1027 41 10000 5.66 40 12:25 21.02.2022
3719 Clear 14 1027 53 10000 4.02 1 11:31 21.02.2022
3720 Clear 12 1027 61 10000 3.6 20 10:23 21.02.2022
3721 Clear 9 1026 72 10000 2.68 48 05:35 21.02.2022
3722 Clear 13 1027 61 10000 3.09 50 00:30 21.02.2022
3723 Clear 15 1026 66 10000 2.06 360 22:30 20.02.2022
3724 Clear 13 1027 68 10000 2.57 130 21:43 20.02.2022
3725 Clear 14 1026 68 10000 2.57 130 21:19 20.02.2022
3726 Clear 14 1026 67 10000 2.57 110 20:42 20.02.2022
3727 Clear 19 1025 54 10000 2.06 90 19:42 20.02.2022
3728 Clear 20 1026 47 10000 2.57 90 18:54 20.02.2022
3729 Clear 21 1025 48 10000 3.09 100 18:34 20.02.2022
3730 Clear 21 1024 47 10000 4.12 70 17:53 20.02.2022
3731 Clear 21 1025 48 10000 4.12 70 16:18 20.02.2022
3732 Clear 20 1025 52 10000 3.6 100 14:53 20.02.2022
3733 Clear 19 1026 54 10000 5.14 70 13:53 20.02.2022
3734 Clear 18 1026 58 10000 5.14 70 12:35 20.02.2022
3735 Clear 15 1026 69 10000 5.66 80 10:52 20.02.2022
3736 Clouds 13 1026 73 10000 2.68 89 10:20 20.02.2022
3737 Clouds 11 1025 82 10000 2.06 70 08:58 20.02.2022
3738 Clear 13 1023 78 10000 0.89 206 01:19 20.02.2022
3739 Clear 13 1023 74 10000 1.54 150 00:30 20.02.2022
3740 Clouds 14 1022 72 10000 2.57 30 23:30 19.02.2022
3741 Clear 15 1021 70 10000 1.34 355 22:23 19.02.2022
3742 Clear 15 1021 69 10000 1.03 0 21:45 19.02.2022
3743 Clear 16 1020 64 10000 2.57 30 20:23 19.02.2022
3744 Clear 18 1019 58 10000 3.09 20 19:34 19.02.2022
3745 Clear 19 1018 53 10000 4.12 10 18:38 19.02.2022
3746 Clear 20 1018 52 10000 1.79 68 17:37 19.02.2022
3747 Clear 20 1018 52 10000 1.54 340 16:44 19.02.2022
3748 Clear 19 1018 57 10000 1.54 0 15:20 19.02.2022
3749 Clear 19 1018 57 10000 1.54 0 14:53 19.02.2022
3750 Clear 17 1018 62 10000 1.79 330 13:50 19.02.2022
3751 Clouds 15 1019 68 10000 1.34 46 11:40 19.02.2022
3752 Clouds 14 1018 75 10000 0.89 74 10:45 19.02.2022
3753 Clouds 11 1017 86 10000 0.89 9 08:54 19.02.2022
3754 Clear 11 1016 88 10000 0.89 346 06:45 19.02.2022
3755 Clouds 13 1017 85 10000 1.03 0 23:55 18.02.2022
3756 Clear 13 1017 83 10000 2.57 200 22:24 18.02.2022
3757 Clear 15 1017 80 10000 2.57 240 21:18 18.02.2022
3758 Clear 16 1016 75 10000 3.09 210 19:56 18.02.2022
3759 Clear 18 1016 68 10000 4.63 220 18:51 18.02.2022
3760 Clear 18 1016 67 10000 3.6 210 18:25 18.02.2022
3761 Clear 18 1016 65 10000 4.12 220 17:56 18.02.2022
3762 Clouds 20 1017 61 10000 4.12 230 15:35 18.02.2022
3763 Clear 19 1019 63 10000 3.6 220 13:56 18.02.2022
3764 Clear 18 1020 63 10000 3.6 210 13:28 18.02.2022
3765 Clear 17 1020 63 10000 1.79 236 12:42 18.02.2022
3766 Clear 16 1020 67 10000 1.54 50 11:56 18.02.2022
3767 Clear 13 1020 77 10000 1.54 30 10:42 18.02.2022
3768 Clear 9 1019 87 10000 0.89 354 06:58 18.02.2022
3769 Clear 10 1019 85 10000 0.89 43 05:42 18.02.2022
3770 Clear 11 1019 85 10000 0.89 358 03:47 18.02.2022
3771 Clear 15 1022 68 10000 2.57 210 21:56 17.02.2022
3772 Clear 17 1021 66 10000 1.54 200 21:27 17.02.2022
3773 Clear 18 1022 60 10000 2.57 190 20:40 17.02.2022
3774 Clear 19 1022 48 10000 2.06 200 19:54 17.02.2022
3775 Clear 21 1022 43 10000 0.51 0 18:57 17.02.2022
3776 Clear 22 1021 48 10000 1.54 340 18:18 17.02.2022
3777 Clear 21 1022 50 10000 2.57 360 16:43 17.02.2022
3778 Clear 21 1023 52 10000 3.6 30 15:50 17.02.2022
3779 Clear 19 1025 57 10000 4.12 30 14:29 17.02.2022
3780 Clear 17 1026 62 10000 1.79 95 13:30 17.02.2022
3781 Clear 14 1027 73 10000 3.6 40 11:36 17.02.2022
3782 Clear 12 1028 82 10000 3.09 40 09:58 17.02.2022
3783 Clear 10 1027 86 10000 2.06 30 06:44 17.02.2022
3784 Clear 13 1029 73 10000 1.34 10 23:23 16.02.2022
3785 Clear 14 1030 69 10000 2.06 30 22:27 16.02.2022
3786 Clear 15 1029 58 10000 1.54 130 20:22 16.02.2022
3787 Clear 18 1028 49 10000 2.06 190 18:56 16.02.2022
3788 Clear 19 1027 44 10000 2.57 210 17:56 16.02.2022
3789 Clear 19 1028 46 10000 2.06 240 16:44 16.02.2022
3790 Clear 18 1029 47 10000 2.06 270 15:22 16.02.2022
3791 Clear 16 1030 52 10000 2.57 60 13:40 16.02.2022
3792 Clear 14 1031 57 10000 3.09 40 12:24 16.02.2022
3793 Clear 12 1031 64 10000 2.57 40 11:45 16.02.2022
3794 Clear 10 1031 69 10000 2.57 50 10:34 16.02.2022
3795 Clear 9 1030 73 10000 3.09 50 09:38 16.02.2022
3796 Clear 8 1029 73 10000 2.57 60 06:43 16.02.2022
3797 Clear 10 1030 59 10000 1.54 40 00:37 16.02.2022
3798 Clear 12 1030 57 10000 3.09 40 22:34 15.02.2022
3799 Clear 11 1030 64 10000 2.06 50 21:50 15.02.2022
3800 Clear 12 1029 60 10000 2.06 120 21:29 15.02.2022
3801 Clear 12 1029 59 10000 0.51 0 20:58 15.02.2022
3802 Clear 13 1028 53 10000 1.54 220 20:22 15.02.2022
3803 Clear 16 1027 39 10000 1.03 0 19:43 15.02.2022
3804 Clear 19 1027 36 10000 0.89 257 18:25 15.02.2022
3805 Clear 19 1027 35 10000 1.34 279 17:53 15.02.2022
3806 Clear 19 1027 35 10000 1.03 0 17:32 15.02.2022
3807 Clear 18 1028 35 10000 2.06 360 15:43 15.02.2022
3808 Clear 16 1029 45 10000 2.57 30 13:57 15.02.2022
3809 Clear 15 1029 49 10000 2.57 20 13:25 15.02.2022
3810 Clear 13 1030 60 10000 3.09 50 11:41 15.02.2022
3811 Clear 10 1029 70 10000 3.09 30 10:27 15.02.2022
3812 Clear 7 1028 79 10000 2.06 350 08:42 15.02.2022
3813 Clear 7 1027 77 10000 2.06 110 06:45 15.02.2022
3814 Clear 11 1025 61 10000 1.79 3 23:35 14.02.2022
3815 Clear 11 1026 57 10000 3.09 350 21:57 14.02.2022
3816 Clear 13 1025 52 10000 2.57 340 20:53 14.02.2022
3817 Clear 14 1024 46 10000 2.57 350 19:49 14.02.2022
3818 Clear 16 1023 45 10000 4.12 350 19:29 14.02.2022
3819 Clear 18 1021 40 10000 4.12 330 18:24 14.02.2022
3820 Clear 18 1021 38 10000 5.14 340 17:28 14.02.2022
3821 Clear 18 1021 39 10000 4.12 340 16:37 14.02.2022
3822 Clear 18 1021 40 10000 4.63 290 15:22 14.02.2022
3823 Clouds 16 1022 50 10000 2.24 323 13:35 14.02.2022
3824 Clouds 16 1023 54 10000 3.6 320 12:58 14.02.2022
3825 Clear 15 1023 57 10000 2.06 290 12:32 14.02.2022
3826 Clear 14 1023 65 10000 2.57 300 11:39 14.02.2022
3827 Clear 12 1022 84 10000 2.06 320 10:21 14.02.2022
3828 Clouds 10 1020 92 8000 1.54 300 08:18 14.02.2022
3829 Clouds 11 1020 92 10000 1.03 0 07:26 14.02.2022
3830 Clouds 14 1020 84 10000 2.57 220 23:19 13.02.2022
3831 Clear 15 1020 83 10000 3.09 240 22:41 13.02.2022
3832 Clear 15 1020 82 10000 3.09 240 22:22 13.02.2022
3833 Clear 15 1020 80 10000 3.09 240 21:24 13.02.2022
3834 Clear 15 1019 75 10000 4.63 250 20:28 13.02.2022
3835 Clear 16 1019 69 10000 4.12 240 19:23 13.02.2022
3836 Clouds 17 1019 63 10000 2.68 245 18:41 13.02.2022
3837 Clear 19 1019 55 10000 3.09 240 17:32 13.02.2022
3838 Clouds 18 1019 58 10000 3.09 220 15:53 13.02.2022
3839 Clouds 18 1020 61 10000 3.09 240 14:50 13.02.2022
3840 Clouds 17 1022 71 10000 1.54 330 13:39 13.02.2022
3841 Clouds 15 1023 74 10000 0.45 86 12:44 13.02.2022
3842 Clouds 11 1023 87 7000 0.45 92 10:50 13.02.2022
3843 Clouds 11 1023 89 9000 0.89 92 10:27 13.02.2022
3844 Clouds 9 1022 91 8000 1.34 351 08:59 13.02.2022
3845 Clouds 9 1022 89 10000 1.34 181 05:27 13.02.2022
3846 Clear 12 1023 81 10000 1.03 110 00:34 13.02.2022
3847 Clear 13 1024 78 10000 1.03 0 22:58 12.02.2022
3848 Clear 14 1023 75 10000 0.89 297 22:33 12.02.2022
3849 Clear 14 1023 73 10000 0.51 200 21:19 12.02.2022
3850 Clear 16 1023 71 10000 1.54 190 20:25 12.02.2022
3851 Clear 16 1022 68 10000 2.57 200 19:18 12.02.2022
3852 Clear 17 1022 65 10000 3.09 230 18:41 12.02.2022
3853 Clear 18 1022 63 10000 3.09 230 18:23 12.02.2022
3854 Clear 18 1022 61 10000 2.24 262 16:55 12.02.2022
3855 Clear 18 1022 60 10000 2.24 221 16:25 12.02.2022
3856 Clear 18 1022 64 10000 2.24 253 15:49 12.02.2022
3857 Clear 16 1024 71 10000 1.54 230 14:30 12.02.2022
3858 Clouds 14 1025 83 8000 1.03 0 12:55 12.02.2022
3859 Fog 11 1025 92 200 0.51 0 10:36 12.02.2022
3860 Fog 10 1024 93 800 0.89 92 09:39 12.02.2022
3861 Fog 9 1024 93 150 1.03 50 08:50 12.02.2022
3862 Fog 10 1023 92 50 2.57 110 07:53 12.02.2022
3863 Clouds 10 1023 89 7000 0.45 304 05:33 12.02.2022
3864 Clouds 11 1023 88 9000 0.89 294 04:27 12.02.2022
3865 Clear 12 1023 87 10000 3.6 210 02:18 12.02.2022
3866 Clear 14 1023 80 10000 3.09 200 22:28 11.02.2022
3867 Clear 15 1023 78 10000 2.57 200 21:51 11.02.2022
3868 Clear 16 1024 66 10000 1.54 210 20:41 11.02.2022
3869 Clear 19 1023 45 10000 2.06 200 19:46 11.02.2022
3870 Clear 19 1022 52 10000 2.06 200 19:27 11.02.2022
3871 Clear 21 1022 44 10000 1.54 240 17:59 11.02.2022
3872 Clear 22 1022 43 10000 1.34 270 17:26 11.02.2022
3873 Clear 21 1022 43 10000 0.89 101 16:23 11.02.2022
3874 Clear 20 1023 48 10000 1.54 30 14:43 11.02.2022
3875 Clear 19 1024 50 10000 1.03 0 14:21 11.02.2022
3876 Clear 19 1024 51 10000 2.06 60 13:59 11.02.2022
3877 Clear 18 1025 54 10000 1.54 30 13:39 11.02.2022
3878 Clear 15 1026 66 10000 1.54 0 11:47 11.02.2022
3879 Clear 10 1026 80 10000 1.34 340 09:59 11.02.2022
3880 Clear 9 1025 83 10000 1.03 0 08:49 11.02.2022
3881 Clear 9 1025 84 10000 1.54 350 08:27 11.02.2022
3882 Clear 9 1024 85 10000 0.51 30 07:22 11.02.2022
3883 Clear 12 1024 74 10000 0.45 220 02:40 11.02.2022
3884 Clear 12 1024 74 10000 1.54 160 02:19 11.02.2022
3885 Clear 14 1025 64 10000 0.51 80 23:20 10.02.2022
3886 Clear 15 1025 60 10000 0.51 0 21:53 10.02.2022
3887 Clear 15 1025 58 10000 0.51 0 21:21 10.02.2022
3888 Clear 15 1025 59 10000 1.34 318 20:45 10.02.2022
3889 Clear 17 1024 55 10000 0.51 0 19:26 10.02.2022
3890 Clear 18 1024 48 10000 1.03 90 18:47 10.02.2022
3891 Clear 20 1023 41 10000 2.06 60 17:27 10.02.2022
3892 Clear 20 1024 42 10000 1.79 78 16:57 10.02.2022
3893 Clear 19 1025 48 10000 2.06 40 15:59 10.02.2022
3894 Clear 19 1025 50 10000 2.06 40 15:33 10.02.2022
3895 Clear 18 1025 51 10000 3.09 40 14:49 10.02.2022
3896 Clear 18 1026 53 10000 2.57 10 14:26 10.02.2022
3897 Clear 16 1027 60 10000 2.68 22 13:30 10.02.2022
3898 Clear 15 1028 63 10000 3.09 50 12:51 10.02.2022
3899 Clear 15 1028 63 10000 3.09 50 12:51 10.02.2022
3900 Clear 11 1028 73 10000 2.68 9 11:38 10.02.2022
3901 Clear 11 1028 73 10000 2.68 9 11:20 10.02.2022
3902 Clear 8 1028 81 10000 3.13 2 10:18 10.02.2022
3903 Clear 7 1027 84 10000 2.24 1 09:25 10.02.2022
3904 Clear 7 1027 85 10000 2.06 360 07:37 10.02.2022
3905 Clear 7 1027 82 10000 1.34 22 05:52 10.02.2022
3906 Clear 10 1027 74 10000 1.34 357 01:57 10.02.2022
3907 Clear 11 1027 71 10000 1.34 353 00:50 10.02.2022
3908 Clear 11 1027 71 10000 1.34 356 00:50 10.02.2022
3909 Clear 11 1027 72 10000 0.89 352 00:29 10.02.2022
3910 Clear 12 1027 69 10000 1.54 30 23:26 09.02.2022
3911 Clear 11 1027 72 10000 1.03 0 22:37 09.02.2022
3912 Clear 12 1028 69 10000 1.03 0 21:56 09.02.2022
3913 Clear 14 1027 63 10000 1.54 80 21:32 09.02.2022
3914 Clear 14 1027 62 10000 2.06 50 20:53 09.02.2022
3915 Clear 15 1027 59 10000 2.06 50 20:31 09.02.2022
3916 Clear 16 1027 56 10000 2.06 50 19:59 09.02.2022
3917 Clear 16 1027 53 10000 2.57 50 19:38 09.02.2022
3918 Clear 20 1026 45 10000 2.24 43 17:39 09.02.2022
3919 Clear 21 1026 46 10000 2.57 70 16:53 09.02.2022
3920 Clear 20 1026 48 10000 3.6 40 15:54 09.02.2022
3921 Clear 19 1027 52 10000 3.6 50 14:43 09.02.2022
3922 Clear 15 1029 64 10000 3.09 50 12:30 09.02.2022
3923 Clear 12 1029 72 10000 2.57 20 11:19 09.02.2022
3924 Clear 11 1029 77 10000 3.6 70 10:31 09.02.2022
3925 Clear 9 1029 81 10000 3.09 60 09:42 09.02.2022
3926 Clear 9 1028 84 10000 3.09 50 09:19 09.02.2022
3927 Clear 9 1027 83 10000 2.57 50 07:56 09.02.2022
3928 Clear 10 1027 81 10000 1.34 30 05:30 09.02.2022
3929 Clear 10 1027 78 10000 2.57 60 03:50 09.02.2022
3930 Clear 11 1027 73 10000 3.09 30 01:27 09.02.2022
3931 Clear 12 1027 70 10000 1.54 50 23:39 08.02.2022
3932 Clear 12 1028 71 10000 1.03 0 22:50 08.02.2022
3933 Clear 13 1027 69 10000 0.51 0 22:22 08.02.2022
3934 Clear 14 1028 66 10000 1.54 200 21:50 08.02.2022
3935 Clear 14 1027 65 10000 2.06 110 21:21 08.02.2022
3936 Clear 16 1026 55 10000 3.09 140 20:45 08.02.2022
3937 Clear 17 1025 51 10000 2.06 90 19:52 08.02.2022
3938 Clear 20 1025 42 10000 2.06 190 18:52 08.02.2022
3939 Clear 22 1025 41 10000 2.06 230 17:50 08.02.2022
3940 Clear 22 1024 40 10000 1.54 80 16:34 08.02.2022
3941 Clear 21 1025 41 10000 1.54 290 15:30 08.02.2022
3942 Clear 21 1025 41 10000 2.24 91 14:44 08.02.2022
3943 Clear 20 1026 47 10000 3.6 90 13:29 08.02.2022
3944 Clear 16 1027 59 10000 4.12 50 11:55 08.02.2022
3945 Clear 12 1026 66 10000 4.12 70 10:39 08.02.2022
3946 Clear 10 1026 72 10000 3.6 50 09:45 08.02.2022
3947 Clear 8 1025 75 10000 3.09 50 08:25 08.02.2022
3948 Clear 9 1024 73 10000 3.09 40 05:41 08.02.2022
3949 Clear 9 1024 69 10000 1.34 357 04:39 08.02.2022
3950 Clear 9 1024 69 10000 2.24 346 04:21 08.02.2022
3951 Clear 10 1024 69 10000 1.34 334 03:36 08.02.2022
3952 Clear 10 1024 67 10000 3.09 40 03:18 08.02.2022
3953 Clear 10 1024 67 10000 3.09 40 02:59 08.02.2022
3954 Clear 10 1024 64 10000 2.57 50 02:36 08.02.2022
3955 Clear 11 1024 62 10000 2.06 40 02:18 08.02.2022
3956 Clear 11 1024 59 10000 2.06 40 01:44 08.02.2022
3957 Clear 11 1024 58 10000 1.54 50 01:24 08.02.2022
3958 Clear 11 1025 56 10000 1.54 40 00:55 08.02.2022
3959 Clear 12 1024 52 10000 1.03 70 23:58 07.02.2022
3960 Clear 12 1025 53 10000 1.03 0 23:40 07.02.2022
3961 Clear 13 1024 50 10000 1.03 0 23:18 07.02.2022
3962 Clear 13 1025 48 10000 0.45 85 22:54 07.02.2022
3963 Clear 13 1025 49 10000 1.54 70 22:18 07.02.2022
3964 Clear 12 1025 51 10000 3.09 90 21:44 07.02.2022
3965 Clear 14 1024 46 10000 3.09 90 21:25 07.02.2022
3966 Clear 14 1024 42 10000 3.09 80 20:41 07.02.2022
3967 Clear 16 1024 35 10000 2.57 60 19:56 07.02.2022
3968 Clear 17 1024 30 10000 1.54 70 19:38 07.02.2022
3969 Clear 21 1022 26 10000 4.12 80 18:22 07.02.2022
3970 Clear 21 1023 34 10000 5.14 60 16:53 07.02.2022
3971 Clear 21 1023 38 10000 6.17 40 16:20 07.02.2022
3972 Clear 20 1024 40 10000 6.17 40 15:48 07.02.2022
3973 Clear 18 1026 52 10000 6.69 40 13:37 07.02.2022
3974 Clear 18 1026 52 10000 6.69 40 13:19 07.02.2022
3975 Clear 15 1027 64 10000 3.13 82 11:58 07.02.2022
3976 Clear 15 1027 64 10000 3.13 82 11:58 07.02.2022
3977 Clear 14 1027 68 10000 3.13 84 11:37 07.02.2022
3978 Clear 12 1027 77 10000 3.13 70 10:53 07.02.2022
3979 Clear 11 1027 80 10000 2.24 45 10:32 07.02.2022
3980 Clear 10 1027 84 10000 3.13 43 09:53 07.02.2022
3981 Clear 9 1027 86 10000 3.58 51 09:18 07.02.2022
3982 Clear 9 1027 86 10000 2.24 48 08:43 07.02.2022
3983 Clear 9 1026 87 10000 2.68 68 07:30 07.02.2022
3984 Clear 9 1026 86 10000 3.13 50 06:34 07.02.2022
3985 Clear 10 1026 84 10000 2.24 56 03:49 07.02.2022
3986 Clear 12 1027 76 10000 1.79 53 00:47 07.02.2022
3987 Clear 12 1027 74 10000 1.34 49 23:49 06.02.2022
3988 Clear 13 1027 74 10000 0.45 61 23:19 06.02.2022
3989 Clear 14 1027 69 10000 0.89 349 22:34 06.02.2022
3990 Clear 14 1026 68 10000 3.09 110 21:36 06.02.2022
3991 Clear 15 1026 67 10000 3.09 100 20:58 06.02.2022
3992 Clear 15 1026 66 10000 2.57 80 20:36 06.02.2022
3993 Clear 16 1026 60 10000 1.34 95 19:45 06.02.2022
3994 Clear 18 1026 55 10000 0.45 103 18:50 06.02.2022
3995 Clear 19 1024 52 10000 2.24 99 18:24 06.02.2022
3996 Clear 20 1024 52 10000 1.79 47 17:26 06.02.2022
3997 Clouds 20 1024 52 10000 1.34 73 16:48 06.02.2022
3998 Clouds 20 1024 53 10000 1.79 86 15:50 06.02.2022
3999 Clouds 19 1024 54 10000 2.24 83 15:27 06.02.2022
4000 Clouds 19 1024 56 10000 1.34 64 14:52 06.02.2022
4001 Clear 18 1025 62 10000 1.79 108 13:51 06.02.2022
4002 Clear 17 1026 65 10000 1.79 64 13:20 06.02.2022
4003 Clear 14 1026 73 10000 1.79 49 11:44 06.02.2022
4004 Clear 10 1025 84 10000 1.34 57 10:31 06.02.2022
4005 Clear 9 1025 88 10000 2.24 57 09:29 06.02.2022
4006 Clear 8 1024 88 10000 0.89 59 08:41 06.02.2022
4007 Clear 8 1024 88 10000 1.34 18 06:27 06.02.2022
4008 Clear 9 1023 85 10000 1.34 21 05:27 06.02.2022
4009 Clear 11 1023 84 10000 0.51 0 02:25 06.02.2022
4010 Clear 11 1023 82 10000 0.45 67 00:30 06.02.2022
4011 Clear 12 1023 80 10000 1.54 110 23:38 05.02.2022
4012 Clear 13 1023 77 10000 0.45 236 21:46 05.02.2022
4013 Clear 14 1022 73 10000 0.45 236 20:39 05.02.2022
4014 Clear 15 1022 71 10000 1.03 0 20:19 05.02.2022
4015 Clear 16 1022 68 10000 0.51 0 19:41 05.02.2022
4016 Clear 18 1021 59 10000 0.89 236 18:30 05.02.2022
4017 Clouds 19 1021 57 10000 0.45 232 17:35 05.02.2022
4018 Clear 18 1021 58 10000 1.79 276 15:51 05.02.2022
4019 Clear 18 1021 58 10000 1.79 252 15:29 05.02.2022
4020 Clear 16 1023 69 10000 1.34 249 13:25 05.02.2022
4021 Clear 16 1023 69 10000 0.89 225 13:25 05.02.2022
4022 Clear 16 1023 72 10000 0.89 242 12:42 05.02.2022
4023 Clear 15 1023 79 10000 0.45 316 11:45 05.02.2022
4024 Clear 13 1023 88 10000 0.45 32 10:43 05.02.2022
4025 Clouds 10 1023 92 6000 0.89 351 09:50 05.02.2022
4026 Mist 10 1023 92 4800 0.45 36 08:39 05.02.2022
4027 Clear 10 1022 91 10000 0 0 06:59 05.02.2022
4028 Clear 11 1022 90 10000 0 0 06:35 05.02.2022
4029 Clear 12 1023 88 10000 0.51 0 02:40 05.02.2022
4030 Clouds 12 1023 87 10000 0 0 01:18 05.02.2022
4031 Clouds 13 1023 84 10000 0.89 36 00:36 05.02.2022
4032 Rain 13 1023 79 10000 0.89 12 23:33 04.02.2022
4033 Rain 13 1023 74 10000 1.34 335 22:45 04.02.2022
4034 Clear 14 1023 69 10000 1.34 342 21:36 04.02.2022
4035 Clear 14 1023 68 10000 1.79 336 21:18 04.02.2022
4036 Clear 14 1023 67 10000 1.79 334 20:36 04.02.2022
4037 Clear 14 1022 64 10000 1.79 348 19:19 04.02.2022
4038 Rain 16 1022 65 10000 0.89 238 16:44 04.02.2022
4039 Clear 16 1022 63 10000 0.51 0 15:19 04.02.2022
4040 Rain 14 1023 65 10000 0.51 0 14:40 04.02.2022
4041 Clear 13 1025 69 10000 2.06 320 12:43 04.02.2022
4042 Clear 12 1024 71 10000 3.09 40 11:45 04.02.2022
4043 Clear 11 1023 77 10000 0.89 20 10:56 04.02.2022
4044 Clear 11 1024 79 10000 1.34 53 10:22 04.02.2022
4045 Clear 9 1023 81 10000 0.51 50 08:30 04.02.2022
4046 Clear 11 1022 82 10000 1.03 0 04:45 04.02.2022
4047 Clear 11 1022 79 10000 0.45 206 02:38 04.02.2022
4048 Clear 12 1022 70 10000 0.89 159 23:56 03.02.2022
4049 Clear 14 1023 63 10000 0.45 319 22:51 03.02.2022
4050 Clear 14 1023 59 10000 0.89 294 21:58 03.02.2022
4051 Clear 15 1023 54 10000 0.89 318 21:37 03.02.2022
4052 Clear 16 1022 50 10000 0.89 251 20:22 03.02.2022
4053 Clear 19 1022 32 10000 1.54 210 19:46 03.02.2022
4054 Clear 19 1021 34 10000 1.03 0 18:56 03.02.2022
4055 Clear 21 1021 39 10000 1.34 174 17:59 03.02.2022
4056 Clear 21 1021 37 10000 0.45 213 17:19 03.02.2022
4057 Clear 20 1022 39 10000 0.89 345 15:34 03.02.2022
4058 Clear 18 1023 47 10000 0.45 6 13:50 03.02.2022
4059 Clear 14 1024 57 10000 1.34 25 12:32 03.02.2022
4060 Clear 8 1023 74 10000 1.79 42 08:56 03.02.2022
4061 Clear 8 1022 73 10000 2.24 36 07:43 03.02.2022
4062 Clear 11 1023 64 10000 0.89 7 00:59 03.02.2022
4063 Clear 11 1023 64 10000 0.45 53 00:22 03.02.2022
4064 Clear 14 1023 55 10000 0.45 339 22:39 02.02.2022
4065 Clear 14 1022 54 10000 1.34 24 21:51 02.02.2022
4066 Clear 14 1023 54 10000 2.06 360 21:29 02.02.2022
4067 Clear 14 1023 53 10000 0 0 20:27 02.02.2022
4068 Clear 15 1023 51 10000 1.54 350 19:46 02.02.2022
4069 Clear 20 1023 34 10000 2.57 350 18:56 02.02.2022
4070 Clear 21 1022 37 10000 1.34 24 18:24 02.02.2022
4071 Clear 22 1023 36 10000 2.24 36 17:20 02.02.2022
4072 Clear 22 1023 35 10000 2.68 47 16:58 02.02.2022
4073 Clear 20 1024 39 10000 2.24 57 15:29 02.02.2022
4074 Clear 15 1027 51 10000 3.13 61 12:31 02.02.2022
4075 Clear 14 1027 54 10000 2.24 50 11:49 02.02.2022
4076 Clear 12 1027 58 10000 2.68 64 11:30 02.02.2022
4077 Clear 7 1027 71 10000 1.79 33 08:48 02.02.2022
4078 Clear 9 1027 66 10000 1.34 37 02:44 02.02.2022
4079 Clear 12 1027 57 10000 0.89 347 22:34 01.02.2022
4080 Clear 12 1027 55 10000 0.45 82 20:55 01.02.2022
4081 Clear 15 1027 45 10000 3.09 80 19:29 01.02.2022
4082 Clear 18 1024 36 10000 2.68 96 17:34 01.02.2022
4083 Clear 19 1024 34 10000 2.24 111 16:31 01.02.2022
4084 Clear 16 1027 37 10000 2.24 74 13:27 01.02.2022
4085 Clear 15 1027 41 10000 2.68 91 12:28 01.02.2022
4086 Clear 7 1027 67 10000 2.24 64 08:52 01.02.2022
4087 Clear 10 1026 63 10000 0.45 35 02:21 01.02.2022
4088 Clear 10 1027 63 10000 1.03 110 23:38 31.01.2022
4089 Clear 13 1026 54 10000 0.51 0 22:42 31.01.2022
4090 Clear 13 1026 55 10000 0.51 0 21:35 31.01.2022
4091 Clear 15 1025 52 10000 0.89 70 20:35 31.01.2022
4092 Clear 15 1025 51 10000 0 0 19:59 31.01.2022
4093 Clear 18 1025 34 10000 1.54 280 18:47 31.01.2022
4094 Clear 21 1025 35 10000 1.54 270 18:18 31.01.2022
4095 Clear 22 1024 29 10000 0.45 103 17:24 31.01.2022
4096 Clear 21 1025 31 10000 0.45 59 16:25 31.01.2022
4097 Clear 19 1026 34 10000 0.45 50 14:53 31.01.2022
4098 Clear 17 1027 40 10000 1.34 8 13:35 31.01.2022
4099 Clear 15 1028 46 10000 1.34 68 12:38 31.01.2022
4100 Clear 12 1029 56 10000 1.79 42 11:31 31.01.2022
4101 Clear 12 1028 53 10000 0.45 63 10:48 31.01.2022
4102 Clear 8 1027 65 10000 1.34 17 09:38 31.01.2022
4103 Clear 8 1027 66 10000 0.89 74 08:56 31.01.2022
4104 Clear 8 1027 65 10000 1.34 53 08:20 31.01.2022
4105 Clear 8 1026 64 10000 1.79 47 07:43 31.01.2022
4106 Clear 9 1025 61 10000 1.34 41 06:18 31.01.2022
4107 Clear 12 1025 50 10000 1.79 32 00:43 31.01.2022
4108 Clear 13 1026 47 10000 0.45 88 22:34 30.01.2022
4109 Clear 13 1026 49 10000 2.57 40 21:47 30.01.2022
4110 Clear 13 1026 48 10000 1.03 0 21:26 30.01.2022
4111 Clear 13 1025 49 10000 1.03 0 20:55 30.01.2022
4112 Clear 14 1025 47 10000 3.09 50 20:31 30.01.2022
4113 Clear 14 1025 43 10000 3.09 50 19:58 30.01.2022
4114 Clear 16 1025 40 10000 3.09 50 19:23 30.01.2022
4115 Clear 19 1023 31 10000 1.34 62 18:35 30.01.2022
4116 Clear 20 1024 30 10000 1.34 65 17:40 30.01.2022
4117 Clear 20 1024 28 10000 1.79 33 17:19 30.01.2022
4118 Clear 20 1024 29 10000 2.24 42 16:36 30.01.2022
4119 Clear 21 1024 28 10000 1.79 41 16:18 30.01.2022
4120 Clear 20 1024 29 10000 2.68 67 15:45 30.01.2022
4121 Clear 20 1024 29 10000 2.24 60 15:25 30.01.2022
4122 Clear 19 1025 30 10000 2.24 64 14:44 30.01.2022
4123 Clear 15 1027 35 10000 2.24 41 12:46 30.01.2022
4124 Clear 14 1027 37 10000 1.79 44 11:52 30.01.2022
4125 Clear 11 1027 42 10000 2.68 47 10:26 30.01.2022
4126 Clear 10 1026 43 10000 2.24 36 09:41 30.01.2022
4127 Clear 9 1026 44 10000 3.13 58 08:48 30.01.2022
4128 Clear 10 1025 44 10000 3.13 57 05:30 30.01.2022
4129 Clear 12 1026 43 10000 0.89 11 01:55 30.01.2022
4130 Clear 13 1026 39 10000 0.89 354 23:50 29.01.2022
4131 Clear 13 1027 38 10000 1.34 77 22:58 29.01.2022
4132 Clear 14 1028 37 10000 1.34 90 21:46 29.01.2022
4133 Clear 15 1028 37 10000 1.34 107 21:22 29.01.2022
4134 Clear 15 1028 35 10000 1.34 103 20:22 29.01.2022
4135 Clear 17 1027 29 10000 5.14 90 19:33 29.01.2022
4136 Clear 17 1027 27 10000 6.17 100 18:51 29.01.2022
4137 Clear 19 1026 31 10000 4.02 115 18:18 29.01.2022
4138 Clear 20 1026 29 10000 4.92 113 17:27 29.01.2022
4139 Clear 20 1026 29 10000 4.92 99 15:44 29.01.2022
4140 Clear 18 1027 37 10000 3.58 86 13:59 29.01.2022
4141 Clear 17 1027 38 10000 3.58 88 13:41 29.01.2022
4142 Clear 17 1028 39 10000 4.02 82 13:22 29.01.2022
4143 Clear 14 1028 50 10000 3.13 57 11:40 29.01.2022
4144 Clear 11 1028 57 10000 2.68 56 10:46 29.01.2022
4145 Clear 10 1028 61 10000 2.68 64 08:42 29.01.2022
4146 Clear 11 1027 60 10000 3.58 76 06:37 29.01.2022
4147 Clear 11 1026 65 10000 1.79 53 00:34 29.01.2022
4148 Clear 12 1027 61 10000 1.79 39 23:44 28.01.2022
4149 Clear 12 1027 57 10000 0.45 112 22:48 28.01.2022
4150 Clear 13 1027 53 10000 2.06 80 22:20 28.01.2022
4151 Clear 13 1027 51 10000 1.79 133 21:35 28.01.2022
4152 Clear 15 1027 46 10000 0.89 92 20:29 28.01.2022
4153 Clear 16 1026 43 10000 1.79 121 19:28 28.01.2022
4154 Clear 17 1025 36 10000 6.17 120 18:42 28.01.2022
4155 Clear 19 1024 39 10000 5.81 112 16:45 28.01.2022
4156 Clear 19 1024 42 10000 4.02 86 14:59 28.01.2022
4157 Clear 17 1025 47 10000 3.58 89 13:37 28.01.2022
4158 Clear 15 1026 51 10000 3.13 82 12:27 28.01.2022
4159 Clear 11 1026 61 10000 3.13 50 10:41 28.01.2022
4160 Clear 10 1026 66 10000 2.68 72 09:49 28.01.2022
4161 Clear 9 1025 70 10000 2.68 59 07:43 28.01.2022
4162 Clear 10 1024 70 10000 2.24 67 06:39 28.01.2022
4163 Clear 10 1024 79 10000 2.24 72 03:53 28.01.2022
4164 Clear 10 1024 77 10000 2.24 71 02:30 28.01.2022
4165 Clear 10 1024 77 10000 2.24 64 01:57 28.01.2022
4166 Clear 11 1024 75 10000 2.24 67 01:30 28.01.2022
4167 Clear 12 1024 65 10000 2.57 110 22:48 27.01.2022
4168 Clear 13 1024 61 10000 0.45 116 21:45 27.01.2022
4169 Clear 13 1024 59 10000 0.45 128 21:26 27.01.2022
4170 Clear 15 1024 57 10000 2.57 70 20:24 27.01.2022
4171 Clear 17 1023 52 10000 3.13 120 18:24 27.01.2022
4172 Clear 17 1022 53 10000 2.68 78 17:26 27.01.2022
4173 Clouds 17 1023 53 10000 2.68 91 14:34 27.01.2022
4174 Clear 17 1024 55 10000 3.13 81 13:24 27.01.2022
4175 Clear 15 1025 59 10000 3.58 83 12:25 27.01.2022
4176 Clear 12 1024 69 10000 2.68 80 09:56 27.01.2022
4177 Clear 11 1023 71 10000 2.68 75 08:48 27.01.2022
4178 Clear 11 1023 71 10000 2.68 79 08:28 27.01.2022
4179 Clear 12 1022 73 10000 2.24 80 03:47 27.01.2022
4180 Clear 13 1022 70 10000 1.79 77 00:25 27.01.2022
4181 Clear 14 1022 67 10000 2.68 97 22:39 26.01.2022
4182 Clear 15 1022 62 10000 1.79 84 21:45 26.01.2022
4183 Clear 14 1023 62 10000 1.34 71 21:26 26.01.2022
4184 Clear 15 1022 58 10000 2.24 91 20:35 26.01.2022
4185 Clear 15 1022 58 10000 3.13 91 19:52 26.01.2022
4186 Clear 16 1022 57 10000 2.68 89 19:19 26.01.2022
4187 Clear 16 1021 56 10000 3.13 84 18:26 26.01.2022
4188 Clear 16 1021 55 10000 3.58 86 17:49 26.01.2022
4189 Clear 16 1021 54 10000 3.13 90 17:19 26.01.2022
4190 Clear 16 1021 55 10000 3.13 92 16:26 26.01.2022
4191 Clear 17 1021 54 10000 4.02 88 15:45 26.01.2022
4192 Clear 16 1023 55 10000 4.02 66 13:24 26.01.2022
4193 Clear 13 1024 63 10000 3.58 75 11:40 26.01.2022
4194 Clear 11 1024 67 10000 3.58 86 10:20 26.01.2022
4195 Clear 10 1024 70 10000 3.13 74 09:43 26.01.2022
4196 Clear 10 1023 68 10000 2.24 66 07:32 26.01.2022
4197 Clear 10 1025 77 10000 0.45 71 00:48 26.01.2022
4198 Clear 10 1025 77 10000 0.45 71 00:48 26.01.2022
4199 Clear 12 1026 68 10000 0.45 95 23:48 25.01.2022
4200 Clear 12 1025 68 10000 0.45 95 22:50 25.01.2022
4201 Clear 12 1026 68 10000 0.45 95 22:50 25.01.2022
4202 Clear 12 1026 68 10000 0.45 95 22:50 25.01.2022
4203 Clear 13 1026 65 10000 1.03 50 22:21 25.01.2022
4204 Clear 12 1026 67 10000 0.51 30 21:41 25.01.2022
4205 Clear 13 1026 60 10000 2.06 110 20:46 25.01.2022
4206 Clear 14 1025 57 10000 3.09 70 20:22 25.01.2022
4207 Clear 14 1025 55 10000 3.09 70 19:44 25.01.2022
4208 Clear 16 1024 52 10000 1.79 81 18:24 25.01.2022
4209 Clouds 16 1024 52 10000 2.68 73 17:42 25.01.2022
4210 Clouds 16 1024 54 10000 4.47 114 16:35 25.01.2022
4211 Clear 16 1024 54 10000 3.58 113 15:47 25.01.2022
4212 Clear 16 1024 54 10000 4.02 89 15:28 25.01.2022
4213 Clear 16 1025 55 10000 3.58 99 14:57 25.01.2022
4214 Clear 15 1026 56 10000 3.13 85 13:28 25.01.2022
4215 Clear 10 1027 71 10000 2.68 82 10:35 25.01.2022
4216 Clear 9 1026 74 10000 2.68 57 08:33 25.01.2022
4217 Clear 10 1025 75 10000 3.13 81 07:28 25.01.2022
4218 Clear 10 1025 79 10000 3.58 85 06:29 25.01.2022
4219 Clear 11 1026 79 10000 0.89 351 01:36 25.01.2022
4220 Clear 12 1026 77 10000 0.45 333 23:37 24.01.2022
4221 Clear 12 1025 78 10000 3.09 70 23:18 24.01.2022
4222 Clear 12 1025 78 10000 3.09 70 22:59 24.01.2022
4223 Clear 12 1025 77 10000 0.89 336 22:41 24.01.2022
4224 Clouds 12 1024 75 10000 1.34 135 21:49 24.01.2022
4225 Clouds 13 1024 77 10000 0.89 130 21:28 24.01.2022
4226 Clouds 13 1024 75 10000 0.89 49 20:29 24.01.2022
4227 Clear 13 1023 73 10000 1.34 56 19:39 24.01.2022
4228 Clear 13 1023 73 10000 1.34 29 19:20 24.01.2022
4229 Rain 14 1023 73 10000 1.34 44 17:45 24.01.2022
4230 Rain 14 1023 71 10000 1.34 56 17:23 24.01.2022
4231 Rain 14 1023 71 10000 1.34 56 17:23 24.01.2022
4232 Clear 15 1022 65 10000 2.24 53 16:40 24.01.2022
4233 Clear 15 1022 65 10000 2.68 52 16:18 24.01.2022
4234 Clear 14 1023 67 10000 1.79 69 14:28 24.01.2022
4235 Rain 12 1024 73 10000 1.34 8 12:38 24.01.2022
4236 Rain 11 1024 73 10000 0.89 42 11:59 24.01.2022
4237 Clear 10 1024 73 10000 1.79 64 10:25 24.01.2022
4238 Clear 10 1023 74 10000 1.79 63 09:47 24.01.2022
4239 Clear 9 1022 77 10000 1.79 61 08:30 24.01.2022
4240 Clear 9 1022 81 10000 1.79 51 06:19 24.01.2022
4241 Clear 10 1022 79 10000 1.34 47 01:30 24.01.2022
4242 Clear 11 1022 78 10000 1.34 43 00:35 24.01.2022
4243 Clear 11 1022 76 10000 0.89 51 23:49 23.01.2022
4244 Clear 11 1022 76 10000 0.89 51 23:49 23.01.2022
4245 Clear 12 1021 73 10000 1.34 41 22:28 23.01.2022
4246 Clear 13 1021 69 10000 1.34 55 21:46 23.01.2022
4247 Clear 13 1021 69 10000 1.34 65 21:25 23.01.2022
4248 Clear 13 1021 69 10000 1.34 340 20:44 23.01.2022
4249 Clear 14 1022 64 10000 0.89 76 19:44 23.01.2022
4250 Clear 15 1021 62 10000 0.45 343 18:51 23.01.2022
4251 Clear 17 1020 55 10000 2.24 58 17:44 23.01.2022
4252 Clear 17 1020 54 10000 2.68 62 16:47 23.01.2022
4253 Clear 17 1021 54 10000 2.68 79 14:59 23.01.2022
4254 Clear 16 1021 56 10000 2.24 54 14:25 23.01.2022
4255 Clear 16 1021 56 10000 2.24 55 14:25 23.01.2022
4256 Clear 13 1022 64 10000 2.68 81 12:59 23.01.2022
4257 Clear 12 1023 66 10000 2.24 82 12:22 23.01.2022
4258 Clear 12 1023 66 10000 2.24 82 12:22 23.01.2022
4259 Clear 11 1023 68 10000 2.24 81 11:59 23.01.2022
4260 Clear 10 1022 71 10000 2.68 78 11:19 23.01.2022
4261 Clear 9 1022 74 10000 2.24 70 10:27 23.01.2022
4262 Clear 8 1022 76 10000 1.79 78 09:51 23.01.2022
4263 Clear 7 1022 78 10000 2.24 77 08:54 23.01.2022
4264 Clear 8 1021 81 10000 3.13 77 05:57 23.01.2022
4265 Clear 9 1022 82 10000 1.34 36 01:53 23.01.2022
4266 Clear 9 1022 82 10000 1.79 42 01:53 23.01.2022
4267 Clear 9 1022 81 10000 0.89 24 01:27 23.01.2022
4268 Clear 9 1023 79 10000 0.89 332 00:23 23.01.2022
4269 Clear 10 1023 78 10000 1.34 344 23:57 22.01.2022
4270 Clear 10 1023 73 10000 1.79 344 22:46 22.01.2022
4271 Clear 12 1022 67 10000 2.24 99 21:36 22.01.2022
4272 Clear 13 1023 65 10000 0.45 112 20:21 22.01.2022
4273 Clear 15 1023 60 10000 0.89 84 19:21 22.01.2022
4274 Clear 17 1022 54 10000 2.68 74 18:25 22.01.2022
4275 Clear 17 1022 51 10000 3.13 88 17:41 22.01.2022
4276 Clear 19 1021 49 10000 2.68 64 16:56 22.01.2022
4277 Clear 18 1022 48 10000 2.68 76 15:53 22.01.2022
4278 Clear 18 1022 48 10000 4.02 65 15:32 22.01.2022
4279 Clear 15 1023 53 10000 4.02 77 13:51 22.01.2022
4280 Clear 14 1024 57 10000 3.58 69 12:55 22.01.2022
4281 Clear 13 1024 59 10000 4.02 86 12:30 22.01.2022
4282 Clear 11 1025 62 10000 3.13 77 11:49 22.01.2022
4283 Clear 8 1024 67 10000 2.68 82 10:31 22.01.2022
4284 Clear 8 1024 70 10000 2.68 68 09:59 22.01.2022
4285 Clear 7 1024 73 10000 2.68 80 08:53 22.01.2022
4286 Clear 6 1024 71 10000 2.68 64 08:27 22.01.2022
4287 Clear 6 1023 77 10000 1.79 49 05:20 22.01.2022
4288 Clear 7 1024 77 10000 1.79 52 01:58 22.01.2022
4289 Clear 9 1023 68 10000 0.89 342 23:48 21.01.2022
4290 Clear 9 1023 64 10000 0.89 68 22:44 21.01.2022
4291 Clear 9 1023 62 10000 3.09 100 20:45 21.01.2022
4292 Clear 14 1023 48 10000 3.09 70 18:41 21.01.2022
4293 Clear 15 1022 46 10000 2.24 70 17:45 21.01.2022
4294 Clear 16 1022 54 10000 2.24 91 15:48 21.01.2022
4295 Clear 15 1022 56 10000 2.68 84 14:37 21.01.2022
4296 Clear 12 1024 61 10000 2.24 34 12:42 21.01.2022
4297 Clear 9 1025 68 10000 2.24 60 11:29 21.01.2022
4298 Clear 7 1024 73 10000 2.24 74 10:27 21.01.2022
4299 Clear 4 1024 83 10000 2.24 49 08:50 21.01.2022
4300 Clear 5 1023 82 10000 1.79 63 07:37 21.01.2022
4301 Clear 8 1023 77 10000 0.45 24 01:48 21.01.2022
4302 Clear 10 1023 69 10000 0.45 9 22:46 20.01.2022
4303 Clear 10 1023 65 10000 0.89 4 21:48 20.01.2022
4304 Clear 11 1024 64 10000 0.89 23 20:57 20.01.2022
4305 Clear 11 1023 58 10000 1.54 350 19:46 20.01.2022
4306 Clear 13 1023 54 10000 0.45 342 19:18 20.01.2022
4307 Clear 16 1023 43 10000 2.24 105 17:36 20.01.2022
4308 Clear 16 1024 50 10000 0.89 123 15:59 20.01.2022
4309 Clear 15 1024 52 10000 2.68 112 15:29 20.01.2022
4310 Clear 14 1026 59 10000 2.24 60 14:18 20.01.2022
4311 Clear 11 1027 67 10000 2.68 37 12:48 20.01.2022
4312 Clear 10 1027 69 10000 2.68 41 12:27 20.01.2022
4313 Clear 7 1027 79 10000 1.79 51 10:59 20.01.2022
4314 Clear 5 1027 83 10000 2.24 53 09:44 20.01.2022
4315 Clear 4 1027 86 10000 1.79 40 08:37 20.01.2022
4316 Clear 4 1026 86 10000 1.34 46 06:49 20.01.2022
4317 Clear 8 1027 80 10000 0.45 350 00:30 20.01.2022
4318 Clear 9 1027 75 10000 0.45 9 22:38 19.01.2022
4319 Clear 11 1027 71 10000 1.34 360 21:33 19.01.2022
4320 Clear 11 1027 70 10000 0.89 26 20:56 19.01.2022
4321 Clear 11 1027 69 10000 0.45 90 20:30 19.01.2022
4322 Clear 14 1027 56 10000 1.03 0 18:52 19.01.2022
4323 Clear 15 1027 52 10000 0.45 43 17:51 19.01.2022
4324 Clear 16 1027 52 10000 0.89 101 17:18 19.01.2022
4325 Clear 16 1027 52 10000 0.89 101 17:18 19.01.2022
4326 Clear 16 1027 52 10000 0.89 101 17:18 19.01.2022
4327 Clear 15 1028 56 10000 0.89 32 15:32 19.01.2022
4328 Clear 12 1030 65 10000 1.34 49 13:25 19.01.2022
4329 Clear 9 1030 72 10000 1.79 71 11:58 19.01.2022
4330 Clear 8 1031 76 10000 2.57 30 11:38 19.01.2022
4331 Clear 4 1030 85 10000 1.79 53 09:35 19.01.2022
4332 Clear 4 1029 84 10000 1.34 63 08:38 19.01.2022
4333 Clear 5 1029 85 10000 1.34 62 05:20 19.01.2022
4334 Clear 8 1030 77 10000 0.45 351 00:21 19.01.2022
4335 Clear 8 1029 77 10000 0.45 275 23:18 18.01.2022
4336 Clear 10 1029 70 10000 0.89 11 21:45 18.01.2022
4337 Clear 11 1029 67 10000 0.51 0 20:34 18.01.2022
4338 Clear 11 1028 67 10000 0.51 0 19:49 18.01.2022
4339 Clear 13 1028 61 10000 1.54 300 19:31 18.01.2022
4340 Clear 15 1028 51 10000 0.45 48 18:23 18.01.2022
4341 Clear 16 1027 49 10000 0.45 43 17:32 18.01.2022
4342 Clear 17 1027 47 10000 0.89 57 16:22 18.01.2022
4343 Clear 16 1028 51 10000 1.34 58 15:25 18.01.2022
4344 Clear 14 1028 57 10000 1.34 32 14:23 18.01.2022
4345 Clear 10 1029 71 10000 2.24 46 11:45 18.01.2022
4346 Clear 7 1030 78 10000 2.24 63 10:30 18.01.2022
4347 Clear 5 1029 86 10000 1.79 350 08:29 18.01.2022
4348 Clear 6 1028 86 10000 1.34 49 07:44 18.01.2022
4349 Clear 8 1028 80 10000 0.89 36 00:42 18.01.2022
4350 Clear 10 1028 72 10000 1.79 46 22:46 17.01.2022
4351 Clear 11 1029 72 10000 0.89 9 21:49 17.01.2022
4352 Clear 11 1029 71 10000 0.89 6 21:29 17.01.2022
4353 Clear 13 1028 63 10000 0.89 355 19:37 17.01.2022
4354 Clear 15 1028 58 10000 1.79 53 18:26 17.01.2022
4355 Clear 17 1027 55 10000 2.24 44 17:22 17.01.2022
4356 Clear 16 1028 55 10000 3.13 87 15:58 17.01.2022
4357 Clear 15 1029 57 10000 2.24 77 14:58 17.01.2022
4358 Clear 14 1029 59 10000 2.24 88 14:32 17.01.2022
4359 Clear 13 1031 62 10000 1.79 75 13:19 17.01.2022
4360 Clear 11 1032 64 10000 3.58 73 12:22 17.01.2022
4361 Clear 9 1031 67 10000 3.13 56 11:33 17.01.2022
4362 Clear 7 1031 75 10000 1.79 25 09:53 17.01.2022
4363 Clear 6 1030 80 10000 0.89 336 08:44 17.01.2022
4364 Clear 6 1029 80 10000 1.79 53 07:21 17.01.2022
4365 Clear 8 1030 77 10000 0.89 70 01:52 17.01.2022
4366 Clear 10 1030 71 10000 1.34 72 23:44 16.01.2022
4367 Clear 12 1030 65 10000 0.89 83 21:22 16.01.2022
4368 Clear 13 1029 61 10000 0.89 83 20:28 16.01.2022
4369 Clear 14 1029 54 10000 2.57 90 18:46 16.01.2022
4370 Clear 16 1028 48 10000 1.79 81 17:51 16.01.2022
4371 Clear 17 1028 47 10000 1.34 86 16:55 16.01.2022
4372 Clear 16 1028 47 10000 1.34 89 15:43 16.01.2022
4373 Clear 15 1029 54 10000 1.34 16 14:29 16.01.2022
4374 Clear 14 1030 58 10000 2.24 61 13:33 16.01.2022
4375 Clear 12 1030 62 10000 1.79 46 12:22 16.01.2022
4376 Clear 10 1030 66 10000 2.24 61 11:29 16.01.2022
4377 Clear 8 1029 71 10000 2.68 50 10:28 16.01.2022
4378 Clear 7 1030 70 10000 2.57 50 09:58 16.01.2022
4379 Clear 7 1029 74 10000 1.79 38 09:38 16.01.2022
4380 Clear 6 1030 75 10000 3.09 50 09:19 16.01.2022
4381 Clear 6 1029 75 10000 4.12 60 07:19 16.01.2022
4382 Clouds 11 1027 71 10000 1.79 51 00:36 16.01.2022
4383 Clouds 13 1026 64 10000 0.45 55 22:55 15.01.2022
4384 Clear 14 1026 61 10000 1.34 86 21:22 15.01.2022
4385 Clear 14 1026 59 10000 1.34 91 20:45 15.01.2022
4386 Clear 14 1025 59 10000 0.89 51 20:22 15.01.2022
4387 Clear 14 1025 58 10000 0.45 13 19:27 15.01.2022
4388 Clear 15 1025 57 10000 0.89 53 18:20 15.01.2022
4389 Clear 16 1025 53 10000 1.34 61 16:49 15.01.2022
4390 Clear 16 1025 53 10000 1.34 61 16:49 15.01.2022
4391 Clear 15 1026 60 10000 2.24 31 14:38 15.01.2022
4392 Clear 12 1027 67 10000 2.24 85 12:52 15.01.2022
4393 Clear 10 1028 73 10000 2.24 68 11:32 15.01.2022
4394 Clear 6 1027 82 10000 1.79 53 09:46 15.01.2022
4395 Clear 7 1026 86 10000 1.79 58 05:18 15.01.2022
4396 Clear 9 1028 76 10000 0.89 330 23:32 14.01.2022
4397 Clear 11 1028 71 10000 1.54 150 21:18 14.01.2022
4398 Clear 12 1027 69 10000 0.89 293 20:25 14.01.2022
4399 Clear 12 1028 68 10000 0.89 76 19:55 14.01.2022
4400 Clear 15 1026 56 10000 1.79 67 18:42 14.01.2022
4401 Clear 16 1027 54 10000 2.24 40 17:39 14.01.2022
4402 Clear 17 1026 50 10000 3.13 56 16:43 14.01.2022
4403 Clouds 16 1026 51 10000 2.68 81 15:33 14.01.2022
4404 Clouds 15 1027 52 10000 3.13 93 14:28 14.01.2022
4405 Clear 14 1028 56 10000 3.13 88 12:58 14.01.2022
4406 Clear 12 1028 59 10000 3.58 82 11:53 14.01.2022
4407 Clear 9 1029 66 10000 4.02 77 10:40 14.01.2022
4408 Clear 8 1028 69 10000 2.24 74 08:53 14.01.2022
4409 Clear 8 1028 68 10000 3.58 79 07:32 14.01.2022
4410 Clear 10 1027 69 10000 2.68 89 02:27 14.01.2022
4411 Clear 11 1028 67 10000 3.13 114 00:22 14.01.2022
4412 Clear 11 1028 65 10000 2.68 112 21:47 13.01.2022
4413 Clear 12 1028 62 10000 2.68 112 21:29 13.01.2022
4414 Clear 13 1028 51 10000 3.58 130 19:58 13.01.2022
4415 Clear 13 1027 50 10000 4.02 124 19:29 13.01.2022
4416 Clear 14 1027 50 10000 4.47 116 18:40 13.01.2022
4417 Clouds 16 1026 50 10000 3.58 116 16:53 13.01.2022
4418 Clear 17 1026 49 10000 4.02 107 15:39 13.01.2022
4419 Clear 17 1026 51 10000 4.02 107 15:21 13.01.2022
4420 Clear 15 1027 56 10000 4.02 72 13:29 13.01.2022
4421 Clear 12 1028 66 10000 3.13 92 11:18 13.01.2022
4422 Clear 8 1028 77 10000 2.68 81 09:24 13.01.2022
4423 Clear 8 1027 76 10000 2.68 78 08:29 13.01.2022
4424 Clear 9 1026 75 10000 2.68 76 07:59 13.01.2022
4425 Clear 9 1026 74 10000 2.24 78 07:20 13.01.2022
4426 Clear 10 1025 70 10000 3.58 90 05:21 13.01.2022
4427 Clear 10 1025 71 10000 3.58 93 04:55 13.01.2022
4428 Clear 9 1026 77 10000 1.79 48 01:39 13.01.2022
4429 Clear 10 1026 70 10000 1.34 56 23:54 12.01.2022
4430 Clear 10 1026 70 10000 1.34 48 23:34 12.01.2022
4431 Clear 11 1026 65 10000 0.89 81 22:35 12.01.2022
4432 Clear 12 1026 66 10000 0.45 115 21:49 12.01.2022
4433 Clear 12 1025 65 10000 1.34 91 21:20 12.01.2022
4434 Clear 12 1026 65 10000 1.34 121 20:49 12.01.2022
4435 Clear 15 1024 57 10000 3.13 115 19:22 12.01.2022
4436 Clouds 16 1024 62 10000 1.79 115 18:27 12.01.2022
4437 Clouds 17 1023 59 10000 4.02 89 16:58 12.01.2022
4438 Clouds 18 1023 59 10000 4.02 94 15:49 12.01.2022
4439 Clouds 17 1023 62 10000 3.58 74 14:45 12.01.2022
4440 Clear 15 1025 71 10000 2.68 76 12:58 12.01.2022
4441 Clear 9 1025 88 10000 1.79 47 09:58 12.01.2022
4442 Clear 8 1024 87 10000 1.79 19 07:59 12.01.2022
4443 Clear 9 1024 87 10000 1.79 25 07:33 12.01.2022
4444 Clear 10 1023 84 10000 1.34 34 04:54 12.01.2022
4445 Clear 12 1023 80 10000 1.34 45 23:29 11.01.2022
4446 Clear 12 1023 76 10000 1.34 58 22:41 11.01.2022
4447 Clear 13 1023 74 10000 1.34 49 22:20 11.01.2022
4448 Clear 15 1022 68 10000 1.79 51 20:40 11.01.2022
4449 Clear 15 1022 64 10000 0.45 346 19:41 11.01.2022
4450 Clear 18 1021 53 10000 1.79 105 18:25 11.01.2022
4451 Clear 19 1020 51 10000 3.13 81 17:18 11.01.2022
4452 Clear 19 1020 53 10000 4.02 75 16:36 11.01.2022
4453 Clear 19 1020 54 10000 3.13 84 14:59 11.01.2022
4454 Clear 19 1020 54 10000 3.13 78 14:40 11.01.2022
4455 Clear 18 1021 56 10000 4.47 88 13:54 11.01.2022
4456 Clear 18 1021 57 10000 4.02 89 13:31 11.01.2022
4457 Clear 16 1022 62 10000 3.58 85 12:41 11.01.2022
4458 Clear 13 1022 72 10000 2.24 58 10:59 11.01.2022
4459 Clear 9 1020 89 10000 2.68 25 08:58 11.01.2022
4460 Clouds 9 1020 91 6000 1.79 26 06:28 11.01.2022
4461 Clear 10 1020 88 10000 1.34 352 00:30 11.01.2022
4462 Clear 11 1020 88 10000 1.34 25 23:41 10.01.2022
4463 Clear 11 1020 88 10000 1.34 46 22:51 10.01.2022
4464 Clear 11 1020 88 10000 1.34 46 22:51 10.01.2022
4465 Clear 12 1020 87 10000 1.34 61 22:18 10.01.2022
4466 Clouds 12 1020 85 10000 1.34 64 21:52 10.01.2022
4467 Clear 12 1020 85 10000 0.89 64 21:19 10.01.2022
4468 Clear 13 1021 85 10000 0.89 52 20:56 10.01.2022
4469 Clear 13 1020 83 10000 1.34 62 20:27 10.01.2022
4470 Clear 14 1021 81 10000 1.34 63 19:41 10.01.2022
4471 Clear 14 1021 80 10000 1.34 50 19:20 10.01.2022
4472 Clear 15 1021 77 10000 1.79 52 18:48 10.01.2022
4473 Clear 16 1020 73 10000 1.79 70 17:40 10.01.2022
4474 Clear 17 1020 70 10000 2.24 79 16:41 10.01.2022
4475 Clouds 16 1020 71 10000 1.34 112 15:20 10.01.2022
4476 Clouds 16 1021 72 10000 1.34 86 14:26 10.01.2022
4477 Clear 13 1024 81 10000 0.45 54 11:58 10.01.2022
4478 Clouds 12 1024 84 10000 0.89 15 11:25 10.01.2022
4479 Clouds 8 1024 91 7000 0.45 344 09:48 10.01.2022
4480 Clouds 7 1023 91 10000 1.03 0 07:18 10.01.2022
4481 Clouds 7 1023 91 10000 0.89 20 05:49 10.01.2022
4482 Clear 10 1024 84 10000 0.89 358 01:30 10.01.2022
4483 Clear 10 1025 85 10000 0.89 12 00:25 10.01.2022
4484 Clear 10 1025 84 10000 0.45 346 23:33 09.01.2022
4485 Clear 10 1025 82 10000 0 0 22:37 09.01.2022
4486 Clear 11 1025 79 10000 0.45 349 21:46 09.01.2022
4487 Clear 11 1025 78 10000 0.51 0 21:23 09.01.2022
4488 Clear 12 1025 75 10000 0.89 351 20:52 09.01.2022
4489 Clear 12 1025 75 10000 0.45 351 20:34 09.01.2022
4490 Clear 12 1025 71 10000 0.51 0 19:45 09.01.2022
4491 Clear 13 1025 68 10000 0.45 172 19:23 09.01.2022
4492 Clear 13 1025 66 10000 0.45 215 18:56 09.01.2022
4493 Clear 14 1025 63 10000 1.34 215 18:34 09.01.2022
4494 Clear 15 1025 60 10000 0.89 208 17:45 09.01.2022
4495 Clear 15 1025 58 10000 1.34 208 17:21 09.01.2022
4496 Clear 15 1025 55 10000 1.34 219 15:59 09.01.2022
4497 Clear 15 1025 55 10000 0.89 229 15:36 09.01.2022
4498 Clear 14 1026 56 10000 0.89 285 14:41 09.01.2022
4499 Clear 13 1027 59 10000 0.45 66 13:51 09.01.2022
4500 Clear 12 1027 61 10000 0.89 33 13:25 09.01.2022
4501 Clear 9 1028 71 10000 0.89 73 11:56 09.01.2022
4502 Clear 8 1028 77 10000 0.89 45 11:19 09.01.2022
4503 Clear 5 1028 87 10000 0.45 354 09:51 09.01.2022
4504 Clear 4 1028 89 10000 1.79 42 08:54 09.01.2022
4505 Clear 5 1027 86 10000 1.34 55 05:54 09.01.2022
4506 Clear 7 1027 81 10000 1.03 0 01:26 09.01.2022
4507 Clear 8 1028 78 10000 0.45 13 00:37 09.01.2022
4508 Clear 9 1027 78 10000 1.34 25 23:27 08.01.2022
4509 Clear 9 1027 76 10000 1.34 22 22:35 08.01.2022
4510 Clear 11 1027 71 10000 0.89 9 21:27 08.01.2022
4511 Clear 11 1028 70 10000 1.03 0 20:43 08.01.2022
4512 Clear 12 1028 67 10000 0.45 352 20:21 08.01.2022
4513 Clear 12 1027 65 10000 2.06 70 19:22 08.01.2022
4514 Clear 17 1027 46 10000 1.34 49 17:25 08.01.2022
4515 Clear 16 1027 47 10000 1.34 73 16:42 08.01.2022
4516 Clear 15 1028 50 10000 2.24 87 14:52 08.01.2022
4517 Clear 14 1029 56 10000 2.24 75 13:57 08.01.2022
4518 Clear 10 1030 71 10000 2.24 73 11:30 08.01.2022
4519 Clear 8 1030 76 10000 1.34 85 10:33 08.01.2022
4520 Clear 7 1030 80 10000 0.89 65 09:57 08.01.2022
4521 Clear 6 1029 81 10000 1.79 54 09:33 08.01.2022
4522 Clear 7 1028 80 10000 1.34 56 05:51 08.01.2022
4523 Clear 9 1028 78 10000 1.79 65 01:24 08.01.2022
4524 Clear 10 1028 72 10000 1.34 55 23:30 07.01.2022
4525 Clear 11 1028 72 10000 1.34 5 21:49 07.01.2022
4526 Clear 12 1027 70 10000 0.89 61 20:32 07.01.2022
4527 Clear 13 1027 66 10000 1.34 76 19:27 07.01.2022
4528 Clear 13 1027 66 10000 1.34 76 19:27 07.01.2022
4529 Clear 13 1027 67 10000 2.57 70 18:49 07.01.2022
4530 Clear 15 1026 58 10000 0.89 52 18:21 07.01.2022
4531 Clear 16 1025 51 10000 2.24 42 17:24 07.01.2022
4532 Clear 14 1025 58 10000 3.13 83 14:56 07.01.2022
4533 Clear 14 1025 61 10000 3.13 70 13:52 07.01.2022
4534 Clear 12 1026 70 10000 2.24 73 12:51 07.01.2022
4535 Clear 9 1027 81 10000 2.24 61 11:28 07.01.2022
4536 Clear 7 1023 85 10000 1.34 17 04:54 07.01.2022
4537 Clear 8 1023 84 10000 0.89 1 02:53 07.01.2022
4538 Clear 9 1023 82 10000 0.89 42 01:49 07.01.2022
4539 Clear 9 1023 81 10000 0.89 19 01:26 07.01.2022
4540 Clear 9 1023 80 10000 0.89 16 00:31 07.01.2022
4541 Clear 10 1022 80 10000 1.34 4 22:33 06.01.2022
4542 Clear 11 1022 80 10000 0.45 10 20:54 06.01.2022
4543 Clear 11 1022 74 10000 1.03 0 20:18 06.01.2022
4544 Clear 12 1021 71 10000 1.54 210 19:39 06.01.2022
4545 Clear 15 1020 60 10000 1.79 190 17:52 06.01.2022
4546 Clear 16 1020 57 10000 0.89 211 17:28 06.01.2022
4547 Clear 15 1019 58 10000 0.89 71 16:39 06.01.2022
4548 Clear 15 1019 59 10000 1.79 30 15:45 06.01.2022
4549 Clear 15 1019 60 10000 2.24 29 15:23 06.01.2022
4550 Clear 14 1020 61 10000 1.79 66 14:20 06.01.2022
4551 Clear 14 1021 63 10000 1.34 97 13:44 06.01.2022
4552 Clear 13 1021 66 10000 1.34 29 12:32 06.01.2022
4553 Clear 12 1021 70 10000 2.24 32 11:41 06.01.2022
4554 Clear 12 1021 71 10000 2.24 33 11:20 06.01.2022
4555 Clear 8 1019 79 10000 0.89 1 08:31 06.01.2022
4556 Clouds 12 1017 88 10000 2.24 253 00:39 06.01.2022
4557 Clouds 13 1017 80 10000 2.24 271 23:36 05.01.2022
4558 Clouds 13 1017 79 10000 2.68 246 22:51 05.01.2022
4559 Clouds 13 1018 80 10000 2.24 240 22:29 05.01.2022
4560 Clear 12 1018 81 10000 1.79 224 21:46 05.01.2022
4561 Clear 13 1019 81 10000 2.24 246 20:49 05.01.2022
4562 Clouds 13 1019 77 10000 2.24 244 19:58 05.01.2022
4563 Clouds 14 1019 70 10000 1.34 270 18:33 05.01.2022
4564 Clouds 16 1020 62 10000 1.79 5 17:23 05.01.2022
4565 Clouds 16 1020 64 10000 0.89 22 16:38 05.01.2022
4566 Clouds 16 1020 65 10000 2.24 270 15:20 05.01.2022
4567 Clouds 14 1023 69 10000 1.34 208 13:39 05.01.2022
4568 Clear 13 1023 71 10000 1.34 234 12:51 05.01.2022
4569 Clear 7 1023 87 10000 0.45 239 08:58 05.01.2022
4570 Clear 7 1023 87 10000 0.89 218 07:42 05.01.2022
4571 Clear 10 1022 76 10000 0.45 284 04:58 05.01.2022
4572 Clear 11 1022 73 10000 0.89 321 00:44 05.01.2022
4573 Clear 12 1021 68 10000 4.02 360 23:27 04.01.2022
4574 Clear 12 1020 65 10000 3.13 358 22:40 04.01.2022
4575 Clear 13 1020 70 10000 1.34 335 21:18 04.01.2022
4576 Clouds 13 1018 80 10000 1.79 248 19:19 04.01.2022
4577 Clouds 15 1018 75 10000 1.79 285 17:39 04.01.2022
4578 Clouds 15 1017 74 10000 2.68 309 16:42 04.01.2022
4579 Clouds 15 1017 76 10000 2.68 308 16:23 04.01.2022
4580 Mist 16 1017 87 10000 4.92 282 14:53 04.01.2022
4581 Mist 14 1018 94 6000 1.03 0 14:34 04.01.2022
4582 Mist 13 1019 94 4500 1.54 40 13:27 04.01.2022
4583 Mist 12 1020 97 1100 1.03 0 10:41 04.01.2022
4584 Fog 11 1019 96 500 0.89 7 09:20 04.01.2022
4585 Mist 11 1019 96 1100 0.45 335 08:28 04.01.2022
4586 Mist 10 1021 93 1900 0.45 231 02:28 04.01.2022
4587 Clouds 12 1022 89 9000 0.89 206 00:40 04.01.2022
4588 Clear 13 1023 86 10000 1.34 217 23:18 03.01.2022
4589 Clear 14 1023 82 10000 0.45 166 21:52 03.01.2022
4590 Clear 15 1023 81 10000 1.34 200 21:32 03.01.2022
4591 Clear 16 1023 73 10000 0.45 218 19:56 03.01.2022
4592 Clear 18 1023 67 10000 1.03 0 18:48 03.01.2022
4593 Clear 20 1024 61 10000 1.03 290 18:27 03.01.2022
4594 Clouds 21 1023 55 10000 0.45 271 16:58 03.01.2022
4595 Clear 19 1024 58 10000 0.89 19 14:56 03.01.2022
4596 Clear 19 1025 60 10000 0.89 45 14:30 03.01.2022
4597 Clear 16 1026 68 10000 2.24 38 12:39 03.01.2022
4598 Clear 13 1027 79 10000 2.68 47 11:35 03.01.2022
4599 Clear 11 1026 83 10000 2.24 52 10:27 03.01.2022
4600 Clear 9 1026 89 10000 1.34 24 08:47 03.01.2022
4601 Clear 10 1026 90 10000 1.34 26 07:34 03.01.2022
4602 Clear 10 1026 89 10000 1.34 26 07:34 03.01.2022
4603 Clear 12 1027 87 10000 1.03 80 23:55 02.01.2022
4604 Clear 12 1027 85 10000 0.89 355 23:21 02.01.2022
4605 Clear 13 1027 84 10000 0.89 354 22:53 02.01.2022
4606 Clear 14 1027 81 10000 1.54 110 21:42 02.01.2022
4607 Clear 14 1027 78 10000 0 0 20:33 02.01.2022
4608 Clear 15 1027 77 10000 0 0 19:55 02.01.2022
4609 Clear 16 1027 75 10000 1.03 320 19:30 02.01.2022
4610 Clear 17 1027 71 10000 0.51 320 18:44 02.01.2022
4611 Clear 19 1027 62 10000 1.03 0 17:54 02.01.2022
4612 Clear 19 1027 59 10000 0.45 1 17:36 02.01.2022
4613 Clear 20 1026 58 10000 0.45 351 17:18 02.01.2022
4614 Clear 19 1027 59 10000 0.45 322 16:25 02.01.2022
4615 Clear 17 1027 67 10000 1.34 85 14:22 02.01.2022
4616 Clear 15 1029 70 10000 0.89 88 12:50 02.01.2022
4617 Clear 12 1030 82 10000 2.57 30 11:58 02.01.2022
4618 Clear 11 1030 81 10000 0.89 54 11:26 02.01.2022
4619 Clear 10 1030 93 10000 2.06 50 10:46 02.01.2022
4620 Clear 9 1028 88 10000 1.34 49 08:46 02.01.2022
4621 Clouds 9 1027 90 8000 1.34 35 05:21 02.01.2022
4622 Mist 10 1027 89 4400 0.45 355 01:41 02.01.2022
4623 Clouds 12 1027 87 8000 0.45 342 23:39 01.01.2022
4624 Clear 12 1027 88 10000 0.45 319 22:57 01.01.2022
4625 Clear 12 1027 87 10000 1.54 150 22:22 01.01.2022
4626 Clear 13 1027 86 10000 2.06 130 21:43 01.01.2022
4627 Clear 14 1027 84 10000 1.03 130 20:55 01.01.2022
4628 Clear 14 1026 82 10000 0.45 234 19:58 01.01.2022
4629 Clear 16 1026 76 10000 0.45 234 19:19 01.01.2022
4630 Clear 18 1025 67 10000 0.89 234 17:59 01.01.2022
4631 Clear 20 1025 58 10000 0.89 228 16:41 01.01.2022
4632 Clear 20 1025 57 10000 0.89 199 16:19 01.01.2022
4633 Clear 20 1025 55 10000 0.89 242 15:26 01.01.2022
4634 Clear 18 1026 60 10000 0.45 56 13:58 01.01.2022
4635 Clear 17 1027 64 10000 0.45 10 12:50 01.01.2022
4636 Clear 15 1027 67 10000 2.57 50 11:56 01.01.2022
4637 Clear 13 1026 74 10000 1.79 64 11:23 01.01.2022
4638 Clear 12 1026 78 10000 2.24 52 10:27 01.01.2022
4639 Clear 11 1026 79 10000 1.79 55 09:46 01.01.2022
4640 Clear 11 1025 79 10000 1.79 23 08:26 01.01.2022
4641 Clear 11 1025 80 10000 1.79 17 07:54 01.01.2022
4642 Clear 11 1025 79 10000 1.79 9 07:34 01.01.2022
4643 Clear 11 1024 79 10000 1.34 49 06:41 01.01.2022
4644 Clear 12 1025 79 10000 1.34 360 04:38 01.01.2022
4645 Clear 13 1025 78 10000 2.24 61 02:44 01.01.2022
4646 Clear 14 1025 76 10000 1.79 25 23:39 31.12.2021
4647 Clear 15 1025 73 10000 0.89 39 21:53 31.12.2021
4648 Clear 16 1025 71 10000 0.89 39 20:39 31.12.2021
4649 Clear 17 1024 71 10000 0.89 24 19:31 31.12.2021
4650 Clear 17 1024 71 10000 0.89 24 19:31 31.12.2021
4651 Clear 18 1025 68 10000 2.57 30 18:41 31.12.2021
4652 Clear 21 1024 56 10000 1.79 50 17:45 31.12.2021
4653 Clear 21 1024 54 10000 1.79 45 17:19 31.12.2021
4654 Clear 22 1024 53 10000 1.79 35 16:40 31.12.2021
4655 Clear 21 1024 53 10000 1.79 50 15:57 31.12.2021
4656 Clear 21 1024 54 10000 1.34 63 15:29 31.12.2021
4657 Clear 21 1024 54 10000 1.34 63 15:29 31.12.2021
4658 Clear 20 1024 55 10000 1.79 42 14:57 31.12.2021
4659 Clear 20 1024 57 10000 2.24 78 14:31 31.12.2021
4660 Clear 18 1025 60 10000 2.24 70 13:37 31.12.2021
4661 Clear 17 1025 65 10000 2.24 60 12:49 31.12.2021
4662 Clear 15 1026 69 10000 2.24 25 11:52 31.12.2021
4663 Clear 14 1026 73 10000 2.68 54 11:33 31.12.2021
4664 Clear 12 1026 82 10000 2.24 9 10:38 31.12.2021
4665 Clear 11 1026 81 10000 3.13 50 10:20 31.12.2021
4666 Clear 10 1026 83 10000 2.68 40 09:33 31.12.2021
4667 Clear 10 1025 84 10000 3.13 45 08:47 31.12.2021
4668 Clear 10 1025 86 10000 2.24 45 07:32 31.12.2021
4669 Clear 12 1025 88 10000 0.89 359 00:47 31.12.2021
4670 Clear 13 1025 87 10000 0.89 334 22:50 30.12.2021
4671 Clear 13 1024 88 10000 1.03 0 22:26 30.12.2021
4672 Clear 14 1024 86 10000 0.45 350 21:37 30.12.2021
4673 Clear 14 1024 85 10000 2.06 110 20:49 30.12.2021
4674 Clear 14 1024 84 10000 0.45 15 20:28 30.12.2021
4675 Clear 15 1024 81 10000 0.45 15 19:50 30.12.2021
4676 Clear 16 1024 78 10000 1.03 0 19:24 30.12.2021
4677 Clear 18 1023 71 10000 0.45 36 18:26 30.12.2021
4678 Clear 20 1022 62 10000 0.45 317 16:39 30.12.2021
4679 Clear 19 1022 63 10000 0.45 327 15:53 30.12.2021
4680 Clear 18 1022 68 10000 0.45 349 14:51 30.12.2021
4681 Clear 17 1022 71 10000 0.89 347 14:31 30.12.2021
4682 Clear 16 1023 77 10000 1.34 41 13:24 30.12.2021
4683 Clear 13 1024 82 10000 1.54 40 11:53 30.12.2021
4684 Clear 10 1023 89 10000 0.89 355 10:28 30.12.2021
4685 Clear 10 1023 90 10000 0.89 351 09:44 30.12.2021
4686 Clear 10 1022 92 10000 1.34 20 06:56 30.12.2021
4687 Clear 11 1022 89 10000 0.89 63 05:20 30.12.2021
4688 Clear 12 1021 89 9000 0.89 31 03:40 30.12.2021
4689 Clear 12 1021 90 10000 0.89 27 02:27 30.12.2021
4690 Clear 13 1022 88 10000 1.79 39 23:37 29.12.2021
4691 Clear 14 1022 87 10000 1.79 51 22:35 29.12.2021
4692 Clear 14 1022 86 10000 1.79 49 21:55 29.12.2021
4693 Clear 15 1022 85 10000 1.34 65 20:57 29.12.2021
4694 Clear 16 1022 84 10000 1.34 75 20:29 29.12.2021
4695 Clear 17 1022 80 10000 0.89 75 19:31 29.12.2021
4696 Clear 18 1022 76 10000 0.89 75 18:42 29.12.2021
4697 Clear 19 1022 71 10000 1.34 81 17:49 29.12.2021
4698 Clear 19 1022 69 10000 1.34 81 17:26 29.12.2021
4699 Clear 19 1022 68 10000 1.79 102 16:21 29.12.2021
4700 Clear 19 1023 67 10000 2.68 94 15:21 29.12.2021
4701 Clear 17 1024 74 10000 3.13 82 13:31 29.12.2021
4702 Clear 16 1025 78 10000 2.24 83 12:35 29.12.2021
4703 Clear 14 1025 85 10000 1.34 51 11:25 29.12.2021
4704 Clear 11 1025 90 10000 1.34 18 09:38 29.12.2021
4705 Clear 11 1025 90 10000 0.89 10 07:47 29.12.2021
4706 Clear 11 1025 91 10000 1.34 6 06:36 29.12.2021
4707 Clear 11 1025 90 10000 0.89 2 05:57 29.12.2021
4708 Clear 12 1025 90 10000 0.89 72 05:30 29.12.2021
4709 Clear 14 1025 86 10000 0.89 17 01:45 29.12.2021
4710 Clear 15 1025 84 10000 1.34 5 00:00 29.12.2021
4711 Clear 15 1025 85 10000 0.89 340 23:18 28.12.2021
4712 Clear 16 1025 84 10000 0.89 359 22:29 28.12.2021
4713 Clear 16 1025 85 10000 1.34 347 21:57 28.12.2021
4714 Clouds 17 1025 85 10000 0.89 360 21:36 28.12.2021
4715 Clouds 17 1025 84 10000 0.45 355 20:35 28.12.2021
4716 Clouds 18 1024 79 10000 0.51 80 18:59 28.12.2021
4717 Clouds 19 1024 76 10000 0.45 32 18:29 28.12.2021
4718 Clouds 19 1024 73 10000 0.89 31 17:57 28.12.2021
4719 Clouds 20 1023 71 10000 0.45 349 16:34 28.12.2021
4720 Clouds 20 1023 74 10000 0.89 332 15:49 28.12.2021
4721 Clouds 19 1024 75 10000 0.45 6 15:20 28.12.2021
4722 Clouds 20 1024 77 10000 0.89 299 14:46 28.12.2021
4723 Clouds 19 1024 79 10000 0.45 40 14:20 28.12.2021
4724 Clouds 18 1025 83 10000 1.34 42 13:42 28.12.2021
4725 Clouds 18 1025 84 10000 1.34 45 13:24 28.12.2021
4726 Clouds 18 1025 88 10000 0.45 49 12:48 28.12.2021
4727 Mist 16 1026 95 10000 0.45 360 11:33 28.12.2021
4728 Mist 15 1024 96 5000 0.45 172 07:41 28.12.2021
4729 Mist 15 1023 95 2200 0.45 167 06:41 28.12.2021
4730 Clouds 17 1022 92 10000 1.79 226 23:43 27.12.2021
4731 Clouds 17 1022 92 10000 1.34 229 22:59 27.12.2021
4732 Clouds 17 1022 91 10000 3.13 243 21:38 27.12.2021
4733 Clouds 17 1021 90 10000 3.13 239 20:57 27.12.2021
4734 Clouds 18 1021 88 10000 1.79 240 19:58 27.12.2021
4735 Clouds 18 1021 87 10000 2.24 242 19:39 27.12.2021
4736 Clouds 18 1020 87 10000 3.13 243 18:23 27.12.2021
4737 Clouds 19 1019 84 10000 2.68 240 17:46 27.12.2021
4738 Clouds 20 1019 82 10000 2.68 242 16:40 27.12.2021
4739 Clouds 20 1019 83 10000 1.79 251 15:52 27.12.2021
4740 Clouds 19 1019 84 10000 0.89 270 14:32 27.12.2021
4741 Clouds 19 1019 85 10000 2.24 268 13:39 27.12.2021
4742 Clouds 18 1020 90 10000 1.34 248 12:36 27.12.2021
4743 Clouds 16 1019 95 7000 1.79 246 10:31 27.12.2021
4744 Mist 16 1019 95 3000 1.79 269 09:47 27.12.2021
4745 Clouds 16 1017 95 10000 1.34 217 07:38 27.12.2021
4746 Clouds 16 1017 95 10000 0.89 230 07:20 27.12.2021
4747 Clouds 17 1015 94 7000 3.13 259 02:19 27.12.2021
4748 Drizzle 17 1016 94 7000 2.24 250 23:58 26.12.2021
4749 Drizzle 17 1016 94 7000 2.24 249 23:38 26.12.2021
4750 Clouds 17 1016 94 10000 3.13 244 22:34 26.12.2021
4751 Clouds 17 1016 94 10000 2.68 245 20:59 26.12.2021
4752 Drizzle 17 1015 94 2800 2.68 246 19:49 26.12.2021
4753 Clouds 17 1015 94 6000 2.68 239 18:24 26.12.2021
4754 Drizzle 17 1014 93 4500 2.68 235 17:24 26.12.2021
4755 Clouds 17 1014 90 10000 2.24 230 14:29 26.12.2021
4756 Clouds 17 1015 88 10000 1.79 240 13:41 26.12.2021
4757 Clouds 16 1015 87 10000 1.79 217 13:20 26.12.2021
4758 Clouds 16 1016 86 10000 1.34 236 12:33 26.12.2021
4759 Clouds 16 1016 86 10000 1.34 222 12:33 26.12.2021
4760 Clouds 14 1016 90 10000 0.89 225 10:43 26.12.2021
4761 Clouds 13 1015 89 10000 1.54 180 09:28 26.12.2021
4762 Clouds 13 1015 89 10000 0.89 247 08:44 26.12.2021
4763 Clouds 13 1015 89 10000 0.45 251 07:59 26.12.2021
4764 Clouds 14 1012 87 10000 2.68 272 01:30 26.12.2021
4765 Clouds 15 1011 86 10000 3.58 243 23:58 25.12.2021
4766 Clouds 15 1011 87 10000 1.79 247 23:27 25.12.2021
4767 Clouds 15 1011 87 10000 3.13 250 22:28 25.12.2021
4768 Clouds 15 1010 86 10000 2.24 218 21:18 25.12.2021
4769 Clouds 16 1008 91 10000 2.24 272 19:28 25.12.2021
4770 Clouds 17 1007 91 10000 3.13 244 18:57 25.12.2021
4771 Clouds 17 1007 91 10000 2.68 245 18:21 25.12.2021
4772 Clouds 17 1006 94 10000 4.47 240 16:42 25.12.2021
4773 Clouds 16 1005 94 5000 4.92 233 15:26 25.12.2021
4774 Clouds 16 1006 94 3000 4.02 234 13:43 25.12.2021
4775 Clouds 15 1007 95 5000 3.13 191 12:18 25.12.2021
4776 Rain 14 1007 93 8000 3.58 204 10:32 25.12.2021
4777 Clouds 14 1007 93 10000 3.13 214 09:48 25.12.2021
4778 Rain 14 1008 94 7000 1.79 238 07:21 25.12.2021
4779 Clouds 14 1009 93 10000 0.45 296 01:34 25.12.2021
4780 Rain 14 1010 94 7000 0.89 280 00:18 25.12.2021
4781 Clouds 14 1011 94 10000 2.24 198 21:46 24.12.2021
4782 Clouds 15 1011 92 10000 0.89 211 19:26 24.12.2021
4783 Clouds 15 1011 92 10000 1.79 207 18:41 24.12.2021
4784 Clouds 15 1011 92 10000 2.24 221 16:43 24.12.2021
4785 Clouds 15 1011 92 10000 1.34 221 15:50 24.12.2021
4786 Clouds 14 1012 97 10000 5.66 190 15:20 24.12.2021
4787 Clouds 15 1013 88 7000 5.14 210 14:33 24.12.2021
4788 Rain 15 1012 89 10000 4.02 219 13:54 24.12.2021
4789 Clouds 15 1012 87 10000 2.24 222 13:32 24.12.2021
4790 Clouds 15 1013 92 10000 2.24 216 12:40 24.12.2021
4791 Rain 15 1013 92 10000 2.24 204 11:43 24.12.2021
4792 Clouds 15 1013 92 10000 2.24 205 11:24 24.12.2021
4793 Clouds 15 1013 94 10000 1.34 213 10:35 24.12.2021
4794 Rain 15 1013 94 10000 1.79 209 08:58 24.12.2021
4795 Clouds 15 1013 95 10000 1.79 218 07:58 24.12.2021
4796 Clouds 14 1013 95 10000 1.79 225 07:31 24.12.2021
4797 Rain 15 1015 95 3000 1.34 147 00:47 24.12.2021
4798 Rain 15 1016 95 8000 1.34 176 23:50 23.12.2021
4799 Rain 15 1017 95 10000 1.79 201 22:53 23.12.2021
4800 Rain 15 1017 95 10000 1.34 208 22:24 23.12.2021
4801 Rain 15 1016 95 3000 1.79 218 21:47 23.12.2021
4802 Rain 15 1016 94 8000 1.34 229 20:53 23.12.2021
4803 Clouds 15 1016 93 10000 0.89 237 19:30 23.12.2021
4804 Rain 15 1016 94 10000 1.34 225 18:28 23.12.2021
4805 Clouds 15 1016 93 10000 1.34 219 17:46 23.12.2021
4806 Clouds 15 1016 94 10000 2.24 232 16:27 23.12.2021
4807 Clouds 15 1016 93 10000 0.89 219 15:54 23.12.2021
4808 Clouds 15 1016 93 10000 0.89 215 15:30 23.12.2021
4809 Rain 15 1017 93 6000 0.45 156 14:42 23.12.2021
4810 Rain 15 1017 93 6000 0.89 176 14:19 23.12.2021
4811 Clouds 15 1019 94 7000 0.89 116 12:39 23.12.2021
4812 Clouds 14 1019 95 4000 1.34 126 10:36 23.12.2021
4813 Mist 14 1018 95 4000 1.34 109 09:34 23.12.2021
4814 Clouds 14 1018 94 6000 0.45 77 08:58 23.12.2021
4815 Clouds 14 1018 94 8000 0.45 336 06:23 23.12.2021
4816 Clouds 14 1018 94 10000 0 0 03:28 23.12.2021
4817 Clouds 14 1019 94 10000 0.45 343 22:55 22.12.2021
4818 Clouds 14 1019 94 10000 0.45 331 22:23 22.12.2021
4819 Clouds 14 1019 94 10000 0.45 71 21:53 22.12.2021
4820 Clouds 14 1019 94 10000 0.45 71 21:27 22.12.2021
4821 Clouds 13 1019 94 10000 1.34 65 20:41 22.12.2021
4822 Clouds 14 1019 93 10000 0.89 17 20:20 22.12.2021
4823 Clouds 14 1019 93 10000 0.45 168 19:19 22.12.2021
4824 Rain 14 1018 93 10000 0.45 57 17:39 22.12.2021
4825 Thunderstorm 13 1019 94 10000 3.6 40 16:36 22.12.2021
4826 Rain 15 1019 92 10000 2.06 10 15:36 22.12.2021
4827 Rain 16 1019 87 10000 0.45 178 13:32 22.12.2021
4828 Rain 16 1019 90 10000 1.79 198 12:31 22.12.2021
4829 Clouds 15 1018 93 10000 1.34 213 09:53 22.12.2021
4830 Rain 15 1018 93 10000 1.79 212 09:33 22.12.2021
4831 Clouds 15 1017 91 10000 2.24 191 07:22 22.12.2021
4832 Clouds 15 1017 91 10000 1.79 208 05:41 22.12.2021
4833 Clouds 15 1017 91 10000 1.79 204 05:22 22.12.2021
4834 Clouds 15 1017 91 10000 1.79 196 04:45 22.12.2021
4835 Clouds 15 1018 91 10000 1.34 187 04:22 22.12.2021
4836 Clouds 15 1018 92 10000 1.34 214 03:32 22.12.2021
4837 Rain 15 1018 92 10000 1.79 155 00:29 22.12.2021
4838 Rain 15 1018 92 10000 1.79 202 22:52 21.12.2021
4839 Rain 15 1018 92 7000 1.34 177 22:27 21.12.2021
4840 Rain 15 1018 91 6000 1.79 174 21:43 21.12.2021
4841 Rain 16 1018 89 10000 0.45 131 20:54 21.12.2021
4842 Rain 16 1018 86 10000 1.34 242 20:20 21.12.2021
4843 Rain 17 1017 84 10000 0.45 116 19:41 21.12.2021
4844 Clear 17 1016 82 10000 1.79 111 18:45 21.12.2021
4845 Clear 17 1016 82 10000 3.13 95 18:21 21.12.2021
4846 Clouds 17 1016 84 10000 2.24 70 17:41 21.12.2021
4847 Clear 18 1016 77 10000 2.68 82 15:55 21.12.2021
4848 Clear 18 1016 78 10000 2.68 85 15:20 21.12.2021
4849 Clear 18 1017 78 10000 3.58 83 13:50 21.12.2021
4850 Clouds 17 1018 81 10000 3.58 81 13:30 21.12.2021
4851 Clear 14 1019 89 10000 4.02 52 11:36 21.12.2021
4852 Clear 13 1019 92 10000 2.68 76 10:21 21.12.2021
4853 Clouds 12 1019 93 9000 2.68 57 09:23 21.12.2021
4854 Clouds 12 1019 92 10000 0.89 19 07:58 21.12.2021
4855 Clouds 12 1018 92 10000 1.34 108 07:27 21.12.2021
4856 Clouds 13 1019 91 10000 2.24 47 05:31 21.12.2021
4857 Clouds 13 1019 89 10000 1.34 58 02:40 21.12.2021
4858 Clouds 13 1019 86 10000 0.45 13 23:59 20.12.2021
4859 Clouds 13 1019 87 10000 0.89 28 23:29 20.12.2021
4860 Rain 14 1019 84 10000 1.34 50 22:28 20.12.2021
4861 Rain 14 1020 83 10000 0.45 111 21:47 20.12.2021
4862 Rain 14 1020 82 10000 0.45 145 21:23 20.12.2021
4863 Rain 14 1020 78 10000 0.45 269 20:44 20.12.2021
4864 Clear 15 1019 73 10000 0.89 7 19:53 20.12.2021
4865 Rain 16 1019 70 10000 0.45 54 19:31 20.12.2021
4866 Clear 16 1019 67 10000 1.34 54 18:54 20.12.2021
4867 Clear 17 1019 64 10000 1.79 56 17:53 20.12.2021
4868 Clear 17 1018 63 10000 0.89 1 17:25 20.12.2021
4869 Clear 18 1018 62 10000 0.45 92 16:40 20.12.2021
4870 Clear 17 1019 62 10000 0.45 92 15:51 20.12.2021
4871 Clear 17 1019 63 10000 0.89 92 14:51 20.12.2021
4872 Clear 16 1020 66 10000 0.89 98 13:18 20.12.2021
4873 Clear 13 1021 73 10000 1.79 66 11:19 20.12.2021
4874 Clear 11 1021 78 10000 2.24 61 09:51 20.12.2021
4875 Clear 11 1021 78 10000 1.79 64 09:31 20.12.2021
4876 Clear 11 1020 79 10000 2.24 77 08:42 20.12.2021
4877 Clear 11 1020 80 10000 1.79 64 07:50 20.12.2021
4878 Clear 11 1020 80 10000 1.79 64 07:50 20.12.2021
4879 Clear 11 1020 80 10000 1.79 37 07:30 20.12.2021
4880 Clear 11 1019 81 10000 1.34 41 04:36 20.12.2021
4881 Clear 12 1020 75 10000 1.34 52 23:59 19.12.2021
4882 Clear 12 1020 74 10000 0.89 28 22:52 19.12.2021
4883 Clear 13 1019 72 10000 0.89 358 21:55 19.12.2021
4884 Clear 14 1019 69 10000 1.34 351 21:30 19.12.2021
4885 Clear 15 1019 67 10000 0.89 261 20:34 19.12.2021
4886 Clouds 16 1019 66 10000 0.45 64 19:52 19.12.2021
4887 Clear 16 1019 63 10000 1.34 189 19:27 19.12.2021
4888 Clear 18 1018 54 10000 1.54 240 18:30 19.12.2021
4889 Clear 19 1019 49 10000 1.54 240 17:53 19.12.2021
4890 Clear 21 1018 45 10000 0.45 207 17:20 19.12.2021
4891 Clear 21 1018 44 10000 0.45 240 16:26 19.12.2021
4892 Clear 21 1018 47 10000 1.34 165 15:43 19.12.2021
4893 Clear 20 1018 49 10000 0.45 66 15:21 19.12.2021
4894 Clear 19 1018 54 10000 1.79 38 14:42 19.12.2021
4895 Clear 17 1020 59 10000 2.68 35 13:24 19.12.2021
4896 Clear 17 1020 60 10000 2.24 64 12:46 19.12.2021
4897 Clear 16 1021 64 10000 2.24 80 12:23 19.12.2021
4898 Clear 14 1021 68 10000 2.68 76 11:21 19.12.2021
4899 Clear 12 1021 72 10000 1.79 77 10:26 19.12.2021
4900 Clear 10 1021 75 10000 2.68 77 09:42 19.12.2021
4901 Clear 10 1021 76 10000 1.79 53 08:43 19.12.2021
4902 Clear 11 1021 73 10000 2.24 70 04:45 19.12.2021
4903 Clear 12 1022 76 10000 0.45 34 01:34 19.12.2021
4904 Clear 12 1022 76 10000 1.34 69 00:53 19.12.2021
4905 Clear 13 1023 72 10000 2.24 86 22:42 18.12.2021
4906 Clear 13 1023 71 10000 1.79 102 22:20 18.12.2021
4907 Clear 13 1023 70 10000 2.24 105 21:41 18.12.2021
4908 Clear 13 1023 68 10000 2.24 98 21:22 18.12.2021
4909 Clear 15 1023 61 10000 2.24 108 20:19 18.12.2021
4910 Clear 16 1022 59 10000 2.24 89 19:25 18.12.2021
4911 Clear 17 1022 55 10000 2.24 93 18:22 18.12.2021
4912 Clear 17 1022 55 10000 1.79 84 17:48 18.12.2021
4913 Clouds 18 1022 52 10000 2.68 87 16:26 18.12.2021
4914 Clouds 18 1022 53 10000 3.13 89 15:28 18.12.2021
4915 Clouds 18 1022 53 10000 2.68 28 14:51 18.12.2021
4916 Clear 17 1023 57 10000 3.58 78 13:29 18.12.2021
4917 Clear 17 1023 57 10000 2.68 54 13:29 18.12.2021
4918 Clear 14 1024 64 10000 2.68 86 11:47 18.12.2021
4919 Clear 9 1024 78 10000 1.79 359 09:52 18.12.2021
4920 Clear 9 1024 79 10000 2.68 55 09:30 18.12.2021
4921 Clear 8 1024 81 10000 1.79 35 08:35 18.12.2021
4922 Clear 9 1023 84 10000 2.24 45 06:27 18.12.2021
4923 Clear 11 1023 74 10000 1.34 58 00:42 18.12.2021
4924 Clear 11 1023 73 10000 0.89 63 23:46 17.12.2021
4925 Clear 12 1024 71 10000 0.45 338 22:18 17.12.2021
4926 Clear 14 1023 66 10000 0.45 181 21:28 17.12.2021
4927 Clear 14 1023 63 10000 1.34 185 20:42 17.12.2021
4928 Clear 15 1022 55 10000 0.45 288 19:50 17.12.2021
4929 Clear 15 1023 53 10000 2.57 10 18:39 17.12.2021
4930 Clear 18 1023 46 10000 0.45 16 17:46 17.12.2021
4931 Clear 19 1021 45 10000 2.24 22 16:50 17.12.2021
4932 Clear 19 1021 46 10000 2.68 29 16:27 17.12.2021
4933 Clear 19 1022 47 10000 2.24 37 15:27 17.12.2021
4934 Clear 18 1022 50 10000 1.79 95 14:42 17.12.2021
4935 Clear 17 1022 53 10000 2.24 34 13:35 17.12.2021
4936 Clear 16 1023 57 10000 2.24 45 12:28 17.12.2021
4937 Clear 11 1023 68 10000 1.79 18 10:41 17.12.2021
4938 Clear 10 1023 71 10000 1.79 49 09:47 17.12.2021
4939 Clear 10 1023 71 10000 1.79 49 09:47 17.12.2021
4940 Clear 10 1023 71 10000 1.79 56 08:31 17.12.2021
4941 Clear 10 1022 70 10000 2.24 74 07:21 17.12.2021
4942 Clear 11 1021 73 10000 2.24 53 04:40 17.12.2021
4943 Clear 13 1022 66 10000 2.24 60 00:22 17.12.2021
4944 Clear 14 1022 67 10000 0.45 78 22:24 16.12.2021
4945 Clear 14 1022 66 10000 2.68 108 21:51 16.12.2021
4946 Clear 15 1022 63 10000 1.34 84 21:33 16.12.2021
4947 Clear 15 1021 63 10000 2.24 112 20:40 16.12.2021
4948 Clear 16 1021 59 10000 3.13 110 19:51 16.12.2021
4949 Clear 16 1021 55 10000 2.24 105 18:45 16.12.2021
4950 Clear 17 1020 53 10000 3.13 127 18:26 16.12.2021
4951 Clear 18 1020 48 10000 3.58 107 17:35 16.12.2021
4952 Clear 19 1020 47 10000 3.58 113 16:23 16.12.2021
4953 Clear 19 1020 48 10000 2.68 108 15:22 16.12.2021
4954 Clear 18 1020 49 10000 3.58 87 13:45 16.12.2021
4955 Clear 14 1022 59 10000 2.68 81 11:48 16.12.2021
4956 Clear 12 1022 64 10000 3.13 65 11:18 16.12.2021
4957 Clear 11 1022 68 10000 4.47 92 10:39 16.12.2021
4958 Clear 9 1021 73 10000 3.58 78 09:39 16.12.2021
4959 Clear 10 1020 77 10000 1.79 77 06:23 16.12.2021
4960 Clear 10 1020 77 10000 1.79 54 03:54 16.12.2021
4961 Clear 11 1021 74 10000 1.34 29 23:36 15.12.2021
4962 Clear 12 1021 73 10000 1.34 16 22:49 15.12.2021
4963 Clear 13 1021 69 10000 1.34 75 22:20 15.12.2021
4964 Clear 13 1021 66 10000 1.79 113 21:31 15.12.2021
4965 Clear 14 1021 64 10000 0.89 52 20:36 15.12.2021
4966 Clear 15 1020 61 10000 1.34 75 19:53 15.12.2021
4967 Clear 16 1021 56 10000 3.13 94 18:50 15.12.2021
4968 Clear 17 1020 53 10000 3.58 109 18:18 15.12.2021
4969 Clear 18 1020 50 10000 4.02 77 17:43 15.12.2021
4970 Clear 19 1019 45 10000 3.58 82 16:59 15.12.2021
4971 Clear 19 1019 44 10000 3.58 87 15:48 15.12.2021
4972 Clear 19 1019 43 10000 3.58 106 15:29 15.12.2021
4973 Clear 19 1020 44 10000 2.68 105 14:44 15.12.2021
4974 Clear 18 1021 49 10000 3.58 99 13:28 15.12.2021
4975 Clear 14 1022 65 10000 2.68 85 11:41 15.12.2021
4976 Clear 11 1022 77 10000 1.79 84 10:18 15.12.2021
4977 Clear 8 1021 84 10000 1.34 33 07:55 15.12.2021
4978 Clear 9 1021 82 10000 1.79 52 05:51 15.12.2021
4979 Clear 10 1021 71 10000 0.89 11 00:32 15.12.2021
4980 Clear 11 1021 70 10000 2.57 100 23:21 14.12.2021
4981 Clear 12 1021 70 10000 0.51 0 22:42 14.12.2021
4982 Clear 12 1021 68 10000 0.45 62 21:40 14.12.2021
4983 Clear 14 1020 64 10000 0.45 228 20:21 14.12.2021
4984 Clear 15 1020 60 10000 0.45 228 19:26 14.12.2021
4985 Clear 16 1021 55 10000 3.6 60 18:38 14.12.2021
4986 Clear 18 1021 51 10000 4.12 80 17:55 14.12.2021
4987 Clear 20 1020 48 10000 2.24 54 16:44 14.12.2021
4988 Clear 19 1020 48 10000 2.68 51 16:21 14.12.2021
4989 Clear 18 1022 52 10000 2.24 70 13:59 14.12.2021
4990 Clear 16 1023 57 10000 2.24 70 12:50 14.12.2021
4991 Clear 13 1023 66 10000 2.68 70 11:25 14.12.2021
4992 Clear 12 1023 70 10000 2.24 73 10:59 14.12.2021
4993 Clear 10 1023 77 10000 1.79 63 09:54 14.12.2021
4994 Clear 9 1023 80 10000 2.24 57 08:58 14.12.2021
4995 Clear 8 1022 80 10000 2.24 55 08:21 14.12.2021
4996 Clear 8 1022 81 10000 1.79 44 07:24 14.12.2021
4997 Clear 11 1022 74 10000 0.45 278 23:59 13.12.2021
4998 Clear 13 1021 68 10000 0.89 311 22:26 13.12.2021
4999 Clear 13 1021 67 10000 0.45 286 21:44 13.12.2021
5000 Clear 15 1021 63 10000 1.34 341 20:58 13.12.2021
5001 Clear 15 1021 62 10000 0.89 334 20:26 13.12.2021
5002 Clear 16 1021 61 10000 0.45 324 19:49 13.12.2021
5003 Clear 20 1020 48 10000 0.89 321 17:39 13.12.2021
5004 Clear 20 1020 48 10000 1.34 333 17:18 13.12.2021
5005 Clear 20 1020 47 10000 1.34 37 15:47 13.12.2021
5006 Clear 19 1021 50 10000 1.34 34 14:55 13.12.2021
5007 Clear 17 1022 58 10000 1.34 22 13:37 13.12.2021
5008 Clear 15 1023 63 10000 1.79 37 12:41 13.12.2021
5009 Clear 14 1023 68 10000 1.79 40 11:54 13.12.2021
5010 Clear 13 1023 69 10000 1.79 54 11:34 13.12.2021
5011 Clear 12 1023 75 10000 1.79 47 10:41 13.12.2021
5012 Clear 9 1023 82 10000 1.34 37 08:45 13.12.2021
5013 Clear 10 1022 79 10000 1.79 46 06:56 13.12.2021
5014 Clear 10 1022 76 10000 1.79 50 05:19 13.12.2021
5015 Clear 12 1023 72 10000 1.79 35 00:42 13.12.2021
5016 Clear 15 1022 66 10000 0.45 314 21:59 12.12.2021
5017 Clear 15 1022 64 10000 0.45 317 21:30 12.12.2021
5018 Clear 16 1022 64 10000 2.57 20 19:38 12.12.2021
5019 Clear 19 1021 54 10000 0.89 12 18:28 12.12.2021
5020 Clear 22 1021 46 10000 1.79 48 16:54 12.12.2021
5021 Clear 22 1021 47 10000 1.79 35 16:26 12.12.2021
5022 Clear 21 1021 50 10000 1.79 42 15:28 12.12.2021
5023 Clear 21 1022 52 10000 1.79 39 14:54 12.12.2021
5024 Clear 20 1022 54 10000 1.34 19 14:28 12.12.2021
5025 Clear 18 1023 59 10000 1.34 45 12:55 12.12.2021
5026 Clear 17 1023 62 10000 2.68 60 12:24 12.12.2021
5027 Clear 16 1023 65 10000 3.58 79 11:43 12.12.2021
5028 Clear 14 1023 70 10000 2.68 73 10:45 12.12.2021
5029 Clear 13 1023 77 10000 1.79 22 10:22 12.12.2021
5030 Clear 10 1023 84 10000 0.89 4 08:53 12.12.2021
5031 Clear 11 1022 83 10000 2.24 24 07:31 12.12.2021
5032 Clear 12 1022 79 10000 2.68 56 05:56 12.12.2021
5033 Clear 12 1022 78 10000 2.68 62 04:55 12.12.2021
5034 Clear 12 1022 80 10000 1.79 57 02:56 12.12.2021
5035 Clear 14 1023 75 10000 1.79 62 23:31 11.12.2021
5036 Clear 14 1023 72 10000 1.79 60 22:22 11.12.2021
5037 Clear 14 1023 73 10000 1.79 58 21:51 11.12.2021
5038 Clear 15 1023 69 10000 1.34 34 20:24 11.12.2021
5039 Clear 16 1022 65 10000 0.89 28 19:21 11.12.2021
5040 Clear 17 1022 61 10000 1.03 70 18:51 11.12.2021
5041 Clear 18 1022 59 10000 0.45 60 18:19 11.12.2021
5042 Clear 19 1021 53 10000 1.79 71 17:20 11.12.2021
5043 Clear 19 1022 55 10000 1.34 76 15:52 11.12.2021
5044 Clear 18 1022 55 10000 2.24 121 15:18 11.12.2021
5045 Clear 16 1023 68 10000 2.24 76 12:50 11.12.2021
5046 Clear 16 1023 68 10000 2.24 76 12:50 11.12.2021
5047 Clear 12 1024 85 10000 0.89 12 11:25 11.12.2021
5048 Clouds 10 1024 92 10000 0.45 4 09:45 11.12.2021
5049 Fog 9 1023 92 500 1.03 140 07:49 11.12.2021
5050 Clear 11 1022 90 10000 0.45 230 02:23 11.12.2021
5051 Clear 13 1023 86 10000 1.34 244 23:58 10.12.2021
5052 Clouds 14 1023 84 10000 1.34 246 23:20 10.12.2021
5053 Clouds 15 1024 79 10000 1.34 222 21:56 10.12.2021
5054 Clouds 15 1024 77 10000 0.89 264 21:28 10.12.2021
5055 Clouds 17 1023 70 10000 1.34 318 19:21 10.12.2021
5056 Clouds 17 1023 68 10000 1.79 350 18:19 10.12.2021
5057 Clouds 18 1023 65 10000 0.89 336 16:56 10.12.2021
5058 Clouds 18 1023 66 10000 0.45 286 16:28 10.12.2021
5059 Clouds 17 1023 68 10000 1.34 317 15:40 10.12.2021
5060 Clouds 17 1024 67 10000 1.34 290 15:21 10.12.2021
5061 Clouds 17 1024 69 10000 2.24 270 13:52 10.12.2021
5062 Clouds 16 1025 70 10000 2.24 262 13:26 10.12.2021
5063 Clouds 15 1026 75 10000 1.79 251 12:39 10.12.2021
5064 Clear 14 1026 81 10000 0.89 279 11:29 10.12.2021
5065 Clouds 12 1026 86 10000 0.45 269 10:37 10.12.2021
5066 Clear 9 1025 90 10000 0.45 343 08:58 10.12.2021
5067 Clear 10 1024 88 10000 0.89 254 06:56 10.12.2021
5068 Clear 11 1026 87 10000 0.89 309 02:48 10.12.2021
5069 Clouds 12 1026 84 10000 0.89 275 00:38 10.12.2021
5070 Clear 12 1026 84 10000 0.89 278 23:23 09.12.2021
5071 Clouds 13 1026 82 10000 1.34 250 22:28 09.12.2021
5072 Clouds 13 1026 81 10000 0.89 258 21:59 09.12.2021
5073 Clouds 13 1026 79 10000 0.89 274 21:19 09.12.2021
5074 Clouds 14 1026 76 10000 1.79 268 20:29 09.12.2021
5075 Clouds 15 1026 73 10000 1.34 256 19:22 09.12.2021
5076 Clouds 16 1025 69 10000 1.34 306 18:50 09.12.2021
5077 Clouds 16 1025 65 10000 1.34 349 17:57 09.12.2021
5078 Clouds 16 1025 65 10000 1.34 349 17:57 09.12.2021
5079 Clouds 17 1025 63 10000 1.79 4 17:27 09.12.2021
5080 Clouds 17 1025 62 10000 2.24 7 16:57 09.12.2021
5081 Clouds 17 1025 60 10000 4.47 338 15:59 09.12.2021
5082 Clouds 17 1026 61 10000 2.24 236 14:51 09.12.2021
5083 Clear 15 1027 66 10000 1.79 235 13:50 09.12.2021
5084 Clear 14 1028 71 10000 2.24 226 12:47 09.12.2021
5085 Clear 11 1028 82 10000 1.34 229 11:25 09.12.2021
5086 Clear 8 1028 87 10000 0.89 233 10:19 09.12.2021
5087 Clear 8 1025 87 10000 2.06 300 06:51 09.12.2021
5088 Clear 9 1025 85 10000 1.34 301 03:49 09.12.2021
5089 Clear 10 1024 79 10000 1.34 301 00:24 09.12.2021
5090 Clear 11 1024 76 10000 2.24 269 23:32 08.12.2021
5091 Clear 11 1024 75 10000 2.24 260 22:56 08.12.2021
5092 Clear 12 1024 73 10000 1.79 301 21:50 08.12.2021
5093 Clear 12 1024 73 10000 1.79 301 21:31 08.12.2021
5094 Clear 12 1023 71 10000 0.89 299 20:30 08.12.2021
5095 Clear 13 1022 68 10000 1.34 274 19:48 08.12.2021
5096 Clouds 14 1022 63 10000 1.79 314 18:54 08.12.2021
5097 Clouds 14 1021 60 10000 1.79 316 18:22 08.12.2021
5098 Clouds 16 1020 54 10000 2.68 313 16:44 08.12.2021
5099 Clouds 16 1020 51 10000 3.58 310 15:40 08.12.2021
5100 Clouds 17 1020 51 10000 3.58 330 15:21 08.12.2021
5101 Clouds 16 1021 64 10000 2.24 297 13:21 08.12.2021
5102 Clouds 13 1021 79 10000 1.79 272 10:42 08.12.2021
5103 Clear 12 1021 83 10000 1.79 273 09:32 08.12.2021
5104 Clouds 12 1020 85 10000 0.89 295 07:50 08.12.2021
5105 Clouds 14 1018 92 10000 2.24 310 05:22 08.12.2021
5106 Clouds 13 1020 92 10000 1.34 220 00:27 08.12.2021
5107 Clouds 13 1020 90 10000 1.79 236 22:52 07.12.2021
5108 Clouds 13 1020 87 10000 2.24 222 21:25 07.12.2021
5109 Clouds 13 1020 85 10000 1.79 217 20:25 07.12.2021
5110 Clouds 13 1020 85 10000 1.79 217 20:25 07.12.2021
5111 Clouds 14 1020 79 10000 2.24 251 18:59 07.12.2021
5112 Clear 15 1021 77 10000 2.24 280 18:21 07.12.2021
5113 Clear 16 1021 72 10000 3.58 268 17:24 07.12.2021
5114 Clear 18 1020 64 10000 2.68 257 16:42 07.12.2021
5115 Clear 17 1021 63 10000 2.68 238 15:59 07.12.2021
5116 Clear 16 1022 64 10000 1.34 224 14:37 07.12.2021
5117 Clear 15 1023 68 10000 0.45 324 13:40 07.12.2021
5118 Clear 12 1024 74 10000 0.89 25 12:22 07.12.2021
5119 Clear 10 1025 75 10000 0.45 63 10:56 07.12.2021
5120 Clear 8 1025 80 10000 0.45 112 09:36 07.12.2021
5121 Clear 7 1025 84 10000 1.34 53 07:35 07.12.2021
5122 Clear 7 1024 81 10000 1.34 23 05:51 07.12.2021
5123 Clear 8 1024 81 10000 0.45 36 05:26 07.12.2021
5124 Clear 10 1026 76 10000 0.45 319 23:36 06.12.2021
5125 Clear 10 1026 74 10000 0.45 48 22:41 06.12.2021
5126 Clear 11 1026 71 10000 0.45 238 21:59 06.12.2021
5127 Clear 11 1026 71 10000 0.45 292 21:59 06.12.2021
5128 Clear 11 1026 70 10000 0.45 182 21:31 06.12.2021
5129 Clear 11 1026 70 10000 0.45 182 21:31 06.12.2021
5130 Clear 12 1026 67 10000 0.45 131 20:32 06.12.2021
5131 Clear 14 1026 60 10000 0.45 221 19:24 06.12.2021
5132 Clear 15 1026 57 10000 0.89 221 18:42 06.12.2021
5133 Clear 16 1026 52 10000 0.89 224 17:54 06.12.2021
5134 Clear 16 1026 50 10000 0.89 203 17:33 06.12.2021
5135 Clear 17 1026 49 10000 0.45 217 15:52 06.12.2021
5136 Clear 16 1027 52 10000 0.45 145 14:40 06.12.2021
5137 Clear 14 1028 57 10000 1.34 338 13:35 06.12.2021
5138 Clear 13 1028 62 10000 0.89 346 12:38 06.12.2021
5139 Clear 9 1028 79 10000 1.34 21 10:28 06.12.2021
5140 Clear 6 1027 86 10000 0.89 60 07:41 06.12.2021
5141 Clear 8 1026 81 10000 0.89 227 03:52 06.12.2021
5142 Clear 12 1026 67 10000 0.89 9 22:28 05.12.2021
5143 Clear 12 1026 67 10000 0.89 9 22:28 05.12.2021
5144 Clear 12 1025 65 10000 1.79 306 21:26 05.12.2021
5145 Clear 13 1025 63 10000 0.89 284 20:54 05.12.2021
5146 Clear 13 1025 61 10000 0.89 292 20:18 05.12.2021
5147 Clear 14 1025 59 10000 1.79 331 19:26 05.12.2021
5148 Clear 15 1025 56 10000 2.68 342 18:31 05.12.2021
5149 Clouds 16 1024 52 10000 2.68 334 17:53 05.12.2021
5150 Clear 16 1024 51 10000 3.58 335 17:34 05.12.2021
5151 Clear 17 1024 49 10000 2.68 336 16:38 05.12.2021
5152 Clear 17 1024 48 10000 3.13 337 16:19 05.12.2021
5153 Clouds 16 1024 50 10000 1.79 347 14:48 05.12.2021
5154 Clouds 16 1025 54 10000 0.89 303 14:30 05.12.2021
5155 Clouds 14 1025 59 10000 1.34 313 13:36 05.12.2021
5156 Clouds 14 1026 60 10000 0.89 298 12:47 05.12.2021
5157 Clear 13 1026 61 10000 1.34 305 12:29 05.12.2021
5158 Clear 12 1027 67 10000 1.34 324 11:47 05.12.2021
5159 Clear 12 1027 76 10000 0.45 342 10:44 05.12.2021
5160 Clear 9 1026 85 10000 0.45 306 09:51 05.12.2021
5161 Clear 9 1024 84 10000 0.45 309 06:31 05.12.2021
5162 Clear 12 1025 90 10000 0.89 269 02:25 05.12.2021
5163 Clouds 13 1026 83 10000 0.89 206 23:25 04.12.2021
5164 Clouds 14 1026 79 10000 1.34 269 21:52 04.12.2021
5165 Clouds 15 1026 73 10000 2.57 290 20:47 04.12.2021
5166 Clouds 15 1026 73 10000 2.57 310 19:54 04.12.2021
5167 Clouds 16 1025 70 10000 0.89 279 19:31 04.12.2021
5168 Clouds 17 1025 62 10000 0.45 238 17:58 04.12.2021
5169 Clear 17 1025 60 10000 0.89 226 17:36 04.12.2021
5170 Clear 17 1025 58 10000 1.79 224 16:48 04.12.2021
5171 Clear 17 1025 58 10000 1.79 241 16:29 04.12.2021
5172 Clear 16 1025 57 10000 0.45 229 14:39 04.12.2021
5173 Clear 11 1027 64 10000 0.89 11 11:46 04.12.2021
5174 Clear 10 1027 67 10000 1.34 8 11:25 04.12.2021
5175 Clear 8 1027 75 10000 0.51 320 10:42 04.12.2021
5176 Clear 5 1027 81 10000 1.34 350 08:45 04.12.2021
5177 Clear 6 1026 78 10000 0.45 61 06:24 04.12.2021
5178 Clear 6 1025 76 10000 1.34 17 04:41 04.12.2021
5179 Clear 9 1025 71 10000 0.45 348 23:49 03.12.2021
5180 Clear 9 1025 71 10000 0.45 348 23:49 03.12.2021
5181 Clear 9 1025 71 10000 0.45 348 23:49 03.12.2021
5182 Clear 9 1025 70 10000 1.79 6 22:57 03.12.2021
5183 Clear 9 1025 70 10000 1.34 18 22:38 03.12.2021
5184 Clear 10 1025 69 10000 0.89 78 21:25 03.12.2021
5185 Clear 10 1025 68 10000 1.03 90 20:46 03.12.2021
5186 Clear 12 1025 61 10000 0 0 19:40 03.12.2021
5187 Clear 13 1024 52 10000 1.03 260 18:34 03.12.2021
5188 Clear 15 1024 48 10000 0.89 207 17:59 03.12.2021
5189 Clear 15 1024 46 10000 0.45 245 14:47 03.12.2021
5190 Clear 13 1025 54 10000 0.45 48 12:54 03.12.2021
5191 Clear 11 1026 59 10000 1.34 98 11:39 03.12.2021
5192 Clear 9 1026 66 10000 1.34 84 10:51 03.12.2021
5193 Clear 6 1024 75 10000 1.79 54 08:25 03.12.2021
5194 Clear 6 1024 74 10000 1.34 61 07:42 03.12.2021
5195 Clear 7 1022 70 10000 1.54 120 04:26 03.12.2021
5196 Clear 10 1022 56 10000 1.79 13 00:48 03.12.2021
5197 Clear 11 1021 55 10000 1.79 14 23:47 02.12.2021
5198 Clear 12 1020 53 10000 1.34 324 21:57 02.12.2021
5199 Clear 12 1020 52 10000 1.34 15 21:30 02.12.2021
5200 Clear 13 1019 51 10000 1.34 346 20:40 02.12.2021
5201 Clear 13 1019 50 10000 1.34 342 19:57 02.12.2021
5202 Clear 14 1017 47 10000 0.89 338 18:34 02.12.2021
5203 Clear 16 1015 46 10000 4.02 40 15:52 02.12.2021
5204 Clear 16 1015 47 10000 4.47 42 15:28 02.12.2021
5205 Clouds 16 1015 48 10000 4.02 22 14:48 02.12.2021
5206 Clouds 14 1016 54 10000 4.02 25 12:53 02.12.2021
5207 Clouds 14 1016 57 10000 4.02 29 12:19 02.12.2021
5208 Clouds 12 1015 79 10000 1.34 297 10:41 02.12.2021
5209 Clouds 11 1015 83 10000 1.79 270 09:25 02.12.2021
5210 Rain 11 1015 76 10000 0.45 282 06:45 02.12.2021
5211 Clouds 13 1018 84 10000 2.68 272 00:55 02.12.2021
5212 Clouds 13 1019 83 10000 1.79 252 23:30 01.12.2021
5213 Clouds 13 1019 81 10000 2.68 240 22:25 01.12.2021
5214 Clouds 13 1020 79 10000 2.24 227 21:42 01.12.2021
5215 Clouds 13 1021 71 10000 2.24 273 19:59 01.12.2021
5216 Clear 13 1021 72 10000 1.79 233 19:37 01.12.2021
5217 Clear 16 1021 58 10000 2.68 245 17:50 01.12.2021
5218 Clear 16 1021 57 10000 1.79 237 16:59 01.12.2021
5219 Clear 15 1022 60 10000 1.79 205 15:37 01.12.2021
5220 Clear 14 1023 62 10000 0.89 258 14:30 01.12.2021
5221 Clear 13 1024 65 10000 1.79 205 13:36 01.12.2021
5222 Clear 8 1026 82 10000 0.89 25 10:44 01.12.2021
5223 Clear 8 1026 83 10000 0.89 34 10:20 01.12.2021
5224 Clear 5 1025 87 10000 0.89 64 08:51 01.12.2021
5225 Clear 6 1025 88 10000 1.34 41 07:56 01.12.2021
5226 Clear 6 1025 86 10000 1.34 28 07:19 01.12.2021
5227 Clear 7 1025 83 10000 0.89 41 03:53 01.12.2021
5228 Clear 7 1025 83 10000 0.89 34 03:19 01.12.2021
5229 Clear 9 1026 77 10000 1.34 359 00:20 01.12.2021
5230 Clear 9 1026 77 10000 1.34 14 00:20 01.12.2021
5231 Clear 9 1026 75 10000 1.34 16 23:28 30.11.2021
5232 Clear 10 1026 73 10000 1.34 37 22:31 30.11.2021
5233 Clear 12 1026 66 10000 1.03 300 20:47 30.11.2021
5234 Clear 12 1026 67 10000 0.45 336 20:24 30.11.2021
5235 Clear 12 1026 64 10000 0.45 336 19:39 30.11.2021
5236 Clear 14 1025 59 10000 0.89 331 18:53 30.11.2021
5237 Clear 15 1025 55 10000 0.89 309 17:45 30.11.2021
5238 Clouds 16 1025 52 10000 0.89 311 15:57 30.11.2021
5239 Clouds 15 1026 54 10000 1.34 175 14:34 30.11.2021
5240 Clouds 14 1026 56 10000 0.89 21 13:41 30.11.2021
5241 Clouds 14 1027 55 10000 0.45 171 12:54 30.11.2021
5242 Clouds 13 1028 60 10000 0.45 324 11:59 30.11.2021
5243 Clouds 13 1028 65 10000 0.45 355 11:25 30.11.2021
5244 Clouds 12 1027 72 10000 1.34 335 10:36 30.11.2021
5245 Clouds 10 1027 82 10000 1.03 270 08:57 30.11.2021
5246 Clouds 10 1026 82 10000 0 0 08:32 30.11.2021
5247 Clouds 10 1026 82 10000 0 0 07:56 30.11.2021
5248 Clouds 10 1026 75 10000 0 0 06:37 30.11.2021
5249 Clouds 12 1025 73 10000 0.89 359 01:49 30.11.2021
5250 Clouds 12 1025 74 10000 0.45 271 01:27 30.11.2021
5251 Clouds 12 1025 72 10000 1.34 336 23:36 29.11.2021
5252 Clouds 12 1024 72 10000 1.34 348 23:18 29.11.2021
5253 Clouds 12 1025 74 10000 1.34 351 22:38 29.11.2021
5254 Clouds 12 1024 73 10000 0.45 347 21:54 29.11.2021
5255 Clouds 12 1024 72 10000 1.34 333 21:20 29.11.2021
5256 Clouds 13 1024 71 10000 0.89 313 20:48 29.11.2021
5257 Clear 13 1023 69 10000 0.45 319 19:59 29.11.2021
5258 Clear 13 1023 68 10000 0.45 310 19:40 29.11.2021
5259 Clear 15 1023 64 10000 0.45 297 18:59 29.11.2021
5260 Clouds 14 1023 58 10000 2.62 296 18:41 29.11.2021
5261 Clouds 18 1022 44 10000 3.95 302 17:22 29.11.2021
5262 Clouds 18 1022 44 10000 3.95 302 16:45 29.11.2021
5263 Clouds 18 1022 41 10000 4.93 303 16:24 29.11.2021
5264 Clouds 18 1022 41 10000 4.89 300 14:46 29.11.2021
5265 Clouds 18 1023 43 10000 4.59 301 14:23 29.11.2021
5266 Clouds 17 1024 47 10000 4.31 307 12:59 29.11.2021
5267 Clouds 16 1025 53 10000 4.52 310 12:19 29.11.2021
5268 Clouds 16 1025 53 10000 4.52 310 11:30 29.11.2021
5269 Clouds 9 1025 97 10000 2.06 240 09:59 29.11.2021
5270 Clouds 10 1024 90 10000 2.06 240 07:47 29.11.2021
5271 Clouds 11 1023 87 10000 4.63 230 05:51 29.11.2021
5272 Clouds 9 1024 71 10000 3.6 220 01:30 29.11.2021
5273 Clear 9 1024 71 10000 4.12 220 23:59 28.11.2021
5274 Clear 9 1024 66 10000 4.12 210 23:40 28.11.2021
5275 Clear 10 1024 66 10000 5.14 280 22:20 28.11.2021
5276 Clear 10 1023 62 10000 3.6 260 21:39 28.11.2021
5277 Clear 9 1023 61 10000 2.57 260 20:44 28.11.2021
5278 Clear 10 1023 57 10000 3.09 300 19:53 28.11.2021
5279 Clear 13 1022 44 10000 4.63 310 18:40 28.11.2021
5280 Clear 13 1022 44 10000 4.63 310 18:22 28.11.2021
5281 Clear 14 1021 38 10000 4.12 310 17:45 28.11.2021
5282 Clear 14 1021 35 10000 5.66 310 16:48 28.11.2021
5283 Clear 14 1021 41 10000 3.09 210 16:28 28.11.2021
5284 Clear 14 1021 41 10000 3.09 210 16:28 28.11.2021
5285 Clear 14 1021 41 10000 3.6 220 15:50 28.11.2021
5286 Clear 13 1021 41 10000 3.6 230 14:56 28.11.2021
5287 Clear 12 1022 43 10000 3.09 270 14:29 28.11.2021
5288 Clear 11 1023 46 10000 0.51 300 12:54 28.11.2021
5289 Clear 9 1023 53 10000 1.54 210 11:51 28.11.2021
5290 Clear 7 1022 65 10000 1.54 170 10:37 28.11.2021
5291 Clear 7 1022 65 10000 1.54 170 10:18 28.11.2021
5292 Clear 5 1021 70 10000 1.03 260 09:36 28.11.2021
5293 Clear 6 1018 61 10000 5.14 330 05:23 28.11.2021
5294 Clear 9 1016 57 10000 2.57 330 22:58 27.11.2021
5295 Clear 11 1014 66 10000 3.6 330 20:28 27.11.2021
5296 Clouds 13 1012 67 10000 3.09 330 18:47 27.11.2021
5297 Clouds 15 1011 51 10000 5.66 300 16:31 27.11.2021
5298 Clouds 14 1011 62 10000 2.06 290 15:32 27.11.2021
5299 Clouds 13 1012 67 10000 3.09 260 13:41 27.11.2021
5300 Clear 10 1013 71 10000 2.57 210 12:29 27.11.2021
5301 Clear 7 1014 81 10000 2.06 200 10:31 27.11.2021
5302 Clear 5 1013 93 10000 1.03 180 09:41 27.11.2021
5303 Clear 4 1013 93 10000 0.51 240 07:44 27.11.2021
5304 Clear 4 1013 93 10000 0.51 0 04:56 27.11.2021
5305 Clear 7 1014 87 10000 1.54 340 00:55 27.11.2021
5306 Clear 9 1014 76 10000 2.06 290 23:29 26.11.2021
5307 Clear 8 1014 81 10000 0 0 22:25 26.11.2021
5308 Clear 8 1014 81 10000 0 0 22:25 26.11.2021
5309 Clear 10 1013 71 10000 0 0 21:35 26.11.2021
5310 Clear 11 1013 66 10000 1.54 350 20:46 26.11.2021
5311 Clear 11 1013 66 10000 2.06 340 20:18 26.11.2021
5312 Clear 12 1013 66 10000 2.06 350 19:47 26.11.2021
5313 Clear 15 1012 55 10000 2.06 290 17:57 26.11.2021
5314 Clear 15 1012 55 10000 2.06 290 17:22 26.11.2021
5315 Clear 15 1012 58 10000 2.06 280 15:57 26.11.2021
5316 Clouds 12 1012 72 10000 1.34 359 13:35 26.11.2021
5317 Clouds 12 1013 74 10000 1.34 16 12:34 26.11.2021
5318 Clear 10 1012 88 10000 0.45 352 10:38 26.11.2021
5319 Fog 8 1012 92 7000 0.89 356 08:59 26.11.2021
5320 Mist 8 1012 95 3000 0.45 1 08:21 26.11.2021
5321 Mist 8 1011 94 1500 1.34 352 07:29 26.11.2021
5322 Fog 8 1010 93 800 1.34 14 06:27 26.11.2021
5323 Mist 8 1010 92 1800 0.89 322 04:51 26.11.2021
5324 Mist 9 1010 92 2500 0.45 12 03:25 26.11.2021
5325 Clouds 10 1010 90 10000 0 0 23:27 25.11.2021
5326 Clouds 10 1010 89 10000 0.45 311 21:48 25.11.2021
5327 Clouds 11 1009 89 10000 2.24 122 20:37 25.11.2021
5328 Rain 11 1009 88 10000 1.79 22 18:48 25.11.2021
5329 Rain 13 1009 76 10000 0.89 300 17:48 25.11.2021
5330 Rain 14 1008 67 10000 1.34 159 17:26 25.11.2021
5331 Clouds 15 1008 61 10000 0.89 226 16:34 25.11.2021
5332 Clouds 14 1009 64 10000 0.45 83 15:49 25.11.2021
5333 Clouds 13 1010 68 10000 1.34 314 14:19 25.11.2021
5334 Clouds 10 1012 80 10000 1.79 272 12:28 25.11.2021
5335 Clouds 10 1012 82 10000 1.34 225 11:52 25.11.2021
5336 Clear 7 1012 89 9000 0.45 232 09:56 25.11.2021
5337 Clear 6 1012 89 10000 0.45 0 06:22 25.11.2021
5338 Clear 9 1012 82 9000 1.54 140 02:52 25.11.2021
5339 Clear 10 1014 82 10000 0.45 261 23:39 24.11.2021
5340 Clear 10 1014 81 10000 0.45 254 22:28 24.11.2021
5341 Clear 11 1014 79 10000 0.89 272 21:44 24.11.2021
5342 Clear 11 1013 78 10000 0.89 254 20:56 24.11.2021
5343 Clear 12 1013 75 10000 1.79 268 20:26 24.11.2021
5344 Clear 14 1013 64 10000 0.89 268 18:37 24.11.2021
5345 Clouds 14 1013 63 10000 2.24 274 18:18 24.11.2021
5346 Clouds 15 1014 62 10000 1.79 274 16:19 24.11.2021
5347 Clouds 14 1015 65 10000 1.34 216 14:54 24.11.2021
5348 Clear 13 1015 66 10000 1.34 206 14:20 24.11.2021
5349 Clear 12 1017 68 10000 0.45 180 12:50 24.11.2021
5350 Clear 9 1017 77 10000 0.89 214 11:22 24.11.2021
5351 Clear 8 1017 81 10000 0.89 207 10:50 24.11.2021
5352 Clear 7 1017 83 10000 0.89 167 10:27 24.11.2021
5353 Clear 4 1017 89 10000 0.45 312 07:56 24.11.2021
5354 Clear 5 1016 88 10000 0.89 358 06:59 24.11.2021
5355 Clear 6 1015 85 10000 0.89 227 03:59 24.11.2021
5356 Clear 7 1015 80 10000 0.51 0 01:30 24.11.2021
5357 Clear 9 1015 71 10000 1.34 348 22:59 23.11.2021
5358 Clear 9 1015 72 10000 2.24 330 22:34 23.11.2021
5359 Clear 9 1014 75 10000 2.68 338 21:45 23.11.2021
5360 Clear 10 1013 72 10000 2.68 346 20:21 23.11.2021
5361 Clouds 11 1012 72 10000 2.24 349 19:20 23.11.2021
5362 Clouds 12 1012 64 10000 4.47 322 18:29 23.11.2021
5363 Clouds 14 1011 59 10000 1.34 283 17:23 23.11.2021
5364 Clouds 14 1011 59 10000 1.34 283 17:23 23.11.2021
5365 Clouds 14 1011 55 10000 2.24 314 16:35 23.11.2021
5366 Clouds 14 1011 58 10000 3.13 298 15:25 23.11.2021
5367 Clouds 14 1011 61 10000 2.24 272 14:39 23.11.2021
5368 Clouds 12 1013 69 10000 0.45 232 12:50 23.11.2021
5369 Clear 8 1013 83 10000 0.45 213 10:26 23.11.2021
5370 Clear 7 1013 86 10000 0.89 230 09:43 23.11.2021
5371 Clear 6 1012 87 10000 0.45 226 07:42 23.11.2021
5372 Clear 8 1011 81 10000 0 0 04:38 23.11.2021
5373 Clear 9 1011 78 10000 0.45 315 03:27 23.11.2021
5374 Clear 12 1011 71 10000 1.34 290 23:26 22.11.2021
5375 Clear 12 1011 71 10000 0.89 310 22:56 22.11.2021
5376 Clear 12 1010 68 10000 1.79 304 22:30 22.11.2021
5377 Clouds 14 1010 63 10000 1.79 303 21:44 22.11.2021
5378 Clouds 15 1010 60 10000 2.24 287 20:56 22.11.2021
5379 Clouds 15 1010 62 10000 1.34 312 20:23 22.11.2021
5380 Clouds 15 1009 68 10000 2.24 259 19:20 22.11.2021
5381 Clouds 16 1009 70 10000 2.68 268 18:40 22.11.2021
5382 Clouds 16 1009 73 10000 2.24 248 17:46 22.11.2021
5383 Clouds 17 1009 67 10000 2.68 261 16:30 22.11.2021
5384 Clouds 16 1010 74 10000 3.13 277 14:41 22.11.2021
5385 Clouds 15 1011 81 10000 2.24 268 12:48 22.11.2021
5386 Clouds 14 1012 83 10000 1.79 273 11:27 22.11.2021
5387 Clouds 13 1012 88 10000 0.89 232 10:19 22.11.2021
5388 Clouds 12 1011 92 7000 0.45 226 08:42 22.11.2021
5389 Clear 13 1011 91 6000 1.34 219 07:33 22.11.2021
5390 Clear 14 1013 88 10000 0.89 284 00:50 22.11.2021
5391 Clouds 15 1013 86 10000 0.89 275 23:19 21.11.2021
5392 Clouds 15 1013 85 10000 0.45 305 22:42 21.11.2021
5393 Clouds 16 1013 81 10000 0.89 226 20:44 21.11.2021
5394 Clouds 17 1013 81 10000 0.45 246 20:26 21.11.2021
5395 Clouds 17 1013 76 10000 1.03 100 18:53 21.11.2021
5396 Clouds 18 1013 72 10000 1.03 0 17:52 21.11.2021
5397 Clouds 18 1013 71 10000 0.89 347 17:29 21.11.2021
5398 Clouds 18 1014 72 10000 0.45 267 14:49 21.11.2021
5399 Clouds 18 1014 74 10000 0.89 346 14:18 21.11.2021
5400 Clouds 17 1015 79 10000 0.45 93 12:58 21.11.2021
5401 Clouds 16 1016 83 10000 0.45 78 12:20 21.11.2021
5402 Clouds 15 1016 90 10000 0.45 78 11:37 21.11.2021
5403 Clouds 13 1016 95 8000 0.45 289 10:19 21.11.2021
5404 Clouds 13 1016 95 6000 0.45 344 09:45 21.11.2021
5405 Mist 12 1015 94 5000 0.45 314 08:32 21.11.2021
5406 Clouds 12 1015 94 7000 0.45 78 07:52 21.11.2021
5407 Mist 12 1015 94 5000 0.45 82 06:28 21.11.2021
5408 Mist 12 1015 95 4300 0.45 82 05:41 21.11.2021
5409 Mist 13 1016 94 4700 0.45 342 03:22 21.11.2021
5410 Mist 13 1016 93 5000 1.54 70 02:55 21.11.2021
5411 Rain 14 1017 94 7000 1.34 76 01:28 21.11.2021
5412 Clouds 14 1017 94 8000 0.89 78 00:43 21.11.2021
5413 Clouds 14 1017 93 10000 0.45 78 22:35 20.11.2021
5414 Clouds 14 1017 92 10000 0.89 78 21:32 20.11.2021
5415 Rain 14 1017 92 7000 1.34 93 19:58 20.11.2021
5416 Clouds 14 1017 91 7000 0.89 76 18:45 20.11.2021
5417 Clouds 14 1017 91 7000 0.89 101 18:23 20.11.2021
5418 Rain 17 1018 82 10000 2.57 40 17:22 20.11.2021
5419 Clear 17 1017 80 10000 1.34 57 15:23 20.11.2021
5420 Clouds 17 1017 82 10000 1.34 58 14:39 20.11.2021
5421 Clouds 16 1018 83 10000 0.45 21 14:20 20.11.2021
5422 Rain 15 1019 82 10000 0.45 32 11:56 20.11.2021
5423 Clouds 15 1018 79 10000 1.34 6 09:59 20.11.2021
5424 Clear 14 1017 80 10000 1.34 356 08:48 20.11.2021
5425 Clear 14 1017 78 10000 1.34 32 06:57 20.11.2021
5426 Clouds 14 1017 76 10000 0.89 38 05:21 20.11.2021
5427 Clouds 15 1017 73 10000 0.89 49 04:50 20.11.2021
5428 Clear 16 1017 60 10000 1.79 343 00:45 20.11.2021
5429 Clear 16 1017 62 10000 1.34 66 00:27 20.11.2021
5430 Clear 17 1017 58 10000 1.34 98 22:55 19.11.2021
5431 Clear 18 1016 55 10000 3.13 112 21:44 19.11.2021
5432 Clear 18 1016 54 10000 2.68 117 20:54 19.11.2021
5433 Clear 19 1016 52 10000 2.24 125 20:36 19.11.2021
5434 Clear 19 1016 50 10000 3.13 117 19:49 19.11.2021
5435 Clear 20 1016 48 10000 4.02 127 18:50 19.11.2021
5436 Clear 21 1016 48 10000 3.58 127 18:19 19.11.2021
5437 Clear 22 1016 45 10000 3.58 102 16:47 19.11.2021
5438 Clear 22 1016 42 10000 5.81 121 15:31 19.11.2021
5439 Clear 20 1018 50 10000 3.58 90 12:53 19.11.2021
5440 Clear 15 1018 60 10000 3.58 82 10:27 19.11.2021
5441 Clear 13 1018 66 10000 2.68 72 08:47 19.11.2021
5442 Clear 13 1017 67 10000 3.13 67 07:34 19.11.2021
5443 Clear 13 1018 75 10000 2.24 62 04:28 19.11.2021
5444 Clear 14 1019 74 10000 1.79 70 01:32 19.11.2021
5445 Clear 15 1019 72 10000 1.79 88 23:51 18.11.2021
5446 Clear 17 1019 64 10000 1.79 101 21:50 18.11.2021
5447 Clear 17 1018 61 10000 2.68 100 20:48 18.11.2021
5448 Clear 18 1018 58 10000 2.68 112 20:30 18.11.2021
5449 Clear 18 1018 57 10000 2.68 133 19:44 18.11.2021
5450 Clear 18 1018 56 10000 3.58 109 18:55 18.11.2021
5451 Clear 19 1017 54 10000 3.13 92 18:27 18.11.2021
5452 Clear 20 1017 52 10000 3.58 92 17:49 18.11.2021
5453 Clear 20 1017 50 10000 4.02 76 16:44 18.11.2021
5454 Clear 20 1018 48 10000 4.47 90 15:32 18.11.2021
5455 Clear 19 1019 48 10000 3.58 81 13:31 18.11.2021
5456 Clear 18 1019 50 10000 4.02 74 12:33 18.11.2021
5457 Clear 17 1020 54 10000 3.58 54 11:42 18.11.2021
5458 Clear 16 1020 54 10000 2.68 86 11:24 18.11.2021
5459 Clear 12 1020 68 10000 3.13 82 09:37 18.11.2021
5460 Clear 9 1019 73 10000 2.24 58 07:35 18.11.2021
5461 Clear 10 1018 73 10000 2.24 45 05:55 18.11.2021
5462 Clear 10 1018 71 10000 1.79 47 05:36 18.11.2021
5463 Clear 12 1019 67 10000 1.34 63 01:24 18.11.2021
5464 Clear 14 1019 60 10000 0.89 62 22:49 17.11.2021
5465 Clear 14 1019 58 10000 1.34 66 22:21 17.11.2021
5466 Clear 14 1018 56 10000 0.89 9 21:39 17.11.2021
5467 Clear 15 1018 53 10000 1.34 342 20:58 17.11.2021
5468 Clouds 17 1017 45 10000 0.89 72 18:47 17.11.2021
5469 Clouds 19 1016 41 10000 3.13 84 17:28 17.11.2021
5470 Clear 20 1016 45 10000 3.13 82 14:52 17.11.2021
5471 Clear 17 1018 52 10000 3.13 73 12:42 17.11.2021
5472 Clear 15 1018 54 10000 3.13 55 11:49 17.11.2021
5473 Clear 14 1018 59 10000 2.24 88 10:49 17.11.2021
5474 Clear 10 1017 69 10000 2.24 43 09:26 17.11.2021
5475 Clear 9 1016 72 10000 1.79 68 07:45 17.11.2021
5476 Clear 10 1016 68 10000 1.34 69 04:47 17.11.2021
5477 Clear 11 1016 64 10000 1.34 59 02:42 17.11.2021
5478 Clear 13 1016 56 10000 1.34 54 23:27 16.11.2021
5479 Clear 14 1016 52 10000 0.89 353 21:48 16.11.2021
5480 Clear 15 1015 47 10000 0.89 41 20:19 16.11.2021
5481 Clear 17 1016 42 10000 2.57 70 18:56 16.11.2021
5482 Clear 18 1015 39 10000 2.57 60 18:36 16.11.2021
5483 Clear 18 1015 39 10000 2.57 60 18:36 16.11.2021
5484 Clear 20 1014 34 10000 3.13 86 17:44 16.11.2021
5485 Clear 20 1014 35 10000 2.24 98 16:58 16.11.2021
5486 Clear 20 1015 38 10000 2.68 53 16:19 16.11.2021
5487 Clear 20 1015 37 10000 3.13 77 15:41 16.11.2021
5488 Clear 17 1017 48 10000 3.13 86 12:43 16.11.2021
5489 Clear 12 1017 65 10000 3.13 76 10:21 16.11.2021
5490 Clear 10 1018 71 10000 2.24 25 09:38 16.11.2021
5491 Clear 9 1016 75 10000 2.24 51 07:34 16.11.2021
5492 Clear 9 1016 72 10000 2.24 61 06:43 16.11.2021
5493 Clear 13 1017 65 10000 0.89 340 23:26 15.11.2021
5494 Clear 14 1018 63 10000 0.89 332 22:40 15.11.2021
5495 Clear 14 1017 61 10000 0.45 109 21:57 15.11.2021
5496 Clear 15 1017 58 10000 0.45 109 21:31 15.11.2021
5497 Clear 15 1017 57 10000 1.54 120 20:35 15.11.2021
5498 Clear 18 1017 52 10000 0 0 19:18 15.11.2021
5499 Clear 21 1016 40 10000 0.45 237 17:31 15.11.2021
5500 Clear 21 1016 40 10000 1.34 91 15:51 15.11.2021
5501 Clear 21 1016 40 10000 1.79 135 15:32 15.11.2021
5502 Clear 20 1017 41 10000 2.68 101 14:27 15.11.2021
5503 Clear 18 1018 48 10000 2.68 74 12:37 15.11.2021
5504 Clear 13 1018 73 10000 2.24 51 09:59 15.11.2021
5505 Clear 11 1018 76 10000 0.89 50 09:19 15.11.2021
5506 Clear 10 1016 76 10000 0.45 18 06:54 15.11.2021
5507 Clear 14 1016 62 10000 0.45 5 00:56 15.11.2021
5508 Clear 16 1016 58 10000 0.89 5 22:44 14.11.2021
5509 Clear 17 1016 60 10000 1.34 8 21:45 14.11.2021
5510 Clear 20 1015 52 10000 1.03 210 19:22 14.11.2021
5511 Clear 20 1015 51 10000 1.03 210 18:54 14.11.2021
5512 Clear 22 1016 43 10000 0.51 0 18:36 14.11.2021
5513 Clear 23 1015 43 10000 0.89 240 18:18 14.11.2021
5514 Clear 23 1015 40 10000 0.45 245 17:58 14.11.2021
5515 Clear 24 1014 39 10000 0.45 285 17:40 14.11.2021
5516 Clear 24 1014 39 10000 0.45 285 17:21 14.11.2021
5517 Clear 24 1014 39 10000 0.89 315 16:58 14.11.2021
5518 Clear 24 1014 39 10000 0.45 315 16:40 14.11.2021
5519 Clear 24 1014 40 10000 0.45 334 16:18 14.11.2021
5520 Clear 23 1015 41 10000 0.89 31 15:19 14.11.2021
5521 Clear 23 1015 43 10000 1.34 70 14:45 14.11.2021
5522 Clear 22 1016 44 10000 0.89 14 14:20 14.11.2021
5523 Clear 22 1016 46 10000 1.34 44 13:51 14.11.2021
5524 Clear 21 1016 48 10000 0.89 83 13:27 14.11.2021
5525 Clear 19 1017 56 10000 1.79 20 12:22 14.11.2021
5526 Clear 16 1017 64 10000 2.24 44 11:25 14.11.2021
5527 Clear 13 1019 71 10000 2.57 40 10:37 14.11.2021
5528 Clear 12 1017 76 10000 2.68 53 09:27 14.11.2021
5529 Clear 11 1017 77 10000 1.34 14 08:51 14.11.2021
5530 Clear 12 1016 75 10000 1.34 18 04:47 14.11.2021
5531 Clear 16 1017 62 10000 0.45 62 23:20 13.11.2021
5532 Clear 16 1017 59 10000 0.89 47 22:20 13.11.2021
5533 Clear 17 1016 57 10000 0.89 7 21:35 13.11.2021
5534 Clear 18 1016 55 10000 0.45 349 20:43 13.11.2021
5535 Clear 19 1016 51 10000 0.45 83 19:32 13.11.2021
5536 Clear 21 1015 44 10000 2.57 80 18:32 13.11.2021
5537 Clear 23 1015 38 10000 1.79 82 17:41 13.11.2021
5538 Clear 24 1015 37 10000 2.24 78 15:55 13.11.2021
5539 Clear 23 1015 38 10000 2.24 21 14:45 13.11.2021
5540 Clear 21 1016 44 10000 2.24 83 13:56 13.11.2021
5541 Clear 20 1017 49 10000 2.68 64 12:43 13.11.2021
5542 Clear 18 1017 54 10000 0.89 60 11:51 13.11.2021
5543 Clear 16 1017 60 10000 3.13 58 11:24 13.11.2021
5544 Clear 14 1019 62 10000 4.12 40 10:39 13.11.2021
5545 Clear 11 1018 76 10000 2.57 40 09:49 13.11.2021
5546 Clear 11 1017 73 10000 2.24 44 09:31 13.11.2021
5547 Clear 10 1017 76 10000 1.79 26 08:49 13.11.2021
5548 Clear 10 1017 76 10000 1.34 9 07:54 13.11.2021
5549 Clear 11 1016 72 10000 1.34 65 04:43 13.11.2021
5550 Clear 11 1016 73 10000 1.79 14 04:23 13.11.2021
5551 Clear 13 1016 68 10000 1.34 10 00:19 13.11.2021
5552 Clear 14 1016 62 10000 1.34 32 22:42 12.11.2021
5553 Clear 16 1015 58 10000 0.89 8 20:55 12.11.2021
5554 Clear 17 1015 56 10000 0.45 65 19:43 12.11.2021
5555 Clear 18 1015 52 10000 0.45 65 19:23 12.11.2021
5556 Clear 20 1014 47 10000 0.89 78 18:20 12.11.2021
5557 Clear 20 1014 44 10000 0.89 24 16:19 12.11.2021
5558 Clear 19 1015 48 10000 2.68 46 14:53 12.11.2021
5559 Clear 14 1016 68 10000 1.34 88 11:31 12.11.2021
5560 Clear 13 1017 71 10000 1.79 76 10:49 12.11.2021
5561 Clear 10 1017 80 10000 1.79 49 09:29 12.11.2021
5562 Clear 9 1017 83 10000 1.34 60 08:38 12.11.2021
5563 Clear 11 1017 81 10000 1.34 357 02:25 12.11.2021
5564 Clear 13 1017 76 10000 0.89 48 23:33 11.11.2021
5565 Clear 14 1017 74 10000 0.45 2 22:30 11.11.2021
5566 Clear 15 1017 72 10000 0.45 153 21:27 11.11.2021
5567 Clear 16 1017 67 10000 0.89 221 20:38 11.11.2021
5568 Clear 18 1017 58 10000 0 0 18:56 11.11.2021
5569 Clear 20 1017 52 10000 0.45 156 17:43 11.11.2021
5570 Clear 20 1016 52 10000 0.45 124 16:43 11.11.2021
5571 Clear 19 1017 59 10000 0.89 280 14:46 11.11.2021
5572 Clear 18 1017 61 10000 0.45 285 14:28 11.11.2021
5573 Clear 17 1018 63 10000 0.89 39 13:37 11.11.2021
5574 Clear 16 1018 65 10000 0.89 55 12:48 11.11.2021
5575 Clear 10 1019 79 10000 1.54 330 10:36 11.11.2021
5576 Clear 10 1019 81 10000 1.79 30 09:34 11.11.2021
5577 Clear 9 1018 84 10000 1.79 43 07:38 11.11.2021
5578 Clear 10 1017 85 9000 0.45 21 03:58 11.11.2021
5579 Clear 14 1018 81 10000 0.45 96 23:35 10.11.2021
5580 Clear 15 1018 77 10000 0.45 316 22:22 10.11.2021
5581 Clear 16 1017 70 10000 0.89 214 21:21 10.11.2021
5582 Clear 16 1017 68 10000 0.89 241 20:46 10.11.2021
5583 Clear 17 1017 62 10000 0.45 180 19:47 10.11.2021
5584 Clear 17 1017 62 10000 0.45 180 19:47 10.11.2021
5585 Clear 17 1017 62 10000 0.45 180 19:47 10.11.2021
5586 Clear 18 1017 59 10000 0.45 180 19:24 10.11.2021
5587 Clear 21 1016 48 10000 0.89 81 16:34 10.11.2021
5588 Clear 21 1016 49 10000 0.45 160 15:28 10.11.2021
5589 Clear 18 1018 57 10000 0.45 335 13:43 10.11.2021
5590 Clear 17 1018 57 10000 0.45 50 12:59 10.11.2021
5591 Clear 13 1020 67 10000 2.57 20 10:56 10.11.2021
5592 Clear 9 1018 77 10000 1.79 40 08:47 10.11.2021
5593 Clear 9 1017 77 10000 1.34 12 07:48 10.11.2021
5594 Clear 9 1016 77 10000 1.34 13 06:40 10.11.2021
5595 Clear 9 1016 77 10000 0.45 20 05:51 10.11.2021
5596 Clear 12 1016 72 10000 1.54 100 00:27 10.11.2021
5597 Clear 15 1015 61 10000 0.89 171 21:51 09.11.2021
5598 Clear 17 1014 54 10000 1.34 184 20:32 09.11.2021
5599 Clear 19 1014 47 10000 0.89 144 19:26 09.11.2021
5600 Clear 21 1013 39 10000 1.34 179 17:57 09.11.2021
5601 Clear 22 1013 36 10000 0.45 199 16:26 09.11.2021
5602 Clear 21 1014 37 10000 0.45 75 14:52 09.11.2021
5603 Clear 18 1017 52 10000 3.09 20 12:53 09.11.2021
5604 Clear 15 1018 63 10000 2.06 10 11:59 09.11.2021
5605 Clear 13 1018 71 10000 3.09 50 10:46 09.11.2021
5606 Clear 10 1017 81 10000 0.89 5 09:40 09.11.2021
5607 Clear 8 1016 84 10000 0.89 352 08:37 09.11.2021
5608 Clear 10 1016 79 10000 0.89 354 05:58 09.11.2021
5609 Clear 11 1016 82 10000 0.51 0 02:28 09.11.2021
5610 Clear 11 1016 80 10000 0 0 01:48 09.11.2021
5611 Clear 12 1017 75 10000 2.06 170 00:18 09.11.2021
5612 Clear 13 1017 71 10000 0.45 150 23:20 08.11.2021
5613 Clear 13 1017 68 10000 1.34 191 22:32 08.11.2021
5614 Clear 15 1017 60 10000 0.45 146 21:20 08.11.2021
5615 Clear 17 1017 53 10000 0.45 193 19:56 08.11.2021
5616 Clear 18 1017 48 10000 0.89 201 18:57 08.11.2021
5617 Clear 21 1016 40 10000 0.45 283 17:23 08.11.2021
5618 Clear 20 1017 41 10000 0.89 83 15:31 08.11.2021
5619 Clear 20 1017 42 10000 0.89 93 14:53 08.11.2021
5620 Clear 19 1018 44 10000 0.45 127 13:56 08.11.2021
5621 Clear 16 1019 47 10000 0.89 79 12:44 08.11.2021
5622 Clear 14 1020 53 10000 0.45 95 11:28 08.11.2021
5623 Clear 12 1019 58 10000 0.45 13 10:18 08.11.2021
5624 Clear 9 1019 67 10000 0.89 338 08:56 08.11.2021
5625 Clear 8 1019 69 10000 0.45 323 07:38 08.11.2021
5626 Clear 8 1019 67 10000 0.89 10 06:50 08.11.2021
5627 Clear 10 1019 57 10000 0.89 328 03:34 08.11.2021
5628 Clear 12 1020 50 10000 0.89 18 23:51 07.11.2021
5629 Clear 13 1020 49 10000 0.89 29 22:30 07.11.2021
5630 Clear 13 1020 51 10000 0.89 15 21:22 07.11.2021
5631 Clear 14 1021 45 10000 0.45 318 19:55 07.11.2021
5632 Clear 17 1020 34 10000 1.54 90 18:28 07.11.2021
5633 Clear 18 1021 29 10000 0.45 90 17:38 07.11.2021
5634 Clear 19 1020 29 10000 1.79 100 16:20 07.11.2021
5635 Clear 17 1020 31 10000 2.24 79 14:47 07.11.2021
5636 Clear 17 1021 32 10000 3.13 95 14:24 07.11.2021
5637 Clear 14 1023 45 10000 2.68 78 11:58 07.11.2021
5638 Clear 13 1023 50 10000 2.68 70 11:18 07.11.2021
5639 Clear 8 1023 68 10000 1.34 53 08:59 07.11.2021
5640 Clear 11 1023 58 10000 0.89 66 02:53 07.11.2021
5641 Clear 12 1024 56 10000 0.89 25 00:25 07.11.2021
5642 Clear 12 1024 54 10000 0.89 328 22:55 06.11.2021
5643 Clear 13 1024 51 10000 0.89 20 21:49 06.11.2021
5644 Clear 14 1024 49 10000 0.89 334 20:54 06.11.2021
5645 Clear 15 1024 46 10000 1.34 352 19:42 06.11.2021
5646 Clear 18 1023 34 10000 1.79 52 17:31 06.11.2021
5647 Clear 18 1022 34 10000 2.24 59 16:32 06.11.2021
5648 Clear 16 1024 42 10000 3.13 83 13:39 06.11.2021
5649 Clear 15 1024 44 10000 3.13 89 12:55 06.11.2021
5650 Clear 12 1024 52 10000 3.58 47 10:35 06.11.2021
5651 Clear 10 1023 62 10000 2.68 55 08:36 06.11.2021
5652 Clear 11 1021 60 10000 1.34 70 04:50 06.11.2021
5653 Clear 12 1022 61 10000 1.34 347 23:49 05.11.2021
5654 Clear 12 1022 59 10000 0.45 355 23:28 05.11.2021
5655 Clear 13 1022 55 10000 1.34 5 22:33 05.11.2021
5656 Clear 15 1021 45 10000 1.79 343 20:26 05.11.2021
5657 Clear 15 1021 43 10000 2.24 347 19:51 05.11.2021
5658 Clear 17 1021 37 10000 0.45 346 18:43 05.11.2021
5659 Clear 18 1020 34 10000 3.58 36 17:52 05.11.2021
5660 Clear 19 1020 34 10000 3.13 40 16:37 05.11.2021
5661 Clear 18 1021 40 10000 1.34 78 14:21 05.11.2021
5662 Clear 16 1022 50 10000 3.13 58 12:27 05.11.2021
5663 Clear 10 1021 72 10000 0.89 54 09:29 05.11.2021
5664 Clear 9 1021 76 10000 1.34 11 08:28 05.11.2021
5665 Clear 10 1019 72 10000 0.89 353 05:40 05.11.2021
5666 Clear 11 1018 70 10000 1.34 358 02:38 05.11.2021
5667 Clear 11 1018 70 10000 0.89 359 02:19 05.11.2021
5668 Clear 12 1018 68 10000 0.89 14 23:57 04.11.2021
5669 Clear 13 1018 61 10000 0.89 22 22:21 04.11.2021
5670 Clear 14 1018 61 10000 0.89 3 21:56 04.11.2021
5671 Clear 14 1017 60 10000 1.34 22 21:27 04.11.2021
5672 Clear 14 1018 57 10000 1.79 18 20:29 04.11.2021
5673 Clear 15 1017 54 10000 2.68 38 19:49 04.11.2021
5674 Clear 16 1017 53 10000 2.68 40 19:27 04.11.2021
5675 Clear 17 1015 46 10000 1.79 34 18:26 04.11.2021
5676 Clear 18 1015 42 10000 2.24 19 17:26 04.11.2021
5677 Clear 18 1015 44 10000 1.79 318 15:46 04.11.2021
5678 Clear 17 1015 47 10000 0.89 24 13:45 04.11.2021
5679 Clear 12 1016 71 10000 1.34 332 10:35 04.11.2021
5680 Clear 10 1014 80 10000 0.89 329 08:41 04.11.2021
5681 Clear 9 1014 82 10000 0.89 342 07:49 04.11.2021
5682 Clear 9 1014 80 10000 1.34 348 07:31 04.11.2021
5683 Clear 14 1014 65 10000 1.54 360 23:18 03.11.2021
5684 Clear 14 1013 62 10000 0.45 314 22:26 03.11.2021
5685 Clear 15 1013 60 10000 0.89 328 21:37 03.11.2021
5686 Clear 15 1013 57 10000 0.89 325 20:44 03.11.2021
5687 Clear 15 1013 56 10000 0.89 328 20:25 03.11.2021
5688 Clear 16 1012 52 10000 1.34 334 19:33 03.11.2021
5689 Clear 18 1011 46 10000 1.34 330 18:27 03.11.2021
5690 Clear 18 1011 46 10000 1.34 330 18:27 03.11.2021
5691 Clear 18 1011 46 10000 1.34 330 18:27 03.11.2021
5692 Clouds 18 1011 46 10000 2.24 310 17:48 03.11.2021
5693 Clouds 19 1011 45 10000 2.24 313 16:49 03.11.2021
5694 Clear 18 1011 47 10000 2.68 289 15:49 03.11.2021
5695 Clear 18 1011 48 10000 1.79 318 15:30 03.11.2021
5696 Clouds 18 1012 50 10000 2.68 303 13:42 03.11.2021
5697 Clouds 16 1013 61 10000 1.79 319 11:37 03.11.2021
5698 Clouds 16 1013 63 10000 0.89 310 10:50 03.11.2021
5699 Clear 15 1013 68 10000 0.89 318 09:47 03.11.2021
5700 Clouds 14 1012 74 10000 1.34 340 08:53 03.11.2021
5701 Clear 14 1011 78 10000 2.68 333 07:59 03.11.2021
5702 Clear 14 1011 82 10000 0.45 321 07:34 03.11.2021
5703 Clear 16 1010 86 10000 0.89 276 04:23 03.11.2021
5704 Clear 16 1012 83 10000 1.79 260 00:58 03.11.2021
5705 Clear 17 1012 79 10000 0.45 284 23:30 02.11.2021
5706 Clouds 18 1012 81 10000 0.45 281 22:20 02.11.2021
5707 Clear 18 1012 72 10000 0.89 246 20:45 02.11.2021
5708 Clear 19 1012 70 10000 1.79 238 20:21 02.11.2021
5709 Clouds 19 1012 66 10000 0.89 274 19:31 02.11.2021
5710 Clouds 19 1012 67 10000 0.45 253 19:31 02.11.2021
5711 Clouds 19 1013 63 10000 0.89 270 18:36 02.11.2021
5712 Clouds 19 1013 63 10000 0.89 270 18:36 02.11.2021
5713 Clear 20 1013 61 10000 1.34 253 17:48 02.11.2021
5714 Clear 20 1013 59 10000 1.34 271 17:25 02.11.2021
5715 Clouds 20 1013 57 10000 1.34 283 16:26 02.11.2021
5716 Clouds 20 1014 56 10000 0.89 282 14:57 02.11.2021
5717 Clouds 19 1015 54 10000 0.45 271 13:32 02.11.2021
5718 Clouds 19 1015 56 10000 0.89 2 12:59 02.11.2021
5719 Clouds 18 1016 59 10000 1.34 339 12:20 02.11.2021
5720 Clouds 18 1017 62 10000 1.34 52 11:27 02.11.2021
5721 Clouds 17 1017 68 10000 1.34 348 10:45 02.11.2021
5722 Clouds 17 1017 68 10000 1.79 25 10:22 02.11.2021
5723 Clouds 16 1016 77 10000 1.79 340 08:25 02.11.2021
5724 Clouds 17 1016 78 10000 1.79 8 06:32 02.11.2021
5725 Clouds 18 1015 76 10000 1.34 352 03:32 02.11.2021
5726 Clouds 20 1016 80 10000 0.89 331 00:55 02.11.2021
5727 Clouds 21 1016 83 10000 0.89 247 22:25 01.11.2021
5728 Clear 22 1016 79 10000 0.89 288 20:50 01.11.2021
5729 Clear 22 1015 79 10000 0.89 278 20:32 01.11.2021
5730 Clear 22 1015 77 10000 1.79 279 19:44 01.11.2021
5731 Clear 22 1015 75 10000 1.34 280 18:55 01.11.2021
5732 Clouds 24 1014 74 10000 1.79 301 17:59 01.11.2021
5733 Clouds 23 1014 80 10000 2.24 270 17:18 01.11.2021
5734 Clouds 23 1014 80 10000 2.68 271 16:34 01.11.2021
5735 Clouds 22 1014 86 10000 0.89 280 15:44 01.11.2021
5736 Clouds 22 1014 87 4000 2.68 305 15:19 01.11.2021
5737 Clouds 24 1014 79 10000 3.58 270 14:40 01.11.2021
5738 Clouds 24 1014 83 9000 2.68 279 14:19 01.11.2021
5739 Clouds 24 1015 81 10000 4.47 252 12:53 01.11.2021
5740 Clouds 23 1016 85 10000 4.02 264 11:40 01.11.2021
5741 Clouds 22 1016 87 10000 4.02 260 10:22 01.11.2021
5742 Clouds 21 1015 91 10000 3.13 245 08:26 01.11.2021
5743 Clouds 21 1015 91 10000 3.13 252 07:47 01.11.2021
5744 Clouds 21 1015 93 10000 3.13 247 03:58 01.11.2021
5745 Clouds 20 1015 93 10000 2.68 245 03:39 01.11.2021
5746 Drizzle 21 1016 94 3000 2.68 240 23:58 31.10.2021
5747 Clouds 21 1017 89 10000 1.34 223 21:26 31.10.2021
5748 Clouds 21 1016 89 10000 1.79 240 20:24 31.10.2021
5749 Clouds 21 1016 91 10000 2.68 237 18:43 31.10.2021
5750 Clouds 21 1016 91 10000 2.24 223 18:21 31.10.2021
5751 Clouds 22 1016 86 10000 2.68 254 16:48 31.10.2021
5752 Clouds 23 1015 84 10000 3.13 255 16:48 31.10.2021
5753 Clouds 24 1016 79 10000 4.02 255 15:18 31.10.2021
5754 Clouds 23 1017 86 10000 3.13 250 12:58 31.10.2021
5755 Clouds 23 1017 86 10000 3.58 246 12:58 31.10.2021
5756 Clouds 22 1017 86 10000 3.58 271 12:25 31.10.2021
5757 Clouds 22 1018 89 10000 3.13 240 10:51 31.10.2021
5758 Rain 21 1017 92 10000 1.79 230 09:26 31.10.2021
5759 Rain 21 1017 92 10000 2.24 231 08:47 31.10.2021
5760 Clouds 21 1015 93 10000 4.02 234 04:54 31.10.2021
5761 Drizzle 20 1015 93 8000 3.58 242 00:36 31.10.2021
5762 Drizzle 21 1014 92 4500 4.47 243 22:27 30.10.2021
5763 Clouds 21 1014 91 4500 4.47 242 21:29 30.10.2021
5764 Clouds 21 1014 92 10000 8.49 226 19:57 30.10.2021
5765 Clouds 21 1012 90 5000 5.36 224 17:51 30.10.2021
5766 Clouds 22 1012 84 10000 5.81 247 15:49 30.10.2021
5767 Clouds 22 1012 90 10000 4.92 244 14:23 30.10.2021
5768 Clouds 21 1012 90 4200 5.36 243 13:38 30.10.2021
5769 Clouds 21 1012 90 5000 5.36 240 13:20 30.10.2021
5770 Rain 20 1012 92 4200 5.36 239 11:50 30.10.2021
5771 Rain 21 1012 92 4500 4.92 239 10:58 30.10.2021
5772 Clouds 21 1011 91 5000 5.81 241 09:40 30.10.2021
5773 Clouds 20 1010 91 10000 4.92 239 07:57 30.10.2021
5774 Clouds 20 1010 91 10000 4.92 239 07:57 30.10.2021
5775 Clouds 20 1010 91 10000 4.92 242 05:48 30.10.2021
5776 Clouds 20 1011 92 10000 4.47 236 03:28 30.10.2021
5777 Clouds 20 1012 90 10000 3.58 229 23:22 29.10.2021
5778 Clouds 19 1012 90 9000 3.13 237 22:35 29.10.2021
5779 Clouds 19 1012 92 6000 3.13 243 21:19 29.10.2021
5780 Clouds 18 1012 91 4500 3.13 226 20:33 29.10.2021
5781 Clouds 19 1012 87 9000 2.24 227 19:33 29.10.2021
5782 Rain 19 1012 84 10000 4.02 250 18:18 29.10.2021
5783 Clouds 21 1013 74 10000 4.47 240 16:20 29.10.2021
5784 Clouds 21 1015 70 10000 3.13 214 13:23 29.10.2021
5785 Clouds 17 1015 79 10000 2.24 226 10:50 29.10.2021
5786 Clouds 17 1015 79 10000 1.79 227 10:31 29.10.2021
5787 Clouds 17 1014 80 10000 1.34 268 05:43 29.10.2021
5788 Clear 19 1015 73 10000 1.79 254 00:35 29.10.2021
5789 Clear 20 1014 65 10000 2.24 266 22:40 28.10.2021
5790 Clouds 21 1014 56 9000 1.79 227 21:20 28.10.2021
5791 Clear 23 1013 47 10000 0.45 215 20:19 28.10.2021
5792 Clear 25 1013 41 10000 1.34 215 18:57 28.10.2021
5793 Clear 26 1013 39 10000 0.89 249 17:57 28.10.2021
5794 Clear 26 1014 39 10000 1.34 298 16:54 28.10.2021
5795 Clear 25 1015 42 10000 1.34 272 15:20 28.10.2021
5796 Clear 22 1017 55 10000 0.89 289 13:35 28.10.2021
5797 Clear 21 1017 59 10000 0.45 66 12:53 28.10.2021
5798 Clear 20 1017 62 10000 0.89 20 12:34 28.10.2021
5799 Clear 16 1017 69 10000 1.34 69 10:51 28.10.2021
5800 Clear 14 1017 73 10000 1.34 45 09:38 28.10.2021
5801 Clear 14 1016 73 10000 1.79 28 08:37 28.10.2021
5802 Clear 14 1016 71 10000 1.34 17 07:49 28.10.2021
5803 Clouds 16 1017 67 10000 1.34 58 04:36 28.10.2021
5804 Clouds 20 1017 59 10000 1.34 226 23:26 27.10.2021
5805 Clear 21 1017 53 10000 1.34 187 22:30 27.10.2021
5806 Clear 22 1017 46 10000 0.45 93 21:32 27.10.2021
5807 Clear 23 1017 43 10000 0.45 87 20:49 27.10.2021
5808 Clear 24 1016 39 10000 0.45 46 19:52 27.10.2021
5809 Clear 26 1016 37 10000 2.24 74 18:58 27.10.2021
5810 Clear 26 1016 37 10000 2.68 68 18:38 27.10.2021
5811 Clear 26 1016 39 10000 1.79 100 16:26 27.10.2021
5812 Clear 25 1017 40 10000 2.68 86 15:30 27.10.2021
5813 Clear 25 1017 40 10000 2.68 86 15:30 27.10.2021
5814 Clear 25 1018 40 10000 3.13 74 14:39 27.10.2021
5815 Clear 18 1020 58 10000 2.24 59 11:21 27.10.2021
5816 Clear 17 1020 62 10000 3.13 62 10:58 27.10.2021
5817 Clear 15 1019 69 10000 3.13 49 09:45 27.10.2021
5818 Clear 14 1019 71 10000 2.68 46 07:53 27.10.2021
5819 Clear 15 1019 70 10000 2.68 51 06:53 27.10.2021
5820 Clear 17 1019 66 10000 0.45 213 01:45 27.10.2021
5821 Clear 18 1019 63 10000 0.45 297 00:56 27.10.2021
5822 Clear 18 1019 60 10000 0.89 179 00:24 27.10.2021
5823 Clear 19 1019 55 10000 3.6 150 23:40 26.10.2021
5824 Clouds 20 1019 49 10000 0.89 110 22:37 26.10.2021
5825 Clouds 21 1018 54 10000 0.78 105 21:57 26.10.2021
5826 Clear 22 1018 51 10000 0.89 73 20:27 26.10.2021
5827 Clear 24 1017 46 10000 1.79 74 19:26 26.10.2021
5828 Clear 24 1017 46 10000 2.68 63 18:40 26.10.2021
5829 Clouds 26 1016 37 10000 2.24 93 16:22 26.10.2021
5830 Clear 25 1018 46 10000 2.24 113 14:19 26.10.2021
5831 Clear 19 1019 60 10000 1.34 53 11:34 26.10.2021
5832 Clear 15 1019 67 10000 1.34 49 10:20 26.10.2021
5833 Clear 15 1017 69 10000 0.45 51 07:25 26.10.2021
5834 Clear 18 1017 61 10000 0.89 83 03:39 26.10.2021
5835 Clouds 19 1017 60 10000 1.34 221 23:50 25.10.2021
5836 Clear 20 1018 53 10000 0.45 157 22:53 25.10.2021
5837 Clear 21 1017 49 10000 0.45 305 22:18 25.10.2021
5838 Clear 22 1016 45 10000 1.54 30 21:38 25.10.2021
5839 Clear 25 1016 39 10000 0.45 322 19:53 25.10.2021
5840 Clear 25 1016 38 10000 0.89 322 19:25 25.10.2021
5841 Clear 26 1016 37 10000 0.45 327 18:54 25.10.2021
5842 Clear 26 1016 37 10000 1.79 335 17:59 25.10.2021
5843 Clear 26 1016 37 10000 0.89 55 16:18 25.10.2021
5844 Clear 24 1018 45 10000 1.34 129 14:28 25.10.2021
5845 Clear 20 1020 56 10000 1.79 78 12:29 25.10.2021
5846 Clear 15 1020 66 10000 2.24 59 10:20 25.10.2021
5847 Clear 14 1019 70 10000 1.79 45 08:34 25.10.2021
5848 Clear 15 1019 67 10000 1.34 73 06:24 25.10.2021
5849 Clear 19 1020 56 10000 1.03 0 00:58 25.10.2021
5850 Clear 19 1020 55 10000 0.45 0 00:37 25.10.2021
5851 Clear 19 1019 53 10000 0.89 274 23:47 24.10.2021
5852 Clear 21 1019 46 10000 0.89 357 22:44 24.10.2021
5853 Clear 21 1019 47 10000 1.03 0 22:21 24.10.2021
5854 Clear 22 1019 46 10000 1.54 60 21:41 24.10.2021
5855 Clear 23 1019 40 10000 2.06 50 20:45 24.10.2021
5856 Clear 24 1019 39 10000 0.45 10 20:23 24.10.2021
5857 Clear 26 1018 36 10000 2.24 10 18:52 24.10.2021
5858 Clear 27 1019 37 10000 1.79 36 17:55 24.10.2021
5859 Clear 26 1019 37 10000 0.89 340 16:49 24.10.2021
5860 Clouds 26 1020 43 10000 1.34 97 15:28 24.10.2021
5861 Clear 23 1021 51 10000 2.24 46 13:49 24.10.2021
5862 Clear 21 1021 59 10000 1.79 29 12:41 24.10.2021
5863 Clear 19 1022 65 10000 1.79 15 11:40 24.10.2021
5864 Clear 17 1022 69 10000 2.24 59 10:43 24.10.2021
5865 Clear 14 1021 76 10000 2.24 54 09:38 24.10.2021
5866 Clear 15 1020 73 10000 0.89 1 05:35 24.10.2021
5867 Clear 19 1020 66 10000 0.89 227 00:40 24.10.2021
5868 Clear 21 1020 56 10000 0.45 213 23:24 23.10.2021
5869 Clear 21 1019 48 10000 0.51 0 21:50 23.10.2021
5870 Clear 24 1018 41 10000 0.89 349 19:47 23.10.2021
5871 Clear 25 1018 41 10000 1.34 7 18:48 23.10.2021
5872 Clear 26 1017 40 10000 1.34 358 18:21 23.10.2021
5873 Clear 26 1018 41 10000 1.34 18 17:42 23.10.2021
5874 Clear 25 1018 43 10000 1.34 9 16:20 23.10.2021
5875 Clear 23 1020 51 10000 0.89 23 13:57 23.10.2021
5876 Clear 17 1017 67 10000 1.34 164 03:32 23.10.2021
5877 Clear 19 1017 55 10000 0.89 321 23:45 22.10.2021
5878 Clear 20 1016 53 10000 2.06 220 22:44 22.10.2021
5879 Clear 24 1014 41 10000 0.89 253 19:51 22.10.2021
5880 Clear 26 1014 37 10000 0.45 308 18:40 22.10.2021
5881 Clear 25 1014 39 10000 0.89 307 17:36 22.10.2021
5882 Clear 22 1015 47 10000 0.89 300 14:58 22.10.2021
5883 Clear 20 1016 53 10000 0.89 269 13:35 22.10.2021
5884 Clear 16 1017 67 10000 0.89 250 10:58 22.10.2021
5885 Clear 16 1017 68 10000 0.89 273 10:38 22.10.2021
5886 Clear 14 1016 74 10000 0.45 347 09:41 22.10.2021
5887 Clear 14 1015 71 10000 1.79 10 08:30 22.10.2021
5888 Clear 15 1015 69 10000 1.34 6 07:21 22.10.2021
5889 Clear 18 1016 61 10000 1.79 333 02:56 22.10.2021
5890 Clear 21 1016 53 10000 1.79 334 23:53 21.10.2021
5891 Clear 21 1016 53 10000 2.24 335 23:21 21.10.2021
5892 Clear 23 1016 50 10000 1.34 322 21:39 21.10.2021
5893 Clear 25 1015 44 10000 1.79 359 20:27 21.10.2021
5894 Clear 26 1015 40 10000 1.34 354 19:57 21.10.2021
5895 Clear 27 1015 36 10000 2.24 247 19:28 21.10.2021
5896 Clear 28 1015 32 10000 1.34 278 18:43 21.10.2021
5897 Clear 28 1015 31 10000 1.34 304 17:54 21.10.2021
5898 Clear 28 1015 32 10000 1.34 282 17:32 21.10.2021
5899 Clear 26 1017 38 10000 1.34 288 15:34 21.10.2021
5900 Clear 26 1017 41 10000 0.89 330 14:57 21.10.2021
5901 Clear 26 1018 42 10000 1.34 315 14:37 21.10.2021
5902 Clear 26 1018 42 10000 0.89 351 14:37 21.10.2021
5903 Clear 23 1019 55 10000 1.34 53 12:44 21.10.2021
5904 Clear 19 1018 74 10000 0.89 1 09:56 21.10.2021
5905 Clear 18 1018 76 10000 0.45 5 08:21 21.10.2021
5906 Clear 18 1018 74 10000 1.54 130 07:23 21.10.2021
5907 Clear 21 1018 63 10000 0.45 117 00:58 21.10.2021
5908 Clear 22 1018 56 10000 0.51 0 23:25 20.10.2021
5909 Clear 24 1018 48 10000 0.89 251 21:51 20.10.2021
5910 Clear 25 1018 45 10000 1.34 244 21:28 20.10.2021
5911 Clear 26 1019 37 10000 0.45 253 20:46 20.10.2021
5912 Clear 27 1017 38 10000 0.45 236 20:26 20.10.2021
5913 Clear 28 1018 35 10000 0.89 243 19:32 20.10.2021
5914 Clear 29 1017 33 10000 0.89 205 18:49 20.10.2021
5915 Clear 29 1018 32 10000 0.45 304 17:40 20.10.2021
5916 Clear 28 1019 33 10000 0.45 277 15:26 20.10.2021
5917 Clear 28 1019 33 10000 0.45 277 15:26 20.10.2021
5918 Clear 19 1021 62 10000 1.34 46 10:25 20.10.2021
5919 Clear 18 1020 73 10000 1.79 21 08:36 20.10.2021
5920 Clear 20 1020 57 10000 1.34 33 02:47 20.10.2021
5921 Clear 22 1021 53 10000 0.45 22 00:43 20.10.2021
5922 Clear 24 1021 51 10000 0.45 316 23:32 19.10.2021
5923 Clear 26 1021 43 10000 0.89 265 21:41 19.10.2021
5924 Clear 26 1021 40 10000 0.89 73 20:48 19.10.2021
5925 Clear 28 1019 38 10000 2.24 101 20:22 19.10.2021
5926 Clear 30 1018 36 10000 1.34 96 19:40 19.10.2021
5927 Clear 30 1018 37 10000 1.79 306 18:52 19.10.2021
5928 Clear 31 1018 35 10000 1.34 278 17:57 19.10.2021
5929 Clear 30 1020 35 10000 1.34 173 15:38 19.10.2021
5930 Clear 30 1020 37 10000 0.89 78 15:19 19.10.2021
5931 Clear 29 1020 39 10000 1.79 121 14:23 19.10.2021
5932 Clear 26 1021 46 10000 1.34 67 12:38 19.10.2021
5933 Clear 24 1021 56 10000 1.34 87 11:32 19.10.2021
5934 Clear 21 1021 63 10000 1.34 44 10:19 19.10.2021
5935 Clear 18 1021 67 10000 0.89 62 08:58 19.10.2021
5936 Clear 19 1020 69 10000 0.89 2 06:34 19.10.2021
5937 Clear 23 1019 63 10000 0.89 230 00:24 19.10.2021
5938 Clear 23 1019 61 10000 1.34 241 23:49 18.10.2021
5939 Clear 24 1019 58 10000 0.89 209 23:19 18.10.2021
5940 Clear 25 1019 57 10000 0.89 224 22:53 18.10.2021
5941 Clear 28 1018 49 10000 1.03 30 21:19 18.10.2021
5942 Clear 28 1017 47 10000 0.51 70 20:41 18.10.2021
5943 Clear 30 1017 43 10000 1.03 80 19:53 18.10.2021
5944 Clear 30 1017 42 10000 0.45 94 19:30 18.10.2021
5945 Clear 30 1017 42 10000 0.89 102 18:54 18.10.2021
5946 Clear 30 1019 45 10000 1.34 110 15:32 18.10.2021
5947 Clear 27 1020 53 10000 1.34 103 13:32 18.10.2021
5948 Clear 22 1020 69 10000 2.24 58 10:43 18.10.2021
5949 Clear 20 1020 74 10000 1.79 71 09:30 18.10.2021
5950 Clear 21 1019 64 10000 0.89 106 03:22 18.10.2021
5951 Clear 24 1018 52 10000 1.34 339 23:31 17.10.2021
5952 Clear 25 1017 47 10000 0.45 313 21:55 17.10.2021
5953 Clear 26 1017 41 10000 0.89 209 21:18 17.10.2021
5954 Clear 27 1016 37 10000 0.45 217 20:38 17.10.2021
5955 Clear 28 1016 35 10000 0.89 193 19:42 17.10.2021
5956 Clear 28 1016 34 10000 0.45 184 19:23 17.10.2021
5957 Clear 29 1016 32 10000 0.89 109 17:34 17.10.2021
5958 Clear 28 1016 32 10000 0.45 342 15:46 17.10.2021
5959 Clear 26 1016 38 10000 0.45 144 14:26 17.10.2021
5960 Clear 26 1017 40 10000 0.45 144 13:56 17.10.2021
5961 Clear 24 1017 47 10000 0.45 140 12:35 17.10.2021
5962 Clear 21 1017 59 10000 1.34 82 10:45 17.10.2021
5963 Clear 19 1017 66 10000 1.34 63 09:48 17.10.2021
5964 Clear 18 1016 72 10000 0.45 27 07:42 17.10.2021
5965 Clear 21 1016 63 10000 0.45 238 00:56 17.10.2021
5966 Clear 21 1016 62 10000 1.79 230 00:24 17.10.2021
5967 Clear 22 1016 55 10000 2.24 206 22:35 16.10.2021
5968 Clear 24 1015 57 10000 1.79 220 20:36 16.10.2021
5969 Clear 25 1015 52 10000 2.68 217 19:56 16.10.2021
5970 Clear 26 1014 47 10000 2.24 216 19:37 16.10.2021
5971 Clouds 26 1014 47 10000 2.24 216 19:18 16.10.2021
5972 Clear 27 1014 40 10000 2.24 221 18:42 16.10.2021
5973 Clear 28 1014 34 10000 1.79 213 18:20 16.10.2021
5974 Rain 28 1014 29 10000 1.79 245 17:29 16.10.2021
5975 Clear 28 1015 34 10000 1.79 230 15:39 16.10.2021
5976 Clear 23 1017 60 10000 0.45 310 12:44 16.10.2021
5977 Clear 19 1017 70 10000 0.89 27 10:51 16.10.2021
5978 Clear 16 1016 79 10000 0.89 24 08:56 16.10.2021
5979 Clear 21 1016 62 10000 0.45 285 01:36 16.10.2021
5980 Clear 21 1017 59 10000 0.45 266 00:29 16.10.2021
5981 Clear 22 1017 56 10000 1.79 271 23:25 15.10.2021
5982 Clear 23 1017 48 10000 1.79 262 22:20 15.10.2021
5983 Clear 24 1017 44 10000 0.89 284 21:37 15.10.2021
5984 Clear 25 1017 33 10000 2.57 230 20:52 15.10.2021
5985 Clear 26 1016 37 10000 0.89 229 20:22 15.10.2021
5986 Clear 28 1015 33 10000 0.89 231 19:19 15.10.2021
5987 Clear 29 1015 32 10000 0.89 252 18:21 15.10.2021
5988 Clear 28 1017 31 10000 0.89 246 15:46 15.10.2021
5989 Clear 25 1018 39 10000 0.89 326 14:18 15.10.2021
5990 Clear 21 1019 54 10000 0.89 2 11:54 15.10.2021
5991 Clear 18 1019 62 10000 0.45 7 10:58 15.10.2021
5992 Clear 17 1019 66 10000 0.89 84 10:28 15.10.2021
5993 Clear 16 1018 66 10000 1.34 46 07:35 15.10.2021
5994 Clear 18 1018 60 10000 1.34 11 04:46 15.10.2021
5995 Clear 22 1019 57 10000 1.79 276 00:22 15.10.2021
5996 Clear 23 1018 56 10000 0.89 253 22:54 14.10.2021
5997 Clear 24 1018 45 10000 0.45 194 22:20 14.10.2021
5998 Clear 24 1019 44 10000 0.45 104 21:37 14.10.2021
5999 Clear 27 1017 42 10000 1.79 66 20:20 14.10.2021
6000 Clear 28 1017 41 10000 2.24 22 19:46 14.10.2021
6001 Clear 29 1016 37 10000 0.89 123 18:40 14.10.2021
6002 Clear 29 1016 36 10000 0.89 123 18:40 14.10.2021
6003 Clear 29 1016 38 10000 1.79 31 16:59 14.10.2021
6004 Clear 29 1016 39 10000 1.79 105 16:32 14.10.2021
6005 Clear 27 1018 45 10000 1.79 118 14:50 14.10.2021
6006 Clear 26 1018 47 10000 1.79 105 14:26 14.10.2021
6007 Clear 25 1019 53 10000 0.89 107 13:33 14.10.2021
6008 Clear 20 1019 72 10000 1.79 38 11:35 14.10.2021
6009 Clear 17 1019 84 10000 1.34 77 09:24 14.10.2021
6010 Clear 18 1017 85 10000 0.89 355 06:19 14.10.2021
6011 Clear 20 1016 79 10000 1.79 223 00:43 14.10.2021
6012 Clear 23 1016 61 10000 0.89 211 22:42 13.10.2021
6013 Clear 25 1015 54 10000 1.79 277 21:37 13.10.2021
6014 Clear 26 1014 48 10000 2.24 267 20:45 13.10.2021
6015 Clear 26 1015 49 10000 2.24 267 20:45 13.10.2021
6016 Clear 29 1014 39 10000 0.89 269 19:39 13.10.2021
6017 Clear 30 1014 37 10000 0.89 239 18:47 13.10.2021
6018 Clear 30 1014 40 10000 0.89 125 17:22 13.10.2021
6019 Clear 26 1015 54 10000 0.89 335 14:47 13.10.2021
6020 Clear 26 1015 56 10000 1.34 86 14:25 13.10.2021
6021 Clear 23 1017 64 10000 0.45 151 12:48 13.10.2021
6022 Clear 20 1016 72 10000 1.34 37 11:37 13.10.2021
6023 Clear 17 1016 81 10000 1.34 13 10:18 13.10.2021
6024 Clear 17 1015 84 10000 1.34 338 07:54 13.10.2021
6025 Clear 20 1014 80 10000 0.89 241 04:50 13.10.2021
6026 Clear 21 1014 75 10000 0.89 269 02:22 13.10.2021
6027 Clear 22 1015 71 10000 0.89 276 23:51 12.10.2021
6028 Clear 22 1015 70 10000 1.34 275 23:27 12.10.2021
6029 Clear 23 1014 67 10000 2.24 273 22:41 12.10.2021
6030 Clear 25 1013 58 10000 2.24 272 20:55 12.10.2021
6031 Clear 25 1013 55 10000 3.13 261 20:31 12.10.2021
6032 Clear 28 1013 45 10000 0.45 257 19:45 12.10.2021
6033 Clear 29 1012 37 10000 0.89 32 18:26 12.10.2021
6034 Clear 30 1012 37 10000 0.45 292 17:35 12.10.2021
6035 Clear 29 1013 39 10000 0.89 39 16:24 12.10.2021
6036 Clear 29 1013 42 10000 0.89 340 15:35 12.10.2021
6037 Clear 27 1014 46 10000 1.79 82 14:20 12.10.2021
6038 Clear 26 1015 46 10000 2.24 102 13:41 12.10.2021
6039 Clear 22 1016 60 10000 1.34 52 11:36 12.10.2021
6040 Clear 19 1015 75 10000 2.24 77 09:41 12.10.2021
6041 Clear 18 1015 75 10000 1.79 59 08:35 12.10.2021
6042 Clear 19 1014 72 10000 1.79 28 06:49 12.10.2021
6043 Clear 19 1014 69 10000 1.79 49 05:29 12.10.2021
6044 Clear 19 1014 66 10000 2.24 48 04:29 12.10.2021
6045 Clear 22 1014 50 10000 2.24 50 00:18 12.10.2021
6046 Clear 22 1014 50 10000 1.79 54 00:18 12.10.2021
6047 Clear 22 1014 50 10000 2.24 50 00:18 12.10.2021
6048 Clear 22 1014 50 10000 2.24 50 00:18 12.10.2021
6049 Clear 23 1014 47 10000 1.34 47 23:37 11.10.2021
6050 Clear 23 1014 44 10000 1.79 69 22:56 11.10.2021
6051 Clear 26 1014 41 10000 3.09 110 21:41 11.10.2021
6052 Clear 28 1013 35 10000 3.13 98 20:32 11.10.2021
6053 Clear 29 1014 30 10000 6.69 100 19:38 11.10.2021
6054 Clear 31 1012 31 10000 2.24 232 18:24 11.10.2021
6055 Clear 31 1012 30 10000 1.34 156 16:49 11.10.2021
6056 Clear 31 1012 29 10000 1.79 136 16:31 11.10.2021
6057 Clear 30 1013 29 10000 2.24 129 15:45 11.10.2021
6058 Clear 30 1013 31 10000 3.13 108 14:54 11.10.2021
6059 Clear 29 1014 34 10000 3.13 92 14:22 11.10.2021
6060 Clear 27 1015 38 10000 3.13 108 13:36 11.10.2021
6061 Clear 23 1015 58 10000 3.13 85 11:25 11.10.2021
6062 Clear 19 1015 71 10000 1.79 54 09:55 11.10.2021
6063 Clear 18 1014 74 10000 1.79 71 08:41 11.10.2021
6064 Clear 20 1014 67 10000 1.79 67 03:47 11.10.2021
6065 Clear 21 1015 59 10000 1.34 75 01:34 11.10.2021
6066 Clear 22 1015 50 10000 1.34 19 00:43 11.10.2021
6067 Clear 23 1015 48 10000 1.79 344 23:52 10.10.2021
6068 Clear 26 1014 39 10000 3.13 119 21:51 10.10.2021
6069 Clear 26 1014 39 10000 3.13 119 21:51 10.10.2021
6070 Clear 26 1014 37 10000 3.13 108 21:29 10.10.2021
6071 Clear 27 1014 34 10000 1.34 97 20:41 10.10.2021
6072 Clear 28 1013 35 10000 3.58 110 20:20 10.10.2021
6073 Clear 28 1014 36 10000 0.45 86 19:52 10.10.2021
6074 Clear 29 1013 37 10000 2.68 110 19:33 10.10.2021
6075 Clear 30 1013 35 10000 2.24 116 18:28 10.10.2021
6076 Clear 30 1014 37 10000 1.34 180 15:59 10.10.2021
6077 Clear 30 1014 37 10000 1.34 146 15:40 10.10.2021
6078 Clear 27 1015 42 10000 1.79 88 13:42 10.10.2021
6079 Clear 26 1016 47 10000 2.68 103 12:48 10.10.2021
6080 Clear 26 1016 52 10000 2.24 63 12:30 10.10.2021
6081 Clear 21 1016 72 10000 2.24 66 10:42 10.10.2021
6082 Clear 18 1016 78 10000 2.24 41 09:29 10.10.2021
6083 Clear 18 1016 80 10000 1.34 30 08:52 10.10.2021
6084 Clear 18 1015 78 10000 0.89 350 06:54 10.10.2021
6085 Clear 20 1016 72 10000 1.34 233 02:29 10.10.2021
6086 Clear 22 1016 66 10000 1.79 223 00:55 10.10.2021
6087 Clear 23 1015 60 10000 0.89 155 23:52 09.10.2021
6088 Clear 24 1015 57 10000 1.34 280 22:45 09.10.2021
6089 Clear 26 1015 53 10000 0.45 192 21:38 09.10.2021
6090 Clear 26 1015 52 10000 0.45 192 21:19 09.10.2021
6091 Clear 28 1014 45 10000 0.89 192 19:43 09.10.2021
6092 Clear 29 1014 43 10000 0.89 219 18:57 09.10.2021
6093 Clear 29 1014 43 10000 0.89 235 18:32 09.10.2021
6094 Clear 28 1015 47 10000 0.89 294 16:29 09.10.2021
6095 Clear 28 1015 47 10000 0.89 294 16:29 09.10.2021
6096 Clear 28 1015 47 10000 0.89 251 16:29 09.10.2021
6097 Clear 28 1015 47 10000 0.89 294 16:29 09.10.2021
6098 Clear 27 1016 52 10000 0.89 50 15:28 09.10.2021
6099 Clear 25 1017 59 10000 1.54 310 13:43 09.10.2021
6100 Clouds 23 1018 69 10000 0.45 111 12:38 09.10.2021
6101 Clouds 21 1019 82 10000 1.03 0 11:47 09.10.2021
6102 Mist 17 1019 100 2000 1.54 40 10:42 09.10.2021
6103 Fog 18 1017 89 400 0.89 341 10:41 09.10.2021
6104 Fog 17 1017 91 200 0.89 358 09:36 09.10.2021
6105 Fog 16 1016 90 10000 1.79 6 08:29 09.10.2021
6106 Fog 17 1016 88 9000 0.45 42 07:46 09.10.2021
6107 Mist 18 1015 91 4200 0.45 269 05:28 09.10.2021
6108 Clear 19 1015 84 10000 1.34 240 02:57 09.10.2021
6109 Clear 19 1015 82 10000 1.34 227 02:38 09.10.2021
6110 Clear 23 1015 60 10000 1.79 242 23:36 08.10.2021
6111 Clear 24 1015 57 10000 0.89 258 22:53 08.10.2021
6112 Clear 24 1015 57 10000 1.79 264 22:22 08.10.2021
6113 Clear 26 1015 51 10000 2.24 232 20:49 08.10.2021
6114 Clear 31 1014 38 10000 1.34 208 18:53 08.10.2021
6115 Clear 31 1014 33 10000 0.89 217 17:28 08.10.2021
6116 Clear 31 1014 36 10000 0.45 256 16:50 08.10.2021
6117 Clear 30 1015 38 10000 0.89 220 16:23 08.10.2021
6118 Clear 27 1016 50 10000 0.89 177 13:57 08.10.2021
6119 Clear 25 1017 54 10000 1.54 10 12:48 08.10.2021
6120 Clear 21 1017 66 10000 1.79 44 11:31 08.10.2021
6121 Clear 18 1018 74 10000 1.54 330 10:40 08.10.2021
6122 Clear 17 1016 79 10000 0.89 336 08:27 08.10.2021
6123 Clear 23 1015 56 10000 0.45 210 23:55 07.10.2021
6124 Clear 25 1015 51 10000 0.45 243 23:18 07.10.2021
6125 Clear 26 1015 48 10000 1.79 220 21:45 07.10.2021
6126 Clear 27 1015 47 10000 1.79 255 21:20 07.10.2021
6127 Clear 29 1015 39 10000 0.51 0 20:20 07.10.2021
6128 Clear 32 1014 33 10000 0.89 101 19:29 07.10.2021
6129 Clear 31 1014 35 10000 1.34 79 18:22 07.10.2021
6130 Clear 31 1015 36 10000 1.79 19 17:18 07.10.2021
6131 Clear 30 1016 40 10000 2.24 85 15:50 07.10.2021
6132 Clear 28 1017 47 10000 2.68 68 13:52 07.10.2021
6133 Clear 27 1017 49 10000 2.68 47 13:34 07.10.2021
6134 Clear 25 1018 53 10000 2.68 62 12:40 07.10.2021
6135 Clear 21 1018 59 10000 2.68 70 10:52 07.10.2021
6136 Clear 21 1018 59 10000 1.34 17 10:52 07.10.2021
6137 Clear 20 1018 61 10000 2.68 58 10:19 07.10.2021
6138 Clear 19 1018 64 10000 2.24 55 09:33 07.10.2021
6139 Clear 18 1018 66 10000 1.34 16 08:41 07.10.2021
6140 Clear 18 1018 62 10000 2.24 44 07:43 07.10.2021
6141 Clear 19 1018 62 10000 1.79 52 07:19 07.10.2021
6142 Clear 21 1018 60 10000 1.34 339 02:50 07.10.2021
6143 Clear 24 1018 53 10000 0.45 318 00:29 07.10.2021
6144 Clear 24 1018 52 10000 1.79 251 22:51 06.10.2021
6145 Clear 25 1018 47 10000 2.24 176 21:53 06.10.2021
6146 Clear 29 1017 38 10000 0.89 67 20:38 06.10.2021
6147 Clear 30 1018 34 10000 0.45 53 19:55 06.10.2021
6148 Clear 32 1016 28 10000 2.68 58 18:41 06.10.2021
6149 Clear 32 1017 27 10000 2.68 90 16:58 06.10.2021
6150 Clear 30 1018 34 10000 3.58 81 15:30 06.10.2021
6151 Clear 29 1019 37 10000 3.58 82 14:22 06.10.2021
6152 Clear 27 1019 45 10000 4.02 81 13:20 06.10.2021
6153 Clear 25 1019 52 10000 3.13 63 12:43 06.10.2021
6154 Clear 25 1019 54 10000 3.58 75 12:21 06.10.2021
6155 Clear 21 1020 76 10000 1.79 50 10:21 06.10.2021
6156 Clear 19 1019 80 10000 1.79 64 09:39 06.10.2021
6157 Clear 18 1019 82 10000 0.89 47 08:42 06.10.2021
6158 Clear 19 1019 82 10000 0.89 65 07:48 06.10.2021
6159 Clear 19 1018 79 10000 1.34 69 05:26 06.10.2021
6160 Clear 22 1020 68 10000 0.89 10 00:29 06.10.2021
6161 Clear 22 1020 67 10000 1.34 3 23:58 05.10.2021
6162 Clear 23 1020 65 10000 0.89 9 23:39 05.10.2021
6163 Clear 23 1020 65 10000 0.89 10 23:20 05.10.2021
6164 Clear 23 1020 59 10000 2.68 32 22:28 05.10.2021
6165 Clear 24 1019 53 10000 1.79 50 21:50 05.10.2021
6166 Clear 25 1019 48 10000 1.54 340 20:48 05.10.2021
6167 Clear 26 1018 45 10000 1.03 340 20:24 05.10.2021
6168 Clear 26 1018 43 10000 0.89 267 19:47 05.10.2021
6169 Clear 28 1018 40 10000 0.45 87 18:57 05.10.2021
6170 Clear 27 1019 40 10000 1.34 127 16:58 05.10.2021
6171 Clear 25 1021 39 10000 0.89 57 14:57 05.10.2021
6172 Clear 23 1022 45 10000 1.79 80 13:42 05.10.2021
6173 Clear 22 1022 48 10000 1.34 74 12:54 05.10.2021
6174 Clear 21 1022 51 10000 2.24 93 12:19 05.10.2021
6175 Clear 20 1022 56 10000 1.79 73 11:21 05.10.2021
6176 Clear 16 1021 68 10000 1.79 51 09:27 05.10.2021
6177 Clear 16 1020 63 10000 2.24 33 05:36 05.10.2021
6178 Clear 19 1020 46 10000 0.89 352 23:54 04.10.2021
6179 Clear 21 1020 40 10000 1.79 13 22:39 04.10.2021
6180 Clear 22 1019 43 10000 0 0 20:43 04.10.2021
6181 Clear 26 1018 32 10000 0.45 317 18:34 04.10.2021
6182 Clear 25 1018 35 10000 0.89 136 16:39 04.10.2021
6183 Clear 23 1019 37 10000 0.89 323 15:32 04.10.2021
6184 Clear 22 1020 41 10000 1.79 133 14:43 04.10.2021
6185 Clear 22 1021 43 10000 1.79 84 13:58 04.10.2021
6186 Clear 21 1021 47 10000 1.79 87 13:30 04.10.2021
6187 Clear 19 1021 56 10000 2.68 68 12:30 04.10.2021
6188 Clear 17 1022 60 10000 1.34 56 11:31 04.10.2021
6189 Clear 15 1021 69 10000 1.34 20 10:34 04.10.2021
6190 Clear 14 1020 69 10000 2.68 8 09:25 04.10.2021
6191 Clear 14 1020 71 10000 1.34 352 07:52 04.10.2021
6192 Clear 16 1018 67 10000 0.89 291 03:34 04.10.2021
6193 Clear 19 1017 52 10000 0.89 325 22:48 03.10.2021
6194 Clear 20 1017 51 10000 0.89 307 21:43 03.10.2021
6195 Clear 20 1016 50 10000 3.13 341 21:24 03.10.2021
6196 Clear 21 1015 50 10000 2.24 334 20:43 03.10.2021
6197 Clear 23 1014 48 10000 2.68 328 19:33 03.10.2021
6198 Clouds 23 1013 50 10000 2.68 307 18:28 03.10.2021
6199 Clouds 23 1013 50 10000 2.68 307 18:28 03.10.2021
6200 Clouds 23 1013 63 10000 3.58 277 17:31 03.10.2021
6201 Drizzle 20 1012 91 3500 3.58 245 14:49 03.10.2021
6202 Drizzle 20 1013 90 4000 3.13 237 14:28 03.10.2021
6203 Clouds 21 1013 81 10000 5.36 266 13:35 03.10.2021
6204 Clouds 22 1013 72 10000 3.58 246 12:44 03.10.2021
6205 Clouds 20 1013 80 10000 2.24 245 10:58 03.10.2021
6206 Clear 18 1013 87 10000 1.34 241 09:42 03.10.2021
6207 Clouds 17 1012 89 10000 1.34 247 05:25 03.10.2021
6208 Clear 21 1013 68 10000 1.79 253 22:52 02.10.2021
6209 Clear 23 1013 54 10000 1.79 237 21:49 02.10.2021
6210 Clear 26 1013 40 10000 2.68 236 20:18 02.10.2021
6211 Clear 29 1012 33 10000 3.13 243 18:56 02.10.2021
6212 Clear 29 1012 33 10000 3.13 243 18:56 02.10.2021
6213 Clear 29 1012 33 10000 3.13 243 18:56 02.10.2021
6214 Clear 29 1012 33 10000 3.13 243 18:56 02.10.2021
6215 Clear 29 1012 34 10000 3.13 250 18:20 02.10.2021
6216 Clear 30 1012 36 10000 3.13 214 17:37 02.10.2021
6217 Clear 30 1013 39 10000 2.24 228 16:28 02.10.2021
6218 Clear 19 1015 83 10000 0.45 360 06:47 02.10.2021
6219 Clear 30 1020 36 10000 0.45 296 15:37 30.09.2021
6220 Clear 28 1021 42 10000 0.89 171 13:54 30.09.2021
6221 Clear 25 1022 52 10000 0.89 125 11:53 30.09.2021
6222 Clear 22 1022 59 10000 0.45 80 10:53 30.09.2021
6223 Clear 21 1021 63 10000 0.89 75 10:22 30.09.2021
6224 Clear 19 1020 64 10000 1.34 344 08:31 30.09.2021
6225 Clear 19 1020 61 10000 0.45 81 07:35 30.09.2021
6226 Clear 21 1020 56 10000 1.34 54 05:23 30.09.2021
6227 Clear 24 1020 46 10000 1.34 61 01:41 30.09.2021
6228 Clear 25 1020 44 10000 0.89 1 00:30 30.09.2021
6229 Clear 27 1020 42 10000 0.89 355 22:39 29.09.2021
6230 Clear 28 1019 39 10000 0.89 11 21:28 29.09.2021
6231 Clear 31 1018 33 10000 0.89 5 20:28 29.09.2021
6232 Clear 32 1019 30 10000 1.34 52 19:55 29.09.2021
6233 Clear 32 1018 29 10000 1.79 54 18:54 29.09.2021
6234 Clear 32 1018 29 10000 1.34 72 17:55 29.09.2021
6235 Clear 32 1019 31 10000 1.79 28 16:55 29.09.2021
6236 Clear 31 1019 34 10000 1.79 354 16:21 29.09.2021
6237 Clear 30 1020 39 10000 2.24 77 14:42 29.09.2021
6238 Clear 29 1021 42 10000 2.24 53 14:18 29.09.2021
6239 Clear 28 1021 46 10000 1.79 47 13:27 29.09.2021
6240 Clear 26 1022 50 10000 2.24 71 12:38 29.09.2021
6241 Clear 22 1022 57 10000 1.79 49 10:57 29.09.2021
6242 Clear 21 1022 59 10000 1.34 69 10:25 29.09.2021
6243 Clear 20 1022 62 10000 1.34 31 09:39 29.09.2021
6244 Clear 19 1021 63 10000 0.89 353 07:48 29.09.2021
6245 Clear 20 1020 62 10000 0.89 346 05:50 29.09.2021
6246 Clear 24 1020 61 10000 0.89 329 23:36 28.09.2021
6247 Clear 24 1019 65 10000 1.79 250 22:24 28.09.2021
6248 Clear 25 1019 59 10000 2.24 240 21:45 28.09.2021
6249 Clear 27 1018 49 10000 3.13 206 20:44 28.09.2021
6250 Clear 28 1018 45 10000 2.24 215 19:47 28.09.2021
6251 Clear 30 1017 41 10000 2.24 212 18:53 28.09.2021
6252 Clear 31 1018 35 10000 0.89 227 18:27 28.09.2021
6253 Clear 30 1018 36 10000 0.89 210 16:42 28.09.2021
6254 Clear 29 1019 43 10000 0.89 252 14:53 28.09.2021
6255 Clear 27 1020 51 10000 0.45 184 13:25 28.09.2021
6256 Clear 25 1020 54 10000 0.89 145 12:24 28.09.2021
6257 Clear 24 1020 59 10000 0.89 94 11:47 28.09.2021
6258 Clear 23 1020 62 10000 0.89 89 11:25 28.09.2021
6259 Clear 21 1020 71 10000 0.89 336 10:26 28.09.2021
6260 Mist 18 1019 81 5000 0.45 358 09:25 28.09.2021
6261 Fog 18 1019 83 1000 0.89 355 08:43 28.09.2021
6262 Clouds 18 1018 84 7000 0.51 0 07:55 28.09.2021
6263 Clear 19 1018 85 10000 0 0 06:25 28.09.2021
6264 Clear 21 1019 71 10000 0.45 252 01:31 28.09.2021
6265 Clear 23 1019 66 10000 0.45 302 00:28 28.09.2021
6266 Clear 24 1019 63 10000 0.89 307 23:48 27.09.2021
6267 Clear 24 1018 60 10000 0.45 300 23:24 27.09.2021
6268 Clear 25 1019 57 10000 1.34 265 22:20 27.09.2021
6269 Clear 25 1019 57 10000 1.34 261 22:20 27.09.2021
6270 Clear 27 1018 49 10000 2.24 236 20:54 27.09.2021
6271 Clear 29 1017 40 10000 1.34 232 20:26 27.09.2021
6272 Clear 30 1018 32 10000 0.45 230 19:37 27.09.2021
6273 Clear 31 1018 29 10000 0.89 285 18:52 27.09.2021
6274 Clear 31 1018 30 10000 0.45 228 18:52 27.09.2021
6275 Clear 31 1018 31 10000 0.89 315 17:37 27.09.2021
6276 Clear 30 1018 34 10000 1.34 292 16:56 27.09.2021
6277 Clear 30 1018 34 10000 0.89 348 16:34 27.09.2021
6278 Clear 29 1019 39 10000 0.89 8 15:37 27.09.2021
6279 Clear 27 1020 50 10000 0.89 251 13:49 27.09.2021
6280 Clear 23 1021 65 10000 1.34 66 12:22 27.09.2021
6281 Clear 20 1021 79 10000 0.89 21 10:48 27.09.2021
6282 Clear 18 1020 86 10000 0.45 54 09:42 27.09.2021
6283 Clear 17 1020 87 10000 0.89 323 07:54 27.09.2021
6284 Clear 19 1019 80 10000 0.89 200 03:34 27.09.2021
6285 Clear 23 1019 61 10000 0.89 313 23:53 26.09.2021
6286 Clear 24 1018 56 10000 1.79 216 21:59 26.09.2021
6287 Clear 26 1018 47 10000 0.45 287 21:27 26.09.2021
6288 Clear 28 1018 40 10000 0.45 299 20:30 26.09.2021
6289 Clear 28 1018 40 10000 0.45 283 19:54 26.09.2021
6290 Clear 29 1018 38 10000 0.89 337 19:26 26.09.2021
6291 Clear 29 1018 38 10000 0.89 337 19:26 26.09.2021
6292 Clear 29 1018 38 10000 0.89 337 19:26 26.09.2021
6293 Clear 29 1018 38 10000 0.89 337 19:26 26.09.2021
6294 Clear 29 1018 38 10000 0.89 337 19:26 26.09.2021
6295 Clear 29 1018 38 10000 0.89 337 19:26 26.09.2021
6296 Clear 29 1018 38 10000 0.89 337 19:26 26.09.2021
6297 Clear 30 1018 37 10000 0.89 343 18:41 26.09.2021
6298 Clear 29 1018 39 10000 0.89 326 17:48 26.09.2021
6299 Clear 29 1018 39 10000 0.89 308 17:20 26.09.2021
6300 Clear 28 1018 42 10000 1.34 320 16:24 26.09.2021
6301 Clear 28 1019 45 10000 0.89 296 15:47 26.09.2021
6302 Clear 27 1020 55 10000 0.89 274 14:26 26.09.2021
6303 Clear 25 1020 60 10000 0.89 122 13:44 26.09.2021
6304 Clear 23 1021 70 10000 1.34 90 12:31 26.09.2021
6305 Clear 22 1021 76 10000 1.34 66 11:58 26.09.2021
6306 Clouds 21 1020 78 10000 1.34 57 11:36 26.09.2021
6307 Clouds 18 1020 90 9000 0.89 33 09:52 26.09.2021
6308 Clouds 17 1020 91 9000 0.45 32 08:54 26.09.2021
6309 Clear 20 1019 82 10000 0.89 220 01:28 26.09.2021
6310 Clear 20 1019 79 10000 0.89 289 00:20 26.09.2021
6311 Clear 21 1018 73 10000 1.34 283 22:42 25.09.2021
6312 Clear 22 1018 72 10000 0.89 274 22:23 25.09.2021
6313 Clear 23 1018 69 10000 1.34 265 21:49 25.09.2021
6314 Clear 23 1018 63 10000 2.24 247 20:53 25.09.2021
6315 Clear 25 1017 54 10000 2.24 227 19:54 25.09.2021
6316 Clear 27 1016 47 10000 1.79 248 18:39 25.09.2021
6317 Clear 27 1016 46 10000 1.79 283 17:46 25.09.2021
6318 Clouds 26 1017 52 10000 2.24 283 15:35 25.09.2021
6319 Clouds 25 1018 63 10000 1.34 227 13:56 25.09.2021
6320 Clouds 23 1018 70 10000 1.34 208 12:48 25.09.2021
6321 Clouds 22 1018 76 10000 1.34 204 11:40 25.09.2021
6322 Clouds 19 1017 83 10000 0.45 184 10:24 25.09.2021
6323 Clouds 18 1017 87 10000 1.54 150 09:25 25.09.2021
6324 Clear 17 1016 89 10000 0.45 170 07:52 25.09.2021
6325 Clear 17 1016 89 10000 0.45 170 07:52 25.09.2021
6326 Clear 19 1016 82 10000 0.45 233 01:35 25.09.2021
6327 Clouds 21 1016 77 10000 1.34 239 23:45 24.09.2021
6328 Clouds 22 1014 71 10000 2.68 240 21:41 24.09.2021
6329 Clouds 23 1013 63 10000 2.24 245 20:33 24.09.2021
6330 Clouds 23 1013 60 10000 3.13 245 19:45 24.09.2021
6331 Clouds 24 1013 56 10000 2.68 264 18:32 24.09.2021
6332 Clouds 24 1013 55 10000 3.13 246 17:53 24.09.2021
6333 Clouds 24 1013 53 10000 3.13 242 17:35 24.09.2021
6334 Clouds 24 1013 53 10000 2.68 262 16:55 24.09.2021
6335 Clouds 24 1013 65 10000 2.24 210 13:57 24.09.2021
6336 Clouds 22 1013 75 10000 1.79 205 12:45 24.09.2021
6337 Clouds 22 1014 78 10000 2.68 206 12:27 24.09.2021
6338 Clouds 22 1013 79 10000 1.79 236 11:59 24.09.2021
6339 Clouds 21 1012 84 10000 1.34 279 10:25 24.09.2021
6340 Clouds 21 1011 88 10000 0.45 267 08:29 24.09.2021
6341 Clouds 21 1011 90 9000 0.51 0 07:32 24.09.2021
6342 Clouds 21 1011 90 10000 1.03 0 06:44 24.09.2021
6343 Clouds 21 1011 90 10000 0.45 324 04:53 24.09.2021
6344 Clouds 23 1012 82 10000 1.34 198 23:57 23.09.2021
6345 Clouds 23 1011 82 10000 0.89 284 22:20 23.09.2021
6346 Clouds 23 1011 81 10000 0.45 258 21:47 23.09.2021
6347 Clouds 23 1011 81 10000 0.45 322 20:33 23.09.2021
6348 Clouds 23 1010 79 10000 1.34 326 19:28 23.09.2021
6349 Clouds 24 1010 76 10000 1.79 348 17:45 23.09.2021
6350 Clouds 24 1012 66 10000 3.09 300 15:21 23.09.2021
6351 Clouds 23 1012 72 10000 3.6 300 14:59 23.09.2021
6352 Clouds 25 1010 61 10000 3.58 311 13:45 23.09.2021
6353 Clouds 27 1010 54 10000 2.24 207 13:19 23.09.2021
6354 Clouds 27 1010 50 10000 3.13 162 12:48 23.09.2021
6355 Clear 27 1011 54 10000 2.68 147 12:22 23.09.2021
6356 Clear 26 1011 56 10000 3.58 132 11:23 23.09.2021
6357 Clear 24 1011 62 10000 5.14 90 10:20 23.09.2021
6358 Clear 23 1010 67 10000 2.68 95 09:51 23.09.2021
6359 Clouds 21 1010 77 10000 0.89 358 07:44 23.09.2021
6360 Clouds 22 1012 71 10000 1.34 47 01:43 23.09.2021
6361 Clouds 23 1013 67 10000 1.03 0 22:58 22.09.2021
6362 Clouds 23 1012 65 10000 1.79 38 22:28 22.09.2021
6363 Clouds 23 1012 64 10000 1.34 52 21:53 22.09.2021
6364 Clouds 24 1012 63 10000 1.79 14 21:33 22.09.2021
6365 Clouds 27 1011 54 10000 1.79 245 20:39 22.09.2021
6366 Clouds 28 1010 48 10000 3.13 234 19:29 22.09.2021
6367 Clouds 30 1010 41 10000 2.24 229 18:37 22.09.2021
6368 Clouds 30 1010 41 10000 0.89 244 17:43 22.09.2021
6369 Clouds 30 1011 43 10000 1.79 86 16:37 22.09.2021
6370 Clear 29 1013 44 10000 1.79 70 15:18 22.09.2021
6371 Clouds 27 1013 47 10000 1.79 109 13:48 22.09.2021
6372 Clear 25 1014 60 10000 2.24 106 11:46 22.09.2021
6373 Clear 22 1014 71 10000 1.79 34 10:44 22.09.2021
6374 Clear 20 1014 78 10000 1.79 56 09:21 22.09.2021
6375 Clear 19 1013 82 10000 1.34 75 08:22 22.09.2021
6376 Clear 19 1013 82 10000 0.89 62 06:57 22.09.2021
6377 Clear 19 1013 81 10000 1.79 53 05:53 22.09.2021
6378 Clear 20 1013 80 10000 1.34 42 05:32 22.09.2021
6379 Clear 20 1014 77 10000 1.34 65 03:48 22.09.2021
6380 Clear 23 1015 69 10000 1.34 53 00:21 22.09.2021
6381 Clear 24 1015 63 10000 2.24 53 22:52 21.09.2021
6382 Clear 24 1013 57 10000 1.34 84 21:33 21.09.2021
6383 Clear 24 1013 60 10000 0.89 4 20:24 21.09.2021
6384 Clouds 25 1013 54 10000 2.68 177 19:20 21.09.2021
6385 Clear 31 1011 37 10000 1.34 338 17:35 21.09.2021
6386 Clouds 30 1012 41 10000 1.79 80 16:34 21.09.2021
6387 Clear 30 1013 43 10000 1.79 54 15:38 21.09.2021
6388 Clear 29 1014 43 10000 1.34 60 14:57 21.09.2021
6389 Clear 28 1014 45 10000 3.13 84 13:56 21.09.2021
6390 Clear 28 1014 45 10000 2.68 67 13:56 21.09.2021
6391 Clear 28 1015 46 10000 3.58 81 13:36 21.09.2021
6392 Clear 25 1015 49 10000 2.68 82 11:45 21.09.2021
6393 Clouds 22 1016 57 10000 3.6 50 10:26 21.09.2021
6394 Clear 18 1015 80 10000 2.57 70 08:28 21.09.2021
6395 Clear 19 1015 82 10000 2.06 40 06:41 21.09.2021
6396 Clear 25 1016 57 10000 4.12 290 23:59 20.09.2021
6397 Clear 26 1015 51 10000 2.57 270 22:25 20.09.2021
6398 Clear 27 1014 45 10000 2.57 260 21:38 20.09.2021
6399 Clear 29 1014 40 10000 3.09 250 20:34 20.09.2021
6400 Clear 31 1013 41 10000 2.68 259 19:31 20.09.2021
6401 Clear 32 1014 37 10000 0.45 231 17:47 20.09.2021
6402 Clear 31 1014 38 10000 1.34 226 16:49 20.09.2021
6403 Clear 31 1015 40 10000 1.34 348 15:56 20.09.2021
6404 Clear 30 1016 43 10000 1.34 214 15:32 20.09.2021
6405 Clear 29 1016 48 10000 0.89 319 14:25 20.09.2021
6406 Clear 26 1017 50 10000 0.89 17 12:36 20.09.2021
6407 Clear 24 1018 55 10000 1.34 23 11:44 20.09.2021
6408 Clear 22 1017 63 10000 0.89 355 10:32 20.09.2021
6409 Clear 20 1017 71 10000 0.89 350 09:43 20.09.2021
6410 Clear 19 1017 73 10000 0.45 354 09:20 20.09.2021
6411 Clear 19 1016 74 10000 0.89 351 08:27 20.09.2021
6412 Clear 21 1016 71 10000 0.89 236 02:27 20.09.2021
6413 Clear 26 1015 48 10000 0.45 271 22:46 19.09.2021
6414 Clear 27 1015 43 10000 1.79 223 21:45 19.09.2021
6415 Clear 29 1014 37 10000 1.79 234 20:53 19.09.2021
6416 Clear 31 1014 30 10000 0.89 164 19:41 19.09.2021
6417 Clear 32 1013 30 10000 0.89 26 18:32 19.09.2021
6418 Clear 32 1014 32 10000 1.34 335 17:23 19.09.2021
6419 Clear 31 1014 36 10000 1.34 29 16:32 19.09.2021
6420 Clear 30 1015 36 10000 1.34 345 15:31 19.09.2021
6421 Clear 29 1015 38 10000 0.89 34 14:48 19.09.2021
6422 Clear 28 1016 42 10000 0.89 15 13:46 19.09.2021
6423 Clear 26 1017 45 10000 1.34 104 12:52 19.09.2021
6424 Clear 24 1016 52 10000 1.79 76 11:39 19.09.2021
6425 Clear 23 1017 54 10000 1.79 44 11:20 19.09.2021
6426 Clear 20 1016 71 10000 1.34 63 09:50 19.09.2021
6427 Clear 20 1016 71 10000 1.34 63 09:50 19.09.2021
6428 Clear 18 1016 83 10000 0.89 49 08:49 19.09.2021
6429 Clear 18 1015 84 10000 0.89 9 06:43 19.09.2021
6430 Clear 21 1014 75 10000 0.89 243 00:20 19.09.2021
6431 Clear 22 1014 69 10000 0.89 244 22:54 18.09.2021
6432 Clear 24 1013 56 10000 1.79 226 21:40 18.09.2021
6433 Clear 26 1013 38 10000 1.34 250 20:46 18.09.2021
6434 Clear 29 1012 33 10000 2.68 274 19:41 18.09.2021
6435 Clear 29 1012 34 10000 2.24 269 19:21 18.09.2021
6436 Clear 30 1012 34 10000 2.68 267 18:38 18.09.2021
6437 Clear 30 1012 36 10000 3.13 254 17:59 18.09.2021
6438 Clear 30 1012 39 10000 2.24 283 16:34 18.09.2021
6439 Clear 27 1014 51 10000 2.24 261 13:51 18.09.2021
6440 Clear 27 1014 51 10000 1.79 257 13:31 18.09.2021
6441 Clear 27 1014 54 10000 0.89 253 12:51 18.09.2021
6442 Clear 24 1015 62 10000 0.45 358 11:42 18.09.2021
6443 Clear 22 1014 70 10000 1.79 32 10:37 18.09.2021
6444 Clear 21 1014 74 10000 0.89 324 09:55 18.09.2021
6445 Clear 20 1014 76 10000 1.34 25 09:22 18.09.2021
6446 Clear 20 1013 74 10000 1.34 348 07:36 18.09.2021
6447 Clouds 25 1013 60 10000 0.89 219 00:42 18.09.2021
6448 Clouds 25 1013 54 10000 0.45 310 23:53 17.09.2021
6449 Clouds 26 1013 57 10000 1.34 300 22:43 17.09.2021
6450 Clear 26 1013 56 10000 1.34 272 22:21 17.09.2021
6451 Clear 28 1012 53 10000 1.79 241 21:27 17.09.2021
6452 Clear 30 1012 46 10000 2.68 224 19:29 17.09.2021
6453 Clear 31 1011 46 10000 2.68 222 17:57 17.09.2021
6454 Clear 31 1013 43 10000 1.79 252 16:33 17.09.2021
6455 Clear 29 1015 50 10000 1.34 182 14:32 17.09.2021
6456 Clear 25 1015 68 10000 1.34 87 11:30 17.09.2021
6457 Clear 21 1015 86 8000 0 0 09:24 17.09.2021
6458 Clear 20 1014 89 10000 0.45 335 07:36 17.09.2021
6459 Clear 21 1014 86 10000 0.89 159 04:25 17.09.2021
6460 Clear 24 1015 70 10000 0.89 231 23:41 16.09.2021
6461 Clear 25 1015 66 10000 2.24 275 22:33 16.09.2021
6462 Clear 26 1015 62 10000 1.79 247 21:52 16.09.2021
6463 Clear 27 1014 60 10000 1.79 240 21:27 16.09.2021
6464 Clear 28 1014 52 10000 1.34 220 20:28 16.09.2021
6465 Clouds 30 1014 45 10000 0.89 312 18:28 16.09.2021
6466 Clouds 29 1014 45 10000 1.34 327 17:58 16.09.2021
6467 Clouds 27 1016 53 10000 0.89 265 15:31 16.09.2021
6468 Clouds 26 1016 65 10000 0.89 203 14:35 16.09.2021
6469 Clouds 24 1017 75 10000 0.45 162 12:59 16.09.2021
6470 Clouds 23 1017 78 10000 0.89 165 12:36 16.09.2021
6471 Clouds 21 1018 88 10000 1.54 50 11:46 16.09.2021
6472 Clouds 20 1017 90 10000 0.89 132 10:40 16.09.2021
6473 Clouds 20 1017 91 10000 0.89 72 10:18 16.09.2021
6474 Mist 20 1016 92 10000 0.45 13 08:45 16.09.2021
6475 Clouds 19 1015 94 9000 0.51 170 07:46 16.09.2021
6476 Mist 19 1015 93 4500 0.45 280 06:56 16.09.2021
6477 Mist 19 1015 92 4200 0.45 247 06:32 16.09.2021
6478 Clear 20 1015 89 10000 0.45 279 02:58 16.09.2021
6479 Clear 21 1016 85 10000 1.34 227 00:46 16.09.2021
6480 Clear 22 1015 80 10000 0.89 232 22:59 15.09.2021
6481 Clear 22 1015 76 10000 0.89 225 22:20 15.09.2021
6482 Clouds 23 1014 73 10000 0.89 218 21:30 15.09.2021
6483 Clouds 25 1013 65 10000 1.79 245 20:26 15.09.2021
6484 Clouds 26 1013 61 10000 2.68 216 19:29 15.09.2021
6485 Clouds 26 1013 61 10000 1.79 243 18:37 15.09.2021
6486 Clouds 26 1013 63 10000 0.45 212 17:27 15.09.2021
6487 Clouds 25 1015 67 10000 8.75 270 16:28 15.09.2021
6488 Clouds 26 1014 63 10000 1.34 293 14:53 15.09.2021
6489 Clouds 25 1014 65 10000 1.34 298 14:33 15.09.2021
6490 Clouds 25 1014 68 10000 0.89 278 13:42 15.09.2021
6491 Clouds 25 1014 69 10000 0.89 247 13:23 15.09.2021
6492 Clouds 23 1014 74 10000 1.34 326 12:29 15.09.2021
6493 Clouds 23 1014 79 10000 0.89 177 11:50 15.09.2021
6494 Clouds 21 1014 88 10000 0.45 231 10:57 15.09.2021
6495 Clouds 21 1014 88 10000 0.89 237 10:57 15.09.2021
6496 Clouds 20 1013 93 10000 0.45 269 09:59 15.09.2021
6497 Clouds 19 1013 94 10000 0.89 224 08:46 15.09.2021
6498 Clouds 20 1012 93 10000 0.45 218 06:28 15.09.2021
6499 Clouds 20 1012 92 10000 1.34 229 00:41 15.09.2021
6500 Clouds 21 1011 92 10000 0.89 170 22:22 14.09.2021
6501 Clouds 21 1010 91 10000 0.45 222 21:19 14.09.2021
6502 Clouds 21 1010 89 1000 1.34 197 19:58 14.09.2021
6503 Clouds 23 1009 75 10000 2.24 238 18:44 14.09.2021
6504 Clouds 24 1009 74 10000 5.36 211 17:32 14.09.2021
6505 Clouds 26 1010 65 10000 2.57 170 15:59 14.09.2021
6506 Clouds 25 1010 67 10000 3.09 140 14:32 14.09.2021
6507 Clouds 24 1009 76 10000 1.79 164 13:33 14.09.2021
6508 Clouds 21 1011 89 10000 2.24 118 10:57 14.09.2021
6509 Clouds 21 1010 91 8000 2.68 124 09:52 14.09.2021
6510 Rain 21 1010 91 10000 2.68 131 09:18 14.09.2021
6511 Clouds 20 1011 92 7000 1.79 146 07:28 14.09.2021
6512 Rain 24 1011 71 10000 2.68 206 00:57 14.09.2021
6513 Rain 26 1010 58 10000 1.34 230 23:18 13.09.2021
6514 Clear 26 1010 64 10000 0.45 319 22:27 13.09.2021
6515 Clear 27 1009 62 10000 1.34 121 21:54 13.09.2021
6516 Clear 27 1009 61 10000 2.24 116 21:19 13.09.2021
6517 Clear 29 1009 54 10000 1.79 128 19:34 13.09.2021
6518 Clouds 29 1009 54 10000 2.68 139 18:44 13.09.2021
6519 Clouds 28 1010 56 10000 2.24 107 17:21 13.09.2021
6520 Clouds 27 1012 64 10000 0.89 141 15:55 13.09.2021
6521 Clouds 29 1011 48 10000 0.45 162 14:30 13.09.2021
6522 Clear 25 1010 63 10000 2.24 79 11:21 13.09.2021
6523 Clouds 24 1011 72 10000 2.24 59 09:54 13.09.2021
6524 Clear 24 1010 74 10000 0.89 119 07:57 13.09.2021
6525 Clear 26 1012 54 10000 1.79 208 00:18 13.09.2021
6526 Clear 27 1012 42 10000 1.34 280 22:42 12.09.2021
6527 Clear 28 1012 43 10000 0.89 261 22:20 12.09.2021
6528 Clouds 31 1009 36 10000 3.13 240 20:41 12.09.2021
6529 Clear 33 1009 35 10000 3.13 248 19:56 12.09.2021
6530 Clear 34 1009 32 10000 2.68 246 19:29 12.09.2021
6531 Clear 35 1008 29 10000 1.79 216 18:50 12.09.2021
6532 Clear 34 1009 29 10000 1.34 255 16:58 12.09.2021
6533 Clear 34 1010 28 10000 1.34 242 15:37 12.09.2021
6534 Clear 32 1011 32 10000 0.89 187 14:32 12.09.2021
6535 Clear 27 1013 53 10000 0.89 33 11:49 12.09.2021
6536 Clear 22 1013 70 10000 1.34 23 10:19 12.09.2021
6537 Clear 19 1013 83 10000 1.34 69 08:38 12.09.2021
6538 Clear 21 1013 86 10000 0.45 233 04:59 12.09.2021
6539 Clear 23 1014 76 10000 0.89 220 00:46 12.09.2021
6540 Clear 26 1014 54 10000 2.68 176 22:29 11.09.2021
6541 Clear 28 1013 45 10000 1.34 201 21:38 11.09.2021
6542 Clear 32 1012 36 10000 3.13 254 19:35 11.09.2021
6543 Clouds 34 1012 32 10000 1.79 217 17:56 11.09.2021
6544 Clear 34 1013 28 10000 1.79 225 16:41 11.09.2021
6545 Clear 33 1014 31 10000 0.89 282 14:45 11.09.2021
6546 Clear 30 1015 41 10000 0.89 264 13:22 11.09.2021
6547 Clear 27 1016 51 10000 1.79 62 11:40 11.09.2021
6548 Clear 22 1016 68 10000 1.34 73 09:42 11.09.2021
6549 Clear 20 1016 76 10000 1.34 18 08:31 11.09.2021
6550 Clear 20 1015 76 10000 0.89 79 07:34 11.09.2021
6551 Clear 21 1017 72 10000 1.34 227 02:29 11.09.2021
6552 Clear 25 1018 56 10000 0.89 284 22:27 10.09.2021
6553 Clear 26 1018 52 10000 1.79 258 21:56 10.09.2021
6554 Clear 27 1017 50 10000 3.13 286 21:25 10.09.2021
6555 Clear 31 1015 42 10000 2.68 216 18:43 10.09.2021
6556 Clear 32 1015 38 10000 2.24 235 17:42 10.09.2021
6557 Clear 31 1016 38 10000 0.89 318 15:38 10.09.2021
6558 Clear 27 1018 50 10000 0.89 240 13:18 10.09.2021
6559 Clear 23 1018 70 10000 1.79 22 10:32 10.09.2021
6560 Clear 19 1017 84 10000 0.51 0 07:51 10.09.2021
6561 Clear 21 1016 82 10000 0.89 239 04:33 10.09.2021
6562 Clear 23 1016 69 10000 1.34 220 23:52 09.09.2021
6563 Clear 25 1015 61 10000 2.24 210 21:47 09.09.2021
6564 Clear 26 1015 57 10000 2.68 241 20:47 09.09.2021
6565 Clear 27 1015 56 10000 2.68 236 20:23 09.09.2021
6566 Clear 27 1015 56 10000 2.68 236 20:23 09.09.2021
6567 Clear 30 1014 45 10000 1.34 266 18:37 09.09.2021
6568 Clear 30 1014 44 10000 2.68 173 17:41 09.09.2021
6569 Clear 29 1015 42 10000 0.89 283 16:27 09.09.2021
6570 Clouds 27 1016 52 10000 0.89 25 13:35 09.09.2021
6571 Clouds 25 1017 61 10000 1.34 345 11:50 09.09.2021
6572 Clear 24 1016 67 10000 2.24 331 10:54 09.09.2021
6573 Clear 21 1016 75 10000 0.45 322 09:34 09.09.2021
6574 Clear 20 1016 77 10000 0.89 293 07:34 09.09.2021
6575 Clear 21 1016 71 10000 0.45 278 04:47 09.09.2021
6576 Clear 24 1015 67 10000 2.24 250 22:58 08.09.2021
6577 Clear 25 1014 62 10000 2.24 241 21:47 08.09.2021
6578 Clear 27 1013 55 10000 3.58 254 20:37 08.09.2021
6579 Clear 28 1013 51 10000 4.02 263 19:44 08.09.2021
6580 Clouds 30 1013 43 10000 2.68 270 18:34 08.09.2021
6581 Clouds 31 1013 38 10000 2.24 268 17:59 08.09.2021
6582 Clouds 31 1013 37 10000 2.24 315 17:39 08.09.2021
6583 Clear 29 1016 41 10000 0.89 255 14:57 08.09.2021
6584 Clear 27 1016 50 10000 1.79 292 13:28 08.09.2021
6585 Clouds 26 1017 58 10000 1.79 284 12:41 08.09.2021
6586 Clouds 26 1017 58 10000 1.79 284 12:22 08.09.2021
6587 Clear 24 1016 69 10000 0.89 197 11:26 08.09.2021
6588 Clear 23 1016 78 10000 0.89 233 10:31 08.09.2021
6589 Clear 21 1016 84 10000 0.45 174 09:37 08.09.2021
6590 Clouds 20 1015 88 10000 0.89 28 07:44 08.09.2021
6591 Clear 20 1015 89 10000 0.45 238 06:40 08.09.2021
6592 Clear 24 1015 77 10000 1.34 241 23:18 07.09.2021
6593 Clear 25 1014 73 10000 3.58 257 22:19 07.09.2021
6594 Clear 28 1013 60 10000 2.24 243 20:41 07.09.2021
6595 Clear 31 1013 47 10000 3.58 266 18:53 07.09.2021
6596 Clear 32 1013 42 10000 3.13 250 18:25 07.09.2021
6597 Clear 32 1013 41 10000 2.68 244 17:25 07.09.2021
6598 Clear 32 1014 39 10000 2.68 216 15:56 07.09.2021
6599 Clear 31 1014 45 10000 2.68 228 14:48 07.09.2021
6600 Clear 30 1015 52 10000 2.24 234 13:52 07.09.2021
6601 Clouds 26 1017 71 10000 2.06 0 11:58 07.09.2021
6602 Clouds 24 1017 79 10000 2.57 240 10:48 07.09.2021
6603 Clear 23 1015 85 10000 3.58 242 09:40 07.09.2021
6604 Clear 23 1014 85 10000 0.45 317 07:46 07.09.2021
6605 Clear 23 1013 83 10000 1.34 341 06:19 07.09.2021
6606 Clear 24 1014 75 10000 0.89 335 02:38 07.09.2021
6607 Clear 25 1014 73 10000 1.34 330 01:57 07.09.2021
6608 Clear 28 1014 55 10000 1.34 255 23:49 06.09.2021
6609 Clear 28 1013 54 10000 1.79 265 23:30 06.09.2021
6610 Clear 29 1014 50 10000 1.79 263 22:51 06.09.2021
6611 Clear 31 1014 44 10000 0.89 248 21:55 06.09.2021
6612 Clear 35 1011 36 10000 0.89 261 20:35 06.09.2021
6613 Clear 35 1011 33 10000 1.34 230 19:19 06.09.2021
6614 Clear 35 1011 33 10000 0.89 233 18:35 06.09.2021
6615 Clouds 35 1011 33 10000 0.89 258 17:50 06.09.2021
6616 Clear 35 1013 32 10000 0.45 233 16:20 06.09.2021
6617 Clear 33 1013 36 10000 0.89 214 14:59 06.09.2021
6618 Clear 30 1015 51 10000 3.09 230 12:59 06.09.2021
6619 Clear 29 1015 54 10000 2.57 230 12:41 06.09.2021
6620 Clear 29 1015 54 10000 2.57 230 12:41 06.09.2021
6621 Clear 26 1014 66 10000 1.34 311 10:27 06.09.2021
6622 Clear 26 1011 57 10000 2.68 319 07:39 06.09.2021
6623 Clear 28 1010 47 10000 0.89 45 04:27 06.09.2021
6624 Clouds 29 1013 54 9000 1.79 163 23:23 05.09.2021
6625 Clouds 29 1013 53 7000 1.79 14 22:33 05.09.2021
6626 Clear 30 1014 48 10000 8.49 257 21:56 05.09.2021
6627 Clear 34 1012 33 10000 2.24 244 21:20 05.09.2021
6628 Clear 37 1010 27 10000 0.45 277 19:45 05.09.2021
6629 Clear 37 1010 27 10000 1.34 241 17:52 05.09.2021
6630 Clear 36 1011 28 10000 1.34 144 16:33 05.09.2021
6631 Clear 34 1012 29 10000 1.79 232 15:20 05.09.2021
6632 Clear 30 1014 41 10000 1.34 62 12:44 05.09.2021
6633 Clear 27 1014 51 10000 2.24 42 11:35 05.09.2021
6634 Clear 25 1014 54 10000 2.24 81 10:42 05.09.2021
6635 Clear 23 1014 63 10000 1.34 6 09:35 05.09.2021
6636 Clear 21 1013 66 10000 1.34 341 08:34 05.09.2021
6637 Clear 22 1013 68 10000 0.51 0 05:47 05.09.2021
6638 Clear 25 1013 56 10000 1.34 226 00:41 05.09.2021
6639 Clear 26 1012 54 10000 1.79 209 23:59 04.09.2021
6640 Clear 27 1012 52 10000 1.79 234 23:25 04.09.2021
6641 Clear 28 1013 48 10000 0.89 250 22:35 04.09.2021
6642 Clear 30 1012 42 10000 1.34 273 21:18 04.09.2021
6643 Clear 34 1010 36 10000 2.24 240 19:33 04.09.2021
6644 Clear 34 1010 32 10000 1.34 223 17:25 04.09.2021
6645 Clear 33 1011 35 10000 1.34 285 15:41 04.09.2021
6646 Clear 27 1014 55 10000 0.45 177 11:54 04.09.2021
6647 Clear 25 1013 60 10000 0.45 282 10:55 04.09.2021
6648 Clear 20 1013 75 10000 0.89 7 08:39 04.09.2021
6649 Clear 25 1014 52 10000 1.34 290 00:50 04.09.2021
6650 Clear 25 1014 52 10000 1.79 277 00:19 04.09.2021
6651 Clear 26 1014 48 10000 2.24 269 23:22 03.09.2021
6652 Clear 28 1014 45 10000 1.34 271 21:43 03.09.2021